<?xml version="1.0" encoding="UTF-8" standalone="no" ?>
<gpx xmlns="http://www.topografix.com/GPX/1/1" xmlns:xsi="http://www.w3.org/2001/XMLSchema-instance" xsi:schemaLocation="http://www.topografix.com/GPX/1/1 http://www.topografix.com/GPX/1/1/gpx.xsd" version="1.1" creator="VisuGPX - https://www.visugpx.com">
  <metadata>
    <name>De Varrains à Champigny</name>
    <desc><![CDATA[Randonnée entre Thouet et vignes.]]></desc>
  </metadata>
  <trk>
    <name><![CDATA[2-14 Rue de la Mairie]]></name>
    <desc><![CDATA[]]></desc>
    <trkseg>
      <trkpt lat="47.22283" lon="-0.06676">
        <ele>37</ele>
        <time>2013-02-04T08:08:13.694Z</time>
      </trkpt>
      <trkpt lat="47.22284" lon="-0.06673">
        <ele>37</ele>
        <time>2013-02-04T08:08:24.999Z</time>
      </trkpt>
      <trkpt lat="47.22289" lon="-0.06664">
        <ele>37</ele>
        <time>2013-02-04T08:08:25.999Z</time>
      </trkpt>
      <trkpt lat="47.22293" lon="-0.06663">
        <ele>37</ele>
        <time>2013-02-04T08:08:40.999Z</time>
      </trkpt>
      <trkpt lat="47.223" lon="-0.06661">
        <ele>37</ele>
        <time>2013-02-04T08:08:41.999Z</time>
      </trkpt>
      <trkpt lat="47.22301" lon="-0.06659">
        <ele>37</ele>
        <time>2013-02-04T08:08:45.999Z</time>
      </trkpt>
      <trkpt lat="47.22306" lon="-0.06653">
        <ele>37</ele>
        <time>2013-02-04T08:08:46.999Z</time>
      </trkpt>
      <trkpt lat="47.22306" lon="-0.06653">
        <ele>37</ele>
        <time>2013-02-04T08:08:54.999Z</time>
      </trkpt>
      <trkpt lat="47.22312" lon="-0.06652">
        <ele>37</ele>
        <time>2013-02-04T08:08:55.999Z</time>
      </trkpt>
      <trkpt lat="47.22315" lon="-0.06654">
        <ele>37</ele>
        <time>2013-02-04T08:08:58.999Z</time>
      </trkpt>
      <trkpt lat="47.22316" lon="-0.06656">
        <ele>37</ele>
        <time>2013-02-04T08:08:59.999Z</time>
      </trkpt>
      <trkpt lat="47.22319" lon="-0.0666">
        <ele>37</ele>
        <time>2013-02-04T08:09:05.999Z</time>
      </trkpt>
      <trkpt lat="47.22319" lon="-0.06661">
        <ele>37</ele>
        <time>2013-02-04T08:09:06.999Z</time>
      </trkpt>
      <trkpt lat="47.22321" lon="-0.06663">
        <ele>37</ele>
        <time>2013-02-04T08:09:08.999Z</time>
      </trkpt>
      <trkpt lat="47.22321" lon="-0.06667">
        <ele>38</ele>
        <time>2013-02-04T08:09:09.999Z</time>
      </trkpt>
      <trkpt lat="47.22323" lon="-0.0667">
        <ele>38</ele>
        <time>2013-02-04T08:09:12.999Z</time>
      </trkpt>
      <trkpt lat="47.22324" lon="-0.06673">
        <ele>38</ele>
        <time>2013-02-04T08:09:13.999Z</time>
      </trkpt>
      <trkpt lat="47.22327" lon="-0.06677">
        <ele>38</ele>
        <time>2013-02-04T08:09:17.999Z</time>
      </trkpt>
      <trkpt lat="47.22327" lon="-0.0668">
        <ele>38</ele>
        <time>2013-02-04T08:09:18.999Z</time>
      </trkpt>
      <trkpt lat="47.2233" lon="-0.06685">
        <ele>38</ele>
        <time>2013-02-04T08:09:25.999Z</time>
      </trkpt>
      <trkpt lat="47.2233" lon="-0.06687">
        <ele>38</ele>
        <time>2013-02-04T08:09:26.999Z</time>
      </trkpt>
      <trkpt lat="47.22332" lon="-0.0669">
        <ele>38</ele>
        <time>2013-02-04T08:09:28.999Z</time>
      </trkpt>
      <trkpt lat="47.22333" lon="-0.06693">
        <ele>38</ele>
        <time>2013-02-04T08:09:29.999Z</time>
      </trkpt>
      <trkpt lat="47.22335" lon="-0.06697">
        <ele>39</ele>
        <time>2013-02-04T08:09:32.999Z</time>
      </trkpt>
      <trkpt lat="47.22335" lon="-0.067">
        <ele>39</ele>
        <time>2013-02-04T08:09:33.999Z</time>
      </trkpt>
      <trkpt lat="47.22338" lon="-0.06705">
        <ele>39</ele>
        <time>2013-02-04T08:09:39.999Z</time>
      </trkpt>
      <trkpt lat="47.22338" lon="-0.06705">
        <ele>39</ele>
        <time>2013-02-04T08:09:40.999Z</time>
      </trkpt>
      <trkpt lat="47.22341" lon="-0.06707">
        <ele>39</ele>
        <time>2013-02-04T08:09:47.999Z</time>
      </trkpt>
      <trkpt lat="47.22342" lon="-0.06708">
        <ele>39</ele>
        <time>2013-02-04T08:09:48.999Z</time>
      </trkpt>
      <trkpt lat="47.22345" lon="-0.06709">
        <ele>39</ele>
        <time>2013-02-04T08:09:51.999Z</time>
      </trkpt>
      <trkpt lat="47.22346" lon="-0.0671">
        <ele>39</ele>
        <time>2013-02-04T08:09:52.999Z</time>
      </trkpt>
      <trkpt lat="47.2235" lon="-0.06707">
        <ele>39</ele>
        <time>2013-02-04T08:09:56.999Z</time>
      </trkpt>
      <trkpt lat="47.2235" lon="-0.06707">
        <ele>39</ele>
        <time>2013-02-04T08:09:57.999Z</time>
      </trkpt>
      <trkpt lat="47.22354" lon="-0.0671">
        <ele>39</ele>
        <time>2013-02-04T08:10:02.999Z</time>
      </trkpt>
      <trkpt lat="47.22355" lon="-0.06711">
        <ele>39</ele>
        <time>2013-02-04T08:10:03.999Z</time>
      </trkpt>
      <trkpt lat="47.22359" lon="-0.06711">
        <ele>39</ele>
        <time>2013-02-04T08:10:07.999Z</time>
      </trkpt>
      <trkpt lat="47.2236" lon="-0.06711">
        <ele>39</ele>
        <time>2013-02-04T08:10:08.999Z</time>
      </trkpt>
      <trkpt lat="47.22364" lon="-0.06709">
        <ele>39</ele>
        <time>2013-02-04T08:10:11.999Z</time>
      </trkpt>
      <trkpt lat="47.22366" lon="-0.06707">
        <ele>39</ele>
        <time>2013-02-04T08:10:12.999Z</time>
      </trkpt>
      <trkpt lat="47.22369" lon="-0.06703">
        <ele>39</ele>
        <time>2013-02-04T08:10:15.999Z</time>
      </trkpt>
      <trkpt lat="47.2237" lon="-0.06701">
        <ele>39</ele>
        <time>2013-02-04T08:10:16.999Z</time>
      </trkpt>
      <trkpt lat="47.22373" lon="-0.067">
        <ele>39</ele>
        <time>2013-02-04T08:10:18.999Z</time>
      </trkpt>
      <trkpt lat="47.22375" lon="-0.067">
        <ele>39</ele>
        <time>2013-02-04T08:10:19.999Z</time>
      </trkpt>
      <trkpt lat="47.22378" lon="-0.067">
        <ele>40</ele>
        <time>2013-02-04T08:10:22.999Z</time>
      </trkpt>
      <trkpt lat="47.2238" lon="-0.06699">
        <ele>40</ele>
        <time>2013-02-04T08:10:23.999Z</time>
      </trkpt>
      <trkpt lat="47.22383" lon="-0.06697">
        <ele>40</ele>
        <time>2013-02-04T08:10:24.999Z</time>
      </trkpt>
      <trkpt lat="47.22385" lon="-0.06696">
        <ele>40</ele>
        <time>2013-02-04T08:10:25.999Z</time>
      </trkpt>
      <trkpt lat="47.22388" lon="-0.06693">
        <ele>40</ele>
        <time>2013-02-04T08:10:27.999Z</time>
      </trkpt>
      <trkpt lat="47.22389" lon="-0.06692">
        <ele>40</ele>
        <time>2013-02-04T08:10:28.999Z</time>
      </trkpt>
      <trkpt lat="47.22393" lon="-0.06691">
        <ele>40</ele>
        <time>2013-02-04T08:10:33.999Z</time>
      </trkpt>
      <trkpt lat="47.22394" lon="-0.06691">
        <ele>40</ele>
        <time>2013-02-04T08:10:34.999Z</time>
      </trkpt>
      <trkpt lat="47.22397" lon="-0.06689">
        <ele>40</ele>
        <time>2013-02-04T08:10:36.999Z</time>
      </trkpt>
      <trkpt lat="47.22399" lon="-0.06688">
        <ele>40</ele>
        <time>2013-02-04T08:10:37.999Z</time>
      </trkpt>
      <trkpt lat="47.22402" lon="-0.06686">
        <ele>40</ele>
        <time>2013-02-04T08:10:41.999Z</time>
      </trkpt>
      <trkpt lat="47.22403" lon="-0.06686">
        <ele>40</ele>
        <time>2013-02-04T08:10:42.999Z</time>
      </trkpt>
      <trkpt lat="47.22407" lon="-0.06684">
        <ele>40</ele>
        <time>2013-02-04T08:10:51.999Z</time>
      </trkpt>
      <trkpt lat="47.22409" lon="-0.06683">
        <ele>40</ele>
        <time>2013-02-04T08:10:52.999Z</time>
      </trkpt>
      <trkpt lat="47.22413" lon="-0.0668">
        <ele>40</ele>
        <time>2013-02-04T08:10:55.999Z</time>
      </trkpt>
      <trkpt lat="47.22414" lon="-0.06679">
        <ele>40</ele>
        <time>2013-02-04T08:10:56.999Z</time>
      </trkpt>
      <trkpt lat="47.22417" lon="-0.06676">
        <ele>41</ele>
        <time>2013-02-04T08:11:01.999Z</time>
      </trkpt>
      <trkpt lat="47.22417" lon="-0.06675">
        <ele>41</ele>
        <time>2013-02-04T08:11:02.999Z</time>
      </trkpt>
      <trkpt lat="47.2242" lon="-0.06674">
        <ele>41</ele>
        <time>2013-02-04T08:11:04.999Z</time>
      </trkpt>
      <trkpt lat="47.22422" lon="-0.06674">
        <ele>41</ele>
        <time>2013-02-04T08:11:05.999Z</time>
      </trkpt>
      <trkpt lat="47.22426" lon="-0.06672">
        <ele>41</ele>
        <time>2013-02-04T08:11:08.999Z</time>
      </trkpt>
      <trkpt lat="47.22427" lon="-0.0667">
        <ele>41</ele>
        <time>2013-02-04T08:11:09.999Z</time>
      </trkpt>
      <trkpt lat="47.22431" lon="-0.06668">
        <ele>41</ele>
        <time>2013-02-04T08:11:16.999Z</time>
      </trkpt>
      <trkpt lat="47.22432" lon="-0.06667">
        <ele>41</ele>
        <time>2013-02-04T08:11:17.999Z</time>
      </trkpt>
      <trkpt lat="47.22435" lon="-0.06666">
        <ele>41</ele>
        <time>2013-02-04T08:11:26.999Z</time>
      </trkpt>
      <trkpt lat="47.22436" lon="-0.06665">
        <ele>42</ele>
        <time>2013-02-04T08:11:27.999Z</time>
      </trkpt>
      <trkpt lat="47.22438" lon="-0.06662">
        <ele>42</ele>
        <time>2013-02-04T08:11:30.999Z</time>
      </trkpt>
      <trkpt lat="47.2244" lon="-0.0666">
        <ele>42</ele>
        <time>2013-02-04T08:11:31.999Z</time>
      </trkpt>
      <trkpt lat="47.22443" lon="-0.06658">
        <ele>42</ele>
        <time>2013-02-04T08:11:35.999Z</time>
      </trkpt>
      <trkpt lat="47.22444" lon="-0.06658">
        <ele>42</ele>
        <time>2013-02-04T08:11:36.999Z</time>
      </trkpt>
      <trkpt lat="47.22447" lon="-0.06657">
        <ele>42</ele>
        <time>2013-02-04T08:11:39.999Z</time>
      </trkpt>
      <trkpt lat="47.22449" lon="-0.06656">
        <ele>42</ele>
        <time>2013-02-04T08:11:40.999Z</time>
      </trkpt>
      <trkpt lat="47.22452" lon="-0.06653">
        <ele>42</ele>
        <time>2013-02-04T08:11:50.999Z</time>
      </trkpt>
      <trkpt lat="47.22453" lon="-0.06653">
        <ele>42</ele>
        <time>2013-02-04T08:11:51.999Z</time>
      </trkpt>
      <trkpt lat="47.22457" lon="-0.06652">
        <ele>42</ele>
        <time>2013-02-04T08:11:55.999Z</time>
      </trkpt>
      <trkpt lat="47.22458" lon="-0.06651">
        <ele>42</ele>
        <time>2013-02-04T08:11:56.999Z</time>
      </trkpt>
      <trkpt lat="47.2246" lon="-0.0665">
        <ele>42</ele>
        <time>2013-02-04T08:11:58.999Z</time>
      </trkpt>
      <trkpt lat="47.22462" lon="-0.0665">
        <ele>42</ele>
        <time>2013-02-04T08:11:59.999Z</time>
      </trkpt>
      <trkpt lat="47.22464" lon="-0.06649">
        <ele>42</ele>
        <time>2013-02-04T08:12:01.999Z</time>
      </trkpt>
      <trkpt lat="47.22467" lon="-0.06647">
        <ele>42</ele>
        <time>2013-02-04T08:12:02.999Z</time>
      </trkpt>
      <trkpt lat="47.2247" lon="-0.06645">
        <ele>42</ele>
        <time>2013-02-04T08:12:03.999Z</time>
      </trkpt>
      <trkpt lat="47.22472" lon="-0.06643">
        <ele>42</ele>
        <time>2013-02-04T08:12:04.999Z</time>
      </trkpt>
      <trkpt lat="47.22475" lon="-0.06641">
        <ele>42</ele>
        <time>2013-02-04T08:12:05.999Z</time>
      </trkpt>
      <trkpt lat="47.22478" lon="-0.06639">
        <ele>42</ele>
        <time>2013-02-04T08:12:06.999Z</time>
      </trkpt>
      <trkpt lat="47.22482" lon="-0.06637">
        <ele>42</ele>
        <time>2013-02-04T08:12:09.999Z</time>
      </trkpt>
      <trkpt lat="47.22483" lon="-0.06637">
        <ele>42</ele>
        <time>2013-02-04T08:12:10.999Z</time>
      </trkpt>
      <trkpt lat="47.22487" lon="-0.06636">
        <ele>43</ele>
        <time>2013-02-04T08:12:13.999Z</time>
      </trkpt>
      <trkpt lat="47.2249" lon="-0.06635">
        <ele>43</ele>
        <time>2013-02-04T08:12:14.999Z</time>
      </trkpt>
      <trkpt lat="47.22493" lon="-0.06633">
        <ele>43</ele>
        <time>2013-02-04T08:12:16.999Z</time>
      </trkpt>
      <trkpt lat="47.22494" lon="-0.06632">
        <ele>43</ele>
        <time>2013-02-04T08:12:17.999Z</time>
      </trkpt>
      <trkpt lat="47.22497" lon="-0.06629">
        <ele>43</ele>
        <time>2013-02-04T08:12:20.999Z</time>
      </trkpt>
      <trkpt lat="47.22499" lon="-0.06628">
        <ele>43</ele>
        <time>2013-02-04T08:12:21.999Z</time>
      </trkpt>
      <trkpt lat="47.22502" lon="-0.06625">
        <ele>46</ele>
        <time>2013-02-04T08:12:24.999Z</time>
      </trkpt>
      <trkpt lat="47.22503" lon="-0.06623">
        <ele>46</ele>
        <time>2013-02-04T08:12:25.999Z</time>
      </trkpt>
      <trkpt lat="47.22507" lon="-0.06621">
        <ele>46</ele>
        <time>2013-02-04T08:12:29.999Z</time>
      </trkpt>
      <trkpt lat="47.22509" lon="-0.0662">
        <ele>46</ele>
        <time>2013-02-04T08:12:30.999Z</time>
      </trkpt>
      <trkpt lat="47.22512" lon="-0.06617">
        <ele>46</ele>
        <time>2013-02-04T08:12:35.999Z</time>
      </trkpt>
      <trkpt lat="47.22513" lon="-0.06616">
        <ele>46</ele>
        <time>2013-02-04T08:12:36.999Z</time>
      </trkpt>
      <trkpt lat="47.22517" lon="-0.06613">
        <ele>46</ele>
        <time>2013-02-04T08:12:43.999Z</time>
      </trkpt>
      <trkpt lat="47.22518" lon="-0.06614">
        <ele>46</ele>
        <time>2013-02-04T08:12:44.999Z</time>
      </trkpt>
      <trkpt lat="47.2252" lon="-0.06611">
        <ele>46</ele>
        <time>2013-02-04T08:12:47.999Z</time>
      </trkpt>
      <trkpt lat="47.22521" lon="-0.0661">
        <ele>46</ele>
        <time>2013-02-04T08:12:48.999Z</time>
      </trkpt>
      <trkpt lat="47.22525" lon="-0.06609">
        <ele>46</ele>
        <time>2013-02-04T08:12:51.999Z</time>
      </trkpt>
      <trkpt lat="47.22526" lon="-0.06609">
        <ele>46</ele>
        <time>2013-02-04T08:12:52.999Z</time>
      </trkpt>
      <trkpt lat="47.22529" lon="-0.06607">
        <ele>46</ele>
        <time>2013-02-04T08:12:56.999Z</time>
      </trkpt>
      <trkpt lat="47.2253" lon="-0.06607">
        <ele>46</ele>
        <time>2013-02-04T08:12:57.999Z</time>
      </trkpt>
      <trkpt lat="47.22533" lon="-0.06604">
        <ele>46</ele>
        <time>2013-02-04T08:12:59.999Z</time>
      </trkpt>
      <trkpt lat="47.22534" lon="-0.06603">
        <ele>46</ele>
        <time>2013-02-04T08:13:00.999Z</time>
      </trkpt>
      <trkpt lat="47.22538" lon="-0.06601">
        <ele>46</ele>
        <time>2013-02-04T08:13:04.999Z</time>
      </trkpt>
      <trkpt lat="47.22538" lon="-0.06601">
        <ele>47</ele>
        <time>2013-02-04T08:13:05.999Z</time>
      </trkpt>
      <trkpt lat="47.22542" lon="-0.06601">
        <ele>47</ele>
        <time>2013-02-04T08:13:08.999Z</time>
      </trkpt>
      <trkpt lat="47.22543" lon="-0.06601">
        <ele>47</ele>
        <time>2013-02-04T08:13:09.999Z</time>
      </trkpt>
      <trkpt lat="47.22547" lon="-0.066">
        <ele>47</ele>
        <time>2013-02-04T08:13:13.999Z</time>
      </trkpt>
      <trkpt lat="47.22549" lon="-0.06599">
        <ele>47</ele>
        <time>2013-02-04T08:13:14.999Z</time>
      </trkpt>
      <trkpt lat="47.22553" lon="-0.06599">
        <ele>47</ele>
        <time>2013-02-04T08:13:18.999Z</time>
      </trkpt>
      <trkpt lat="47.22554" lon="-0.06599">
        <ele>47</ele>
        <time>2013-02-04T08:13:19.999Z</time>
      </trkpt>
      <trkpt lat="47.22558" lon="-0.066">
        <ele>47</ele>
        <time>2013-02-04T08:13:22.999Z</time>
      </trkpt>
      <trkpt lat="47.22559" lon="-0.06599">
        <ele>47</ele>
        <time>2013-02-04T08:13:23.999Z</time>
      </trkpt>
      <trkpt lat="47.22563" lon="-0.066">
        <ele>47</ele>
        <time>2013-02-04T08:13:27.999Z</time>
      </trkpt>
      <trkpt lat="47.22564" lon="-0.066">
        <ele>47</ele>
        <time>2013-02-04T08:13:28.999Z</time>
      </trkpt>
      <trkpt lat="47.22568" lon="-0.06601">
        <ele>48</ele>
        <time>2013-02-04T08:13:34.999Z</time>
      </trkpt>
      <trkpt lat="47.22569" lon="-0.06602">
        <ele>48</ele>
        <time>2013-02-04T08:13:35.999Z</time>
      </trkpt>
      <trkpt lat="47.22572" lon="-0.06604">
        <ele>48</ele>
        <time>2013-02-04T08:13:38.999Z</time>
      </trkpt>
      <trkpt lat="47.22574" lon="-0.06604">
        <ele>48</ele>
        <time>2013-02-04T08:13:39.999Z</time>
      </trkpt>
      <trkpt lat="47.22577" lon="-0.06607">
        <ele>48</ele>
        <time>2013-02-04T08:13:41.999Z</time>
      </trkpt>
      <trkpt lat="47.22578" lon="-0.06608">
        <ele>48</ele>
        <time>2013-02-04T08:13:42.999Z</time>
      </trkpt>
      <trkpt lat="47.22581" lon="-0.0661">
        <ele>48</ele>
        <time>2013-02-04T08:13:44.999Z</time>
      </trkpt>
      <trkpt lat="47.22582" lon="-0.06611">
        <ele>48</ele>
        <time>2013-02-04T08:13:45.999Z</time>
      </trkpt>
      <trkpt lat="47.22586" lon="-0.06613">
        <ele>51</ele>
        <time>2013-02-04T08:13:49.999Z</time>
      </trkpt>
      <trkpt lat="47.22586" lon="-0.06613">
        <ele>51</ele>
        <time>2013-02-04T08:13:50.999Z</time>
      </trkpt>
      <trkpt lat="47.2259" lon="-0.06616">
        <ele>51</ele>
        <time>2013-02-04T08:13:54.999Z</time>
      </trkpt>
      <trkpt lat="47.2259" lon="-0.06616">
        <ele>51</ele>
        <time>2013-02-04T08:13:55.999Z</time>
      </trkpt>
      <trkpt lat="47.22593" lon="-0.06619">
        <ele>52</ele>
        <time>2013-02-04T08:13:58.999Z</time>
      </trkpt>
      <trkpt lat="47.22594" lon="-0.0662">
        <ele>52</ele>
        <time>2013-02-04T08:13:59.999Z</time>
      </trkpt>
      <trkpt lat="47.22597" lon="-0.06625">
        <ele>52</ele>
        <time>2013-02-04T08:14:03.999Z</time>
      </trkpt>
      <trkpt lat="47.22597" lon="-0.06626">
        <ele>52</ele>
        <time>2013-02-04T08:14:04.999Z</time>
      </trkpt>
      <trkpt lat="47.226" lon="-0.0663">
        <ele>52</ele>
        <time>2013-02-04T08:14:06.999Z</time>
      </trkpt>
      <trkpt lat="47.226" lon="-0.06632">
        <ele>52</ele>
        <time>2013-02-04T08:14:07.999Z</time>
      </trkpt>
      <trkpt lat="47.22603" lon="-0.06637">
        <ele>52</ele>
        <time>2013-02-04T08:14:10.999Z</time>
      </trkpt>
      <trkpt lat="47.22603" lon="-0.06638">
        <ele>52</ele>
        <time>2013-02-04T08:14:11.999Z</time>
      </trkpt>
      <trkpt lat="47.22606" lon="-0.06642">
        <ele>52</ele>
        <time>2013-02-04T08:14:14.999Z</time>
      </trkpt>
      <trkpt lat="47.22607" lon="-0.06643">
        <ele>52</ele>
        <time>2013-02-04T08:14:15.999Z</time>
      </trkpt>
      <trkpt lat="47.22609" lon="-0.06648">
        <ele>52</ele>
        <time>2013-02-04T08:14:18.999Z</time>
      </trkpt>
      <trkpt lat="47.22609" lon="-0.06649">
        <ele>52</ele>
        <time>2013-02-04T08:14:19.999Z</time>
      </trkpt>
      <trkpt lat="47.22612" lon="-0.06653">
        <ele>52</ele>
        <time>2013-02-04T08:14:22.999Z</time>
      </trkpt>
      <trkpt lat="47.22612" lon="-0.06654">
        <ele>52</ele>
        <time>2013-02-04T08:14:23.999Z</time>
      </trkpt>
      <trkpt lat="47.22613" lon="-0.06658">
        <ele>52</ele>
        <time>2013-02-04T08:14:25.999Z</time>
      </trkpt>
      <trkpt lat="47.22614" lon="-0.0666">
        <ele>52</ele>
        <time>2013-02-04T08:14:26.999Z</time>
      </trkpt>
      <trkpt lat="47.22617" lon="-0.06665">
        <ele>52</ele>
        <time>2013-02-04T08:14:28.999Z</time>
      </trkpt>
      <trkpt lat="47.22618" lon="-0.06666">
        <ele>52</ele>
        <time>2013-02-04T08:14:29.999Z</time>
      </trkpt>
      <trkpt lat="47.22621" lon="-0.0667">
        <ele>51</ele>
        <time>2013-02-04T08:14:32.999Z</time>
      </trkpt>
      <trkpt lat="47.22622" lon="-0.06671">
        <ele>51</ele>
        <time>2013-02-04T08:14:33.999Z</time>
      </trkpt>
      <trkpt lat="47.22624" lon="-0.06675">
        <ele>51</ele>
        <time>2013-02-04T08:14:36.999Z</time>
      </trkpt>
      <trkpt lat="47.22626" lon="-0.06676">
        <ele>51</ele>
        <time>2013-02-04T08:14:37.999Z</time>
      </trkpt>
      <trkpt lat="47.22628" lon="-0.06681">
        <ele>51</ele>
        <time>2013-02-04T08:14:41.999Z</time>
      </trkpt>
      <trkpt lat="47.22629" lon="-0.06682">
        <ele>51</ele>
        <time>2013-02-04T08:14:42.999Z</time>
      </trkpt>
      <trkpt lat="47.22631" lon="-0.06686">
        <ele>52</ele>
        <time>2013-02-04T08:14:45.999Z</time>
      </trkpt>
      <trkpt lat="47.22632" lon="-0.06687">
        <ele>52</ele>
        <time>2013-02-04T08:14:46.999Z</time>
      </trkpt>
      <trkpt lat="47.22635" lon="-0.06692">
        <ele>52</ele>
        <time>2013-02-04T08:14:49.999Z</time>
      </trkpt>
      <trkpt lat="47.22636" lon="-0.06693">
        <ele>52</ele>
        <time>2013-02-04T08:14:50.999Z</time>
      </trkpt>
      <trkpt lat="47.22639" lon="-0.06695">
        <ele>52</ele>
        <time>2013-02-04T08:14:52.999Z</time>
      </trkpt>
      <trkpt lat="47.2264" lon="-0.06696">
        <ele>52</ele>
        <time>2013-02-04T08:14:53.999Z</time>
      </trkpt>
      <trkpt lat="47.22643" lon="-0.067">
        <ele>52</ele>
        <time>2013-02-04T08:14:56.999Z</time>
      </trkpt>
      <trkpt lat="47.22643" lon="-0.06702">
        <ele>52</ele>
        <time>2013-02-04T08:14:57.999Z</time>
      </trkpt>
      <trkpt lat="47.22647" lon="-0.06702">
        <ele>52</ele>
        <time>2013-02-04T08:15:10.999Z</time>
      </trkpt>
      <trkpt lat="47.22647" lon="-0.067">
        <ele>52</ele>
        <time>2013-02-04T08:15:11.999Z</time>
      </trkpt>
      <trkpt lat="47.2265" lon="-0.06696">
        <ele>52</ele>
        <time>2013-02-04T08:15:15.999Z</time>
      </trkpt>
      <trkpt lat="47.22651" lon="-0.06693">
        <ele>52</ele>
        <time>2013-02-04T08:15:16.999Z</time>
      </trkpt>
      <trkpt lat="47.22652" lon="-0.06689">
        <ele>52</ele>
        <time>2013-02-04T08:15:18.999Z</time>
      </trkpt>
      <trkpt lat="47.22653" lon="-0.06687">
        <ele>52</ele>
        <time>2013-02-04T08:15:19.999Z</time>
      </trkpt>
      <trkpt lat="47.22656" lon="-0.06685">
        <ele>53</ele>
        <time>2013-02-04T08:15:24.999Z</time>
      </trkpt>
      <trkpt lat="47.22658" lon="-0.06685">
        <ele>53</ele>
        <time>2013-02-04T08:15:25.999Z</time>
      </trkpt>
      <trkpt lat="47.22661" lon="-0.06686">
        <ele>53</ele>
        <time>2013-02-04T08:15:36.999Z</time>
      </trkpt>
      <trkpt lat="47.22662" lon="-0.06689">
        <ele>53</ele>
        <time>2013-02-04T08:15:37.999Z</time>
      </trkpt>
      <trkpt lat="47.22664" lon="-0.06693">
        <ele>52</ele>
        <time>2013-02-04T08:15:38.999Z</time>
      </trkpt>
      <trkpt lat="47.22666" lon="-0.06696">
        <ele>52</ele>
        <time>2013-02-04T08:15:39.999Z</time>
      </trkpt>
      <trkpt lat="47.22667" lon="-0.067">
        <ele>56</ele>
        <time>2013-02-04T08:15:44.999Z</time>
      </trkpt>
      <trkpt lat="47.22669" lon="-0.06702">
        <ele>56</ele>
        <time>2013-02-04T08:15:45.999Z</time>
      </trkpt>
      <trkpt lat="47.22673" lon="-0.06704">
        <ele>56</ele>
        <time>2013-02-04T08:15:50.999Z</time>
      </trkpt>
      <trkpt lat="47.22674" lon="-0.06704">
        <ele>56</ele>
        <time>2013-02-04T08:15:51.999Z</time>
      </trkpt>
      <trkpt lat="47.22678" lon="-0.06704">
        <ele>57</ele>
        <time>2013-02-04T08:15:54.999Z</time>
      </trkpt>
      <trkpt lat="47.22679" lon="-0.06703">
        <ele>57</ele>
        <time>2013-02-04T08:15:55.999Z</time>
      </trkpt>
      <trkpt lat="47.22682" lon="-0.06701">
        <ele>57</ele>
        <time>2013-02-04T08:15:56.999Z</time>
      </trkpt>
      <trkpt lat="47.22683" lon="-0.06699">
        <ele>57</ele>
        <time>2013-02-04T08:15:57.999Z</time>
      </trkpt>
      <trkpt lat="47.22685" lon="-0.06693">
        <ele>57</ele>
        <time>2013-02-04T08:16:03.999Z</time>
      </trkpt>
      <trkpt lat="47.22685" lon="-0.06693">
        <ele>57</ele>
        <time>2013-02-04T08:16:04.999Z</time>
      </trkpt>
      <trkpt lat="47.22683" lon="-0.06687">
        <ele>57</ele>
        <time>2013-02-04T08:16:07.999Z</time>
      </trkpt>
      <trkpt lat="47.22683" lon="-0.06686">
        <ele>57</ele>
        <time>2013-02-04T08:16:08.999Z</time>
      </trkpt>
      <trkpt lat="47.22682" lon="-0.06681">
        <ele>57</ele>
        <time>2013-02-04T08:16:10.999Z</time>
      </trkpt>
      <trkpt lat="47.22681" lon="-0.06679">
        <ele>57</ele>
        <time>2013-02-04T08:16:11.999Z</time>
      </trkpt>
      <trkpt lat="47.22678" lon="-0.06674">
        <ele>56</ele>
        <time>2013-02-04T08:16:14.999Z</time>
      </trkpt>
      <trkpt lat="47.22677" lon="-0.06672">
        <ele>56</ele>
        <time>2013-02-04T08:16:15.999Z</time>
      </trkpt>
      <trkpt lat="47.22675" lon="-0.06666">
        <ele>57</ele>
        <time>2013-02-04T08:16:19.999Z</time>
      </trkpt>
      <trkpt lat="47.22675" lon="-0.06666">
        <ele>57</ele>
        <time>2013-02-04T08:16:20.999Z</time>
      </trkpt>
      <trkpt lat="47.22672" lon="-0.06661">
        <ele>57</ele>
        <time>2013-02-04T08:16:24.999Z</time>
      </trkpt>
      <trkpt lat="47.22671" lon="-0.06659">
        <ele>57</ele>
        <time>2013-02-04T08:16:25.999Z</time>
      </trkpt>
      <trkpt lat="47.22671" lon="-0.06653">
        <ele>58</ele>
        <time>2013-02-04T08:16:32.999Z</time>
      </trkpt>
      <trkpt lat="47.2267" lon="-0.06652">
        <ele>58</ele>
        <time>2013-02-04T08:16:33.999Z</time>
      </trkpt>
      <trkpt lat="47.22671" lon="-0.06646">
        <ele>59</ele>
        <time>2013-02-04T08:16:37.999Z</time>
      </trkpt>
      <trkpt lat="47.22671" lon="-0.06644">
        <ele>59</ele>
        <time>2013-02-04T08:16:38.999Z</time>
      </trkpt>
      <trkpt lat="47.22668" lon="-0.0664">
        <ele>59</ele>
        <time>2013-02-04T08:16:41.999Z</time>
      </trkpt>
      <trkpt lat="47.22667" lon="-0.06637">
        <ele>59</ele>
        <time>2013-02-04T08:16:42.999Z</time>
      </trkpt>
      <trkpt lat="47.22665" lon="-0.06632">
        <ele>54</ele>
        <time>2013-02-04T08:16:45.999Z</time>
      </trkpt>
      <trkpt lat="47.22665" lon="-0.06631">
        <ele>54</ele>
        <time>2013-02-04T08:16:46.999Z</time>
      </trkpt>
      <trkpt lat="47.22663" lon="-0.06625">
        <ele>54</ele>
        <time>2013-02-04T08:16:50.999Z</time>
      </trkpt>
      <trkpt lat="47.22664" lon="-0.06624">
        <ele>54</ele>
        <time>2013-02-04T08:16:51.999Z</time>
      </trkpt>
      <trkpt lat="47.22664" lon="-0.06618">
        <ele>54</ele>
        <time>2013-02-04T08:16:54.999Z</time>
      </trkpt>
      <trkpt lat="47.22663" lon="-0.06616">
        <ele>54</ele>
        <time>2013-02-04T08:16:55.999Z</time>
      </trkpt>
      <trkpt lat="47.22663" lon="-0.06611">
        <ele>55</ele>
        <time>2013-02-04T08:16:59.999Z</time>
      </trkpt>
      <trkpt lat="47.22662" lon="-0.06609">
        <ele>55</ele>
        <time>2013-02-04T08:17:00.999Z</time>
      </trkpt>
      <trkpt lat="47.22662" lon="-0.06604">
        <ele>55</ele>
        <time>2013-02-04T08:17:05.999Z</time>
      </trkpt>
      <trkpt lat="47.22662" lon="-0.06602">
        <ele>55</ele>
        <time>2013-02-04T08:17:06.999Z</time>
      </trkpt>
      <trkpt lat="47.22661" lon="-0.06597">
        <ele>56</ele>
        <time>2013-02-04T08:17:09.999Z</time>
      </trkpt>
      <trkpt lat="47.22661" lon="-0.06595">
        <ele>56</ele>
        <time>2013-02-04T08:17:10.999Z</time>
      </trkpt>
      <trkpt lat="47.22662" lon="-0.0659">
        <ele>56</ele>
        <time>2013-02-04T08:17:13.999Z</time>
      </trkpt>
      <trkpt lat="47.22662" lon="-0.06588">
        <ele>57</ele>
        <time>2013-02-04T08:17:14.999Z</time>
      </trkpt>
      <trkpt lat="47.2266" lon="-0.06582">
        <ele>57</ele>
        <time>2013-02-04T08:17:23.999Z</time>
      </trkpt>
      <trkpt lat="47.22659" lon="-0.06582">
        <ele>57</ele>
        <time>2013-02-04T08:17:24.999Z</time>
      </trkpt>
      <trkpt lat="47.22658" lon="-0.06578">
        <ele>56</ele>
        <time>2013-02-04T08:17:32.999Z</time>
      </trkpt>
      <trkpt lat="47.22657" lon="-0.06575">
        <ele>56</ele>
        <time>2013-02-04T08:17:33.999Z</time>
      </trkpt>
      <trkpt lat="47.22657" lon="-0.06571">
        <ele>56</ele>
        <time>2013-02-04T08:17:35.999Z</time>
      </trkpt>
      <trkpt lat="47.22657" lon="-0.06568">
        <ele>56</ele>
        <time>2013-02-04T08:17:36.999Z</time>
      </trkpt>
      <trkpt lat="47.22658" lon="-0.06562">
        <ele>55</ele>
        <time>2013-02-04T08:17:39.999Z</time>
      </trkpt>
      <trkpt lat="47.22658" lon="-0.06561">
        <ele>55</ele>
        <time>2013-02-04T08:17:40.999Z</time>
      </trkpt>
      <trkpt lat="47.22659" lon="-0.06555">
        <ele>55</ele>
        <time>2013-02-04T08:17:44.999Z</time>
      </trkpt>
      <trkpt lat="47.22658" lon="-0.06553">
        <ele>55</ele>
        <time>2013-02-04T08:17:45.999Z</time>
      </trkpt>
      <trkpt lat="47.22659" lon="-0.06549">
        <ele>55</ele>
        <time>2013-02-04T08:17:47.999Z</time>
      </trkpt>
      <trkpt lat="47.2266" lon="-0.06547">
        <ele>55</ele>
        <time>2013-02-04T08:17:48.999Z</time>
      </trkpt>
      <trkpt lat="47.22661" lon="-0.06541">
        <ele>55</ele>
        <time>2013-02-04T08:17:53.999Z</time>
      </trkpt>
      <trkpt lat="47.22662" lon="-0.06539">
        <ele>55</ele>
        <time>2013-02-04T08:17:54.999Z</time>
      </trkpt>
      <trkpt lat="47.22663" lon="-0.06534">
        <ele>55</ele>
        <time>2013-02-04T08:17:58.999Z</time>
      </trkpt>
      <trkpt lat="47.22663" lon="-0.06533">
        <ele>55</ele>
        <time>2013-02-04T08:17:59.999Z</time>
      </trkpt>
      <trkpt lat="47.22664" lon="-0.06527">
        <ele>55</ele>
        <time>2013-02-04T08:18:03.999Z</time>
      </trkpt>
      <trkpt lat="47.22665" lon="-0.06525">
        <ele>55</ele>
        <time>2013-02-04T08:18:04.999Z</time>
      </trkpt>
      <trkpt lat="47.22667" lon="-0.06519">
        <ele>59</ele>
        <time>2013-02-04T08:18:07.999Z</time>
      </trkpt>
      <trkpt lat="47.22667" lon="-0.06518">
        <ele>59</ele>
        <time>2013-02-04T08:18:08.999Z</time>
      </trkpt>
      <trkpt lat="47.22669" lon="-0.06512">
        <ele>59</ele>
        <time>2013-02-04T08:18:12.999Z</time>
      </trkpt>
      <trkpt lat="47.2267" lon="-0.0651">
        <ele>59</ele>
        <time>2013-02-04T08:18:13.999Z</time>
      </trkpt>
      <trkpt lat="47.22671" lon="-0.06504">
        <ele>58</ele>
        <time>2013-02-04T08:18:17.999Z</time>
      </trkpt>
      <trkpt lat="47.22671" lon="-0.06503">
        <ele>58</ele>
        <time>2013-02-04T08:18:18.999Z</time>
      </trkpt>
      <trkpt lat="47.22673" lon="-0.06496">
        <ele>57</ele>
        <time>2013-02-04T08:18:23.999Z</time>
      </trkpt>
      <trkpt lat="47.22673" lon="-0.06495">
        <ele>57</ele>
        <time>2013-02-04T08:18:24.999Z</time>
      </trkpt>
      <trkpt lat="47.22675" lon="-0.06491">
        <ele>57</ele>
        <time>2013-02-04T08:18:26.999Z</time>
      </trkpt>
      <trkpt lat="47.22675" lon="-0.06488">
        <ele>57</ele>
        <time>2013-02-04T08:18:27.999Z</time>
      </trkpt>
      <trkpt lat="47.22676" lon="-0.06484">
        <ele>58</ele>
        <time>2013-02-04T08:18:29.999Z</time>
      </trkpt>
      <trkpt lat="47.22676" lon="-0.06482">
        <ele>58</ele>
        <time>2013-02-04T08:18:30.999Z</time>
      </trkpt>
      <trkpt lat="47.22678" lon="-0.06477">
        <ele>58</ele>
        <time>2013-02-04T08:18:34.999Z</time>
      </trkpt>
      <trkpt lat="47.22679" lon="-0.06476">
        <ele>58</ele>
        <time>2013-02-04T08:18:35.999Z</time>
      </trkpt>
      <trkpt lat="47.2268" lon="-0.06471">
        <ele>57</ele>
        <time>2013-02-04T08:18:38.999Z</time>
      </trkpt>
      <trkpt lat="47.2268" lon="-0.06469">
        <ele>57</ele>
        <time>2013-02-04T08:18:39.999Z</time>
      </trkpt>
      <trkpt lat="47.22682" lon="-0.06465">
        <ele>57</ele>
        <time>2013-02-04T08:18:44.999Z</time>
      </trkpt>
      <trkpt lat="47.22683" lon="-0.06463">
        <ele>57</ele>
        <time>2013-02-04T08:18:45.999Z</time>
      </trkpt>
      <trkpt lat="47.22683" lon="-0.06459">
        <ele>57</ele>
        <time>2013-02-04T08:18:47.999Z</time>
      </trkpt>
      <trkpt lat="47.22684" lon="-0.06457">
        <ele>57</ele>
        <time>2013-02-04T08:18:48.999Z</time>
      </trkpt>
      <trkpt lat="47.22686" lon="-0.06452">
        <ele>57</ele>
        <time>2013-02-04T08:18:52.999Z</time>
      </trkpt>
      <trkpt lat="47.22686" lon="-0.0645">
        <ele>57</ele>
        <time>2013-02-04T08:18:53.999Z</time>
      </trkpt>
      <trkpt lat="47.22689" lon="-0.06447">
        <ele>57</ele>
        <time>2013-02-04T08:18:56.999Z</time>
      </trkpt>
      <trkpt lat="47.2269" lon="-0.06445">
        <ele>57</ele>
        <time>2013-02-04T08:18:57.999Z</time>
      </trkpt>
      <trkpt lat="47.22694" lon="-0.06442">
        <ele>57</ele>
        <time>2013-02-04T08:19:01.999Z</time>
      </trkpt>
      <trkpt lat="47.22694" lon="-0.06439">
        <ele>57</ele>
        <time>2013-02-04T08:19:02.999Z</time>
      </trkpt>
      <trkpt lat="47.22697" lon="-0.06435">
        <ele>57</ele>
        <time>2013-02-04T08:19:04.999Z</time>
      </trkpt>
      <trkpt lat="47.22698" lon="-0.06434">
        <ele>57</ele>
        <time>2013-02-04T08:19:05.999Z</time>
      </trkpt>
      <trkpt lat="47.22699" lon="-0.0643">
        <ele>57</ele>
        <time>2013-02-04T08:19:07.999Z</time>
      </trkpt>
      <trkpt lat="47.227" lon="-0.06427">
        <ele>57</ele>
        <time>2013-02-04T08:19:08.999Z</time>
      </trkpt>
      <trkpt lat="47.22703" lon="-0.06423">
        <ele>57</ele>
        <time>2013-02-04T08:19:12.999Z</time>
      </trkpt>
      <trkpt lat="47.22704" lon="-0.06421">
        <ele>57</ele>
        <time>2013-02-04T08:19:13.999Z</time>
      </trkpt>
      <trkpt lat="47.22706" lon="-0.06416">
        <ele>54</ele>
        <time>2013-02-04T08:19:16.999Z</time>
      </trkpt>
      <trkpt lat="47.22706" lon="-0.06415">
        <ele>54</ele>
        <time>2013-02-04T08:19:17.999Z</time>
      </trkpt>
      <trkpt lat="47.22708" lon="-0.06409">
        <ele>55</ele>
        <time>2013-02-04T08:19:20.999Z</time>
      </trkpt>
      <trkpt lat="47.22709" lon="-0.06408">
        <ele>55</ele>
        <time>2013-02-04T08:19:21.999Z</time>
      </trkpt>
      <trkpt lat="47.22711" lon="-0.06402">
        <ele>55</ele>
        <time>2013-02-04T08:19:24.999Z</time>
      </trkpt>
      <trkpt lat="47.22711" lon="-0.06401">
        <ele>55</ele>
        <time>2013-02-04T08:19:25.999Z</time>
      </trkpt>
      <trkpt lat="47.22714" lon="-0.06398">
        <ele>55</ele>
        <time>2013-02-04T08:19:28.999Z</time>
      </trkpt>
      <trkpt lat="47.22715" lon="-0.06396">
        <ele>55</ele>
        <time>2013-02-04T08:19:29.999Z</time>
      </trkpt>
      <trkpt lat="47.22719" lon="-0.06394">
        <ele>55</ele>
        <time>2013-02-04T08:19:32.999Z</time>
      </trkpt>
      <trkpt lat="47.2272" lon="-0.06392">
        <ele>55</ele>
        <time>2013-02-04T08:19:33.999Z</time>
      </trkpt>
      <trkpt lat="47.22721" lon="-0.06387">
        <ele>55</ele>
        <time>2013-02-04T08:19:37.999Z</time>
      </trkpt>
      <trkpt lat="47.22722" lon="-0.06386">
        <ele>55</ele>
        <time>2013-02-04T08:19:38.999Z</time>
      </trkpt>
      <trkpt lat="47.22724" lon="-0.06381">
        <ele>55</ele>
        <time>2013-02-04T08:19:41.999Z</time>
      </trkpt>
      <trkpt lat="47.22725" lon="-0.0638">
        <ele>55</ele>
        <time>2013-02-04T08:19:42.999Z</time>
      </trkpt>
      <trkpt lat="47.22726" lon="-0.06375">
        <ele>55</ele>
        <time>2013-02-04T08:19:44.999Z</time>
      </trkpt>
      <trkpt lat="47.22726" lon="-0.06373">
        <ele>55</ele>
        <time>2013-02-04T08:19:45.999Z</time>
      </trkpt>
      <trkpt lat="47.22728" lon="-0.06369">
        <ele>55</ele>
        <time>2013-02-04T08:19:48.999Z</time>
      </trkpt>
      <trkpt lat="47.22729" lon="-0.06368">
        <ele>55</ele>
        <time>2013-02-04T08:19:49.999Z</time>
      </trkpt>
      <trkpt lat="47.22733" lon="-0.06365">
        <ele>55</ele>
        <time>2013-02-04T08:19:53.999Z</time>
      </trkpt>
      <trkpt lat="47.22734" lon="-0.06364">
        <ele>55</ele>
        <time>2013-02-04T08:19:54.999Z</time>
      </trkpt>
      <trkpt lat="47.22737" lon="-0.06359">
        <ele>55</ele>
        <time>2013-02-04T08:19:58.999Z</time>
      </trkpt>
      <trkpt lat="47.22738" lon="-0.06358">
        <ele>55</ele>
        <time>2013-02-04T08:19:59.999Z</time>
      </trkpt>
      <trkpt lat="47.22741" lon="-0.06354">
        <ele>55</ele>
        <time>2013-02-04T08:20:03.999Z</time>
      </trkpt>
      <trkpt lat="47.22742" lon="-0.06354">
        <ele>55</ele>
        <time>2013-02-04T08:20:04.999Z</time>
      </trkpt>
      <trkpt lat="47.22745" lon="-0.06351">
        <ele>55</ele>
        <time>2013-02-04T08:20:08.999Z</time>
      </trkpt>
      <trkpt lat="47.22746" lon="-0.0635">
        <ele>55</ele>
        <time>2013-02-04T08:20:09.999Z</time>
      </trkpt>
      <trkpt lat="47.2275" lon="-0.06347">
        <ele>55</ele>
        <time>2013-02-04T08:20:12.999Z</time>
      </trkpt>
      <trkpt lat="47.22751" lon="-0.06346">
        <ele>58</ele>
        <time>2013-02-04T08:20:13.999Z</time>
      </trkpt>
      <trkpt lat="47.22751" lon="-0.0634">
        <ele>57</ele>
        <time>2013-02-04T08:20:17.999Z</time>
      </trkpt>
      <trkpt lat="47.22752" lon="-0.06338">
        <ele>57</ele>
        <time>2013-02-04T08:20:18.999Z</time>
      </trkpt>
      <trkpt lat="47.22755" lon="-0.06333">
        <ele>56</ele>
        <time>2013-02-04T08:20:21.999Z</time>
      </trkpt>
      <trkpt lat="47.22756" lon="-0.06332">
        <ele>56</ele>
        <time>2013-02-04T08:20:22.999Z</time>
      </trkpt>
      <trkpt lat="47.22759" lon="-0.06329">
        <ele>57</ele>
        <time>2013-02-04T08:20:25.999Z</time>
      </trkpt>
      <trkpt lat="47.22759" lon="-0.06328">
        <ele>57</ele>
        <time>2013-02-04T08:20:26.999Z</time>
      </trkpt>
      <trkpt lat="47.22762" lon="-0.06323">
        <ele>57</ele>
        <time>2013-02-04T08:20:29.999Z</time>
      </trkpt>
      <trkpt lat="47.22762" lon="-0.06321">
        <ele>57</ele>
        <time>2013-02-04T08:20:30.999Z</time>
      </trkpt>
      <trkpt lat="47.22765" lon="-0.06316">
        <ele>57</ele>
        <time>2013-02-04T08:20:33.999Z</time>
      </trkpt>
      <trkpt lat="47.22765" lon="-0.06314">
        <ele>57</ele>
        <time>2013-02-04T08:20:34.999Z</time>
      </trkpt>
      <trkpt lat="47.22767" lon="-0.06308">
        <ele>57</ele>
        <time>2013-02-04T08:20:38.999Z</time>
      </trkpt>
      <trkpt lat="47.22768" lon="-0.06308">
        <ele>57</ele>
        <time>2013-02-04T08:20:39.999Z</time>
      </trkpt>
      <trkpt lat="47.22769" lon="-0.06303">
        <ele>57</ele>
        <time>2013-02-04T08:20:43.999Z</time>
      </trkpt>
      <trkpt lat="47.22769" lon="-0.06301">
        <ele>57</ele>
        <time>2013-02-04T08:20:44.999Z</time>
      </trkpt>
      <trkpt lat="47.22772" lon="-0.06297">
        <ele>57</ele>
        <time>2013-02-04T08:20:48.999Z</time>
      </trkpt>
      <trkpt lat="47.22773" lon="-0.06296">
        <ele>57</ele>
        <time>2013-02-04T08:20:49.999Z</time>
      </trkpt>
      <trkpt lat="47.22776" lon="-0.06292">
        <ele>57</ele>
        <time>2013-02-04T08:20:52.999Z</time>
      </trkpt>
      <trkpt lat="47.22778" lon="-0.0629">
        <ele>57</ele>
        <time>2013-02-04T08:20:53.999Z</time>
      </trkpt>
      <trkpt lat="47.22781" lon="-0.06288">
        <ele>57</ele>
        <time>2013-02-04T08:20:57.999Z</time>
      </trkpt>
      <trkpt lat="47.22782" lon="-0.06287">
        <ele>57</ele>
        <time>2013-02-04T08:20:58.999Z</time>
      </trkpt>
      <trkpt lat="47.22784" lon="-0.06283">
        <ele>57</ele>
        <time>2013-02-04T08:21:02.999Z</time>
      </trkpt>
      <trkpt lat="47.22785" lon="-0.06281">
        <ele>57</ele>
        <time>2013-02-04T08:21:03.999Z</time>
      </trkpt>
      <trkpt lat="47.22787" lon="-0.06276">
        <ele>57</ele>
        <time>2013-02-04T08:21:06.999Z</time>
      </trkpt>
      <trkpt lat="47.22788" lon="-0.06275">
        <ele>57</ele>
        <time>2013-02-04T08:21:07.999Z</time>
      </trkpt>
      <trkpt lat="47.22791" lon="-0.06272">
        <ele>57</ele>
        <time>2013-02-04T08:21:11.999Z</time>
      </trkpt>
      <trkpt lat="47.22792" lon="-0.06271">
        <ele>57</ele>
        <time>2013-02-04T08:21:12.999Z</time>
      </trkpt>
      <trkpt lat="47.22794" lon="-0.06265">
        <ele>57</ele>
        <time>2013-02-04T08:21:16.999Z</time>
      </trkpt>
      <trkpt lat="47.22794" lon="-0.06263">
        <ele>57</ele>
        <time>2013-02-04T08:21:17.999Z</time>
      </trkpt>
      <trkpt lat="47.22797" lon="-0.06259">
        <ele>57</ele>
        <time>2013-02-04T08:21:20.999Z</time>
      </trkpt>
      <trkpt lat="47.22798" lon="-0.06258">
        <ele>57</ele>
        <time>2013-02-04T08:21:21.999Z</time>
      </trkpt>
      <trkpt lat="47.228" lon="-0.06254">
        <ele>57</ele>
        <time>2013-02-04T08:21:24.999Z</time>
      </trkpt>
      <trkpt lat="47.22801" lon="-0.06252">
        <ele>57</ele>
        <time>2013-02-04T08:21:25.999Z</time>
      </trkpt>
      <trkpt lat="47.22804" lon="-0.06248">
        <ele>55</ele>
        <time>2013-02-04T08:21:29.999Z</time>
      </trkpt>
      <trkpt lat="47.22804" lon="-0.06246">
        <ele>55</ele>
        <time>2013-02-04T08:21:30.999Z</time>
      </trkpt>
      <trkpt lat="47.22807" lon="-0.06242">
        <ele>55</ele>
        <time>2013-02-04T08:21:34.999Z</time>
      </trkpt>
      <trkpt lat="47.22807" lon="-0.0624">
        <ele>55</ele>
        <time>2013-02-04T08:21:35.999Z</time>
      </trkpt>
      <trkpt lat="47.2281" lon="-0.06235">
        <ele>55</ele>
        <time>2013-02-04T08:21:40.999Z</time>
      </trkpt>
      <trkpt lat="47.22811" lon="-0.06233">
        <ele>55</ele>
        <time>2013-02-04T08:21:41.999Z</time>
      </trkpt>
      <trkpt lat="47.22813" lon="-0.06229">
        <ele>55</ele>
        <time>2013-02-04T08:21:44.999Z</time>
      </trkpt>
      <trkpt lat="47.22814" lon="-0.06228">
        <ele>55</ele>
        <time>2013-02-04T08:21:45.999Z</time>
      </trkpt>
      <trkpt lat="47.22817" lon="-0.06225">
        <ele>55</ele>
        <time>2013-02-04T08:21:49.999Z</time>
      </trkpt>
      <trkpt lat="47.22818" lon="-0.06224">
        <ele>55</ele>
        <time>2013-02-04T08:21:50.999Z</time>
      </trkpt>
      <trkpt lat="47.2282" lon="-0.0622">
        <ele>55</ele>
        <time>2013-02-04T08:22:11.999Z</time>
      </trkpt>
      <trkpt lat="47.22821" lon="-0.06218">
        <ele>55</ele>
        <time>2013-02-04T08:22:12.999Z</time>
      </trkpt>
      <trkpt lat="47.22824" lon="-0.06213">
        <ele>55</ele>
        <time>2013-02-04T08:22:15.999Z</time>
      </trkpt>
      <trkpt lat="47.22825" lon="-0.06211">
        <ele>55</ele>
        <time>2013-02-04T08:22:16.999Z</time>
      </trkpt>
      <trkpt lat="47.22827" lon="-0.06206">
        <ele>55</ele>
        <time>2013-02-04T08:22:20.999Z</time>
      </trkpt>
      <trkpt lat="47.22828" lon="-0.06205">
        <ele>55</ele>
        <time>2013-02-04T08:22:21.999Z</time>
      </trkpt>
      <trkpt lat="47.2283" lon="-0.06201">
        <ele>55</ele>
        <time>2013-02-04T08:22:24.999Z</time>
      </trkpt>
      <trkpt lat="47.22831" lon="-0.062">
        <ele>55</ele>
        <time>2013-02-04T08:22:25.999Z</time>
      </trkpt>
      <trkpt lat="47.22834" lon="-0.06195">
        <ele>59</ele>
        <time>2013-02-04T08:22:30.999Z</time>
      </trkpt>
      <trkpt lat="47.22834" lon="-0.06194">
        <ele>59</ele>
        <time>2013-02-04T08:22:31.999Z</time>
      </trkpt>
      <trkpt lat="47.22837" lon="-0.0619">
        <ele>59</ele>
        <time>2013-02-04T08:22:35.999Z</time>
      </trkpt>
      <trkpt lat="47.22838" lon="-0.06189">
        <ele>59</ele>
        <time>2013-02-04T08:22:36.999Z</time>
      </trkpt>
      <trkpt lat="47.2284" lon="-0.06185">
        <ele>58</ele>
        <time>2013-02-04T08:22:40.999Z</time>
      </trkpt>
      <trkpt lat="47.22841" lon="-0.06184">
        <ele>58</ele>
        <time>2013-02-04T08:22:41.999Z</time>
      </trkpt>
      <trkpt lat="47.22843" lon="-0.06181">
        <ele>58</ele>
        <time>2013-02-04T08:22:44.999Z</time>
      </trkpt>
      <trkpt lat="47.22844" lon="-0.06178">
        <ele>58</ele>
        <time>2013-02-04T08:22:45.999Z</time>
      </trkpt>
      <trkpt lat="47.22847" lon="-0.06173">
        <ele>58</ele>
        <time>2013-02-04T08:22:48.999Z</time>
      </trkpt>
      <trkpt lat="47.22847" lon="-0.06172">
        <ele>58</ele>
        <time>2013-02-04T08:22:49.999Z</time>
      </trkpt>
      <trkpt lat="47.2285" lon="-0.06167">
        <ele>57</ele>
        <time>2013-02-04T08:22:52.999Z</time>
      </trkpt>
      <trkpt lat="47.2285" lon="-0.06165">
        <ele>57</ele>
        <time>2013-02-04T08:22:53.999Z</time>
      </trkpt>
      <trkpt lat="47.22852" lon="-0.06159">
        <ele>57</ele>
        <time>2013-02-04T08:22:56.999Z</time>
      </trkpt>
      <trkpt lat="47.22852" lon="-0.06159">
        <ele>58</ele>
        <time>2013-02-04T08:22:57.999Z</time>
      </trkpt>
      <trkpt lat="47.22855" lon="-0.06154">
        <ele>58</ele>
        <time>2013-02-04T08:23:00.999Z</time>
      </trkpt>
      <trkpt lat="47.22856" lon="-0.06152">
        <ele>58</ele>
        <time>2013-02-04T08:23:01.999Z</time>
      </trkpt>
      <trkpt lat="47.22858" lon="-0.06147">
        <ele>58</ele>
        <time>2013-02-04T08:23:06.999Z</time>
      </trkpt>
      <trkpt lat="47.22859" lon="-0.06146">
        <ele>58</ele>
        <time>2013-02-04T08:23:07.999Z</time>
      </trkpt>
      <trkpt lat="47.22861" lon="-0.06141">
        <ele>58</ele>
        <time>2013-02-04T08:23:10.999Z</time>
      </trkpt>
      <trkpt lat="47.22861" lon="-0.06141">
        <ele>58</ele>
        <time>2013-02-04T08:23:11.999Z</time>
      </trkpt>
      <trkpt lat="47.22863" lon="-0.06135">
        <ele>58</ele>
        <time>2013-02-04T08:23:14.999Z</time>
      </trkpt>
      <trkpt lat="47.22865" lon="-0.06133">
        <ele>58</ele>
        <time>2013-02-04T08:23:15.999Z</time>
      </trkpt>
      <trkpt lat="47.22868" lon="-0.0613">
        <ele>58</ele>
        <time>2013-02-04T08:23:19.999Z</time>
      </trkpt>
      <trkpt lat="47.22869" lon="-0.06129">
        <ele>58</ele>
        <time>2013-02-04T08:23:20.999Z</time>
      </trkpt>
      <trkpt lat="47.2287" lon="-0.06125">
        <ele>58</ele>
        <time>2013-02-04T08:23:22.999Z</time>
      </trkpt>
      <trkpt lat="47.2287" lon="-0.06122">
        <ele>58</ele>
        <time>2013-02-04T08:23:23.999Z</time>
      </trkpt>
      <trkpt lat="47.22873" lon="-0.06119">
        <ele>58</ele>
        <time>2013-02-04T08:23:26.999Z</time>
      </trkpt>
      <trkpt lat="47.22874" lon="-0.06117">
        <ele>58</ele>
        <time>2013-02-04T08:23:27.999Z</time>
      </trkpt>
      <trkpt lat="47.22876" lon="-0.06113">
        <ele>58</ele>
        <time>2013-02-04T08:23:30.999Z</time>
      </trkpt>
      <trkpt lat="47.22877" lon="-0.06111">
        <ele>58</ele>
        <time>2013-02-04T08:23:31.999Z</time>
      </trkpt>
      <trkpt lat="47.22879" lon="-0.06106">
        <ele>58</ele>
        <time>2013-02-04T08:23:34.999Z</time>
      </trkpt>
      <trkpt lat="47.22879" lon="-0.06104">
        <ele>58</ele>
        <time>2013-02-04T08:23:35.999Z</time>
      </trkpt>
      <trkpt lat="47.22882" lon="-0.061">
        <ele>59</ele>
        <time>2013-02-04T08:23:39.999Z</time>
      </trkpt>
      <trkpt lat="47.22883" lon="-0.06099">
        <ele>59</ele>
        <time>2013-02-04T08:23:40.999Z</time>
      </trkpt>
      <trkpt lat="47.22885" lon="-0.06095">
        <ele>59</ele>
        <time>2013-02-04T08:23:43.999Z</time>
      </trkpt>
      <trkpt lat="47.22886" lon="-0.06094">
        <ele>59</ele>
        <time>2013-02-04T08:23:44.999Z</time>
      </trkpt>
      <trkpt lat="47.2289" lon="-0.06091">
        <ele>59</ele>
        <time>2013-02-04T08:23:48.999Z</time>
      </trkpt>
      <trkpt lat="47.2289" lon="-0.06091">
        <ele>59</ele>
        <time>2013-02-04T08:23:49.999Z</time>
      </trkpt>
      <trkpt lat="47.22892" lon="-0.06087">
        <ele>59</ele>
        <time>2013-02-04T08:23:51.999Z</time>
      </trkpt>
      <trkpt lat="47.22893" lon="-0.06086">
        <ele>59</ele>
        <time>2013-02-04T08:23:52.999Z</time>
      </trkpt>
      <trkpt lat="47.22896" lon="-0.06082">
        <ele>58</ele>
        <time>2013-02-04T08:23:55.999Z</time>
      </trkpt>
      <trkpt lat="47.22897" lon="-0.0608">
        <ele>58</ele>
        <time>2013-02-04T08:23:56.999Z</time>
      </trkpt>
      <trkpt lat="47.22898" lon="-0.06075">
        <ele>58</ele>
        <time>2013-02-04T08:23:59.999Z</time>
      </trkpt>
      <trkpt lat="47.22899" lon="-0.06072">
        <ele>58</ele>
        <time>2013-02-04T08:24:00.999Z</time>
      </trkpt>
      <trkpt lat="47.22901" lon="-0.06067">
        <ele>58</ele>
        <time>2013-02-04T08:24:03.999Z</time>
      </trkpt>
      <trkpt lat="47.22901" lon="-0.06065">
        <ele>58</ele>
        <time>2013-02-04T08:24:04.999Z</time>
      </trkpt>
      <trkpt lat="47.22902" lon="-0.06059">
        <ele>57</ele>
        <time>2013-02-04T08:24:07.999Z</time>
      </trkpt>
      <trkpt lat="47.22903" lon="-0.06057">
        <ele>57</ele>
        <time>2013-02-04T08:24:08.999Z</time>
      </trkpt>
      <trkpt lat="47.22904" lon="-0.06051">
        <ele>57</ele>
        <time>2013-02-04T08:24:11.999Z</time>
      </trkpt>
      <trkpt lat="47.22904" lon="-0.06049">
        <ele>57</ele>
        <time>2013-02-04T08:24:12.999Z</time>
      </trkpt>
      <trkpt lat="47.22905" lon="-0.06043">
        <ele>57</ele>
        <time>2013-02-04T08:24:16.999Z</time>
      </trkpt>
      <trkpt lat="47.22905" lon="-0.06041">
        <ele>57</ele>
        <time>2013-02-04T08:24:17.999Z</time>
      </trkpt>
      <trkpt lat="47.22906" lon="-0.06035">
        <ele>57</ele>
        <time>2013-02-04T08:24:21.999Z</time>
      </trkpt>
      <trkpt lat="47.22907" lon="-0.06034">
        <ele>57</ele>
        <time>2013-02-04T08:24:22.999Z</time>
      </trkpt>
      <trkpt lat="47.22909" lon="-0.06028">
        <ele>57</ele>
        <time>2013-02-04T08:24:26.999Z</time>
      </trkpt>
      <trkpt lat="47.22909" lon="-0.06027">
        <ele>57</ele>
        <time>2013-02-04T08:24:27.999Z</time>
      </trkpt>
      <trkpt lat="47.2291" lon="-0.0602">
        <ele>57</ele>
        <time>2013-02-04T08:24:32.999Z</time>
      </trkpt>
      <trkpt lat="47.2291" lon="-0.06019">
        <ele>56</ele>
        <time>2013-02-04T08:24:33.999Z</time>
      </trkpt>
      <trkpt lat="47.22911" lon="-0.06013">
        <ele>57</ele>
        <time>2013-02-04T08:24:37.999Z</time>
      </trkpt>
      <trkpt lat="47.22911" lon="-0.06011">
        <ele>57</ele>
        <time>2013-02-04T08:24:38.999Z</time>
      </trkpt>
      <trkpt lat="47.22912" lon="-0.06006">
        <ele>57</ele>
        <time>2013-02-04T08:24:41.999Z</time>
      </trkpt>
      <trkpt lat="47.22912" lon="-0.06004">
        <ele>57</ele>
        <time>2013-02-04T08:24:42.999Z</time>
      </trkpt>
      <trkpt lat="47.22912" lon="-0.05998">
        <ele>56</ele>
        <time>2013-02-04T08:24:44.999Z</time>
      </trkpt>
      <trkpt lat="47.22912" lon="-0.05997">
        <ele>56</ele>
        <time>2013-02-04T08:24:45.999Z</time>
      </trkpt>
      <trkpt lat="47.22917" lon="-0.05994">
        <ele>56</ele>
        <time>2013-02-04T08:24:49.999Z</time>
      </trkpt>
      <trkpt lat="47.22917" lon="-0.05994">
        <ele>58</ele>
        <time>2013-02-04T08:24:50.999Z</time>
      </trkpt>
      <trkpt lat="47.2292" lon="-0.05999">
        <ele>58</ele>
        <time>2013-02-04T08:24:55.999Z</time>
      </trkpt>
      <trkpt lat="47.22921" lon="-0.06001">
        <ele>58</ele>
        <time>2013-02-04T08:24:56.999Z</time>
      </trkpt>
      <trkpt lat="47.22922" lon="-0.06006">
        <ele>59</ele>
        <time>2013-02-04T08:24:59.999Z</time>
      </trkpt>
      <trkpt lat="47.22922" lon="-0.06009">
        <ele>59</ele>
        <time>2013-02-04T08:25:00.999Z</time>
      </trkpt>
      <trkpt lat="47.22923" lon="-0.06014">
        <ele>60</ele>
        <time>2013-02-04T08:25:04.999Z</time>
      </trkpt>
      <trkpt lat="47.22924" lon="-0.06015">
        <ele>60</ele>
        <time>2013-02-04T08:25:05.999Z</time>
      </trkpt>
      <trkpt lat="47.22926" lon="-0.06019">
        <ele>61</ele>
        <time>2013-02-04T08:25:08.999Z</time>
      </trkpt>
      <trkpt lat="47.22927" lon="-0.06021">
        <ele>61</ele>
        <time>2013-02-04T08:25:09.999Z</time>
      </trkpt>
      <trkpt lat="47.22929" lon="-0.06025">
        <ele>61</ele>
        <time>2013-02-04T08:25:12.999Z</time>
      </trkpt>
      <trkpt lat="47.2293" lon="-0.06027">
        <ele>61</ele>
        <time>2013-02-04T08:25:13.999Z</time>
      </trkpt>
      <trkpt lat="47.22931" lon="-0.06033">
        <ele>62</ele>
        <time>2013-02-04T08:25:19.999Z</time>
      </trkpt>
      <trkpt lat="47.22931" lon="-0.06035">
        <ele>62</ele>
        <time>2013-02-04T08:25:20.999Z</time>
      </trkpt>
      <trkpt lat="47.22931" lon="-0.0604">
        <ele>62</ele>
        <time>2013-02-04T08:25:25.999Z</time>
      </trkpt>
      <trkpt lat="47.22931" lon="-0.06041">
        <ele>62</ele>
        <time>2013-02-04T08:25:26.999Z</time>
      </trkpt>
      <trkpt lat="47.22932" lon="-0.06046">
        <ele>62</ele>
        <time>2013-02-04T08:25:28.999Z</time>
      </trkpt>
      <trkpt lat="47.22933" lon="-0.06048">
        <ele>62</ele>
        <time>2013-02-04T08:25:29.999Z</time>
      </trkpt>
      <trkpt lat="47.22934" lon="-0.06054">
        <ele>62</ele>
        <time>2013-02-04T08:25:35.999Z</time>
      </trkpt>
      <trkpt lat="47.22934" lon="-0.06055">
        <ele>62</ele>
        <time>2013-02-04T08:25:36.999Z</time>
      </trkpt>
      <trkpt lat="47.22937" lon="-0.06057">
        <ele>62</ele>
        <time>2013-02-04T08:25:39.999Z</time>
      </trkpt>
      <trkpt lat="47.22938" lon="-0.06058">
        <ele>63</ele>
        <time>2013-02-04T08:25:40.999Z</time>
      </trkpt>
      <trkpt lat="47.2294" lon="-0.06064">
        <ele>63</ele>
        <time>2013-02-04T08:25:41.999Z</time>
      </trkpt>
      <trkpt lat="47.22942" lon="-0.06068">
        <ele>63</ele>
        <time>2013-02-04T08:25:42.999Z</time>
      </trkpt>
      <trkpt lat="47.22945" lon="-0.06072">
        <ele>63</ele>
        <time>2013-02-04T08:25:44.999Z</time>
      </trkpt>
      <trkpt lat="47.22946" lon="-0.06075">
        <ele>63</ele>
        <time>2013-02-04T08:25:45.999Z</time>
      </trkpt>
      <trkpt lat="47.22948" lon="-0.06079">
        <ele>63</ele>
        <time>2013-02-04T08:25:47.999Z</time>
      </trkpt>
      <trkpt lat="47.22949" lon="-0.0608">
        <ele>63</ele>
        <time>2013-02-04T08:25:48.999Z</time>
      </trkpt>
      <trkpt lat="47.22951" lon="-0.06084">
        <ele>64</ele>
        <time>2013-02-04T08:25:50.999Z</time>
      </trkpt>
      <trkpt lat="47.22952" lon="-0.06086">
        <ele>64</ele>
        <time>2013-02-04T08:25:51.999Z</time>
      </trkpt>
      <trkpt lat="47.22953" lon="-0.06092">
        <ele>65</ele>
        <time>2013-02-04T08:25:56.999Z</time>
      </trkpt>
      <trkpt lat="47.22954" lon="-0.06094">
        <ele>65</ele>
        <time>2013-02-04T08:25:57.999Z</time>
      </trkpt>
      <trkpt lat="47.22954" lon="-0.06099">
        <ele>65</ele>
        <time>2013-02-04T08:26:04.999Z</time>
      </trkpt>
      <trkpt lat="47.22954" lon="-0.061">
        <ele>65</ele>
        <time>2013-02-04T08:26:05.999Z</time>
      </trkpt>
      <trkpt lat="47.22955" lon="-0.06106">
        <ele>65</ele>
        <time>2013-02-04T08:26:10.999Z</time>
      </trkpt>
      <trkpt lat="47.22956" lon="-0.06108">
        <ele>65</ele>
        <time>2013-02-04T08:26:11.999Z</time>
      </trkpt>
      <trkpt lat="47.22956" lon="-0.06114">
        <ele>65</ele>
        <time>2013-02-04T08:26:16.999Z</time>
      </trkpt>
      <trkpt lat="47.22956" lon="-0.06117">
        <ele>65</ele>
        <time>2013-02-04T08:26:17.999Z</time>
      </trkpt>
      <trkpt lat="47.22957" lon="-0.06122">
        <ele>65</ele>
        <time>2013-02-04T08:26:21.999Z</time>
      </trkpt>
      <trkpt lat="47.22958" lon="-0.06124">
        <ele>65</ele>
        <time>2013-02-04T08:26:22.999Z</time>
      </trkpt>
      <trkpt lat="47.22958" lon="-0.06126">
        <ele>65</ele>
        <time>2013-02-04T08:26:23.999Z</time>
      </trkpt>
      <trkpt lat="47.2296" lon="-0.0613">
        <ele>65</ele>
        <time>2013-02-04T08:26:24.999Z</time>
      </trkpt>
      <trkpt lat="47.22963" lon="-0.06132">
        <ele>65</ele>
        <time>2013-02-04T08:26:26.999Z</time>
      </trkpt>
      <trkpt lat="47.22965" lon="-0.06133">
        <ele>65</ele>
        <time>2013-02-04T08:26:27.999Z</time>
      </trkpt>
      <trkpt lat="47.22968" lon="-0.06136">
        <ele>65</ele>
        <time>2013-02-04T08:26:30.999Z</time>
      </trkpt>
      <trkpt lat="47.22969" lon="-0.06137">
        <ele>65</ele>
        <time>2013-02-04T08:26:31.999Z</time>
      </trkpt>
      <trkpt lat="47.22971" lon="-0.06141">
        <ele>66</ele>
        <time>2013-02-04T08:26:33.999Z</time>
      </trkpt>
      <trkpt lat="47.22971" lon="-0.06143">
        <ele>66</ele>
        <time>2013-02-04T08:26:34.999Z</time>
      </trkpt>
      <trkpt lat="47.22972" lon="-0.06146">
        <ele>66</ele>
        <time>2013-02-04T08:26:38.999Z</time>
      </trkpt>
      <trkpt lat="47.22975" lon="-0.06148">
        <ele>66</ele>
        <time>2013-02-04T08:26:39.999Z</time>
      </trkpt>
      <trkpt lat="47.22978" lon="-0.06153">
        <ele>66</ele>
        <time>2013-02-04T08:26:41.999Z</time>
      </trkpt>
      <trkpt lat="47.22978" lon="-0.06154">
        <ele>66</ele>
        <time>2013-02-04T08:26:42.999Z</time>
      </trkpt>
      <trkpt lat="47.22979" lon="-0.0616">
        <ele>66</ele>
        <time>2013-02-04T08:26:45.999Z</time>
      </trkpt>
      <trkpt lat="47.2298" lon="-0.06161">
        <ele>66</ele>
        <time>2013-02-04T08:26:46.999Z</time>
      </trkpt>
      <trkpt lat="47.22983" lon="-0.06164">
        <ele>66</ele>
        <time>2013-02-04T08:26:50.999Z</time>
      </trkpt>
      <trkpt lat="47.22984" lon="-0.06164">
        <ele>67</ele>
        <time>2013-02-04T08:26:51.999Z</time>
      </trkpt>
      <trkpt lat="47.22987" lon="-0.06168">
        <ele>67</ele>
        <time>2013-02-04T08:26:55.999Z</time>
      </trkpt>
      <trkpt lat="47.22988" lon="-0.06169">
        <ele>67</ele>
        <time>2013-02-04T08:26:56.999Z</time>
      </trkpt>
      <trkpt lat="47.22991" lon="-0.06173">
        <ele>68</ele>
        <time>2013-02-04T08:27:03.999Z</time>
      </trkpt>
      <trkpt lat="47.22992" lon="-0.06173">
        <ele>68</ele>
        <time>2013-02-04T08:27:04.999Z</time>
      </trkpt>
      <trkpt lat="47.22995" lon="-0.06175">
        <ele>68</ele>
        <time>2013-02-04T08:27:06.999Z</time>
      </trkpt>
      <trkpt lat="47.22996" lon="-0.06177">
        <ele>68</ele>
        <time>2013-02-04T08:27:07.999Z</time>
      </trkpt>
      <trkpt lat="47.22999" lon="-0.0618">
        <ele>68</ele>
        <time>2013-02-04T08:27:11.999Z</time>
      </trkpt>
      <trkpt lat="47.23" lon="-0.06182">
        <ele>68</ele>
        <time>2013-02-04T08:27:13.999Z</time>
      </trkpt>
      <trkpt lat="47.23003" lon="-0.06185">
        <ele>69</ele>
        <time>2013-02-04T08:27:22.999Z</time>
      </trkpt>
      <trkpt lat="47.23004" lon="-0.06185">
        <ele>69</ele>
        <time>2013-02-04T08:27:23.999Z</time>
      </trkpt>
      <trkpt lat="47.23008" lon="-0.06187">
        <ele>69</ele>
        <time>2013-02-04T08:27:30.999Z</time>
      </trkpt>
      <trkpt lat="47.23008" lon="-0.06187">
        <ele>69</ele>
        <time>2013-02-04T08:27:31.999Z</time>
      </trkpt>
      <trkpt lat="47.23012" lon="-0.06184">
        <ele>69</ele>
        <time>2013-02-04T08:27:41.999Z</time>
      </trkpt>
      <trkpt lat="47.23013" lon="-0.06183">
        <ele>69</ele>
        <time>2013-02-04T08:27:42.999Z</time>
      </trkpt>
      <trkpt lat="47.23017" lon="-0.06183">
        <ele>69</ele>
        <time>2013-02-04T08:27:44.999Z</time>
      </trkpt>
      <trkpt lat="47.23018" lon="-0.06184">
        <ele>69</ele>
        <time>2013-02-04T08:27:45.999Z</time>
      </trkpt>
      <trkpt lat="47.23021" lon="-0.06187">
        <ele>69</ele>
        <time>2013-02-04T08:27:47.999Z</time>
      </trkpt>
      <trkpt lat="47.23022" lon="-0.06189">
        <ele>69</ele>
        <time>2013-02-04T08:27:48.999Z</time>
      </trkpt>
      <trkpt lat="47.23024" lon="-0.0619">
        <ele>69</ele>
        <time>2013-02-04T08:27:50.999Z</time>
      </trkpt>
      <trkpt lat="47.23026" lon="-0.06193">
        <ele>69</ele>
        <time>2013-02-04T08:27:51.999Z</time>
      </trkpt>
      <trkpt lat="47.23026" lon="-0.062">
        <ele>70</ele>
        <time>2013-02-04T08:27:55.999Z</time>
      </trkpt>
      <trkpt lat="47.23027" lon="-0.06202">
        <ele>70</ele>
        <time>2013-02-04T08:27:56.999Z</time>
      </trkpt>
      <trkpt lat="47.23028" lon="-0.06208">
        <ele>70</ele>
        <time>2013-02-04T08:28:02.999Z</time>
      </trkpt>
      <trkpt lat="47.23028" lon="-0.06209">
        <ele>70</ele>
        <time>2013-02-04T08:28:03.999Z</time>
      </trkpt>
      <trkpt lat="47.23027" lon="-0.06215">
        <ele>70</ele>
        <time>2013-02-04T08:28:07.999Z</time>
      </trkpt>
      <trkpt lat="47.23027" lon="-0.06217">
        <ele>70</ele>
        <time>2013-02-04T08:28:08.999Z</time>
      </trkpt>
      <trkpt lat="47.23027" lon="-0.06222">
        <ele>70</ele>
        <time>2013-02-04T08:28:13.999Z</time>
      </trkpt>
      <trkpt lat="47.23027" lon="-0.06223">
        <ele>70</ele>
        <time>2013-02-04T08:28:14.999Z</time>
      </trkpt>
      <trkpt lat="47.23028" lon="-0.06229">
        <ele>70</ele>
        <time>2013-02-04T08:28:18.999Z</time>
      </trkpt>
      <trkpt lat="47.23029" lon="-0.06231">
        <ele>70</ele>
        <time>2013-02-04T08:28:19.999Z</time>
      </trkpt>
      <trkpt lat="47.23029" lon="-0.06235">
        <ele>70</ele>
        <time>2013-02-04T08:28:20.999Z</time>
      </trkpt>
      <trkpt lat="47.23029" lon="-0.06239">
        <ele>70</ele>
        <time>2013-02-04T08:28:21.999Z</time>
      </trkpt>
      <trkpt lat="47.2303" lon="-0.06245">
        <ele>70</ele>
        <time>2013-02-04T08:28:23.999Z</time>
      </trkpt>
      <trkpt lat="47.2303" lon="-0.06247">
        <ele>70</ele>
        <time>2013-02-04T08:28:24.999Z</time>
      </trkpt>
      <trkpt lat="47.2303" lon="-0.06253">
        <ele>71</ele>
        <time>2013-02-04T08:28:27.999Z</time>
      </trkpt>
      <trkpt lat="47.2303" lon="-0.06255">
        <ele>71</ele>
        <time>2013-02-04T08:28:28.999Z</time>
      </trkpt>
      <trkpt lat="47.23031" lon="-0.06261">
        <ele>71</ele>
        <time>2013-02-04T08:28:33.999Z</time>
      </trkpt>
      <trkpt lat="47.23031" lon="-0.06262">
        <ele>71</ele>
        <time>2013-02-04T08:28:34.999Z</time>
      </trkpt>
      <trkpt lat="47.23031" lon="-0.06268">
        <ele>71</ele>
        <time>2013-02-04T08:28:38.999Z</time>
      </trkpt>
      <trkpt lat="47.23031" lon="-0.0627">
        <ele>71</ele>
        <time>2013-02-04T08:28:39.999Z</time>
      </trkpt>
      <trkpt lat="47.23031" lon="-0.06276">
        <ele>71</ele>
        <time>2013-02-04T08:28:43.999Z</time>
      </trkpt>
      <trkpt lat="47.23031" lon="-0.06279">
        <ele>71</ele>
        <time>2013-02-04T08:28:44.999Z</time>
      </trkpt>
      <trkpt lat="47.23031" lon="-0.06283">
        <ele>71</ele>
        <time>2013-02-04T08:28:47.999Z</time>
      </trkpt>
      <trkpt lat="47.23031" lon="-0.06286">
        <ele>71</ele>
        <time>2013-02-04T08:28:48.999Z</time>
      </trkpt>
      <trkpt lat="47.23033" lon="-0.06291">
        <ele>71</ele>
        <time>2013-02-04T08:28:52.999Z</time>
      </trkpt>
      <trkpt lat="47.23033" lon="-0.06293">
        <ele>71</ele>
        <time>2013-02-04T08:28:53.999Z</time>
      </trkpt>
      <trkpt lat="47.23034" lon="-0.06299">
        <ele>71</ele>
        <time>2013-02-04T08:28:59.999Z</time>
      </trkpt>
      <trkpt lat="47.23034" lon="-0.06301">
        <ele>71</ele>
        <time>2013-02-04T08:29:00.999Z</time>
      </trkpt>
      <trkpt lat="47.23034" lon="-0.06306">
        <ele>71</ele>
        <time>2013-02-04T08:29:03.999Z</time>
      </trkpt>
      <trkpt lat="47.23033" lon="-0.0631">
        <ele>71</ele>
        <time>2013-02-04T08:29:04.999Z</time>
      </trkpt>
      <trkpt lat="47.23031" lon="-0.06315">
        <ele>72</ele>
        <time>2013-02-04T08:29:06.999Z</time>
      </trkpt>
      <trkpt lat="47.23031" lon="-0.06317">
        <ele>72</ele>
        <time>2013-02-04T08:29:07.999Z</time>
      </trkpt>
      <trkpt lat="47.23032" lon="-0.06323">
        <ele>72</ele>
        <time>2013-02-04T08:29:11.999Z</time>
      </trkpt>
      <trkpt lat="47.23032" lon="-0.06325">
        <ele>72</ele>
        <time>2013-02-04T08:29:12.999Z</time>
      </trkpt>
      <trkpt lat="47.23031" lon="-0.06328">
        <ele>72</ele>
        <time>2013-02-04T08:29:13.999Z</time>
      </trkpt>
      <trkpt lat="47.23031" lon="-0.06332">
        <ele>72</ele>
        <time>2013-02-04T08:29:14.999Z</time>
      </trkpt>
      <trkpt lat="47.23031" lon="-0.06337">
        <ele>72</ele>
        <time>2013-02-04T08:29:16.999Z</time>
      </trkpt>
      <trkpt lat="47.23032" lon="-0.06339">
        <ele>72</ele>
        <time>2013-02-04T08:29:17.999Z</time>
      </trkpt>
      <trkpt lat="47.23033" lon="-0.06344">
        <ele>72</ele>
        <time>2013-02-04T08:29:21.999Z</time>
      </trkpt>
      <trkpt lat="47.23034" lon="-0.06346">
        <ele>72</ele>
        <time>2013-02-04T08:29:22.999Z</time>
      </trkpt>
      <trkpt lat="47.23035" lon="-0.06352">
        <ele>72</ele>
        <time>2013-02-04T08:29:27.999Z</time>
      </trkpt>
      <trkpt lat="47.23035" lon="-0.06354">
        <ele>72</ele>
        <time>2013-02-04T08:29:28.999Z</time>
      </trkpt>
      <trkpt lat="47.23036" lon="-0.0636">
        <ele>72</ele>
        <time>2013-02-04T08:29:32.999Z</time>
      </trkpt>
      <trkpt lat="47.23035" lon="-0.06362">
        <ele>73</ele>
        <time>2013-02-04T08:29:33.999Z</time>
      </trkpt>
      <trkpt lat="47.23035" lon="-0.06368">
        <ele>73</ele>
        <time>2013-02-04T08:29:35.999Z</time>
      </trkpt>
      <trkpt lat="47.23035" lon="-0.0637">
        <ele>73</ele>
        <time>2013-02-04T08:29:36.999Z</time>
      </trkpt>
      <trkpt lat="47.23037" lon="-0.06375">
        <ele>73</ele>
        <time>2013-02-04T08:29:39.999Z</time>
      </trkpt>
      <trkpt lat="47.23038" lon="-0.06376">
        <ele>73</ele>
        <time>2013-02-04T08:29:40.999Z</time>
      </trkpt>
      <trkpt lat="47.2304" lon="-0.0638">
        <ele>73</ele>
        <time>2013-02-04T08:29:43.999Z</time>
      </trkpt>
      <trkpt lat="47.2304" lon="-0.06382">
        <ele>73</ele>
        <time>2013-02-04T08:29:44.999Z</time>
      </trkpt>
      <trkpt lat="47.23042" lon="-0.06387">
        <ele>73</ele>
        <time>2013-02-04T08:29:47.999Z</time>
      </trkpt>
      <trkpt lat="47.23042" lon="-0.0639">
        <ele>73</ele>
        <time>2013-02-04T08:29:48.999Z</time>
      </trkpt>
      <trkpt lat="47.23043" lon="-0.06396">
        <ele>73</ele>
        <time>2013-02-04T08:29:52.999Z</time>
      </trkpt>
      <trkpt lat="47.23043" lon="-0.06397">
        <ele>73</ele>
        <time>2013-02-04T08:29:53.999Z</time>
      </trkpt>
      <trkpt lat="47.23043" lon="-0.06402">
        <ele>73</ele>
        <time>2013-02-04T08:29:56.999Z</time>
      </trkpt>
      <trkpt lat="47.23043" lon="-0.06404">
        <ele>73</ele>
        <time>2013-02-04T08:29:57.999Z</time>
      </trkpt>
      <trkpt lat="47.23045" lon="-0.0641">
        <ele>73</ele>
        <time>2013-02-04T08:30:01.999Z</time>
      </trkpt>
      <trkpt lat="47.23046" lon="-0.06411">
        <ele>73</ele>
        <time>2013-02-04T08:30:02.999Z</time>
      </trkpt>
      <trkpt lat="47.23047" lon="-0.06417">
        <ele>73</ele>
        <time>2013-02-04T08:30:06.999Z</time>
      </trkpt>
      <trkpt lat="47.23047" lon="-0.06418">
        <ele>73</ele>
        <time>2013-02-04T08:30:07.999Z</time>
      </trkpt>
      <trkpt lat="47.2305" lon="-0.06422">
        <ele>73</ele>
        <time>2013-02-04T08:30:11.999Z</time>
      </trkpt>
      <trkpt lat="47.2305" lon="-0.06423">
        <ele>73</ele>
        <time>2013-02-04T08:30:12.999Z</time>
      </trkpt>
      <trkpt lat="47.23054" lon="-0.06423">
        <ele>73</ele>
        <time>2013-02-04T08:30:18.999Z</time>
      </trkpt>
      <trkpt lat="47.23055" lon="-0.06422">
        <ele>73</ele>
        <time>2013-02-04T08:30:19.999Z</time>
      </trkpt>
      <trkpt lat="47.23058" lon="-0.0642">
        <ele>73</ele>
        <time>2013-02-04T08:30:22.999Z</time>
      </trkpt>
      <trkpt lat="47.2306" lon="-0.06419">
        <ele>73</ele>
        <time>2013-02-04T08:30:23.999Z</time>
      </trkpt>
      <trkpt lat="47.23063" lon="-0.06418">
        <ele>72</ele>
        <time>2013-02-04T08:30:26.999Z</time>
      </trkpt>
      <trkpt lat="47.23065" lon="-0.06417">
        <ele>72</ele>
        <time>2013-02-04T08:30:27.999Z</time>
      </trkpt>
      <trkpt lat="47.23068" lon="-0.06414">
        <ele>72</ele>
        <time>2013-02-04T08:30:30.999Z</time>
      </trkpt>
      <trkpt lat="47.23069" lon="-0.06413">
        <ele>72</ele>
        <time>2013-02-04T08:30:31.999Z</time>
      </trkpt>
      <trkpt lat="47.23073" lon="-0.06411">
        <ele>72</ele>
        <time>2013-02-04T08:30:35.999Z</time>
      </trkpt>
      <trkpt lat="47.23074" lon="-0.0641">
        <ele>72</ele>
        <time>2013-02-04T08:30:36.999Z</time>
      </trkpt>
      <trkpt lat="47.23078" lon="-0.0641">
        <ele>72</ele>
        <time>2013-02-04T08:30:40.999Z</time>
      </trkpt>
      <trkpt lat="47.2308" lon="-0.0641">
        <ele>72</ele>
        <time>2013-02-04T08:30:41.999Z</time>
      </trkpt>
      <trkpt lat="47.23083" lon="-0.06406">
        <ele>72</ele>
        <time>2013-02-04T08:30:44.999Z</time>
      </trkpt>
      <trkpt lat="47.23084" lon="-0.06405">
        <ele>71</ele>
        <time>2013-02-04T08:30:45.999Z</time>
      </trkpt>
      <trkpt lat="47.23088" lon="-0.06403">
        <ele>71</ele>
        <time>2013-02-04T08:30:49.999Z</time>
      </trkpt>
      <trkpt lat="47.23089" lon="-0.06403">
        <ele>71</ele>
        <time>2013-02-04T08:30:50.999Z</time>
      </trkpt>
      <trkpt lat="47.23092" lon="-0.06401">
        <ele>71</ele>
        <time>2013-02-04T08:30:56.999Z</time>
      </trkpt>
      <trkpt lat="47.23093" lon="-0.064">
        <ele>71</ele>
        <time>2013-02-04T08:30:57.999Z</time>
      </trkpt>
      <trkpt lat="47.23097" lon="-0.06399">
        <ele>71</ele>
        <time>2013-02-04T08:31:00.999Z</time>
      </trkpt>
      <trkpt lat="47.23098" lon="-0.06399">
        <ele>71</ele>
        <time>2013-02-04T08:31:01.999Z</time>
      </trkpt>
      <trkpt lat="47.23102" lon="-0.06397">
        <ele>71</ele>
        <time>2013-02-04T08:31:06.999Z</time>
      </trkpt>
      <trkpt lat="47.23103" lon="-0.06396">
        <ele>71</ele>
        <time>2013-02-04T08:31:07.999Z</time>
      </trkpt>
      <trkpt lat="47.23107" lon="-0.06393">
        <ele>71</ele>
        <time>2013-02-04T08:31:11.999Z</time>
      </trkpt>
      <trkpt lat="47.23108" lon="-0.06392">
        <ele>71</ele>
        <time>2013-02-04T08:31:12.999Z</time>
      </trkpt>
      <trkpt lat="47.23112" lon="-0.06391">
        <ele>71</ele>
        <time>2013-02-04T08:31:15.999Z</time>
      </trkpt>
      <trkpt lat="47.23113" lon="-0.0639">
        <ele>71</ele>
        <time>2013-02-04T08:31:16.999Z</time>
      </trkpt>
      <trkpt lat="47.23117" lon="-0.06388">
        <ele>71</ele>
        <time>2013-02-04T08:31:20.999Z</time>
      </trkpt>
      <trkpt lat="47.23118" lon="-0.06388">
        <ele>71</ele>
        <time>2013-02-04T08:31:21.999Z</time>
      </trkpt>
      <trkpt lat="47.2312" lon="-0.06385">
        <ele>71</ele>
        <time>2013-02-04T08:31:24.999Z</time>
      </trkpt>
      <trkpt lat="47.23122" lon="-0.06385">
        <ele>70</ele>
        <time>2013-02-04T08:31:25.999Z</time>
      </trkpt>
      <trkpt lat="47.23125" lon="-0.06384">
        <ele>70</ele>
        <time>2013-02-04T08:31:27.999Z</time>
      </trkpt>
      <trkpt lat="47.23127" lon="-0.06385">
        <ele>70</ele>
        <time>2013-02-04T08:31:28.999Z</time>
      </trkpt>
      <trkpt lat="47.2313" lon="-0.06384">
        <ele>70</ele>
        <time>2013-02-04T08:31:31.999Z</time>
      </trkpt>
      <trkpt lat="47.23132" lon="-0.06384">
        <ele>70</ele>
        <time>2013-02-04T08:31:32.999Z</time>
      </trkpt>
      <trkpt lat="47.23136" lon="-0.06383">
        <ele>70</ele>
        <time>2013-02-04T08:31:36.999Z</time>
      </trkpt>
      <trkpt lat="47.23137" lon="-0.06382">
        <ele>70</ele>
        <time>2013-02-04T08:31:37.999Z</time>
      </trkpt>
      <trkpt lat="47.2314" lon="-0.06381">
        <ele>70</ele>
        <time>2013-02-04T08:31:41.999Z</time>
      </trkpt>
      <trkpt lat="47.23141" lon="-0.06381">
        <ele>70</ele>
        <time>2013-02-04T08:31:42.999Z</time>
      </trkpt>
      <trkpt lat="47.23146" lon="-0.06381">
        <ele>70</ele>
        <time>2013-02-04T08:31:47.999Z</time>
      </trkpt>
      <trkpt lat="47.23147" lon="-0.0638">
        <ele>70</ele>
        <time>2013-02-04T08:31:48.999Z</time>
      </trkpt>
      <trkpt lat="47.2315" lon="-0.06379">
        <ele>70</ele>
        <time>2013-02-04T08:31:50.999Z</time>
      </trkpt>
      <trkpt lat="47.23151" lon="-0.06378">
        <ele>70</ele>
        <time>2013-02-04T08:31:51.999Z</time>
      </trkpt>
      <trkpt lat="47.23155" lon="-0.06376">
        <ele>70</ele>
        <time>2013-02-04T08:31:55.999Z</time>
      </trkpt>
      <trkpt lat="47.23156" lon="-0.06376">
        <ele>70</ele>
        <time>2013-02-04T08:31:56.999Z</time>
      </trkpt>
      <trkpt lat="47.2316" lon="-0.06375">
        <ele>70</ele>
        <time>2013-02-04T08:31:58.999Z</time>
      </trkpt>
      <trkpt lat="47.23161" lon="-0.06375">
        <ele>70</ele>
        <time>2013-02-04T08:31:59.999Z</time>
      </trkpt>
      <trkpt lat="47.23165" lon="-0.06376">
        <ele>70</ele>
        <time>2013-02-04T08:32:02.999Z</time>
      </trkpt>
      <trkpt lat="47.23166" lon="-0.06377">
        <ele>70</ele>
        <time>2013-02-04T08:32:03.999Z</time>
      </trkpt>
      <trkpt lat="47.23169" lon="-0.0638">
        <ele>68</ele>
        <time>2013-02-04T08:32:13.999Z</time>
      </trkpt>
      <trkpt lat="47.2317" lon="-0.06382">
        <ele>68</ele>
        <time>2013-02-04T08:32:14.999Z</time>
      </trkpt>
      <trkpt lat="47.23173" lon="-0.06385">
        <ele>68</ele>
        <time>2013-02-04T08:32:16.999Z</time>
      </trkpt>
      <trkpt lat="47.23174" lon="-0.06387">
        <ele>68</ele>
        <time>2013-02-04T08:32:17.999Z</time>
      </trkpt>
      <trkpt lat="47.23177" lon="-0.06392">
        <ele>68</ele>
        <time>2013-02-04T08:32:20.999Z</time>
      </trkpt>
      <trkpt lat="47.23178" lon="-0.06394">
        <ele>68</ele>
        <time>2013-02-04T08:32:21.999Z</time>
      </trkpt>
      <trkpt lat="47.23181" lon="-0.06398">
        <ele>68</ele>
        <time>2013-02-04T08:32:26.999Z</time>
      </trkpt>
      <trkpt lat="47.23183" lon="-0.06398">
        <ele>68</ele>
        <time>2013-02-04T08:32:27.999Z</time>
      </trkpt>
      <trkpt lat="47.23185" lon="-0.06402">
        <ele>68</ele>
        <time>2013-02-04T08:32:30.999Z</time>
      </trkpt>
      <trkpt lat="47.23186" lon="-0.06403">
        <ele>68</ele>
        <time>2013-02-04T08:32:31.999Z</time>
      </trkpt>
      <trkpt lat="47.23188" lon="-0.06409">
        <ele>68</ele>
        <time>2013-02-04T08:32:37.999Z</time>
      </trkpt>
      <trkpt lat="47.23189" lon="-0.06409">
        <ele>68</ele>
        <time>2013-02-04T08:32:38.999Z</time>
      </trkpt>
      <trkpt lat="47.23192" lon="-0.06412">
        <ele>68</ele>
        <time>2013-02-04T08:32:42.999Z</time>
      </trkpt>
      <trkpt lat="47.23193" lon="-0.06413">
        <ele>68</ele>
        <time>2013-02-04T08:32:43.999Z</time>
      </trkpt>
      <trkpt lat="47.23197" lon="-0.06414">
        <ele>68</ele>
        <time>2013-02-04T08:32:45.999Z</time>
      </trkpt>
      <trkpt lat="47.23199" lon="-0.06415">
        <ele>68</ele>
        <time>2013-02-04T08:32:46.999Z</time>
      </trkpt>
      <trkpt lat="47.23202" lon="-0.06416">
        <ele>68</ele>
        <time>2013-02-04T08:32:48.999Z</time>
      </trkpt>
      <trkpt lat="47.23204" lon="-0.06416">
        <ele>68</ele>
        <time>2013-02-04T08:32:49.999Z</time>
      </trkpt>
      <trkpt lat="47.23207" lon="-0.06417">
        <ele>67</ele>
        <time>2013-02-04T08:32:51.999Z</time>
      </trkpt>
      <trkpt lat="47.23208" lon="-0.06418">
        <ele>67</ele>
        <time>2013-02-04T08:32:52.999Z</time>
      </trkpt>
      <trkpt lat="47.23212" lon="-0.0642">
        <ele>67</ele>
        <time>2013-02-04T08:32:56.999Z</time>
      </trkpt>
      <trkpt lat="47.23213" lon="-0.06421">
        <ele>67</ele>
        <time>2013-02-04T08:32:57.999Z</time>
      </trkpt>
      <trkpt lat="47.23217" lon="-0.06423">
        <ele>67</ele>
        <time>2013-02-04T08:33:00.999Z</time>
      </trkpt>
      <trkpt lat="47.23219" lon="-0.06424">
        <ele>67</ele>
        <time>2013-02-04T08:33:01.999Z</time>
      </trkpt>
      <trkpt lat="47.23222" lon="-0.06426">
        <ele>67</ele>
        <time>2013-02-04T08:33:05.999Z</time>
      </trkpt>
      <trkpt lat="47.23223" lon="-0.06427">
        <ele>67</ele>
        <time>2013-02-04T08:33:06.999Z</time>
      </trkpt>
      <trkpt lat="47.23227" lon="-0.0643">
        <ele>67</ele>
        <time>2013-02-04T08:33:09.999Z</time>
      </trkpt>
      <trkpt lat="47.23228" lon="-0.06431">
        <ele>67</ele>
        <time>2013-02-04T08:33:10.999Z</time>
      </trkpt>
      <trkpt lat="47.23231" lon="-0.06434">
        <ele>67</ele>
        <time>2013-02-04T08:33:13.999Z</time>
      </trkpt>
      <trkpt lat="47.23232" lon="-0.06434">
        <ele>67</ele>
        <time>2013-02-04T08:33:14.999Z</time>
      </trkpt>
      <trkpt lat="47.23234" lon="-0.06437">
        <ele>67</ele>
        <time>2013-02-04T08:33:16.999Z</time>
      </trkpt>
      <trkpt lat="47.23235" lon="-0.06439">
        <ele>67</ele>
        <time>2013-02-04T08:33:17.999Z</time>
      </trkpt>
      <trkpt lat="47.23239" lon="-0.06442">
        <ele>67</ele>
        <time>2013-02-04T08:33:20.999Z</time>
      </trkpt>
      <trkpt lat="47.2324" lon="-0.06442">
        <ele>67</ele>
        <time>2013-02-04T08:33:21.999Z</time>
      </trkpt>
      <trkpt lat="47.23244" lon="-0.06445">
        <ele>67</ele>
        <time>2013-02-04T08:33:26.999Z</time>
      </trkpt>
      <trkpt lat="47.23244" lon="-0.06446">
        <ele>67</ele>
        <time>2013-02-04T08:33:27.999Z</time>
      </trkpt>
      <trkpt lat="47.23247" lon="-0.06448">
        <ele>67</ele>
        <time>2013-02-04T08:33:30.999Z</time>
      </trkpt>
      <trkpt lat="47.23249" lon="-0.06449">
        <ele>67</ele>
        <time>2013-02-04T08:33:31.999Z</time>
      </trkpt>
      <trkpt lat="47.23252" lon="-0.06451">
        <ele>64</ele>
        <time>2013-02-04T08:33:33.999Z</time>
      </trkpt>
      <trkpt lat="47.23253" lon="-0.06452">
        <ele>64</ele>
        <time>2013-02-04T08:33:34.999Z</time>
      </trkpt>
      <trkpt lat="47.23256" lon="-0.06455">
        <ele>64</ele>
        <time>2013-02-04T08:33:37.999Z</time>
      </trkpt>
      <trkpt lat="47.23257" lon="-0.06456">
        <ele>64</ele>
        <time>2013-02-04T08:33:38.999Z</time>
      </trkpt>
      <trkpt lat="47.2326" lon="-0.0646">
        <ele>64</ele>
        <time>2013-02-04T08:33:42.000Z</time>
      </trkpt>
      <trkpt lat="47.23261" lon="-0.0646">
        <ele>64</ele>
        <time>2013-02-04T08:33:43.000Z</time>
      </trkpt>
      <trkpt lat="47.23264" lon="-0.0646">
        <ele>64</ele>
        <time>2013-02-04T08:33:47.000Z</time>
      </trkpt>
      <trkpt lat="47.23266" lon="-0.0646">
        <ele>64</ele>
        <time>2013-02-04T08:33:48.000Z</time>
      </trkpt>
      <trkpt lat="47.23269" lon="-0.06458">
        <ele>63</ele>
        <time>2013-02-04T08:33:53.000Z</time>
      </trkpt>
      <trkpt lat="47.23269" lon="-0.06456">
        <ele>63</ele>
        <time>2013-02-04T08:33:54.000Z</time>
      </trkpt>
      <trkpt lat="47.23273" lon="-0.06456">
        <ele>63</ele>
        <time>2013-02-04T08:33:59.000Z</time>
      </trkpt>
      <trkpt lat="47.23275" lon="-0.06457">
        <ele>63</ele>
        <time>2013-02-04T08:34:00.000Z</time>
      </trkpt>
      <trkpt lat="47.23278" lon="-0.06456">
        <ele>63</ele>
        <time>2013-02-04T08:34:04.000Z</time>
      </trkpt>
      <trkpt lat="47.2328" lon="-0.06457">
        <ele>63</ele>
        <time>2013-02-04T08:34:05.000Z</time>
      </trkpt>
      <trkpt lat="47.23284" lon="-0.06457">
        <ele>63</ele>
        <time>2013-02-04T08:34:11.000Z</time>
      </trkpt>
      <trkpt lat="47.23285" lon="-0.06456">
        <ele>63</ele>
        <time>2013-02-04T08:34:12.000Z</time>
      </trkpt>
      <trkpt lat="47.23289" lon="-0.06459">
        <ele>62</ele>
        <time>2013-02-04T08:34:15.000Z</time>
      </trkpt>
      <trkpt lat="47.2329" lon="-0.0646">
        <ele>62</ele>
        <time>2013-02-04T08:34:16.000Z</time>
      </trkpt>
      <trkpt lat="47.23294" lon="-0.06461">
        <ele>62</ele>
        <time>2013-02-04T08:34:19.000Z</time>
      </trkpt>
      <trkpt lat="47.23296" lon="-0.0646">
        <ele>62</ele>
        <time>2013-02-04T08:34:20.000Z</time>
      </trkpt>
      <trkpt lat="47.233" lon="-0.06458">
        <ele>62</ele>
        <time>2013-02-04T08:34:24.000Z</time>
      </trkpt>
      <trkpt lat="47.23301" lon="-0.06457">
        <ele>62</ele>
        <time>2013-02-04T08:34:25.000Z</time>
      </trkpt>
      <trkpt lat="47.23304" lon="-0.06458">
        <ele>62</ele>
        <time>2013-02-04T08:34:27.000Z</time>
      </trkpt>
      <trkpt lat="47.23306" lon="-0.06458">
        <ele>61</ele>
        <time>2013-02-04T08:34:28.000Z</time>
      </trkpt>
      <trkpt lat="47.23309" lon="-0.06459">
        <ele>61</ele>
        <time>2013-02-04T08:34:32.000Z</time>
      </trkpt>
      <trkpt lat="47.2331" lon="-0.06459">
        <ele>61</ele>
        <time>2013-02-04T08:34:33.000Z</time>
      </trkpt>
      <trkpt lat="47.23313" lon="-0.06459">
        <ele>61</ele>
        <time>2013-02-04T08:34:38.000Z</time>
      </trkpt>
      <trkpt lat="47.23315" lon="-0.06459">
        <ele>61</ele>
        <time>2013-02-04T08:34:39.000Z</time>
      </trkpt>
      <trkpt lat="47.23319" lon="-0.06459">
        <ele>61</ele>
        <time>2013-02-04T08:34:42.000Z</time>
      </trkpt>
      <trkpt lat="47.2332" lon="-0.0646">
        <ele>61</ele>
        <time>2013-02-04T08:34:43.000Z</time>
      </trkpt>
      <trkpt lat="47.23323" lon="-0.06459">
        <ele>61</ele>
        <time>2013-02-04T08:34:48.000Z</time>
      </trkpt>
      <trkpt lat="47.23325" lon="-0.0646">
        <ele>61</ele>
        <time>2013-02-04T08:34:49.000Z</time>
      </trkpt>
      <trkpt lat="47.23329" lon="-0.06458">
        <ele>61</ele>
        <time>2013-02-04T08:34:54.000Z</time>
      </trkpt>
      <trkpt lat="47.23329" lon="-0.06458">
        <ele>61</ele>
        <time>2013-02-04T08:34:55.000Z</time>
      </trkpt>
      <trkpt lat="47.23333" lon="-0.06459">
        <ele>60</ele>
        <time>2013-02-04T08:34:59.000Z</time>
      </trkpt>
      <trkpt lat="47.23334" lon="-0.06458">
        <ele>60</ele>
        <time>2013-02-04T08:35:00.000Z</time>
      </trkpt>
      <trkpt lat="47.23338" lon="-0.06458">
        <ele>60</ele>
        <time>2013-02-04T08:35:08.000Z</time>
      </trkpt>
      <trkpt lat="47.23339" lon="-0.06458">
        <ele>60</ele>
        <time>2013-02-04T08:35:09.000Z</time>
      </trkpt>
      <trkpt lat="47.23342" lon="-0.06459">
        <ele>60</ele>
        <time>2013-02-04T08:35:12.000Z</time>
      </trkpt>
      <trkpt lat="47.23343" lon="-0.06459">
        <ele>61</ele>
        <time>2013-02-04T08:35:13.000Z</time>
      </trkpt>
      <trkpt lat="47.23347" lon="-0.06461">
        <ele>61</ele>
        <time>2013-02-04T08:35:14.000Z</time>
      </trkpt>
      <trkpt lat="47.23349" lon="-0.06462">
        <ele>61</ele>
        <time>2013-02-04T08:35:15.000Z</time>
      </trkpt>
      <trkpt lat="47.23352" lon="-0.06459">
        <ele>61</ele>
        <time>2013-02-04T08:35:24.000Z</time>
      </trkpt>
      <trkpt lat="47.23353" lon="-0.06457">
        <ele>61</ele>
        <time>2013-02-04T08:35:25.000Z</time>
      </trkpt>
      <trkpt lat="47.23355" lon="-0.06454">
        <ele>61</ele>
        <time>2013-02-04T08:35:27.000Z</time>
      </trkpt>
      <trkpt lat="47.23356" lon="-0.06452">
        <ele>61</ele>
        <time>2013-02-04T08:35:28.000Z</time>
      </trkpt>
      <trkpt lat="47.23359" lon="-0.06449">
        <ele>61</ele>
        <time>2013-02-04T08:35:41.000Z</time>
      </trkpt>
      <trkpt lat="47.2336" lon="-0.06447">
        <ele>61</ele>
        <time>2013-02-04T08:35:42.000Z</time>
      </trkpt>
      <trkpt lat="47.23361" lon="-0.06441">
        <ele>61</ele>
        <time>2013-02-04T08:35:45.000Z</time>
      </trkpt>
      <trkpt lat="47.23362" lon="-0.0644">
        <ele>61</ele>
        <time>2013-02-04T08:35:46.000Z</time>
      </trkpt>
      <trkpt lat="47.23363" lon="-0.06435">
        <ele>61</ele>
        <time>2013-02-04T08:35:52.000Z</time>
      </trkpt>
      <trkpt lat="47.23363" lon="-0.06433">
        <ele>61</ele>
        <time>2013-02-04T08:35:53.000Z</time>
      </trkpt>
      <trkpt lat="47.23364" lon="-0.06427">
        <ele>61</ele>
        <time>2013-02-04T08:35:57.000Z</time>
      </trkpt>
      <trkpt lat="47.23364" lon="-0.06426">
        <ele>61</ele>
        <time>2013-02-04T08:35:58.000Z</time>
      </trkpt>
      <trkpt lat="47.23365" lon="-0.0642">
        <ele>61</ele>
        <time>2013-02-04T08:36:05.000Z</time>
      </trkpt>
      <trkpt lat="47.23366" lon="-0.06419">
        <ele>61</ele>
        <time>2013-02-04T08:36:06.000Z</time>
      </trkpt>
      <trkpt lat="47.23367" lon="-0.06413">
        <ele>62</ele>
        <time>2013-02-04T08:36:11.000Z</time>
      </trkpt>
      <trkpt lat="47.23367" lon="-0.06412">
        <ele>62</ele>
        <time>2013-02-04T08:36:12.000Z</time>
      </trkpt>
      <trkpt lat="47.23369" lon="-0.06406">
        <ele>63</ele>
        <time>2013-02-04T08:36:17.000Z</time>
      </trkpt>
      <trkpt lat="47.23369" lon="-0.06404">
        <ele>63</ele>
        <time>2013-02-04T08:36:18.000Z</time>
      </trkpt>
      <trkpt lat="47.23369" lon="-0.064">
        <ele>63</ele>
        <time>2013-02-04T08:36:20.000Z</time>
      </trkpt>
      <trkpt lat="47.23369" lon="-0.06396">
        <ele>63</ele>
        <time>2013-02-04T08:36:21.000Z</time>
      </trkpt>
      <trkpt lat="47.2337" lon="-0.06392">
        <ele>63</ele>
        <time>2013-02-04T08:36:23.000Z</time>
      </trkpt>
      <trkpt lat="47.2337" lon="-0.0639">
        <ele>63</ele>
        <time>2013-02-04T08:36:24.000Z</time>
      </trkpt>
      <trkpt lat="47.23371" lon="-0.06384">
        <ele>63</ele>
        <time>2013-02-04T08:36:27.000Z</time>
      </trkpt>
      <trkpt lat="47.23372" lon="-0.06382">
        <ele>63</ele>
        <time>2013-02-04T08:36:28.000Z</time>
      </trkpt>
      <trkpt lat="47.23372" lon="-0.06376">
        <ele>63</ele>
        <time>2013-02-04T08:36:30.000Z</time>
      </trkpt>
      <trkpt lat="47.23372" lon="-0.06374">
        <ele>63</ele>
        <time>2013-02-04T08:36:31.000Z</time>
      </trkpt>
      <trkpt lat="47.23372" lon="-0.06368">
        <ele>63</ele>
        <time>2013-02-04T08:36:33.000Z</time>
      </trkpt>
      <trkpt lat="47.23371" lon="-0.06366">
        <ele>63</ele>
        <time>2013-02-04T08:36:34.000Z</time>
      </trkpt>
      <trkpt lat="47.23372" lon="-0.06362">
        <ele>63</ele>
        <time>2013-02-04T08:36:37.000Z</time>
      </trkpt>
      <trkpt lat="47.23372" lon="-0.06359">
        <ele>63</ele>
        <time>2013-02-04T08:36:38.000Z</time>
      </trkpt>
      <trkpt lat="47.23372" lon="-0.06353">
        <ele>63</ele>
        <time>2013-02-04T08:36:40.000Z</time>
      </trkpt>
      <trkpt lat="47.23371" lon="-0.0635">
        <ele>63</ele>
        <time>2013-02-04T08:36:41.000Z</time>
      </trkpt>
      <trkpt lat="47.23371" lon="-0.06345">
        <ele>63</ele>
        <time>2013-02-04T08:36:43.000Z</time>
      </trkpt>
      <trkpt lat="47.23371" lon="-0.06342">
        <ele>63</ele>
        <time>2013-02-04T08:36:44.000Z</time>
      </trkpt>
      <trkpt lat="47.2337" lon="-0.06337">
        <ele>63</ele>
        <time>2013-02-04T08:36:46.000Z</time>
      </trkpt>
      <trkpt lat="47.2337" lon="-0.06335">
        <ele>63</ele>
        <time>2013-02-04T08:36:47.000Z</time>
      </trkpt>
      <trkpt lat="47.2337" lon="-0.06329">
        <ele>63</ele>
        <time>2013-02-04T08:36:50.000Z</time>
      </trkpt>
      <trkpt lat="47.2337" lon="-0.06327">
        <ele>63</ele>
        <time>2013-02-04T08:36:51.000Z</time>
      </trkpt>
      <trkpt lat="47.23371" lon="-0.06322">
        <ele>63</ele>
        <time>2013-02-04T08:36:54.000Z</time>
      </trkpt>
      <trkpt lat="47.23371" lon="-0.0632">
        <ele>63</ele>
        <time>2013-02-04T08:36:55.000Z</time>
      </trkpt>
      <trkpt lat="47.23371" lon="-0.06313">
        <ele>63</ele>
        <time>2013-02-04T08:37:00.000Z</time>
      </trkpt>
      <trkpt lat="47.23371" lon="-0.06312">
        <ele>63</ele>
        <time>2013-02-04T08:37:01.000Z</time>
      </trkpt>
      <trkpt lat="47.23372" lon="-0.06307">
        <ele>63</ele>
        <time>2013-02-04T08:37:06.000Z</time>
      </trkpt>
      <trkpt lat="47.23372" lon="-0.06305">
        <ele>63</ele>
        <time>2013-02-04T08:37:07.000Z</time>
      </trkpt>
      <trkpt lat="47.23372" lon="-0.06299">
        <ele>63</ele>
        <time>2013-02-04T08:37:12.000Z</time>
      </trkpt>
      <trkpt lat="47.23372" lon="-0.06298">
        <ele>63</ele>
        <time>2013-02-04T08:37:13.000Z</time>
      </trkpt>
      <trkpt lat="47.23371" lon="-0.06292">
        <ele>63</ele>
        <time>2013-02-04T08:37:16.000Z</time>
      </trkpt>
      <trkpt lat="47.23371" lon="-0.0629">
        <ele>63</ele>
        <time>2013-02-04T08:37:17.000Z</time>
      </trkpt>
      <trkpt lat="47.23372" lon="-0.06284">
        <ele>63</ele>
        <time>2013-02-04T08:37:21.000Z</time>
      </trkpt>
      <trkpt lat="47.23372" lon="-0.06281">
        <ele>63</ele>
        <time>2013-02-04T08:37:22.000Z</time>
      </trkpt>
      <trkpt lat="47.23371" lon="-0.06275">
        <ele>63</ele>
        <time>2013-02-04T08:37:27.000Z</time>
      </trkpt>
      <trkpt lat="47.23371" lon="-0.06273">
        <ele>63</ele>
        <time>2013-02-04T08:37:28.000Z</time>
      </trkpt>
      <trkpt lat="47.2337" lon="-0.06267">
        <ele>63</ele>
        <time>2013-02-04T08:37:31.000Z</time>
      </trkpt>
      <trkpt lat="47.2337" lon="-0.06265">
        <ele>63</ele>
        <time>2013-02-04T08:37:32.000Z</time>
      </trkpt>
      <trkpt lat="47.2337" lon="-0.0626">
        <ele>63</ele>
        <time>2013-02-04T08:37:35.000Z</time>
      </trkpt>
      <trkpt lat="47.23371" lon="-0.06259">
        <ele>63</ele>
        <time>2013-02-04T08:37:36.000Z</time>
      </trkpt>
      <trkpt lat="47.23372" lon="-0.06255">
        <ele>63</ele>
        <time>2013-02-04T08:37:38.000Z</time>
      </trkpt>
      <trkpt lat="47.23372" lon="-0.06252">
        <ele>63</ele>
        <time>2013-02-04T08:37:39.000Z</time>
      </trkpt>
      <trkpt lat="47.23373" lon="-0.06246">
        <ele>62</ele>
        <time>2013-02-04T08:37:42.000Z</time>
      </trkpt>
      <trkpt lat="47.23373" lon="-0.06244">
        <ele>62</ele>
        <time>2013-02-04T08:37:43.000Z</time>
      </trkpt>
      <trkpt lat="47.23372" lon="-0.0624">
        <ele>62</ele>
        <time>2013-02-04T08:37:46.000Z</time>
      </trkpt>
      <trkpt lat="47.23372" lon="-0.06238">
        <ele>62</ele>
        <time>2013-02-04T08:37:47.000Z</time>
      </trkpt>
      <trkpt lat="47.2337" lon="-0.06232">
        <ele>62</ele>
        <time>2013-02-04T08:37:50.000Z</time>
      </trkpt>
      <trkpt lat="47.2337" lon="-0.06231">
        <ele>62</ele>
        <time>2013-02-04T08:37:51.000Z</time>
      </trkpt>
      <trkpt lat="47.23369" lon="-0.06225">
        <ele>62</ele>
        <time>2013-02-04T08:37:55.000Z</time>
      </trkpt>
      <trkpt lat="47.23369" lon="-0.06224">
        <ele>62</ele>
        <time>2013-02-04T08:37:56.000Z</time>
      </trkpt>
      <trkpt lat="47.23369" lon="-0.06219">
        <ele>62</ele>
        <time>2013-02-04T08:37:58.000Z</time>
      </trkpt>
      <trkpt lat="47.23369" lon="-0.06216">
        <ele>62</ele>
        <time>2013-02-04T08:37:59.000Z</time>
      </trkpt>
      <trkpt lat="47.23368" lon="-0.06212">
        <ele>62</ele>
        <time>2013-02-04T08:38:02.000Z</time>
      </trkpt>
      <trkpt lat="47.23368" lon="-0.06209">
        <ele>62</ele>
        <time>2013-02-04T08:38:03.000Z</time>
      </trkpt>
      <trkpt lat="47.23368" lon="-0.06203">
        <ele>62</ele>
        <time>2013-02-04T08:38:06.000Z</time>
      </trkpt>
      <trkpt lat="47.23367" lon="-0.06201">
        <ele>62</ele>
        <time>2013-02-04T08:38:07.000Z</time>
      </trkpt>
      <trkpt lat="47.23367" lon="-0.06195">
        <ele>62</ele>
        <time>2013-02-04T08:38:11.000Z</time>
      </trkpt>
      <trkpt lat="47.23366" lon="-0.06193">
        <ele>62</ele>
        <time>2013-02-04T08:38:12.000Z</time>
      </trkpt>
      <trkpt lat="47.23365" lon="-0.06188">
        <ele>62</ele>
        <time>2013-02-04T08:38:16.000Z</time>
      </trkpt>
      <trkpt lat="47.23365" lon="-0.06187">
        <ele>62</ele>
        <time>2013-02-04T08:38:17.000Z</time>
      </trkpt>
      <trkpt lat="47.23365" lon="-0.0618">
        <ele>62</ele>
        <time>2013-02-04T08:38:20.000Z</time>
      </trkpt>
      <trkpt lat="47.23365" lon="-0.06179">
        <ele>62</ele>
        <time>2013-02-04T08:38:21.000Z</time>
      </trkpt>
      <trkpt lat="47.23363" lon="-0.06174">
        <ele>61</ele>
        <time>2013-02-04T08:38:25.000Z</time>
      </trkpt>
      <trkpt lat="47.23363" lon="-0.06173">
        <ele>61</ele>
        <time>2013-02-04T08:38:26.000Z</time>
      </trkpt>
      <trkpt lat="47.23359" lon="-0.06168">
        <ele>61</ele>
        <time>2013-02-04T08:38:30.000Z</time>
      </trkpt>
      <trkpt lat="47.23359" lon="-0.06167">
        <ele>62</ele>
        <time>2013-02-04T08:38:31.000Z</time>
      </trkpt>
      <trkpt lat="47.23356" lon="-0.06161">
        <ele>61</ele>
        <time>2013-02-04T08:38:34.000Z</time>
      </trkpt>
      <trkpt lat="47.23356" lon="-0.06159">
        <ele>61</ele>
        <time>2013-02-04T08:38:35.000Z</time>
      </trkpt>
      <trkpt lat="47.23352" lon="-0.06156">
        <ele>61</ele>
        <time>2013-02-04T08:38:38.000Z</time>
      </trkpt>
      <trkpt lat="47.23351" lon="-0.06155">
        <ele>61</ele>
        <time>2013-02-04T08:38:39.000Z</time>
      </trkpt>
      <trkpt lat="47.2335" lon="-0.06151">
        <ele>61</ele>
        <time>2013-02-04T08:38:42.000Z</time>
      </trkpt>
      <trkpt lat="47.23349" lon="-0.06149">
        <ele>61</ele>
        <time>2013-02-04T08:38:43.000Z</time>
      </trkpt>
      <trkpt lat="47.23347" lon="-0.06146">
        <ele>62</ele>
        <time>2013-02-04T08:38:47.000Z</time>
      </trkpt>
      <trkpt lat="47.23346" lon="-0.06144">
        <ele>62</ele>
        <time>2013-02-04T08:38:48.000Z</time>
      </trkpt>
      <trkpt lat="47.23344" lon="-0.06138">
        <ele>62</ele>
        <time>2013-02-04T08:38:51.000Z</time>
      </trkpt>
      <trkpt lat="47.23343" lon="-0.06136">
        <ele>62</ele>
        <time>2013-02-04T08:38:52.000Z</time>
      </trkpt>
      <trkpt lat="47.23342" lon="-0.0613">
        <ele>62</ele>
        <time>2013-02-04T08:38:57.000Z</time>
      </trkpt>
      <trkpt lat="47.23342" lon="-0.06129">
        <ele>62</ele>
        <time>2013-02-04T08:38:58.000Z</time>
      </trkpt>
      <trkpt lat="47.23339" lon="-0.06123">
        <ele>62</ele>
        <time>2013-02-04T08:39:02.000Z</time>
      </trkpt>
      <trkpt lat="47.23338" lon="-0.06122">
        <ele>62</ele>
        <time>2013-02-04T08:39:03.000Z</time>
      </trkpt>
      <trkpt lat="47.23335" lon="-0.06119">
        <ele>62</ele>
        <time>2013-02-04T08:39:05.000Z</time>
      </trkpt>
      <trkpt lat="47.23334" lon="-0.06118">
        <ele>62</ele>
        <time>2013-02-04T08:39:06.000Z</time>
      </trkpt>
      <trkpt lat="47.23333" lon="-0.06115">
        <ele>62</ele>
        <time>2013-02-04T08:39:07.000Z</time>
      </trkpt>
      <trkpt lat="47.23331" lon="-0.06112">
        <ele>62</ele>
        <time>2013-02-04T08:39:08.000Z</time>
      </trkpt>
      <trkpt lat="47.23329" lon="-0.06107">
        <ele>62</ele>
        <time>2013-02-04T08:39:11.000Z</time>
      </trkpt>
      <trkpt lat="47.23328" lon="-0.06106">
        <ele>62</ele>
        <time>2013-02-04T08:39:12.000Z</time>
      </trkpt>
      <trkpt lat="47.23326" lon="-0.06103">
        <ele>62</ele>
        <time>2013-02-04T08:39:17.000Z</time>
      </trkpt>
      <trkpt lat="47.23325" lon="-0.06101">
        <ele>62</ele>
        <time>2013-02-04T08:39:18.000Z</time>
      </trkpt>
      <trkpt lat="47.23321" lon="-0.06098">
        <ele>62</ele>
        <time>2013-02-04T08:39:22.000Z</time>
      </trkpt>
      <trkpt lat="47.23321" lon="-0.06097">
        <ele>62</ele>
        <time>2013-02-04T08:39:23.000Z</time>
      </trkpt>
      <trkpt lat="47.23317" lon="-0.06093">
        <ele>62</ele>
        <time>2013-02-04T08:39:27.000Z</time>
      </trkpt>
      <trkpt lat="47.23316" lon="-0.06092">
        <ele>62</ele>
        <time>2013-02-04T08:39:28.000Z</time>
      </trkpt>
      <trkpt lat="47.23315" lon="-0.06087">
        <ele>62</ele>
        <time>2013-02-04T08:39:31.000Z</time>
      </trkpt>
      <trkpt lat="47.23314" lon="-0.06086">
        <ele>62</ele>
        <time>2013-02-04T08:39:32.000Z</time>
      </trkpt>
      <trkpt lat="47.23312" lon="-0.06081">
        <ele>63</ele>
        <time>2013-02-04T08:39:35.000Z</time>
      </trkpt>
      <trkpt lat="47.23311" lon="-0.0608">
        <ele>63</ele>
        <time>2013-02-04T08:39:36.000Z</time>
      </trkpt>
      <trkpt lat="47.23308" lon="-0.06076">
        <ele>63</ele>
        <time>2013-02-04T08:39:39.000Z</time>
      </trkpt>
      <trkpt lat="47.23307" lon="-0.06075">
        <ele>63</ele>
        <time>2013-02-04T08:39:40.000Z</time>
      </trkpt>
      <trkpt lat="47.23305" lon="-0.0607">
        <ele>63</ele>
        <time>2013-02-04T08:39:42.000Z</time>
      </trkpt>
      <trkpt lat="47.23305" lon="-0.06068">
        <ele>63</ele>
        <time>2013-02-04T08:39:43.000Z</time>
      </trkpt>
      <trkpt lat="47.23302" lon="-0.06064">
        <ele>63</ele>
        <time>2013-02-04T08:39:46.000Z</time>
      </trkpt>
      <trkpt lat="47.23301" lon="-0.06063">
        <ele>63</ele>
        <time>2013-02-04T08:39:47.000Z</time>
      </trkpt>
      <trkpt lat="47.23299" lon="-0.06058">
        <ele>64</ele>
        <time>2013-02-04T08:39:51.000Z</time>
      </trkpt>
      <trkpt lat="47.23298" lon="-0.06056">
        <ele>64</ele>
        <time>2013-02-04T08:39:52.000Z</time>
      </trkpt>
      <trkpt lat="47.23297" lon="-0.0605">
        <ele>64</ele>
        <time>2013-02-04T08:39:57.000Z</time>
      </trkpt>
      <trkpt lat="47.23297" lon="-0.06048">
        <ele>64</ele>
        <time>2013-02-04T08:39:58.000Z</time>
      </trkpt>
      <trkpt lat="47.23297" lon="-0.06042">
        <ele>64</ele>
        <time>2013-02-04T08:40:03.000Z</time>
      </trkpt>
      <trkpt lat="47.23296" lon="-0.0604">
        <ele>64</ele>
        <time>2013-02-04T08:40:04.000Z</time>
      </trkpt>
      <trkpt lat="47.23293" lon="-0.06036">
        <ele>64</ele>
        <time>2013-02-04T08:40:08.000Z</time>
      </trkpt>
      <trkpt lat="47.23293" lon="-0.06033">
        <ele>64</ele>
        <time>2013-02-04T08:40:09.000Z</time>
      </trkpt>
      <trkpt lat="47.23292" lon="-0.06027">
        <ele>64</ele>
        <time>2013-02-04T08:40:12.000Z</time>
      </trkpt>
      <trkpt lat="47.23292" lon="-0.06026">
        <ele>64</ele>
        <time>2013-02-04T08:40:13.000Z</time>
      </trkpt>
      <trkpt lat="47.23291" lon="-0.0602">
        <ele>64</ele>
        <time>2013-02-04T08:40:17.000Z</time>
      </trkpt>
      <trkpt lat="47.2329" lon="-0.06015">
        <ele>64</ele>
        <time>2013-02-04T08:40:18.000Z</time>
      </trkpt>
      <trkpt lat="47.2329" lon="-0.06009">
        <ele>64</ele>
        <time>2013-02-04T08:40:20.000Z</time>
      </trkpt>
      <trkpt lat="47.23289" lon="-0.06008">
        <ele>64</ele>
        <time>2013-02-04T08:40:21.000Z</time>
      </trkpt>
      <trkpt lat="47.23288" lon="-0.06003">
        <ele>64</ele>
        <time>2013-02-04T08:40:24.000Z</time>
      </trkpt>
      <trkpt lat="47.23288" lon="-0.06001">
        <ele>64</ele>
        <time>2013-02-04T08:40:25.000Z</time>
      </trkpt>
      <trkpt lat="47.23286" lon="-0.05997">
        <ele>65</ele>
        <time>2013-02-04T08:40:27.000Z</time>
      </trkpt>
      <trkpt lat="47.23285" lon="-0.05995">
        <ele>65</ele>
        <time>2013-02-04T08:40:28.000Z</time>
      </trkpt>
      <trkpt lat="47.23284" lon="-0.05989">
        <ele>65</ele>
        <time>2013-02-04T08:40:32.000Z</time>
      </trkpt>
      <trkpt lat="47.23284" lon="-0.05988">
        <ele>65</ele>
        <time>2013-02-04T08:40:33.000Z</time>
      </trkpt>
      <trkpt lat="47.23283" lon="-0.05983">
        <ele>65</ele>
        <time>2013-02-04T08:40:37.000Z</time>
      </trkpt>
      <trkpt lat="47.23282" lon="-0.05981">
        <ele>65</ele>
        <time>2013-02-04T08:40:38.000Z</time>
      </trkpt>
      <trkpt lat="47.23281" lon="-0.05975">
        <ele>65</ele>
        <time>2013-02-04T08:40:42.000Z</time>
      </trkpt>
      <trkpt lat="47.23281" lon="-0.05974">
        <ele>65</ele>
        <time>2013-02-04T08:40:43.000Z</time>
      </trkpt>
      <trkpt lat="47.23281" lon="-0.05968">
        <ele>65</ele>
        <time>2013-02-04T08:40:46.000Z</time>
      </trkpt>
      <trkpt lat="47.23281" lon="-0.05967">
        <ele>65</ele>
        <time>2013-02-04T08:40:47.000Z</time>
      </trkpt>
      <trkpt lat="47.2328" lon="-0.05963">
        <ele>65</ele>
        <time>2013-02-04T08:40:50.000Z</time>
      </trkpt>
      <trkpt lat="47.2328" lon="-0.0596">
        <ele>65</ele>
        <time>2013-02-04T08:40:51.000Z</time>
      </trkpt>
      <trkpt lat="47.23281" lon="-0.05954">
        <ele>65</ele>
        <time>2013-02-04T08:40:55.000Z</time>
      </trkpt>
      <trkpt lat="47.23282" lon="-0.05951">
        <ele>65</ele>
        <time>2013-02-04T08:40:56.000Z</time>
      </trkpt>
      <trkpt lat="47.23282" lon="-0.05945">
        <ele>65</ele>
        <time>2013-02-04T08:40:59.000Z</time>
      </trkpt>
      <trkpt lat="47.23281" lon="-0.05944">
        <ele>65</ele>
        <time>2013-02-04T08:41:00.000Z</time>
      </trkpt>
      <trkpt lat="47.23279" lon="-0.05938">
        <ele>65</ele>
        <time>2013-02-04T08:41:03.000Z</time>
      </trkpt>
      <trkpt lat="47.23278" lon="-0.05936">
        <ele>65</ele>
        <time>2013-02-04T08:41:04.000Z</time>
      </trkpt>
      <trkpt lat="47.23278" lon="-0.0593">
        <ele>65</ele>
        <time>2013-02-04T08:41:07.000Z</time>
      </trkpt>
      <trkpt lat="47.23277" lon="-0.05928">
        <ele>65</ele>
        <time>2013-02-04T08:41:08.000Z</time>
      </trkpt>
      <trkpt lat="47.23275" lon="-0.05923">
        <ele>65</ele>
        <time>2013-02-04T08:41:12.000Z</time>
      </trkpt>
      <trkpt lat="47.23275" lon="-0.05922">
        <ele>65</ele>
        <time>2013-02-04T08:41:13.000Z</time>
      </trkpt>
      <trkpt lat="47.23275" lon="-0.05915">
        <ele>65</ele>
        <time>2013-02-04T08:41:16.000Z</time>
      </trkpt>
      <trkpt lat="47.23275" lon="-0.05914">
        <ele>65</ele>
        <time>2013-02-04T08:41:17.000Z</time>
      </trkpt>
      <trkpt lat="47.23276" lon="-0.05907">
        <ele>65</ele>
        <time>2013-02-04T08:41:21.000Z</time>
      </trkpt>
      <trkpt lat="47.23277" lon="-0.05906">
        <ele>65</ele>
        <time>2013-02-04T08:41:22.000Z</time>
      </trkpt>
      <trkpt lat="47.23277" lon="-0.059">
        <ele>66</ele>
        <time>2013-02-04T08:41:25.000Z</time>
      </trkpt>
      <trkpt lat="47.23278" lon="-0.05899">
        <ele>66</ele>
        <time>2013-02-04T08:41:26.000Z</time>
      </trkpt>
      <trkpt lat="47.23279" lon="-0.05893">
        <ele>66</ele>
        <time>2013-02-04T08:41:30.000Z</time>
      </trkpt>
      <trkpt lat="47.23279" lon="-0.05891">
        <ele>66</ele>
        <time>2013-02-04T08:41:31.000Z</time>
      </trkpt>
      <trkpt lat="47.2328" lon="-0.05886">
        <ele>66</ele>
        <time>2013-02-04T08:41:34.000Z</time>
      </trkpt>
      <trkpt lat="47.2328" lon="-0.05884">
        <ele>66</ele>
        <time>2013-02-04T08:41:35.000Z</time>
      </trkpt>
      <trkpt lat="47.23281" lon="-0.05879">
        <ele>66</ele>
        <time>2013-02-04T08:41:38.000Z</time>
      </trkpt>
      <trkpt lat="47.23282" lon="-0.05878">
        <ele>66</ele>
        <time>2013-02-04T08:41:39.000Z</time>
      </trkpt>
      <trkpt lat="47.23281" lon="-0.05872">
        <ele>66</ele>
        <time>2013-02-04T08:41:41.000Z</time>
      </trkpt>
      <trkpt lat="47.23282" lon="-0.05871">
        <ele>66</ele>
        <time>2013-02-04T08:41:42.000Z</time>
      </trkpt>
      <trkpt lat="47.23283" lon="-0.05866">
        <ele>66</ele>
        <time>2013-02-04T08:41:45.000Z</time>
      </trkpt>
      <trkpt lat="47.23282" lon="-0.05864">
        <ele>66</ele>
        <time>2013-02-04T08:41:46.000Z</time>
      </trkpt>
      <trkpt lat="47.23282" lon="-0.05858">
        <ele>66</ele>
        <time>2013-02-04T08:41:50.000Z</time>
      </trkpt>
      <trkpt lat="47.23282" lon="-0.05855">
        <ele>66</ele>
        <time>2013-02-04T08:41:51.000Z</time>
      </trkpt>
      <trkpt lat="47.23281" lon="-0.05849">
        <ele>66</ele>
        <time>2013-02-04T08:41:55.000Z</time>
      </trkpt>
      <trkpt lat="47.23281" lon="-0.05848">
        <ele>66</ele>
        <time>2013-02-04T08:41:56.000Z</time>
      </trkpt>
      <trkpt lat="47.23281" lon="-0.05842">
        <ele>66</ele>
        <time>2013-02-04T08:41:59.000Z</time>
      </trkpt>
      <trkpt lat="47.23282" lon="-0.05841">
        <ele>66</ele>
        <time>2013-02-04T08:42:00.000Z</time>
      </trkpt>
      <trkpt lat="47.23281" lon="-0.05835">
        <ele>66</ele>
        <time>2013-02-04T08:42:03.000Z</time>
      </trkpt>
      <trkpt lat="47.23281" lon="-0.05833">
        <ele>66</ele>
        <time>2013-02-04T08:42:04.000Z</time>
      </trkpt>
      <trkpt lat="47.23281" lon="-0.05828">
        <ele>66</ele>
        <time>2013-02-04T08:42:07.000Z</time>
      </trkpt>
      <trkpt lat="47.23282" lon="-0.05826">
        <ele>66</ele>
        <time>2013-02-04T08:42:08.000Z</time>
      </trkpt>
      <trkpt lat="47.23283" lon="-0.05822">
        <ele>66</ele>
        <time>2013-02-04T08:42:12.000Z</time>
      </trkpt>
      <trkpt lat="47.23283" lon="-0.05819">
        <ele>66</ele>
        <time>2013-02-04T08:42:13.000Z</time>
      </trkpt>
      <trkpt lat="47.23285" lon="-0.05813">
        <ele>66</ele>
        <time>2013-02-04T08:42:18.000Z</time>
      </trkpt>
      <trkpt lat="47.23284" lon="-0.05811">
        <ele>66</ele>
        <time>2013-02-04T08:42:19.000Z</time>
      </trkpt>
      <trkpt lat="47.23283" lon="-0.05804">
        <ele>66</ele>
        <time>2013-02-04T08:42:22.000Z</time>
      </trkpt>
      <trkpt lat="47.23284" lon="-0.05802">
        <ele>66</ele>
        <time>2013-02-04T08:42:23.000Z</time>
      </trkpt>
      <trkpt lat="47.23284" lon="-0.05797">
        <ele>66</ele>
        <time>2013-02-04T08:42:25.000Z</time>
      </trkpt>
      <trkpt lat="47.23285" lon="-0.05795">
        <ele>66</ele>
        <time>2013-02-04T08:42:26.000Z</time>
      </trkpt>
      <trkpt lat="47.23285" lon="-0.0579">
        <ele>66</ele>
        <time>2013-02-04T08:42:29.000Z</time>
      </trkpt>
      <trkpt lat="47.23286" lon="-0.05788">
        <ele>66</ele>
        <time>2013-02-04T08:42:30.000Z</time>
      </trkpt>
      <trkpt lat="47.23287" lon="-0.05781">
        <ele>66</ele>
        <time>2013-02-04T08:42:40.000Z</time>
      </trkpt>
      <trkpt lat="47.23287" lon="-0.05781">
        <ele>66</ele>
        <time>2013-02-04T08:42:41.000Z</time>
      </trkpt>
      <trkpt lat="47.2329" lon="-0.05776">
        <ele>66</ele>
        <time>2013-02-04T08:42:46.000Z</time>
      </trkpt>
      <trkpt lat="47.2329" lon="-0.05775">
        <ele>66</ele>
        <time>2013-02-04T08:42:47.000Z</time>
      </trkpt>
      <trkpt lat="47.23293" lon="-0.05773">
        <ele>67</ele>
        <time>2013-02-04T08:42:51.000Z</time>
      </trkpt>
      <trkpt lat="47.23295" lon="-0.05772">
        <ele>67</ele>
        <time>2013-02-04T08:42:52.000Z</time>
      </trkpt>
      <trkpt lat="47.23297" lon="-0.05769">
        <ele>67</ele>
        <time>2013-02-04T08:42:55.000Z</time>
      </trkpt>
      <trkpt lat="47.23299" lon="-0.05768">
        <ele>67</ele>
        <time>2013-02-04T08:42:56.000Z</time>
      </trkpt>
      <trkpt lat="47.23303" lon="-0.05766">
        <ele>67</ele>
        <time>2013-02-04T08:43:00.000Z</time>
      </trkpt>
      <trkpt lat="47.23304" lon="-0.05766">
        <ele>67</ele>
        <time>2013-02-04T08:43:01.000Z</time>
      </trkpt>
      <trkpt lat="47.23308" lon="-0.05765">
        <ele>67</ele>
        <time>2013-02-04T08:43:05.000Z</time>
      </trkpt>
      <trkpt lat="47.23309" lon="-0.05765">
        <ele>67</ele>
        <time>2013-02-04T08:43:06.000Z</time>
      </trkpt>
      <trkpt lat="47.23313" lon="-0.05764">
        <ele>67</ele>
        <time>2013-02-04T08:43:09.000Z</time>
      </trkpt>
      <trkpt lat="47.23314" lon="-0.05764">
        <ele>67</ele>
        <time>2013-02-04T08:43:10.000Z</time>
      </trkpt>
      <trkpt lat="47.23317" lon="-0.05765">
        <ele>67</ele>
        <time>2013-02-04T08:43:12.000Z</time>
      </trkpt>
      <trkpt lat="47.23318" lon="-0.05766">
        <ele>67</ele>
        <time>2013-02-04T08:43:13.000Z</time>
      </trkpt>
      <trkpt lat="47.23322" lon="-0.05765">
        <ele>67</ele>
        <time>2013-02-04T08:43:16.000Z</time>
      </trkpt>
      <trkpt lat="47.23323" lon="-0.05766">
        <ele>67</ele>
        <time>2013-02-04T08:43:17.000Z</time>
      </trkpt>
      <trkpt lat="47.23327" lon="-0.05767">
        <ele>67</ele>
        <time>2013-02-04T08:43:27.000Z</time>
      </trkpt>
      <trkpt lat="47.23329" lon="-0.05766">
        <ele>67</ele>
        <time>2013-02-04T08:43:28.000Z</time>
      </trkpt>
      <trkpt lat="47.23332" lon="-0.05764">
        <ele>67</ele>
        <time>2013-02-04T08:43:31.000Z</time>
      </trkpt>
      <trkpt lat="47.23333" lon="-0.05763">
        <ele>67</ele>
        <time>2013-02-04T08:43:32.000Z</time>
      </trkpt>
      <trkpt lat="47.23337" lon="-0.05762">
        <ele>70</ele>
        <time>2013-02-04T08:43:35.000Z</time>
      </trkpt>
      <trkpt lat="47.23338" lon="-0.05762">
        <ele>70</ele>
        <time>2013-02-04T08:43:36.000Z</time>
      </trkpt>
      <trkpt lat="47.23341" lon="-0.05761">
        <ele>70</ele>
        <time>2013-02-04T08:43:39.000Z</time>
      </trkpt>
      <trkpt lat="47.23343" lon="-0.05761">
        <ele>70</ele>
        <time>2013-02-04T08:43:40.000Z</time>
      </trkpt>
      <trkpt lat="47.23347" lon="-0.0576">
        <ele>70</ele>
        <time>2013-02-04T08:43:45.000Z</time>
      </trkpt>
      <trkpt lat="47.23348" lon="-0.05759">
        <ele>70</ele>
        <time>2013-02-04T08:43:46.000Z</time>
      </trkpt>
      <trkpt lat="47.23351" lon="-0.05757">
        <ele>70</ele>
        <time>2013-02-04T08:43:49.000Z</time>
      </trkpt>
      <trkpt lat="47.23353" lon="-0.05756">
        <ele>71</ele>
        <time>2013-02-04T08:43:50.000Z</time>
      </trkpt>
      <trkpt lat="47.23356" lon="-0.05755">
        <ele>71</ele>
        <time>2013-02-04T08:43:53.000Z</time>
      </trkpt>
      <trkpt lat="47.23358" lon="-0.05754">
        <ele>71</ele>
        <time>2013-02-04T08:43:54.000Z</time>
      </trkpt>
      <trkpt lat="47.23362" lon="-0.05753">
        <ele>71</ele>
        <time>2013-02-04T08:43:57.000Z</time>
      </trkpt>
      <trkpt lat="47.23363" lon="-0.05752">
        <ele>71</ele>
        <time>2013-02-04T08:43:58.000Z</time>
      </trkpt>
      <trkpt lat="47.23367" lon="-0.05751">
        <ele>72</ele>
        <time>2013-02-04T08:44:01.000Z</time>
      </trkpt>
      <trkpt lat="47.23368" lon="-0.0575">
        <ele>72</ele>
        <time>2013-02-04T08:44:02.000Z</time>
      </trkpt>
      <trkpt lat="47.23371" lon="-0.05749">
        <ele>71</ele>
        <time>2013-02-04T08:44:04.000Z</time>
      </trkpt>
      <trkpt lat="47.23372" lon="-0.05748">
        <ele>71</ele>
        <time>2013-02-04T08:44:05.000Z</time>
      </trkpt>
      <trkpt lat="47.23376" lon="-0.05746">
        <ele>71</ele>
        <time>2013-02-04T08:44:09.000Z</time>
      </trkpt>
      <trkpt lat="47.23377" lon="-0.05746">
        <ele>71</ele>
        <time>2013-02-04T08:44:10.000Z</time>
      </trkpt>
      <trkpt lat="47.2338" lon="-0.05743">
        <ele>71</ele>
        <time>2013-02-04T08:44:14.000Z</time>
      </trkpt>
      <trkpt lat="47.23381" lon="-0.05742">
        <ele>71</ele>
        <time>2013-02-04T08:44:15.000Z</time>
      </trkpt>
      <trkpt lat="47.23385" lon="-0.05742">
        <ele>72</ele>
        <time>2013-02-04T08:44:18.000Z</time>
      </trkpt>
      <trkpt lat="47.23387" lon="-0.05742">
        <ele>72</ele>
        <time>2013-02-04T08:44:19.000Z</time>
      </trkpt>
      <trkpt lat="47.2339" lon="-0.05741">
        <ele>72</ele>
        <time>2013-02-04T08:44:22.000Z</time>
      </trkpt>
      <trkpt lat="47.23391" lon="-0.05741">
        <ele>72</ele>
        <time>2013-02-04T08:44:23.000Z</time>
      </trkpt>
      <trkpt lat="47.23395" lon="-0.05741">
        <ele>73</ele>
        <time>2013-02-04T08:44:26.000Z</time>
      </trkpt>
      <trkpt lat="47.23396" lon="-0.05741">
        <ele>73</ele>
        <time>2013-02-04T08:44:27.000Z</time>
      </trkpt>
      <trkpt lat="47.234" lon="-0.05739">
        <ele>73</ele>
        <time>2013-02-04T08:44:30.000Z</time>
      </trkpt>
      <trkpt lat="47.23401" lon="-0.05738">
        <ele>73</ele>
        <time>2013-02-04T08:44:31.000Z</time>
      </trkpt>
      <trkpt lat="47.23405" lon="-0.05738">
        <ele>73</ele>
        <time>2013-02-04T08:44:35.000Z</time>
      </trkpt>
      <trkpt lat="47.23407" lon="-0.05738">
        <ele>73</ele>
        <time>2013-02-04T08:44:36.000Z</time>
      </trkpt>
      <trkpt lat="47.2341" lon="-0.05738">
        <ele>74</ele>
        <time>2013-02-04T08:44:38.000Z</time>
      </trkpt>
      <trkpt lat="47.23412" lon="-0.05738">
        <ele>74</ele>
        <time>2013-02-04T08:44:39.000Z</time>
      </trkpt>
      <trkpt lat="47.23416" lon="-0.05739">
        <ele>74</ele>
        <time>2013-02-04T08:44:41.000Z</time>
      </trkpt>
      <trkpt lat="47.23418" lon="-0.0574">
        <ele>75</ele>
        <time>2013-02-04T08:44:42.000Z</time>
      </trkpt>
      <trkpt lat="47.23421" lon="-0.05741">
        <ele>75</ele>
        <time>2013-02-04T08:44:44.000Z</time>
      </trkpt>
      <trkpt lat="47.23422" lon="-0.05742">
        <ele>75</ele>
        <time>2013-02-04T08:44:45.000Z</time>
      </trkpt>
      <trkpt lat="47.23426" lon="-0.05742">
        <ele>75</ele>
        <time>2013-02-04T08:44:52.000Z</time>
      </trkpt>
      <trkpt lat="47.23428" lon="-0.05742">
        <ele>75</ele>
        <time>2013-02-04T08:44:53.000Z</time>
      </trkpt>
      <trkpt lat="47.23431" lon="-0.05744">
        <ele>75</ele>
        <time>2013-02-04T08:44:57.000Z</time>
      </trkpt>
      <trkpt lat="47.23432" lon="-0.05744">
        <ele>75</ele>
        <time>2013-02-04T08:44:58.000Z</time>
      </trkpt>
      <trkpt lat="47.23436" lon="-0.05743">
        <ele>75</ele>
        <time>2013-02-04T08:45:02.000Z</time>
      </trkpt>
      <trkpt lat="47.23437" lon="-0.05743">
        <ele>75</ele>
        <time>2013-02-04T08:45:03.000Z</time>
      </trkpt>
      <trkpt lat="47.23441" lon="-0.05742">
        <ele>75</ele>
        <time>2013-02-04T08:45:07.000Z</time>
      </trkpt>
      <trkpt lat="47.23442" lon="-0.05741">
        <ele>75</ele>
        <time>2013-02-04T08:45:08.000Z</time>
      </trkpt>
      <trkpt lat="47.23446" lon="-0.05737">
        <ele>75</ele>
        <time>2013-02-04T08:45:14.000Z</time>
      </trkpt>
      <trkpt lat="47.23447" lon="-0.05737">
        <ele>75</ele>
        <time>2013-02-04T08:45:15.000Z</time>
      </trkpt>
      <trkpt lat="47.2345" lon="-0.05738">
        <ele>75</ele>
        <time>2013-02-04T08:45:22.000Z</time>
      </trkpt>
      <trkpt lat="47.23451" lon="-0.05739">
        <ele>75</ele>
        <time>2013-02-04T08:45:23.000Z</time>
      </trkpt>
      <trkpt lat="47.23455" lon="-0.05737">
        <ele>75</ele>
        <time>2013-02-04T08:45:28.000Z</time>
      </trkpt>
      <trkpt lat="47.23457" lon="-0.05736">
        <ele>75</ele>
        <time>2013-02-04T08:45:29.000Z</time>
      </trkpt>
      <trkpt lat="47.23461" lon="-0.05736">
        <ele>75</ele>
        <time>2013-02-04T08:45:33.000Z</time>
      </trkpt>
      <trkpt lat="47.23462" lon="-0.05736">
        <ele>75</ele>
        <time>2013-02-04T08:45:34.000Z</time>
      </trkpt>
      <trkpt lat="47.23466" lon="-0.05739">
        <ele>75</ele>
        <time>2013-02-04T08:45:51.000Z</time>
      </trkpt>
      <trkpt lat="47.23466" lon="-0.0574">
        <ele>75</ele>
        <time>2013-02-04T08:45:52.000Z</time>
      </trkpt>
      <trkpt lat="47.23469" lon="-0.05745">
        <ele>75</ele>
        <time>2013-02-04T08:45:58.000Z</time>
      </trkpt>
      <trkpt lat="47.23469" lon="-0.05746">
        <ele>75</ele>
        <time>2013-02-04T08:45:59.000Z</time>
      </trkpt>
      <trkpt lat="47.23466" lon="-0.05751">
        <ele>76</ele>
        <time>2013-02-04T08:46:17.000Z</time>
      </trkpt>
      <trkpt lat="47.23466" lon="-0.05752">
        <ele>76</ele>
        <time>2013-02-04T08:46:18.000Z</time>
      </trkpt>
      <trkpt lat="47.23469" lon="-0.05747">
        <ele>75</ele>
        <time>2013-02-04T08:46:44.000Z</time>
      </trkpt>
      <trkpt lat="47.23469" lon="-0.05746">
        <ele>75</ele>
        <time>2013-02-04T08:46:45.000Z</time>
      </trkpt>
      <trkpt lat="47.23472" lon="-0.05742">
        <ele>75</ele>
        <time>2013-02-04T08:46:53.000Z</time>
      </trkpt>
      <trkpt lat="47.23472" lon="-0.05742">
        <ele>75</ele>
        <time>2013-02-04T08:46:54.000Z</time>
      </trkpt>
      <trkpt lat="47.23475" lon="-0.05744">
        <ele>75</ele>
        <time>2013-02-04T08:49:00.000Z</time>
      </trkpt>
      <trkpt lat="47.23477" lon="-0.05745">
        <ele>75</ele>
        <time>2013-02-04T08:49:01.000Z</time>
      </trkpt>
      <trkpt lat="47.2348" lon="-0.05744">
        <ele>75</ele>
        <time>2013-02-04T08:49:03.000Z</time>
      </trkpt>
      <trkpt lat="47.23483" lon="-0.05743">
        <ele>75</ele>
        <time>2013-02-04T08:49:04.000Z</time>
      </trkpt>
      <trkpt lat="47.23487" lon="-0.05742">
        <ele>75</ele>
        <time>2013-02-04T08:49:06.000Z</time>
      </trkpt>
      <trkpt lat="47.23488" lon="-0.05742">
        <ele>75</ele>
        <time>2013-02-04T08:49:07.000Z</time>
      </trkpt>
      <trkpt lat="47.23492" lon="-0.05741">
        <ele>75</ele>
        <time>2013-02-04T08:49:11.000Z</time>
      </trkpt>
      <trkpt lat="47.23493" lon="-0.05741">
        <ele>75</ele>
        <time>2013-02-04T08:49:12.000Z</time>
      </trkpt>
      <trkpt lat="47.23497" lon="-0.05739">
        <ele>76</ele>
        <time>2013-02-04T08:49:16.000Z</time>
      </trkpt>
      <trkpt lat="47.23497" lon="-0.05739">
        <ele>75</ele>
        <time>2013-02-04T08:49:17.000Z</time>
      </trkpt>
      <trkpt lat="47.235" lon="-0.05737">
        <ele>75</ele>
        <time>2013-02-04T08:49:21.000Z</time>
      </trkpt>
      <trkpt lat="47.23502" lon="-0.05736">
        <ele>75</ele>
        <time>2013-02-04T08:49:22.000Z</time>
      </trkpt>
      <trkpt lat="47.23505" lon="-0.05734">
        <ele>75</ele>
        <time>2013-02-04T08:49:25.000Z</time>
      </trkpt>
      <trkpt lat="47.23506" lon="-0.05733">
        <ele>75</ele>
        <time>2013-02-04T08:49:26.000Z</time>
      </trkpt>
      <trkpt lat="47.23509" lon="-0.05731">
        <ele>75</ele>
        <time>2013-02-04T08:49:30.000Z</time>
      </trkpt>
      <trkpt lat="47.2351" lon="-0.05731">
        <ele>75</ele>
        <time>2013-02-04T08:49:31.000Z</time>
      </trkpt>
      <trkpt lat="47.23514" lon="-0.05731">
        <ele>75</ele>
        <time>2013-02-04T08:49:35.000Z</time>
      </trkpt>
      <trkpt lat="47.23515" lon="-0.0573">
        <ele>75</ele>
        <time>2013-02-04T08:49:36.000Z</time>
      </trkpt>
      <trkpt lat="47.23519" lon="-0.05729">
        <ele>75</ele>
        <time>2013-02-04T08:49:39.000Z</time>
      </trkpt>
      <trkpt lat="47.2352" lon="-0.05729">
        <ele>75</ele>
        <time>2013-02-04T08:49:40.000Z</time>
      </trkpt>
      <trkpt lat="47.23524" lon="-0.05728">
        <ele>75</ele>
        <time>2013-02-04T08:49:43.000Z</time>
      </trkpt>
      <trkpt lat="47.23525" lon="-0.05728">
        <ele>75</ele>
        <time>2013-02-04T08:49:44.000Z</time>
      </trkpt>
      <trkpt lat="47.23528" lon="-0.05726">
        <ele>75</ele>
        <time>2013-02-04T08:49:48.000Z</time>
      </trkpt>
      <trkpt lat="47.23529" lon="-0.05725">
        <ele>75</ele>
        <time>2013-02-04T08:49:49.000Z</time>
      </trkpt>
      <trkpt lat="47.23534" lon="-0.05724">
        <ele>75</ele>
        <time>2013-02-04T08:49:52.000Z</time>
      </trkpt>
      <trkpt lat="47.23535" lon="-0.05724">
        <ele>75</ele>
        <time>2013-02-04T08:49:53.000Z</time>
      </trkpt>
      <trkpt lat="47.23539" lon="-0.05724">
        <ele>75</ele>
        <time>2013-02-04T08:49:57.000Z</time>
      </trkpt>
      <trkpt lat="47.2354" lon="-0.05724">
        <ele>75</ele>
        <time>2013-02-04T08:49:58.000Z</time>
      </trkpt>
      <trkpt lat="47.23543" lon="-0.0572">
        <ele>75</ele>
        <time>2013-02-04T08:50:02.000Z</time>
      </trkpt>
      <trkpt lat="47.23544" lon="-0.05719">
        <ele>75</ele>
        <time>2013-02-04T08:50:03.000Z</time>
      </trkpt>
      <trkpt lat="47.23547" lon="-0.05716">
        <ele>75</ele>
        <time>2013-02-04T08:50:08.000Z</time>
      </trkpt>
      <trkpt lat="47.23548" lon="-0.05716">
        <ele>75</ele>
        <time>2013-02-04T08:50:09.000Z</time>
      </trkpt>
      <trkpt lat="47.23552" lon="-0.05715">
        <ele>75</ele>
        <time>2013-02-04T08:50:12.000Z</time>
      </trkpt>
      <trkpt lat="47.23553" lon="-0.05714">
        <ele>75</ele>
        <time>2013-02-04T08:50:13.000Z</time>
      </trkpt>
      <trkpt lat="47.23556" lon="-0.05711">
        <ele>75</ele>
        <time>2013-02-04T08:50:18.000Z</time>
      </trkpt>
      <trkpt lat="47.23557" lon="-0.0571">
        <ele>75</ele>
        <time>2013-02-04T08:50:19.000Z</time>
      </trkpt>
      <trkpt lat="47.2356" lon="-0.05709">
        <ele>75</ele>
        <time>2013-02-04T08:50:21.000Z</time>
      </trkpt>
      <trkpt lat="47.23562" lon="-0.05709">
        <ele>75</ele>
        <time>2013-02-04T08:50:22.000Z</time>
      </trkpt>
      <trkpt lat="47.23566" lon="-0.0571">
        <ele>75</ele>
        <time>2013-02-04T08:50:25.000Z</time>
      </trkpt>
      <trkpt lat="47.23567" lon="-0.0571">
        <ele>75</ele>
        <time>2013-02-04T08:50:26.000Z</time>
      </trkpt>
      <trkpt lat="47.2357" lon="-0.0571">
        <ele>75</ele>
        <time>2013-02-04T08:50:28.000Z</time>
      </trkpt>
      <trkpt lat="47.23571" lon="-0.0571">
        <ele>75</ele>
        <time>2013-02-04T08:50:29.000Z</time>
      </trkpt>
      <trkpt lat="47.23575" lon="-0.05709">
        <ele>74</ele>
        <time>2013-02-04T08:50:32.000Z</time>
      </trkpt>
      <trkpt lat="47.23577" lon="-0.05709">
        <ele>74</ele>
        <time>2013-02-04T08:50:33.000Z</time>
      </trkpt>
      <trkpt lat="47.23581" lon="-0.05708">
        <ele>74</ele>
        <time>2013-02-04T08:50:36.000Z</time>
      </trkpt>
      <trkpt lat="47.23582" lon="-0.05708">
        <ele>74</ele>
        <time>2013-02-04T08:50:37.000Z</time>
      </trkpt>
      <trkpt lat="47.23586" lon="-0.05708">
        <ele>74</ele>
        <time>2013-02-04T08:50:40.000Z</time>
      </trkpt>
      <trkpt lat="47.23587" lon="-0.05708">
        <ele>74</ele>
        <time>2013-02-04T08:50:41.000Z</time>
      </trkpt>
      <trkpt lat="47.23591" lon="-0.05709">
        <ele>74</ele>
        <time>2013-02-04T08:50:45.000Z</time>
      </trkpt>
      <trkpt lat="47.23593" lon="-0.0571">
        <ele>75</ele>
        <time>2013-02-04T08:50:46.000Z</time>
      </trkpt>
      <trkpt lat="47.23596" lon="-0.0571">
        <ele>75</ele>
        <time>2013-02-04T08:50:49.000Z</time>
      </trkpt>
      <trkpt lat="47.23597" lon="-0.0571">
        <ele>75</ele>
        <time>2013-02-04T08:50:50.000Z</time>
      </trkpt>
      <trkpt lat="47.23601" lon="-0.0571">
        <ele>75</ele>
        <time>2013-02-04T08:50:54.000Z</time>
      </trkpt>
      <trkpt lat="47.23602" lon="-0.0571">
        <ele>75</ele>
        <time>2013-02-04T08:50:55.000Z</time>
      </trkpt>
      <trkpt lat="47.23606" lon="-0.05711">
        <ele>75</ele>
        <time>2013-02-04T08:50:58.000Z</time>
      </trkpt>
      <trkpt lat="47.23607" lon="-0.05711">
        <ele>75</ele>
        <time>2013-02-04T08:50:59.000Z</time>
      </trkpt>
      <trkpt lat="47.23611" lon="-0.05713">
        <ele>75</ele>
        <time>2013-02-04T08:51:02.000Z</time>
      </trkpt>
      <trkpt lat="47.23612" lon="-0.05713">
        <ele>75</ele>
        <time>2013-02-04T08:51:03.000Z</time>
      </trkpt>
      <trkpt lat="47.23616" lon="-0.05713">
        <ele>75</ele>
        <time>2013-02-04T08:51:07.000Z</time>
      </trkpt>
      <trkpt lat="47.23618" lon="-0.05714">
        <ele>75</ele>
        <time>2013-02-04T08:51:08.000Z</time>
      </trkpt>
      <trkpt lat="47.23622" lon="-0.05715">
        <ele>75</ele>
        <time>2013-02-04T08:51:10.000Z</time>
      </trkpt>
      <trkpt lat="47.23624" lon="-0.05716">
        <ele>75</ele>
        <time>2013-02-04T08:51:11.000Z</time>
      </trkpt>
      <trkpt lat="47.23627" lon="-0.05717">
        <ele>75</ele>
        <time>2013-02-04T08:51:14.000Z</time>
      </trkpt>
      <trkpt lat="47.23628" lon="-0.05717">
        <ele>75</ele>
        <time>2013-02-04T08:51:15.000Z</time>
      </trkpt>
      <trkpt lat="47.23632" lon="-0.05719">
        <ele>75</ele>
        <time>2013-02-04T08:51:19.000Z</time>
      </trkpt>
      <trkpt lat="47.23633" lon="-0.05719">
        <ele>75</ele>
        <time>2013-02-04T08:51:20.000Z</time>
      </trkpt>
      <trkpt lat="47.23637" lon="-0.05719">
        <ele>75</ele>
        <time>2013-02-04T08:51:24.000Z</time>
      </trkpt>
      <trkpt lat="47.23638" lon="-0.05719">
        <ele>75</ele>
        <time>2013-02-04T08:51:25.000Z</time>
      </trkpt>
      <trkpt lat="47.23641" lon="-0.0572">
        <ele>75</ele>
        <time>2013-02-04T08:51:28.000Z</time>
      </trkpt>
      <trkpt lat="47.23642" lon="-0.0572">
        <ele>75</ele>
        <time>2013-02-04T08:51:29.000Z</time>
      </trkpt>
      <trkpt lat="47.23646" lon="-0.05722">
        <ele>75</ele>
        <time>2013-02-04T08:51:32.000Z</time>
      </trkpt>
      <trkpt lat="47.23648" lon="-0.05723">
        <ele>75</ele>
        <time>2013-02-04T08:51:33.000Z</time>
      </trkpt>
      <trkpt lat="47.23652" lon="-0.05724">
        <ele>75</ele>
        <time>2013-02-04T08:51:36.000Z</time>
      </trkpt>
      <trkpt lat="47.23654" lon="-0.05725">
        <ele>75</ele>
        <time>2013-02-04T08:51:37.000Z</time>
      </trkpt>
      <trkpt lat="47.23656" lon="-0.05727">
        <ele>75</ele>
        <time>2013-02-04T08:51:39.000Z</time>
      </trkpt>
      <trkpt lat="47.23658" lon="-0.05728">
        <ele>75</ele>
        <time>2013-02-04T08:51:40.000Z</time>
      </trkpt>
      <trkpt lat="47.23662" lon="-0.05731">
        <ele>75</ele>
        <time>2013-02-04T08:51:43.000Z</time>
      </trkpt>
      <trkpt lat="47.23663" lon="-0.05731">
        <ele>75</ele>
        <time>2013-02-04T08:51:44.000Z</time>
      </trkpt>
      <trkpt lat="47.23667" lon="-0.05731">
        <ele>76</ele>
        <time>2013-02-04T08:51:47.000Z</time>
      </trkpt>
      <trkpt lat="47.23669" lon="-0.05731">
        <ele>76</ele>
        <time>2013-02-04T08:51:48.000Z</time>
      </trkpt>
      <trkpt lat="47.23672" lon="-0.05731">
        <ele>76</ele>
        <time>2013-02-04T08:51:50.000Z</time>
      </trkpt>
      <trkpt lat="47.23673" lon="-0.05731">
        <ele>76</ele>
        <time>2013-02-04T08:51:51.000Z</time>
      </trkpt>
      <trkpt lat="47.23677" lon="-0.05732">
        <ele>76</ele>
        <time>2013-02-04T08:51:55.000Z</time>
      </trkpt>
      <trkpt lat="47.23678" lon="-0.05732">
        <ele>76</ele>
        <time>2013-02-04T08:51:56.000Z</time>
      </trkpt>
      <trkpt lat="47.23682" lon="-0.05733">
        <ele>76</ele>
        <time>2013-02-04T08:52:00.000Z</time>
      </trkpt>
      <trkpt lat="47.23683" lon="-0.05734">
        <ele>76</ele>
        <time>2013-02-04T08:52:01.000Z</time>
      </trkpt>
      <trkpt lat="47.23687" lon="-0.05736">
        <ele>76</ele>
        <time>2013-02-04T08:52:04.000Z</time>
      </trkpt>
      <trkpt lat="47.23689" lon="-0.05736">
        <ele>76</ele>
        <time>2013-02-04T08:52:05.000Z</time>
      </trkpt>
      <trkpt lat="47.23692" lon="-0.05738">
        <ele>76</ele>
        <time>2013-02-04T08:52:09.000Z</time>
      </trkpt>
      <trkpt lat="47.23693" lon="-0.05739">
        <ele>76</ele>
        <time>2013-02-04T08:52:10.000Z</time>
      </trkpt>
      <trkpt lat="47.23697" lon="-0.0574">
        <ele>76</ele>
        <time>2013-02-04T08:52:14.000Z</time>
      </trkpt>
      <trkpt lat="47.23698" lon="-0.0574">
        <ele>76</ele>
        <time>2013-02-04T08:52:15.000Z</time>
      </trkpt>
      <trkpt lat="47.23702" lon="-0.05738">
        <ele>76</ele>
        <time>2013-02-04T08:52:19.000Z</time>
      </trkpt>
      <trkpt lat="47.23703" lon="-0.0574">
        <ele>76</ele>
        <time>2013-02-04T08:52:20.000Z</time>
      </trkpt>
      <trkpt lat="47.23706" lon="-0.05744">
        <ele>76</ele>
        <time>2013-02-04T08:52:23.000Z</time>
      </trkpt>
      <trkpt lat="47.23708" lon="-0.05745">
        <ele>76</ele>
        <time>2013-02-04T08:52:24.000Z</time>
      </trkpt>
      <trkpt lat="47.23711" lon="-0.05749">
        <ele>76</ele>
        <time>2013-02-04T08:52:28.000Z</time>
      </trkpt>
      <trkpt lat="47.23712" lon="-0.0575">
        <ele>76</ele>
        <time>2013-02-04T08:52:29.000Z</time>
      </trkpt>
      <trkpt lat="47.23715" lon="-0.05751">
        <ele>76</ele>
        <time>2013-02-04T08:52:31.000Z</time>
      </trkpt>
      <trkpt lat="47.23717" lon="-0.05752">
        <ele>76</ele>
        <time>2013-02-04T08:52:32.000Z</time>
      </trkpt>
      <trkpt lat="47.2372" lon="-0.05754">
        <ele>76</ele>
        <time>2013-02-04T08:52:34.000Z</time>
      </trkpt>
      <trkpt lat="47.23721" lon="-0.05755">
        <ele>76</ele>
        <time>2013-02-04T08:52:35.000Z</time>
      </trkpt>
      <trkpt lat="47.23725" lon="-0.05757">
        <ele>76</ele>
        <time>2013-02-04T08:52:39.000Z</time>
      </trkpt>
      <trkpt lat="47.23726" lon="-0.05758">
        <ele>76</ele>
        <time>2013-02-04T08:52:40.000Z</time>
      </trkpt>
      <trkpt lat="47.2373" lon="-0.0576">
        <ele>76</ele>
        <time>2013-02-04T08:52:44.000Z</time>
      </trkpt>
      <trkpt lat="47.23731" lon="-0.05761">
        <ele>76</ele>
        <time>2013-02-04T08:52:45.000Z</time>
      </trkpt>
      <trkpt lat="47.23736" lon="-0.05761">
        <ele>76</ele>
        <time>2013-02-04T08:52:48.000Z</time>
      </trkpt>
      <trkpt lat="47.23738" lon="-0.05761">
        <ele>76</ele>
        <time>2013-02-04T08:52:49.000Z</time>
      </trkpt>
      <trkpt lat="47.23742" lon="-0.05761">
        <ele>76</ele>
        <time>2013-02-04T08:52:52.000Z</time>
      </trkpt>
      <trkpt lat="47.23743" lon="-0.05761">
        <ele>76</ele>
        <time>2013-02-04T08:52:53.000Z</time>
      </trkpt>
      <trkpt lat="47.23747" lon="-0.05762">
        <ele>76</ele>
        <time>2013-02-04T08:52:56.000Z</time>
      </trkpt>
      <trkpt lat="47.23748" lon="-0.05762">
        <ele>76</ele>
        <time>2013-02-04T08:52:57.000Z</time>
      </trkpt>
      <trkpt lat="47.23752" lon="-0.05762">
        <ele>76</ele>
        <time>2013-02-04T08:53:00.000Z</time>
      </trkpt>
      <trkpt lat="47.23754" lon="-0.05762">
        <ele>76</ele>
        <time>2013-02-04T08:53:01.000Z</time>
      </trkpt>
      <trkpt lat="47.23758" lon="-0.05762">
        <ele>76</ele>
        <time>2013-02-04T08:53:04.000Z</time>
      </trkpt>
      <trkpt lat="47.23759" lon="-0.05762">
        <ele>76</ele>
        <time>2013-02-04T08:53:05.000Z</time>
      </trkpt>
      <trkpt lat="47.23762" lon="-0.05762">
        <ele>75</ele>
        <time>2013-02-04T08:53:07.000Z</time>
      </trkpt>
      <trkpt lat="47.23764" lon="-0.05761">
        <ele>75</ele>
        <time>2013-02-04T08:53:08.000Z</time>
      </trkpt>
      <trkpt lat="47.23768" lon="-0.0576">
        <ele>75</ele>
        <time>2013-02-04T08:53:11.000Z</time>
      </trkpt>
      <trkpt lat="47.23769" lon="-0.0576">
        <ele>75</ele>
        <time>2013-02-04T08:53:12.000Z</time>
      </trkpt>
      <trkpt lat="47.23773" lon="-0.05759">
        <ele>75</ele>
        <time>2013-02-04T08:53:16.000Z</time>
      </trkpt>
      <trkpt lat="47.23774" lon="-0.05759">
        <ele>75</ele>
        <time>2013-02-04T08:53:17.000Z</time>
      </trkpt>
      <trkpt lat="47.23778" lon="-0.05759">
        <ele>75</ele>
        <time>2013-02-04T08:53:21.000Z</time>
      </trkpt>
      <trkpt lat="47.23779" lon="-0.05759">
        <ele>75</ele>
        <time>2013-02-04T08:53:22.000Z</time>
      </trkpt>
      <trkpt lat="47.23783" lon="-0.0576">
        <ele>75</ele>
        <time>2013-02-04T08:53:26.000Z</time>
      </trkpt>
      <trkpt lat="47.23784" lon="-0.05759">
        <ele>75</ele>
        <time>2013-02-04T08:53:27.000Z</time>
      </trkpt>
      <trkpt lat="47.23788" lon="-0.05759">
        <ele>75</ele>
        <time>2013-02-04T08:53:30.000Z</time>
      </trkpt>
      <trkpt lat="47.2379" lon="-0.0576">
        <ele>75</ele>
        <time>2013-02-04T08:53:31.000Z</time>
      </trkpt>
      <trkpt lat="47.23793" lon="-0.0576">
        <ele>75</ele>
        <time>2013-02-04T08:53:34.000Z</time>
      </trkpt>
      <trkpt lat="47.23795" lon="-0.0576">
        <ele>75</ele>
        <time>2013-02-04T08:53:35.000Z</time>
      </trkpt>
      <trkpt lat="47.23798" lon="-0.05762">
        <ele>75</ele>
        <time>2013-02-04T08:53:41.000Z</time>
      </trkpt>
      <trkpt lat="47.23799" lon="-0.05763">
        <ele>75</ele>
        <time>2013-02-04T08:53:42.000Z</time>
      </trkpt>
      <trkpt lat="47.23803" lon="-0.05765">
        <ele>75</ele>
        <time>2013-02-04T08:53:46.000Z</time>
      </trkpt>
      <trkpt lat="47.23804" lon="-0.05765">
        <ele>75</ele>
        <time>2013-02-04T08:53:47.000Z</time>
      </trkpt>
      <trkpt lat="47.23808" lon="-0.05766">
        <ele>75</ele>
        <time>2013-02-04T08:53:49.000Z</time>
      </trkpt>
      <trkpt lat="47.2381" lon="-0.05768">
        <ele>75</ele>
        <time>2013-02-04T08:53:50.000Z</time>
      </trkpt>
      <trkpt lat="47.23813" lon="-0.0577">
        <ele>75</ele>
        <time>2013-02-04T08:53:53.000Z</time>
      </trkpt>
      <trkpt lat="47.23815" lon="-0.0577">
        <ele>75</ele>
        <time>2013-02-04T08:53:54.000Z</time>
      </trkpt>
      <trkpt lat="47.23819" lon="-0.05773">
        <ele>75</ele>
        <time>2013-02-04T08:53:58.000Z</time>
      </trkpt>
      <trkpt lat="47.23819" lon="-0.05774">
        <ele>75</ele>
        <time>2013-02-04T08:53:59.000Z</time>
      </trkpt>
      <trkpt lat="47.23823" lon="-0.05777">
        <ele>75</ele>
        <time>2013-02-04T08:54:03.000Z</time>
      </trkpt>
      <trkpt lat="47.23824" lon="-0.05776">
        <ele>75</ele>
        <time>2013-02-04T08:54:04.000Z</time>
      </trkpt>
      <trkpt lat="47.23827" lon="-0.05777">
        <ele>75</ele>
        <time>2013-02-04T08:54:07.000Z</time>
      </trkpt>
      <trkpt lat="47.23829" lon="-0.05777">
        <ele>75</ele>
        <time>2013-02-04T08:54:08.000Z</time>
      </trkpt>
      <trkpt lat="47.23833" lon="-0.05777">
        <ele>75</ele>
        <time>2013-02-04T08:54:11.000Z</time>
      </trkpt>
      <trkpt lat="47.23834" lon="-0.05776">
        <ele>74</ele>
        <time>2013-02-04T08:54:12.000Z</time>
      </trkpt>
      <trkpt lat="47.23837" lon="-0.05776">
        <ele>74</ele>
        <time>2013-02-04T08:54:14.000Z</time>
      </trkpt>
      <trkpt lat="47.23839" lon="-0.05775">
        <ele>74</ele>
        <time>2013-02-04T08:54:15.000Z</time>
      </trkpt>
      <trkpt lat="47.23843" lon="-0.05775">
        <ele>74</ele>
        <time>2013-02-04T08:54:18.000Z</time>
      </trkpt>
      <trkpt lat="47.23845" lon="-0.05775">
        <ele>74</ele>
        <time>2013-02-04T08:54:19.000Z</time>
      </trkpt>
      <trkpt lat="47.2385" lon="-0.05775">
        <ele>74</ele>
        <time>2013-02-04T08:54:23.000Z</time>
      </trkpt>
      <trkpt lat="47.23851" lon="-0.05776">
        <ele>74</ele>
        <time>2013-02-04T08:54:24.000Z</time>
      </trkpt>
      <trkpt lat="47.23855" lon="-0.05777">
        <ele>73</ele>
        <time>2013-02-04T08:54:27.000Z</time>
      </trkpt>
      <trkpt lat="47.23856" lon="-0.05777">
        <ele>73</ele>
        <time>2013-02-04T08:54:28.000Z</time>
      </trkpt>
      <trkpt lat="47.2386" lon="-0.05779">
        <ele>73</ele>
        <time>2013-02-04T08:54:33.000Z</time>
      </trkpt>
      <trkpt lat="47.23861" lon="-0.05779">
        <ele>73</ele>
        <time>2013-02-04T08:54:34.000Z</time>
      </trkpt>
      <trkpt lat="47.23865" lon="-0.05778">
        <ele>73</ele>
        <time>2013-02-04T08:54:37.000Z</time>
      </trkpt>
      <trkpt lat="47.23866" lon="-0.05777">
        <ele>73</ele>
        <time>2013-02-04T08:54:38.000Z</time>
      </trkpt>
      <trkpt lat="47.2387" lon="-0.05777">
        <ele>73</ele>
        <time>2013-02-04T08:54:41.000Z</time>
      </trkpt>
      <trkpt lat="47.23871" lon="-0.05777">
        <ele>73</ele>
        <time>2013-02-04T08:54:42.000Z</time>
      </trkpt>
      <trkpt lat="47.23874" lon="-0.05779">
        <ele>73</ele>
        <time>2013-02-04T08:54:44.000Z</time>
      </trkpt>
      <trkpt lat="47.23875" lon="-0.05779">
        <ele>73</ele>
        <time>2013-02-04T08:54:45.000Z</time>
      </trkpt>
      <trkpt lat="47.23878" lon="-0.05779">
        <ele>73</ele>
        <time>2013-02-04T08:54:47.000Z</time>
      </trkpt>
      <trkpt lat="47.2388" lon="-0.05779">
        <ele>73</ele>
        <time>2013-02-04T08:54:48.000Z</time>
      </trkpt>
      <trkpt lat="47.23884" lon="-0.05779">
        <ele>73</ele>
        <time>2013-02-04T08:54:51.000Z</time>
      </trkpt>
      <trkpt lat="47.23885" lon="-0.05779">
        <ele>73</ele>
        <time>2013-02-04T08:54:52.000Z</time>
      </trkpt>
      <trkpt lat="47.23889" lon="-0.0578">
        <ele>73</ele>
        <time>2013-02-04T08:54:55.000Z</time>
      </trkpt>
      <trkpt lat="47.2389" lon="-0.0578">
        <ele>73</ele>
        <time>2013-02-04T08:54:56.000Z</time>
      </trkpt>
      <trkpt lat="47.23895" lon="-0.05779">
        <ele>73</ele>
        <time>2013-02-04T08:54:59.000Z</time>
      </trkpt>
      <trkpt lat="47.23896" lon="-0.05779">
        <ele>73</ele>
        <time>2013-02-04T08:55:00.000Z</time>
      </trkpt>
      <trkpt lat="47.23901" lon="-0.05779">
        <ele>73</ele>
        <time>2013-02-04T08:55:04.000Z</time>
      </trkpt>
      <trkpt lat="47.23902" lon="-0.0578">
        <ele>73</ele>
        <time>2013-02-04T08:55:05.000Z</time>
      </trkpt>
      <trkpt lat="47.23906" lon="-0.05781">
        <ele>73</ele>
        <time>2013-02-04T08:55:08.000Z</time>
      </trkpt>
      <trkpt lat="47.23908" lon="-0.05781">
        <ele>73</ele>
        <time>2013-02-04T08:55:09.000Z</time>
      </trkpt>
      <trkpt lat="47.23912" lon="-0.05782">
        <ele>73</ele>
        <time>2013-02-04T08:55:12.000Z</time>
      </trkpt>
      <trkpt lat="47.23914" lon="-0.05782">
        <ele>73</ele>
        <time>2013-02-04T08:55:13.000Z</time>
      </trkpt>
      <trkpt lat="47.23917" lon="-0.05783">
        <ele>72</ele>
        <time>2013-02-04T08:55:17.000Z</time>
      </trkpt>
      <trkpt lat="47.23918" lon="-0.05783">
        <ele>72</ele>
        <time>2013-02-04T08:55:18.000Z</time>
      </trkpt>
      <trkpt lat="47.23922" lon="-0.05785">
        <ele>72</ele>
        <time>2013-02-04T08:55:22.000Z</time>
      </trkpt>
      <trkpt lat="47.23923" lon="-0.05786">
        <ele>72</ele>
        <time>2013-02-04T08:55:23.000Z</time>
      </trkpt>
      <trkpt lat="47.23925" lon="-0.05788">
        <ele>72</ele>
        <time>2013-02-04T08:55:27.000Z</time>
      </trkpt>
      <trkpt lat="47.23927" lon="-0.05789">
        <ele>72</ele>
        <time>2013-02-04T08:55:28.000Z</time>
      </trkpt>
      <trkpt lat="47.2393" lon="-0.05793">
        <ele>72</ele>
        <time>2013-02-04T08:55:31.000Z</time>
      </trkpt>
      <trkpt lat="47.23931" lon="-0.05794">
        <ele>72</ele>
        <time>2013-02-04T08:55:32.000Z</time>
      </trkpt>
      <trkpt lat="47.23934" lon="-0.05798">
        <ele>72</ele>
        <time>2013-02-04T08:55:35.000Z</time>
      </trkpt>
      <trkpt lat="47.23935" lon="-0.05798">
        <ele>72</ele>
        <time>2013-02-04T08:55:36.000Z</time>
      </trkpt>
      <trkpt lat="47.23939" lon="-0.05801">
        <ele>72</ele>
        <time>2013-02-04T08:55:40.000Z</time>
      </trkpt>
      <trkpt lat="47.2394" lon="-0.05802">
        <ele>72</ele>
        <time>2013-02-04T08:55:41.000Z</time>
      </trkpt>
      <trkpt lat="47.23943" lon="-0.05805">
        <ele>72</ele>
        <time>2013-02-04T08:55:44.000Z</time>
      </trkpt>
      <trkpt lat="47.23944" lon="-0.05806">
        <ele>72</ele>
        <time>2013-02-04T08:55:45.000Z</time>
      </trkpt>
      <trkpt lat="47.23947" lon="-0.05807">
        <ele>72</ele>
        <time>2013-02-04T08:55:48.000Z</time>
      </trkpt>
      <trkpt lat="47.23949" lon="-0.05807">
        <ele>72</ele>
        <time>2013-02-04T08:55:49.000Z</time>
      </trkpt>
      <trkpt lat="47.23953" lon="-0.05807">
        <ele>72</ele>
        <time>2013-02-04T08:55:53.000Z</time>
      </trkpt>
      <trkpt lat="47.23955" lon="-0.05808">
        <ele>72</ele>
        <time>2013-02-04T08:55:54.000Z</time>
      </trkpt>
      <trkpt lat="47.23958" lon="-0.05807">
        <ele>72</ele>
        <time>2013-02-04T08:55:57.000Z</time>
      </trkpt>
      <trkpt lat="47.23959" lon="-0.05807">
        <ele>72</ele>
        <time>2013-02-04T08:55:58.000Z</time>
      </trkpt>
      <trkpt lat="47.23964" lon="-0.05805">
        <ele>72</ele>
        <time>2013-02-04T08:56:02.000Z</time>
      </trkpt>
      <trkpt lat="47.23966" lon="-0.05804">
        <ele>72</ele>
        <time>2013-02-04T08:56:03.000Z</time>
      </trkpt>
      <trkpt lat="47.23969" lon="-0.05801">
        <ele>71</ele>
        <time>2013-02-04T08:56:07.000Z</time>
      </trkpt>
      <trkpt lat="47.2397" lon="-0.058">
        <ele>71</ele>
        <time>2013-02-04T08:56:08.000Z</time>
      </trkpt>
      <trkpt lat="47.23972" lon="-0.05797">
        <ele>71</ele>
        <time>2013-02-04T08:56:12.000Z</time>
      </trkpt>
      <trkpt lat="47.23973" lon="-0.05796">
        <ele>71</ele>
        <time>2013-02-04T08:56:13.000Z</time>
      </trkpt>
      <trkpt lat="47.23976" lon="-0.05792">
        <ele>71</ele>
        <time>2013-02-04T08:56:16.000Z</time>
      </trkpt>
      <trkpt lat="47.23978" lon="-0.05791">
        <ele>71</ele>
        <time>2013-02-04T08:56:17.000Z</time>
      </trkpt>
      <trkpt lat="47.23981" lon="-0.05789">
        <ele>71</ele>
        <time>2013-02-04T08:56:20.000Z</time>
      </trkpt>
      <trkpt lat="47.23982" lon="-0.05789">
        <ele>71</ele>
        <time>2013-02-04T08:56:21.000Z</time>
      </trkpt>
      <trkpt lat="47.23986" lon="-0.05787">
        <ele>71</ele>
        <time>2013-02-04T08:56:25.000Z</time>
      </trkpt>
      <trkpt lat="47.23988" lon="-0.05786">
        <ele>71</ele>
        <time>2013-02-04T08:56:26.000Z</time>
      </trkpt>
      <trkpt lat="47.23991" lon="-0.05784">
        <ele>71</ele>
        <time>2013-02-04T08:56:29.000Z</time>
      </trkpt>
      <trkpt lat="47.23993" lon="-0.05784">
        <ele>71</ele>
        <time>2013-02-04T08:56:30.000Z</time>
      </trkpt>
      <trkpt lat="47.23996" lon="-0.05783">
        <ele>71</ele>
        <time>2013-02-04T08:56:33.000Z</time>
      </trkpt>
      <trkpt lat="47.23998" lon="-0.05783">
        <ele>71</ele>
        <time>2013-02-04T08:56:34.000Z</time>
      </trkpt>
      <trkpt lat="47.24001" lon="-0.05782">
        <ele>71</ele>
        <time>2013-02-04T08:56:37.000Z</time>
      </trkpt>
      <trkpt lat="47.24002" lon="-0.05781">
        <ele>71</ele>
        <time>2013-02-04T08:56:38.000Z</time>
      </trkpt>
      <trkpt lat="47.24006" lon="-0.05779">
        <ele>71</ele>
        <time>2013-02-04T08:56:43.000Z</time>
      </trkpt>
      <trkpt lat="47.24007" lon="-0.05778">
        <ele>71</ele>
        <time>2013-02-04T08:56:44.000Z</time>
      </trkpt>
      <trkpt lat="47.24011" lon="-0.05777">
        <ele>70</ele>
        <time>2013-02-04T08:56:46.000Z</time>
      </trkpt>
      <trkpt lat="47.24012" lon="-0.05776">
        <ele>70</ele>
        <time>2013-02-04T08:56:47.000Z</time>
      </trkpt>
      <trkpt lat="47.24016" lon="-0.05775">
        <ele>70</ele>
        <time>2013-02-04T08:56:51.000Z</time>
      </trkpt>
      <trkpt lat="47.24017" lon="-0.05775">
        <ele>70</ele>
        <time>2013-02-04T08:56:52.000Z</time>
      </trkpt>
      <trkpt lat="47.24021" lon="-0.05773">
        <ele>70</ele>
        <time>2013-02-04T08:56:56.000Z</time>
      </trkpt>
      <trkpt lat="47.24023" lon="-0.05772">
        <ele>70</ele>
        <time>2013-02-04T08:56:57.000Z</time>
      </trkpt>
      <trkpt lat="47.24025" lon="-0.0577">
        <ele>70</ele>
        <time>2013-02-04T08:56:59.000Z</time>
      </trkpt>
      <trkpt lat="47.24027" lon="-0.05769">
        <ele>70</ele>
        <time>2013-02-04T08:57:00.000Z</time>
      </trkpt>
      <trkpt lat="47.24031" lon="-0.05768">
        <ele>70</ele>
        <time>2013-02-04T08:57:02.000Z</time>
      </trkpt>
      <trkpt lat="47.24032" lon="-0.05768">
        <ele>70</ele>
        <time>2013-02-04T08:57:03.000Z</time>
      </trkpt>
      <trkpt lat="47.24037" lon="-0.05767">
        <ele>70</ele>
        <time>2013-02-04T08:57:07.000Z</time>
      </trkpt>
      <trkpt lat="47.24037" lon="-0.05767">
        <ele>70</ele>
        <time>2013-02-04T08:57:08.000Z</time>
      </trkpt>
      <trkpt lat="47.24041" lon="-0.05767">
        <ele>70</ele>
        <time>2013-02-04T08:57:12.000Z</time>
      </trkpt>
      <trkpt lat="47.24043" lon="-0.05768">
        <ele>70</ele>
        <time>2013-02-04T08:57:13.000Z</time>
      </trkpt>
      <trkpt lat="47.24045" lon="-0.05772">
        <ele>70</ele>
        <time>2013-02-04T08:57:15.000Z</time>
      </trkpt>
      <trkpt lat="47.24047" lon="-0.05774">
        <ele>70</ele>
        <time>2013-02-04T08:57:16.000Z</time>
      </trkpt>
      <trkpt lat="47.2405" lon="-0.05777">
        <ele>70</ele>
        <time>2013-02-04T08:57:18.000Z</time>
      </trkpt>
      <trkpt lat="47.2405" lon="-0.05778">
        <ele>70</ele>
        <time>2013-02-04T08:57:19.000Z</time>
      </trkpt>
      <trkpt lat="47.24053" lon="-0.05783">
        <ele>70</ele>
        <time>2013-02-04T08:57:21.000Z</time>
      </trkpt>
      <trkpt lat="47.24054" lon="-0.05786">
        <ele>70</ele>
        <time>2013-02-04T08:57:22.000Z</time>
      </trkpt>
      <trkpt lat="47.24056" lon="-0.05789">
        <ele>70</ele>
        <time>2013-02-04T08:57:25.000Z</time>
      </trkpt>
      <trkpt lat="47.24057" lon="-0.05791">
        <ele>70</ele>
        <time>2013-02-04T08:57:26.000Z</time>
      </trkpt>
      <trkpt lat="47.24059" lon="-0.05795">
        <ele>70</ele>
        <time>2013-02-04T08:57:29.000Z</time>
      </trkpt>
      <trkpt lat="47.2406" lon="-0.05796">
        <ele>70</ele>
        <time>2013-02-04T08:57:30.000Z</time>
      </trkpt>
      <trkpt lat="47.24062" lon="-0.05802">
        <ele>70</ele>
        <time>2013-02-04T08:57:33.000Z</time>
      </trkpt>
      <trkpt lat="47.24063" lon="-0.05804">
        <ele>70</ele>
        <time>2013-02-04T08:57:34.000Z</time>
      </trkpt>
      <trkpt lat="47.24065" lon="-0.05809">
        <ele>70</ele>
        <time>2013-02-04T08:57:38.000Z</time>
      </trkpt>
      <trkpt lat="47.24066" lon="-0.0581">
        <ele>70</ele>
        <time>2013-02-04T08:57:39.000Z</time>
      </trkpt>
      <trkpt lat="47.24068" lon="-0.05815">
        <ele>70</ele>
        <time>2013-02-04T08:57:45.000Z</time>
      </trkpt>
      <trkpt lat="47.24068" lon="-0.05816">
        <ele>70</ele>
        <time>2013-02-04T08:57:46.000Z</time>
      </trkpt>
      <trkpt lat="47.24071" lon="-0.05821">
        <ele>71</ele>
        <time>2013-02-04T08:57:50.000Z</time>
      </trkpt>
      <trkpt lat="47.24071" lon="-0.05822">
        <ele>71</ele>
        <time>2013-02-04T08:57:51.000Z</time>
      </trkpt>
      <trkpt lat="47.24074" lon="-0.05826">
        <ele>71</ele>
        <time>2013-02-04T08:57:55.000Z</time>
      </trkpt>
      <trkpt lat="47.24074" lon="-0.05826">
        <ele>71</ele>
        <time>2013-02-04T08:57:56.000Z</time>
      </trkpt>
      <trkpt lat="47.24077" lon="-0.05828">
        <ele>71</ele>
        <time>2013-02-04T08:57:58.000Z</time>
      </trkpt>
      <trkpt lat="47.24079" lon="-0.0583">
        <ele>71</ele>
        <time>2013-02-04T08:57:59.000Z</time>
      </trkpt>
      <trkpt lat="47.24082" lon="-0.05833">
        <ele>71</ele>
        <time>2013-02-04T08:58:02.000Z</time>
      </trkpt>
      <trkpt lat="47.24084" lon="-0.05834">
        <ele>71</ele>
        <time>2013-02-04T08:58:03.000Z</time>
      </trkpt>
      <trkpt lat="47.24086" lon="-0.05836">
        <ele>71</ele>
        <time>2013-02-04T08:58:06.000Z</time>
      </trkpt>
      <trkpt lat="47.24088" lon="-0.05837">
        <ele>71</ele>
        <time>2013-02-04T08:58:07.000Z</time>
      </trkpt>
      <trkpt lat="47.24091" lon="-0.05839">
        <ele>70</ele>
        <time>2013-02-04T08:58:10.000Z</time>
      </trkpt>
      <trkpt lat="47.24093" lon="-0.05841">
        <ele>70</ele>
        <time>2013-02-04T08:58:12.000Z</time>
      </trkpt>
      <trkpt lat="47.24096" lon="-0.05845">
        <ele>70</ele>
        <time>2013-02-04T08:58:16.000Z</time>
      </trkpt>
      <trkpt lat="47.24097" lon="-0.05846">
        <ele>70</ele>
        <time>2013-02-04T08:58:17.000Z</time>
      </trkpt>
      <trkpt lat="47.24101" lon="-0.05848">
        <ele>70</ele>
        <time>2013-02-04T08:58:21.000Z</time>
      </trkpt>
      <trkpt lat="47.24102" lon="-0.05849">
        <ele>70</ele>
        <time>2013-02-04T08:58:22.000Z</time>
      </trkpt>
      <trkpt lat="47.24106" lon="-0.05849">
        <ele>70</ele>
        <time>2013-02-04T08:58:30.000Z</time>
      </trkpt>
      <trkpt lat="47.24107" lon="-0.05849">
        <ele>70</ele>
        <time>2013-02-04T08:58:31.000Z</time>
      </trkpt>
      <trkpt lat="47.24111" lon="-0.05851">
        <ele>70</ele>
        <time>2013-02-04T08:58:35.000Z</time>
      </trkpt>
      <trkpt lat="47.24112" lon="-0.05851">
        <ele>70</ele>
        <time>2013-02-04T08:58:36.000Z</time>
      </trkpt>
      <trkpt lat="47.24115" lon="-0.05853">
        <ele>69</ele>
        <time>2013-02-04T08:58:39.000Z</time>
      </trkpt>
      <trkpt lat="47.24116" lon="-0.05853">
        <ele>69</ele>
        <time>2013-02-04T08:58:40.000Z</time>
      </trkpt>
      <trkpt lat="47.24119" lon="-0.05857">
        <ele>69</ele>
        <time>2013-02-04T08:58:57.000Z</time>
      </trkpt>
      <trkpt lat="47.2412" lon="-0.05856">
        <ele>69</ele>
        <time>2013-02-04T08:58:58.000Z</time>
      </trkpt>
      <trkpt lat="47.24121" lon="-0.0585">
        <ele>69</ele>
        <time>2013-02-04T08:59:10.000Z</time>
      </trkpt>
      <trkpt lat="47.24121" lon="-0.0585">
        <ele>69</ele>
        <time>2013-02-04T08:59:11.000Z</time>
      </trkpt>
      <trkpt lat="47.24125" lon="-0.05854">
        <ele>69</ele>
        <time>2013-02-04T08:59:44.000Z</time>
      </trkpt>
      <trkpt lat="47.24125" lon="-0.05854">
        <ele>69</ele>
        <time>2013-02-04T08:59:45.000Z</time>
      </trkpt>
      <trkpt lat="47.2413" lon="-0.05855">
        <ele>69</ele>
        <time>2013-02-04T08:59:52.000Z</time>
      </trkpt>
      <trkpt lat="47.2413" lon="-0.05855">
        <ele>69</ele>
        <time>2013-02-04T08:59:53.000Z</time>
      </trkpt>
      <trkpt lat="47.24126" lon="-0.05857">
        <ele>69</ele>
        <time>2013-02-04T09:00:13.000Z</time>
      </trkpt>
      <trkpt lat="47.24126" lon="-0.05858">
        <ele>69</ele>
        <time>2013-02-04T09:00:14.000Z</time>
      </trkpt>
      <trkpt lat="47.2413" lon="-0.05855">
        <ele>69</ele>
        <time>2013-02-04T09:01:08.000Z</time>
      </trkpt>
      <trkpt lat="47.2413" lon="-0.05855">
        <ele>69</ele>
        <time>2013-02-04T09:01:09.000Z</time>
      </trkpt>
      <trkpt lat="47.24134" lon="-0.05854">
        <ele>69</ele>
        <time>2013-02-04T09:01:13.000Z</time>
      </trkpt>
      <trkpt lat="47.24135" lon="-0.05854">
        <ele>69</ele>
        <time>2013-02-04T09:01:14.000Z</time>
      </trkpt>
      <trkpt lat="47.2414" lon="-0.05855">
        <ele>69</ele>
        <time>2013-02-04T09:01:17.000Z</time>
      </trkpt>
      <trkpt lat="47.24141" lon="-0.05855">
        <ele>68</ele>
        <time>2013-02-04T09:01:18.000Z</time>
      </trkpt>
      <trkpt lat="47.24145" lon="-0.05855">
        <ele>68</ele>
        <time>2013-02-04T09:01:21.000Z</time>
      </trkpt>
      <trkpt lat="47.24146" lon="-0.05855">
        <ele>68</ele>
        <time>2013-02-04T09:01:22.000Z</time>
      </trkpt>
      <trkpt lat="47.2415" lon="-0.05855">
        <ele>68</ele>
        <time>2013-02-04T09:01:25.000Z</time>
      </trkpt>
      <trkpt lat="47.24152" lon="-0.05854">
        <ele>68</ele>
        <time>2013-02-04T09:01:26.000Z</time>
      </trkpt>
      <trkpt lat="47.24156" lon="-0.05851">
        <ele>68</ele>
        <time>2013-02-04T09:01:29.000Z</time>
      </trkpt>
      <trkpt lat="47.24157" lon="-0.05851">
        <ele>68</ele>
        <time>2013-02-04T09:01:30.000Z</time>
      </trkpt>
      <trkpt lat="47.2416" lon="-0.05849">
        <ele>68</ele>
        <time>2013-02-04T09:01:37.000Z</time>
      </trkpt>
      <trkpt lat="47.24162" lon="-0.05848">
        <ele>67</ele>
        <time>2013-02-04T09:01:38.000Z</time>
      </trkpt>
      <trkpt lat="47.24166" lon="-0.05845">
        <ele>67</ele>
        <time>2013-02-04T09:01:41.000Z</time>
      </trkpt>
      <trkpt lat="47.24166" lon="-0.05845">
        <ele>67</ele>
        <time>2013-02-04T09:01:42.000Z</time>
      </trkpt>
      <trkpt lat="47.2417" lon="-0.05843">
        <ele>66</ele>
        <time>2013-02-04T09:01:48.000Z</time>
      </trkpt>
      <trkpt lat="47.24171" lon="-0.05843">
        <ele>66</ele>
        <time>2013-02-04T09:01:49.000Z</time>
      </trkpt>
      <trkpt lat="47.24174" lon="-0.0584">
        <ele>66</ele>
        <time>2013-02-04T09:01:54.000Z</time>
      </trkpt>
      <trkpt lat="47.24175" lon="-0.0584">
        <ele>66</ele>
        <time>2013-02-04T09:01:55.000Z</time>
      </trkpt>
      <trkpt lat="47.24178" lon="-0.0584">
        <ele>66</ele>
        <time>2013-02-04T09:01:58.000Z</time>
      </trkpt>
      <trkpt lat="47.2418" lon="-0.05839">
        <ele>66</ele>
        <time>2013-02-04T09:01:59.000Z</time>
      </trkpt>
      <trkpt lat="47.24184" lon="-0.05838">
        <ele>66</ele>
        <time>2013-02-04T09:02:02.000Z</time>
      </trkpt>
      <trkpt lat="47.24185" lon="-0.05837">
        <ele>66</ele>
        <time>2013-02-04T09:02:03.000Z</time>
      </trkpt>
      <trkpt lat="47.24189" lon="-0.05837">
        <ele>66</ele>
        <time>2013-02-04T09:02:06.000Z</time>
      </trkpt>
      <trkpt lat="47.2419" lon="-0.05836">
        <ele>66</ele>
        <time>2013-02-04T09:02:07.000Z</time>
      </trkpt>
      <trkpt lat="47.24194" lon="-0.05837">
        <ele>66</ele>
        <time>2013-02-04T09:02:09.000Z</time>
      </trkpt>
      <trkpt lat="47.24195" lon="-0.05837">
        <ele>66</ele>
        <time>2013-02-04T09:02:10.000Z</time>
      </trkpt>
      <trkpt lat="47.24198" lon="-0.05835">
        <ele>66</ele>
        <time>2013-02-04T09:02:12.000Z</time>
      </trkpt>
      <trkpt lat="47.242" lon="-0.05834">
        <ele>65</ele>
        <time>2013-02-04T09:02:13.000Z</time>
      </trkpt>
      <trkpt lat="47.24203" lon="-0.05833">
        <ele>65</ele>
        <time>2013-02-04T09:02:15.000Z</time>
      </trkpt>
      <trkpt lat="47.24204" lon="-0.05833">
        <ele>65</ele>
        <time>2013-02-04T09:02:16.000Z</time>
      </trkpt>
      <trkpt lat="47.24208" lon="-0.05831">
        <ele>65</ele>
        <time>2013-02-04T09:02:18.000Z</time>
      </trkpt>
      <trkpt lat="47.24209" lon="-0.0583">
        <ele>65</ele>
        <time>2013-02-04T09:02:19.000Z</time>
      </trkpt>
      <trkpt lat="47.24213" lon="-0.05828">
        <ele>65</ele>
        <time>2013-02-04T09:02:22.000Z</time>
      </trkpt>
      <trkpt lat="47.24213" lon="-0.05827">
        <ele>65</ele>
        <time>2013-02-04T09:02:23.000Z</time>
      </trkpt>
      <trkpt lat="47.24217" lon="-0.05825">
        <ele>64</ele>
        <time>2013-02-04T09:02:28.000Z</time>
      </trkpt>
      <trkpt lat="47.24218" lon="-0.05825">
        <ele>64</ele>
        <time>2013-02-04T09:02:29.000Z</time>
      </trkpt>
      <trkpt lat="47.24221" lon="-0.05824">
        <ele>64</ele>
        <time>2013-02-04T09:02:33.000Z</time>
      </trkpt>
      <trkpt lat="47.24223" lon="-0.05823">
        <ele>64</ele>
        <time>2013-02-04T09:02:34.000Z</time>
      </trkpt>
      <trkpt lat="47.24227" lon="-0.05821">
        <ele>64</ele>
        <time>2013-02-04T09:02:37.000Z</time>
      </trkpt>
      <trkpt lat="47.24228" lon="-0.05821">
        <ele>64</ele>
        <time>2013-02-04T09:02:38.000Z</time>
      </trkpt>
      <trkpt lat="47.24231" lon="-0.05821">
        <ele>64</ele>
        <time>2013-02-04T09:02:41.000Z</time>
      </trkpt>
      <trkpt lat="47.24232" lon="-0.0582">
        <ele>64</ele>
        <time>2013-02-04T09:02:42.000Z</time>
      </trkpt>
      <trkpt lat="47.24236" lon="-0.0582">
        <ele>64</ele>
        <time>2013-02-04T09:02:46.000Z</time>
      </trkpt>
      <trkpt lat="47.24238" lon="-0.0582">
        <ele>64</ele>
        <time>2013-02-04T09:02:47.000Z</time>
      </trkpt>
      <trkpt lat="47.2424" lon="-0.05818">
        <ele>64</ele>
        <time>2013-02-04T09:02:49.000Z</time>
      </trkpt>
      <trkpt lat="47.24242" lon="-0.05817">
        <ele>64</ele>
        <time>2013-02-04T09:02:50.000Z</time>
      </trkpt>
      <trkpt lat="47.24245" lon="-0.05815">
        <ele>64</ele>
        <time>2013-02-04T09:02:53.000Z</time>
      </trkpt>
      <trkpt lat="47.24247" lon="-0.05814">
        <ele>64</ele>
        <time>2013-02-04T09:02:54.000Z</time>
      </trkpt>
      <trkpt lat="47.2425" lon="-0.05813">
        <ele>64</ele>
        <time>2013-02-04T09:02:57.000Z</time>
      </trkpt>
      <trkpt lat="47.24251" lon="-0.05812">
        <ele>64</ele>
        <time>2013-02-04T09:02:58.000Z</time>
      </trkpt>
      <trkpt lat="47.24254" lon="-0.05808">
        <ele>65</ele>
        <time>2013-02-04T09:03:02.000Z</time>
      </trkpt>
      <trkpt lat="47.24255" lon="-0.05807">
        <ele>65</ele>
        <time>2013-02-04T09:03:03.000Z</time>
      </trkpt>
      <trkpt lat="47.24256" lon="-0.05801">
        <ele>65</ele>
        <time>2013-02-04T09:03:07.000Z</time>
      </trkpt>
      <trkpt lat="47.24256" lon="-0.05799">
        <ele>65</ele>
        <time>2013-02-04T09:03:08.000Z</time>
      </trkpt>
      <trkpt lat="47.24256" lon="-0.05794">
        <ele>65</ele>
        <time>2013-02-04T09:03:11.000Z</time>
      </trkpt>
      <trkpt lat="47.24257" lon="-0.05793">
        <ele>65</ele>
        <time>2013-02-04T09:03:12.000Z</time>
      </trkpt>
      <trkpt lat="47.24256" lon="-0.05788">
        <ele>65</ele>
        <time>2013-02-04T09:03:18.000Z</time>
      </trkpt>
      <trkpt lat="47.24256" lon="-0.05785">
        <ele>65</ele>
        <time>2013-02-04T09:03:19.000Z</time>
      </trkpt>
      <trkpt lat="47.24256" lon="-0.0578">
        <ele>65</ele>
        <time>2013-02-04T09:03:22.000Z</time>
      </trkpt>
      <trkpt lat="47.24255" lon="-0.05777">
        <ele>65</ele>
        <time>2013-02-04T09:03:23.000Z</time>
      </trkpt>
      <trkpt lat="47.24255" lon="-0.05773">
        <ele>65</ele>
        <time>2013-02-04T09:03:25.000Z</time>
      </trkpt>
      <trkpt lat="47.24254" lon="-0.05771">
        <ele>65</ele>
        <time>2013-02-04T09:03:26.000Z</time>
      </trkpt>
      <trkpt lat="47.24253" lon="-0.05764">
        <ele>65</ele>
        <time>2013-02-04T09:03:29.000Z</time>
      </trkpt>
      <trkpt lat="47.24252" lon="-0.05763">
        <ele>65</ele>
        <time>2013-02-04T09:03:30.000Z</time>
      </trkpt>
      <trkpt lat="47.24251" lon="-0.05759">
        <ele>65</ele>
        <time>2013-02-04T09:03:32.000Z</time>
      </trkpt>
      <trkpt lat="47.24251" lon="-0.05757">
        <ele>64</ele>
        <time>2013-02-04T09:03:33.000Z</time>
      </trkpt>
      <trkpt lat="47.2425" lon="-0.0575">
        <ele>64</ele>
        <time>2013-02-04T09:03:37.000Z</time>
      </trkpt>
      <trkpt lat="47.2425" lon="-0.05748">
        <ele>64</ele>
        <time>2013-02-04T09:03:38.000Z</time>
      </trkpt>
      <trkpt lat="47.24249" lon="-0.05743">
        <ele>64</ele>
        <time>2013-02-04T09:03:41.000Z</time>
      </trkpt>
      <trkpt lat="47.24248" lon="-0.05741">
        <ele>65</ele>
        <time>2013-02-04T09:03:42.000Z</time>
      </trkpt>
      <trkpt lat="47.24247" lon="-0.05735">
        <ele>65</ele>
        <time>2013-02-04T09:03:45.000Z</time>
      </trkpt>
      <trkpt lat="47.24246" lon="-0.05733">
        <ele>65</ele>
        <time>2013-02-04T09:03:46.000Z</time>
      </trkpt>
      <trkpt lat="47.24246" lon="-0.05728">
        <ele>65</ele>
        <time>2013-02-04T09:03:49.000Z</time>
      </trkpt>
      <trkpt lat="47.24246" lon="-0.05727">
        <ele>65</ele>
        <time>2013-02-04T09:03:50.000Z</time>
      </trkpt>
      <trkpt lat="47.24245" lon="-0.05722">
        <ele>65</ele>
        <time>2013-02-04T09:03:53.000Z</time>
      </trkpt>
      <trkpt lat="47.24245" lon="-0.05719">
        <ele>65</ele>
        <time>2013-02-04T09:03:54.000Z</time>
      </trkpt>
      <trkpt lat="47.24244" lon="-0.05715">
        <ele>65</ele>
        <time>2013-02-04T09:03:56.000Z</time>
      </trkpt>
      <trkpt lat="47.24244" lon="-0.05713">
        <ele>65</ele>
        <time>2013-02-04T09:03:57.000Z</time>
      </trkpt>
      <trkpt lat="47.24244" lon="-0.05706">
        <ele>66</ele>
        <time>2013-02-04T09:04:01.000Z</time>
      </trkpt>
      <trkpt lat="47.24243" lon="-0.05705">
        <ele>66</ele>
        <time>2013-02-04T09:04:02.000Z</time>
      </trkpt>
      <trkpt lat="47.24242" lon="-0.05698">
        <ele>66</ele>
        <time>2013-02-04T09:04:06.000Z</time>
      </trkpt>
      <trkpt lat="47.24242" lon="-0.05697">
        <ele>66</ele>
        <time>2013-02-04T09:04:07.000Z</time>
      </trkpt>
      <trkpt lat="47.24241" lon="-0.05692">
        <ele>66</ele>
        <time>2013-02-04T09:04:11.000Z</time>
      </trkpt>
      <trkpt lat="47.2424" lon="-0.0569">
        <ele>66</ele>
        <time>2013-02-04T09:04:12.000Z</time>
      </trkpt>
      <trkpt lat="47.24238" lon="-0.05684">
        <ele>66</ele>
        <time>2013-02-04T09:04:16.000Z</time>
      </trkpt>
      <trkpt lat="47.24238" lon="-0.05684">
        <ele>66</ele>
        <time>2013-02-04T09:04:17.000Z</time>
      </trkpt>
      <trkpt lat="47.24237" lon="-0.05678">
        <ele>66</ele>
        <time>2013-02-04T09:04:21.000Z</time>
      </trkpt>
      <trkpt lat="47.24237" lon="-0.05676">
        <ele>66</ele>
        <time>2013-02-04T09:04:22.000Z</time>
      </trkpt>
      <trkpt lat="47.24236" lon="-0.0567">
        <ele>66</ele>
        <time>2013-02-04T09:04:26.000Z</time>
      </trkpt>
      <trkpt lat="47.24235" lon="-0.05669">
        <ele>66</ele>
        <time>2013-02-04T09:04:27.000Z</time>
      </trkpt>
      <trkpt lat="47.24234" lon="-0.05665">
        <ele>66</ele>
        <time>2013-02-04T09:04:29.000Z</time>
      </trkpt>
      <trkpt lat="47.24233" lon="-0.05663">
        <ele>66</ele>
        <time>2013-02-04T09:04:30.000Z</time>
      </trkpt>
      <trkpt lat="47.24231" lon="-0.05659">
        <ele>66</ele>
        <time>2013-02-04T09:04:32.000Z</time>
      </trkpt>
      <trkpt lat="47.2423" lon="-0.05658">
        <ele>66</ele>
        <time>2013-02-04T09:04:33.000Z</time>
      </trkpt>
      <trkpt lat="47.24227" lon="-0.05653">
        <ele>66</ele>
        <time>2013-02-04T09:04:36.000Z</time>
      </trkpt>
      <trkpt lat="47.24226" lon="-0.05652">
        <ele>66</ele>
        <time>2013-02-04T09:04:37.000Z</time>
      </trkpt>
      <trkpt lat="47.24224" lon="-0.05647">
        <ele>66</ele>
        <time>2013-02-04T09:04:40.000Z</time>
      </trkpt>
      <trkpt lat="47.24224" lon="-0.05644">
        <ele>66</ele>
        <time>2013-02-04T09:04:41.000Z</time>
      </trkpt>
      <trkpt lat="47.24223" lon="-0.05639">
        <ele>66</ele>
        <time>2013-02-04T09:04:45.000Z</time>
      </trkpt>
      <trkpt lat="47.24223" lon="-0.05637">
        <ele>66</ele>
        <time>2013-02-04T09:04:46.000Z</time>
      </trkpt>
      <trkpt lat="47.2422" lon="-0.05633">
        <ele>66</ele>
        <time>2013-02-04T09:04:50.000Z</time>
      </trkpt>
      <trkpt lat="47.24219" lon="-0.05631">
        <ele>66</ele>
        <time>2013-02-04T09:04:51.000Z</time>
      </trkpt>
      <trkpt lat="47.24218" lon="-0.05626">
        <ele>66</ele>
        <time>2013-02-04T09:04:54.000Z</time>
      </trkpt>
      <trkpt lat="47.24218" lon="-0.05624">
        <ele>66</ele>
        <time>2013-02-04T09:04:55.000Z</time>
      </trkpt>
      <trkpt lat="47.24217" lon="-0.05619">
        <ele>66</ele>
        <time>2013-02-04T09:04:58.000Z</time>
      </trkpt>
      <trkpt lat="47.24216" lon="-0.05617">
        <ele>66</ele>
        <time>2013-02-04T09:04:59.000Z</time>
      </trkpt>
      <trkpt lat="47.24214" lon="-0.05611">
        <ele>66</ele>
        <time>2013-02-04T09:05:04.000Z</time>
      </trkpt>
      <trkpt lat="47.24214" lon="-0.0561">
        <ele>66</ele>
        <time>2013-02-04T09:05:05.000Z</time>
      </trkpt>
      <trkpt lat="47.24211" lon="-0.05604">
        <ele>66</ele>
        <time>2013-02-04T09:05:10.000Z</time>
      </trkpt>
      <trkpt lat="47.24211" lon="-0.05603">
        <ele>66</ele>
        <time>2013-02-04T09:05:11.000Z</time>
      </trkpt>
      <trkpt lat="47.2421" lon="-0.05599">
        <ele>66</ele>
        <time>2013-02-04T09:05:13.000Z</time>
      </trkpt>
      <trkpt lat="47.2421" lon="-0.05596">
        <ele>66</ele>
        <time>2013-02-04T09:05:14.000Z</time>
      </trkpt>
      <trkpt lat="47.24209" lon="-0.05592">
        <ele>66</ele>
        <time>2013-02-04T09:05:16.000Z</time>
      </trkpt>
      <trkpt lat="47.24209" lon="-0.0559">
        <ele>66</ele>
        <time>2013-02-04T09:05:17.000Z</time>
      </trkpt>
      <trkpt lat="47.24207" lon="-0.05584">
        <ele>66</ele>
        <time>2013-02-04T09:05:21.000Z</time>
      </trkpt>
      <trkpt lat="47.24207" lon="-0.05583">
        <ele>66</ele>
        <time>2013-02-04T09:05:22.000Z</time>
      </trkpt>
      <trkpt lat="47.24206" lon="-0.05577">
        <ele>66</ele>
        <time>2013-02-04T09:05:25.000Z</time>
      </trkpt>
      <trkpt lat="47.24206" lon="-0.05575">
        <ele>66</ele>
        <time>2013-02-04T09:05:26.000Z</time>
      </trkpt>
      <trkpt lat="47.24205" lon="-0.05569">
        <ele>66</ele>
        <time>2013-02-04T09:05:29.000Z</time>
      </trkpt>
      <trkpt lat="47.24205" lon="-0.05567">
        <ele>66</ele>
        <time>2013-02-04T09:05:30.000Z</time>
      </trkpt>
      <trkpt lat="47.24203" lon="-0.05561">
        <ele>66</ele>
        <time>2013-02-04T09:05:35.000Z</time>
      </trkpt>
      <trkpt lat="47.24202" lon="-0.0556">
        <ele>66</ele>
        <time>2013-02-04T09:05:36.000Z</time>
      </trkpt>
      <trkpt lat="47.24201" lon="-0.05554">
        <ele>66</ele>
        <time>2013-02-04T09:05:41.000Z</time>
      </trkpt>
      <trkpt lat="47.242" lon="-0.05553">
        <ele>66</ele>
        <time>2013-02-04T09:05:42.000Z</time>
      </trkpt>
      <trkpt lat="47.242" lon="-0.05547">
        <ele>66</ele>
        <time>2013-02-04T09:05:45.000Z</time>
      </trkpt>
      <trkpt lat="47.242" lon="-0.05544">
        <ele>66</ele>
        <time>2013-02-04T09:05:46.000Z</time>
      </trkpt>
      <trkpt lat="47.242" lon="-0.05538">
        <ele>66</ele>
        <time>2013-02-04T09:05:48.000Z</time>
      </trkpt>
      <trkpt lat="47.242" lon="-0.05537">
        <ele>66</ele>
        <time>2013-02-04T09:05:49.000Z</time>
      </trkpt>
      <trkpt lat="47.24199" lon="-0.05532">
        <ele>66</ele>
        <time>2013-02-04T09:05:53.000Z</time>
      </trkpt>
      <trkpt lat="47.24198" lon="-0.0553">
        <ele>66</ele>
        <time>2013-02-04T09:05:54.000Z</time>
      </trkpt>
      <trkpt lat="47.24197" lon="-0.05525">
        <ele>66</ele>
        <time>2013-02-04T09:05:58.000Z</time>
      </trkpt>
      <trkpt lat="47.24196" lon="-0.05524">
        <ele>66</ele>
        <time>2013-02-04T09:05:59.000Z</time>
      </trkpt>
      <trkpt lat="47.24195" lon="-0.0552">
        <ele>66</ele>
        <time>2013-02-04T09:06:01.000Z</time>
      </trkpt>
      <trkpt lat="47.24193" lon="-0.05517">
        <ele>66</ele>
        <time>2013-02-04T09:06:02.000Z</time>
      </trkpt>
      <trkpt lat="47.24192" lon="-0.05512">
        <ele>66</ele>
        <time>2013-02-04T09:06:05.000Z</time>
      </trkpt>
      <trkpt lat="47.24191" lon="-0.05511">
        <ele>66</ele>
        <time>2013-02-04T09:06:06.000Z</time>
      </trkpt>
      <trkpt lat="47.24188" lon="-0.05507">
        <ele>66</ele>
        <time>2013-02-04T09:06:11.000Z</time>
      </trkpt>
      <trkpt lat="47.24188" lon="-0.05506">
        <ele>66</ele>
        <time>2013-02-04T09:06:12.000Z</time>
      </trkpt>
      <trkpt lat="47.24187" lon="-0.05502">
        <ele>66</ele>
        <time>2013-02-04T09:06:14.000Z</time>
      </trkpt>
      <trkpt lat="47.24186" lon="-0.055">
        <ele>67</ele>
        <time>2013-02-04T09:06:15.000Z</time>
      </trkpt>
      <trkpt lat="47.24186" lon="-0.05495">
        <ele>67</ele>
        <time>2013-02-04T09:06:17.000Z</time>
      </trkpt>
      <trkpt lat="47.24185" lon="-0.05492">
        <ele>67</ele>
        <time>2013-02-04T09:06:18.000Z</time>
      </trkpt>
      <trkpt lat="47.24185" lon="-0.05487">
        <ele>67</ele>
        <time>2013-02-04T09:06:21.000Z</time>
      </trkpt>
      <trkpt lat="47.24184" lon="-0.05485">
        <ele>67</ele>
        <time>2013-02-04T09:06:22.000Z</time>
      </trkpt>
      <trkpt lat="47.24183" lon="-0.0548">
        <ele>67</ele>
        <time>2013-02-04T09:06:26.000Z</time>
      </trkpt>
      <trkpt lat="47.24183" lon="-0.05478">
        <ele>67</ele>
        <time>2013-02-04T09:06:27.000Z</time>
      </trkpt>
      <trkpt lat="47.24182" lon="-0.05474">
        <ele>67</ele>
        <time>2013-02-04T09:06:30.000Z</time>
      </trkpt>
      <trkpt lat="47.24182" lon="-0.05471">
        <ele>67</ele>
        <time>2013-02-04T09:06:31.000Z</time>
      </trkpt>
      <trkpt lat="47.24182" lon="-0.05465">
        <ele>67</ele>
        <time>2013-02-04T09:06:34.000Z</time>
      </trkpt>
      <trkpt lat="47.24182" lon="-0.05463">
        <ele>67</ele>
        <time>2013-02-04T09:06:35.000Z</time>
      </trkpt>
      <trkpt lat="47.24182" lon="-0.05456">
        <ele>67</ele>
        <time>2013-02-04T09:06:40.000Z</time>
      </trkpt>
      <trkpt lat="47.24182" lon="-0.05455">
        <ele>67</ele>
        <time>2013-02-04T09:06:41.000Z</time>
      </trkpt>
      <trkpt lat="47.24182" lon="-0.0545">
        <ele>67</ele>
        <time>2013-02-04T09:06:44.000Z</time>
      </trkpt>
      <trkpt lat="47.24183" lon="-0.05448">
        <ele>67</ele>
        <time>2013-02-04T09:06:45.000Z</time>
      </trkpt>
      <trkpt lat="47.24183" lon="-0.05442">
        <ele>67</ele>
        <time>2013-02-04T09:06:48.000Z</time>
      </trkpt>
      <trkpt lat="47.24184" lon="-0.05439">
        <ele>67</ele>
        <time>2013-02-04T09:06:49.000Z</time>
      </trkpt>
      <trkpt lat="47.24184" lon="-0.05433">
        <ele>67</ele>
        <time>2013-02-04T09:06:52.000Z</time>
      </trkpt>
      <trkpt lat="47.24185" lon="-0.05431">
        <ele>67</ele>
        <time>2013-02-04T09:06:53.000Z</time>
      </trkpt>
      <trkpt lat="47.24185" lon="-0.05426">
        <ele>67</ele>
        <time>2013-02-04T09:06:57.000Z</time>
      </trkpt>
      <trkpt lat="47.24186" lon="-0.05424">
        <ele>67</ele>
        <time>2013-02-04T09:06:58.000Z</time>
      </trkpt>
      <trkpt lat="47.24185" lon="-0.05419">
        <ele>67</ele>
        <time>2013-02-04T09:07:01.000Z</time>
      </trkpt>
      <trkpt lat="47.24184" lon="-0.05418">
        <ele>67</ele>
        <time>2013-02-04T09:07:02.000Z</time>
      </trkpt>
      <trkpt lat="47.24184" lon="-0.05412">
        <ele>68</ele>
        <time>2013-02-04T09:07:07.000Z</time>
      </trkpt>
      <trkpt lat="47.24184" lon="-0.0541">
        <ele>68</ele>
        <time>2013-02-04T09:07:08.000Z</time>
      </trkpt>
      <trkpt lat="47.24184" lon="-0.05404">
        <ele>68</ele>
        <time>2013-02-04T09:07:10.000Z</time>
      </trkpt>
      <trkpt lat="47.24183" lon="-0.05402">
        <ele>68</ele>
        <time>2013-02-04T09:07:11.000Z</time>
      </trkpt>
      <trkpt lat="47.24183" lon="-0.05396">
        <ele>68</ele>
        <time>2013-02-04T09:07:14.000Z</time>
      </trkpt>
      <trkpt lat="47.24183" lon="-0.05394">
        <ele>68</ele>
        <time>2013-02-04T09:07:15.000Z</time>
      </trkpt>
      <trkpt lat="47.24183" lon="-0.05389">
        <ele>68</ele>
        <time>2013-02-04T09:07:18.000Z</time>
      </trkpt>
      <trkpt lat="47.24183" lon="-0.05387">
        <ele>68</ele>
        <time>2013-02-04T09:07:19.000Z</time>
      </trkpt>
      <trkpt lat="47.24182" lon="-0.05381">
        <ele>68</ele>
        <time>2013-02-04T09:07:24.000Z</time>
      </trkpt>
      <trkpt lat="47.24181" lon="-0.05379">
        <ele>68</ele>
        <time>2013-02-04T09:07:25.000Z</time>
      </trkpt>
      <trkpt lat="47.2418" lon="-0.05374">
        <ele>68</ele>
        <time>2013-02-04T09:07:29.000Z</time>
      </trkpt>
      <trkpt lat="47.2418" lon="-0.05372">
        <ele>68</ele>
        <time>2013-02-04T09:07:30.000Z</time>
      </trkpt>
      <trkpt lat="47.24183" lon="-0.05368">
        <ele>69</ele>
        <time>2013-02-04T09:07:35.000Z</time>
      </trkpt>
      <trkpt lat="47.24184" lon="-0.05367">
        <ele>69</ele>
        <time>2013-02-04T09:07:36.000Z</time>
      </trkpt>
      <trkpt lat="47.24186" lon="-0.05364">
        <ele>69</ele>
        <time>2013-02-04T09:07:40.000Z</time>
      </trkpt>
      <trkpt lat="47.24188" lon="-0.05362">
        <ele>69</ele>
        <time>2013-02-04T09:07:41.000Z</time>
      </trkpt>
      <trkpt lat="47.24191" lon="-0.05359">
        <ele>69</ele>
        <time>2013-02-04T09:07:46.000Z</time>
      </trkpt>
      <trkpt lat="47.24192" lon="-0.05359">
        <ele>69</ele>
        <time>2013-02-04T09:07:47.000Z</time>
      </trkpt>
      <trkpt lat="47.24196" lon="-0.05358">
        <ele>69</ele>
        <time>2013-02-04T09:07:50.000Z</time>
      </trkpt>
      <trkpt lat="47.24197" lon="-0.05357">
        <ele>69</ele>
        <time>2013-02-04T09:07:51.000Z</time>
      </trkpt>
      <trkpt lat="47.24201" lon="-0.05355">
        <ele>69</ele>
        <time>2013-02-04T09:07:55.000Z</time>
      </trkpt>
      <trkpt lat="47.24203" lon="-0.05354">
        <ele>69</ele>
        <time>2013-02-04T09:07:56.000Z</time>
      </trkpt>
      <trkpt lat="47.24205" lon="-0.0535">
        <ele>69</ele>
        <time>2013-02-04T09:08:00.000Z</time>
      </trkpt>
      <trkpt lat="47.24206" lon="-0.05349">
        <ele>69</ele>
        <time>2013-02-04T09:08:01.000Z</time>
      </trkpt>
      <trkpt lat="47.24205" lon="-0.05345">
        <ele>69</ele>
        <time>2013-02-04T09:08:04.000Z</time>
      </trkpt>
      <trkpt lat="47.24205" lon="-0.05342">
        <ele>69</ele>
        <time>2013-02-04T09:08:05.000Z</time>
      </trkpt>
      <trkpt lat="47.24205" lon="-0.05336">
        <ele>69</ele>
        <time>2013-02-04T09:08:07.000Z</time>
      </trkpt>
      <trkpt lat="47.24204" lon="-0.05333">
        <ele>70</ele>
        <time>2013-02-04T09:08:08.000Z</time>
      </trkpt>
      <trkpt lat="47.24203" lon="-0.05327">
        <ele>70</ele>
        <time>2013-02-04T09:08:11.000Z</time>
      </trkpt>
      <trkpt lat="47.24202" lon="-0.05326">
        <ele>70</ele>
        <time>2013-02-04T09:08:12.000Z</time>
      </trkpt>
      <trkpt lat="47.242" lon="-0.05321">
        <ele>70</ele>
        <time>2013-02-04T09:08:15.000Z</time>
      </trkpt>
      <trkpt lat="47.242" lon="-0.05319">
        <ele>70</ele>
        <time>2013-02-04T09:08:16.000Z</time>
      </trkpt>
      <trkpt lat="47.24198" lon="-0.05313">
        <ele>70</ele>
        <time>2013-02-04T09:08:20.000Z</time>
      </trkpt>
      <trkpt lat="47.24197" lon="-0.05312">
        <ele>70</ele>
        <time>2013-02-04T09:08:21.000Z</time>
      </trkpt>
      <trkpt lat="47.24194" lon="-0.05307">
        <ele>70</ele>
        <time>2013-02-04T09:08:25.000Z</time>
      </trkpt>
      <trkpt lat="47.24194" lon="-0.05306">
        <ele>70</ele>
        <time>2013-02-04T09:08:26.000Z</time>
      </trkpt>
      <trkpt lat="47.24192" lon="-0.053">
        <ele>70</ele>
        <time>2013-02-04T09:08:32.000Z</time>
      </trkpt>
      <trkpt lat="47.24191" lon="-0.05299">
        <ele>70</ele>
        <time>2013-02-04T09:08:33.000Z</time>
      </trkpt>
      <trkpt lat="47.24189" lon="-0.05295">
        <ele>70</ele>
        <time>2013-02-04T09:08:35.000Z</time>
      </trkpt>
      <trkpt lat="47.24188" lon="-0.05294">
        <ele>70</ele>
        <time>2013-02-04T09:08:36.000Z</time>
      </trkpt>
      <trkpt lat="47.24186" lon="-0.0529">
        <ele>70</ele>
        <time>2013-02-04T09:08:38.000Z</time>
      </trkpt>
      <trkpt lat="47.24185" lon="-0.05289">
        <ele>70</ele>
        <time>2013-02-04T09:08:39.000Z</time>
      </trkpt>
      <trkpt lat="47.24183" lon="-0.05284">
        <ele>70</ele>
        <time>2013-02-04T09:08:44.000Z</time>
      </trkpt>
      <trkpt lat="47.24183" lon="-0.05282">
        <ele>70</ele>
        <time>2013-02-04T09:08:45.000Z</time>
      </trkpt>
      <trkpt lat="47.2418" lon="-0.05279">
        <ele>70</ele>
        <time>2013-02-04T09:08:48.000Z</time>
      </trkpt>
      <trkpt lat="47.24179" lon="-0.05277">
        <ele>70</ele>
        <time>2013-02-04T09:08:49.000Z</time>
      </trkpt>
      <trkpt lat="47.24176" lon="-0.05272">
        <ele>70</ele>
        <time>2013-02-04T09:08:52.000Z</time>
      </trkpt>
      <trkpt lat="47.24175" lon="-0.05271">
        <ele>70</ele>
        <time>2013-02-04T09:08:53.000Z</time>
      </trkpt>
      <trkpt lat="47.24173" lon="-0.05267">
        <ele>70</ele>
        <time>2013-02-04T09:08:57.000Z</time>
      </trkpt>
      <trkpt lat="47.24173" lon="-0.05266">
        <ele>70</ele>
        <time>2013-02-04T09:08:58.000Z</time>
      </trkpt>
      <trkpt lat="47.24172" lon="-0.05261">
        <ele>70</ele>
        <time>2013-02-04T09:09:00.000Z</time>
      </trkpt>
      <trkpt lat="47.24171" lon="-0.05259">
        <ele>70</ele>
        <time>2013-02-04T09:09:01.000Z</time>
      </trkpt>
      <trkpt lat="47.24168" lon="-0.05255">
        <ele>69</ele>
        <time>2013-02-04T09:09:03.000Z</time>
      </trkpt>
      <trkpt lat="47.24167" lon="-0.05252">
        <ele>69</ele>
        <time>2013-02-04T09:09:04.000Z</time>
      </trkpt>
      <trkpt lat="47.24165" lon="-0.05248">
        <ele>69</ele>
        <time>2013-02-04T09:09:07.000Z</time>
      </trkpt>
      <trkpt lat="47.24165" lon="-0.05246">
        <ele>69</ele>
        <time>2013-02-04T09:09:08.000Z</time>
      </trkpt>
      <trkpt lat="47.24162" lon="-0.05242">
        <ele>70</ele>
        <time>2013-02-04T09:09:12.000Z</time>
      </trkpt>
      <trkpt lat="47.24161" lon="-0.0524">
        <ele>70</ele>
        <time>2013-02-04T09:09:13.000Z</time>
      </trkpt>
      <trkpt lat="47.24159" lon="-0.05235">
        <ele>70</ele>
        <time>2013-02-04T09:09:20.000Z</time>
      </trkpt>
      <trkpt lat="47.24158" lon="-0.05234">
        <ele>71</ele>
        <time>2013-02-04T09:09:21.000Z</time>
      </trkpt>
      <trkpt lat="47.24157" lon="-0.05229">
        <ele>71</ele>
        <time>2013-02-04T09:09:24.000Z</time>
      </trkpt>
      <trkpt lat="47.24156" lon="-0.05227">
        <ele>71</ele>
        <time>2013-02-04T09:09:25.000Z</time>
      </trkpt>
      <trkpt lat="47.24154" lon="-0.05222">
        <ele>71</ele>
        <time>2013-02-04T09:09:27.000Z</time>
      </trkpt>
      <trkpt lat="47.24153" lon="-0.05221">
        <ele>71</ele>
        <time>2013-02-04T09:09:28.000Z</time>
      </trkpt>
      <trkpt lat="47.2415" lon="-0.05216">
        <ele>72</ele>
        <time>2013-02-04T09:09:32.000Z</time>
      </trkpt>
      <trkpt lat="47.2415" lon="-0.05215">
        <ele>72</ele>
        <time>2013-02-04T09:09:33.000Z</time>
      </trkpt>
      <trkpt lat="47.24148" lon="-0.05211">
        <ele>72</ele>
        <time>2013-02-04T09:09:36.000Z</time>
      </trkpt>
      <trkpt lat="47.24147" lon="-0.05208">
        <ele>72</ele>
        <time>2013-02-04T09:09:37.000Z</time>
      </trkpt>
      <trkpt lat="47.24146" lon="-0.05202">
        <ele>72</ele>
        <time>2013-02-04T09:09:41.000Z</time>
      </trkpt>
      <trkpt lat="47.24145" lon="-0.05202">
        <ele>72</ele>
        <time>2013-02-04T09:09:42.000Z</time>
      </trkpt>
      <trkpt lat="47.24142" lon="-0.05197">
        <ele>72</ele>
        <time>2013-02-04T09:09:46.000Z</time>
      </trkpt>
      <trkpt lat="47.24141" lon="-0.05196">
        <ele>72</ele>
        <time>2013-02-04T09:09:47.000Z</time>
      </trkpt>
      <trkpt lat="47.2414" lon="-0.05191">
        <ele>72</ele>
        <time>2013-02-04T09:09:49.000Z</time>
      </trkpt>
      <trkpt lat="47.24139" lon="-0.05188">
        <ele>72</ele>
        <time>2013-02-04T09:09:50.000Z</time>
      </trkpt>
      <trkpt lat="47.24138" lon="-0.05183">
        <ele>73</ele>
        <time>2013-02-04T09:09:53.000Z</time>
      </trkpt>
      <trkpt lat="47.24138" lon="-0.05181">
        <ele>73</ele>
        <time>2013-02-04T09:09:54.000Z</time>
      </trkpt>
      <trkpt lat="47.24138" lon="-0.05176">
        <ele>73</ele>
        <time>2013-02-04T09:09:56.000Z</time>
      </trkpt>
      <trkpt lat="47.24139" lon="-0.05173">
        <ele>73</ele>
        <time>2013-02-04T09:09:57.000Z</time>
      </trkpt>
      <trkpt lat="47.24136" lon="-0.05167">
        <ele>73</ele>
        <time>2013-02-04T09:10:03.000Z</time>
      </trkpt>
      <trkpt lat="47.24136" lon="-0.05166">
        <ele>74</ele>
        <time>2013-02-04T09:10:04.000Z</time>
      </trkpt>
      <trkpt lat="47.24137" lon="-0.0516">
        <ele>74</ele>
        <time>2013-02-04T09:10:06.000Z</time>
      </trkpt>
      <trkpt lat="47.24137" lon="-0.05159">
        <ele>74</ele>
        <time>2013-02-04T09:10:07.000Z</time>
      </trkpt>
      <trkpt lat="47.24139" lon="-0.05154">
        <ele>74</ele>
        <time>2013-02-04T09:10:10.000Z</time>
      </trkpt>
      <trkpt lat="47.2414" lon="-0.05152">
        <ele>74</ele>
        <time>2013-02-04T09:10:11.000Z</time>
      </trkpt>
      <trkpt lat="47.24141" lon="-0.05147">
        <ele>74</ele>
        <time>2013-02-04T09:10:14.000Z</time>
      </trkpt>
      <trkpt lat="47.24141" lon="-0.05145">
        <ele>74</ele>
        <time>2013-02-04T09:10:15.000Z</time>
      </trkpt>
      <trkpt lat="47.24143" lon="-0.0514">
        <ele>74</ele>
        <time>2013-02-04T09:10:19.000Z</time>
      </trkpt>
      <trkpt lat="47.24143" lon="-0.05138">
        <ele>74</ele>
        <time>2013-02-04T09:10:20.000Z</time>
      </trkpt>
      <trkpt lat="47.24145" lon="-0.05133">
        <ele>74</ele>
        <time>2013-02-04T09:10:24.000Z</time>
      </trkpt>
      <trkpt lat="47.24146" lon="-0.0513">
        <ele>74</ele>
        <time>2013-02-04T09:10:25.000Z</time>
      </trkpt>
      <trkpt lat="47.24146" lon="-0.05125">
        <ele>74</ele>
        <time>2013-02-04T09:10:27.000Z</time>
      </trkpt>
      <trkpt lat="47.24146" lon="-0.05123">
        <ele>74</ele>
        <time>2013-02-04T09:10:28.000Z</time>
      </trkpt>
      <trkpt lat="47.24146" lon="-0.05117">
        <ele>74</ele>
        <time>2013-02-04T09:10:31.000Z</time>
      </trkpt>
      <trkpt lat="47.24146" lon="-0.05114">
        <ele>74</ele>
        <time>2013-02-04T09:10:32.000Z</time>
      </trkpt>
      <trkpt lat="47.24147" lon="-0.05109">
        <ele>74</ele>
        <time>2013-02-04T09:10:36.000Z</time>
      </trkpt>
      <trkpt lat="47.24147" lon="-0.05107">
        <ele>74</ele>
        <time>2013-02-04T09:10:37.000Z</time>
      </trkpt>
      <trkpt lat="47.24146" lon="-0.05101">
        <ele>74</ele>
        <time>2013-02-04T09:10:41.000Z</time>
      </trkpt>
      <trkpt lat="47.24146" lon="-0.05099">
        <ele>74</ele>
        <time>2013-02-04T09:10:42.000Z</time>
      </trkpt>
      <trkpt lat="47.24146" lon="-0.05094">
        <ele>74</ele>
        <time>2013-02-04T09:10:45.000Z</time>
      </trkpt>
      <trkpt lat="47.24146" lon="-0.05092">
        <ele>74</ele>
        <time>2013-02-04T09:10:46.000Z</time>
      </trkpt>
      <trkpt lat="47.24146" lon="-0.05086">
        <ele>74</ele>
        <time>2013-02-04T09:10:51.000Z</time>
      </trkpt>
      <trkpt lat="47.24146" lon="-0.05084">
        <ele>74</ele>
        <time>2013-02-04T09:10:52.000Z</time>
      </trkpt>
      <trkpt lat="47.24146" lon="-0.05079">
        <ele>74</ele>
        <time>2013-02-04T09:10:55.000Z</time>
      </trkpt>
      <trkpt lat="47.24146" lon="-0.05076">
        <ele>74</ele>
        <time>2013-02-04T09:10:56.000Z</time>
      </trkpt>
      <trkpt lat="47.24145" lon="-0.0507">
        <ele>74</ele>
        <time>2013-02-04T09:11:01.000Z</time>
      </trkpt>
      <trkpt lat="47.24146" lon="-0.05067">
        <ele>74</ele>
        <time>2013-02-04T09:11:02.000Z</time>
      </trkpt>
      <trkpt lat="47.24145" lon="-0.05062">
        <ele>74</ele>
        <time>2013-02-04T09:11:06.000Z</time>
      </trkpt>
      <trkpt lat="47.24145" lon="-0.05059">
        <ele>74</ele>
        <time>2013-02-04T09:11:07.000Z</time>
      </trkpt>
      <trkpt lat="47.24144" lon="-0.05054">
        <ele>74</ele>
        <time>2013-02-04T09:11:12.000Z</time>
      </trkpt>
      <trkpt lat="47.24144" lon="-0.05052">
        <ele>74</ele>
        <time>2013-02-04T09:11:13.000Z</time>
      </trkpt>
      <trkpt lat="47.24145" lon="-0.05047">
        <ele>73</ele>
        <time>2013-02-04T09:11:18.000Z</time>
      </trkpt>
      <trkpt lat="47.24146" lon="-0.05043">
        <ele>73</ele>
        <time>2013-02-04T09:11:19.000Z</time>
      </trkpt>
      <trkpt lat="47.24145" lon="-0.05039">
        <ele>73</ele>
        <time>2013-02-04T09:11:21.000Z</time>
      </trkpt>
      <trkpt lat="47.24145" lon="-0.05036">
        <ele>73</ele>
        <time>2013-02-04T09:11:22.000Z</time>
      </trkpt>
      <trkpt lat="47.24146" lon="-0.05031">
        <ele>73</ele>
        <time>2013-02-04T09:11:24.000Z</time>
      </trkpt>
      <trkpt lat="47.24147" lon="-0.05028">
        <ele>73</ele>
        <time>2013-02-04T09:11:25.000Z</time>
      </trkpt>
      <trkpt lat="47.24148" lon="-0.05024">
        <ele>73</ele>
        <time>2013-02-04T09:11:27.000Z</time>
      </trkpt>
      <trkpt lat="47.24148" lon="-0.05022">
        <ele>73</ele>
        <time>2013-02-04T09:11:28.000Z</time>
      </trkpt>
      <trkpt lat="47.24148" lon="-0.05016">
        <ele>73</ele>
        <time>2013-02-04T09:11:31.000Z</time>
      </trkpt>
      <trkpt lat="47.24149" lon="-0.05014">
        <ele>73</ele>
        <time>2013-02-04T09:11:32.000Z</time>
      </trkpt>
      <trkpt lat="47.24149" lon="-0.05008">
        <ele>73</ele>
        <time>2013-02-04T09:11:35.000Z</time>
      </trkpt>
      <trkpt lat="47.24149" lon="-0.05006">
        <ele>73</ele>
        <time>2013-02-04T09:11:36.000Z</time>
      </trkpt>
      <trkpt lat="47.24149" lon="-0.05002">
        <ele>73</ele>
        <time>2013-02-04T09:11:38.000Z</time>
      </trkpt>
      <trkpt lat="47.24149" lon="-0.05">
        <ele>73</ele>
        <time>2013-02-04T09:11:39.000Z</time>
      </trkpt>
      <trkpt lat="47.2415" lon="-0.04994">
        <ele>73</ele>
        <time>2013-02-04T09:11:42.000Z</time>
      </trkpt>
      <trkpt lat="47.2415" lon="-0.04993">
        <ele>73</ele>
        <time>2013-02-04T09:11:43.000Z</time>
      </trkpt>
      <trkpt lat="47.2415" lon="-0.04987">
        <ele>72</ele>
        <time>2013-02-04T09:11:46.000Z</time>
      </trkpt>
      <trkpt lat="47.2415" lon="-0.04985">
        <ele>72</ele>
        <time>2013-02-04T09:11:47.000Z</time>
      </trkpt>
      <trkpt lat="47.2415" lon="-0.04979">
        <ele>72</ele>
        <time>2013-02-04T09:11:52.000Z</time>
      </trkpt>
      <trkpt lat="47.2415" lon="-0.04978">
        <ele>72</ele>
        <time>2013-02-04T09:11:53.000Z</time>
      </trkpt>
      <trkpt lat="47.24149" lon="-0.04972">
        <ele>72</ele>
        <time>2013-02-04T09:11:57.000Z</time>
      </trkpt>
      <trkpt lat="47.24149" lon="-0.04971">
        <ele>72</ele>
        <time>2013-02-04T09:11:58.000Z</time>
      </trkpt>
      <trkpt lat="47.24149" lon="-0.04964">
        <ele>72</ele>
        <time>2013-02-04T09:12:02.000Z</time>
      </trkpt>
      <trkpt lat="47.24149" lon="-0.04963">
        <ele>72</ele>
        <time>2013-02-04T09:12:03.000Z</time>
      </trkpt>
      <trkpt lat="47.24148" lon="-0.04956">
        <ele>72</ele>
        <time>2013-02-04T09:12:07.000Z</time>
      </trkpt>
      <trkpt lat="47.24148" lon="-0.04955">
        <ele>72</ele>
        <time>2013-02-04T09:12:08.000Z</time>
      </trkpt>
      <trkpt lat="47.24147" lon="-0.04948">
        <ele>72</ele>
        <time>2013-02-04T09:12:11.000Z</time>
      </trkpt>
      <trkpt lat="47.24147" lon="-0.04947">
        <ele>72</ele>
        <time>2013-02-04T09:12:12.000Z</time>
      </trkpt>
      <trkpt lat="47.24147" lon="-0.04942">
        <ele>72</ele>
        <time>2013-02-04T09:12:15.000Z</time>
      </trkpt>
      <trkpt lat="47.24147" lon="-0.0494">
        <ele>72</ele>
        <time>2013-02-04T09:12:16.000Z</time>
      </trkpt>
      <trkpt lat="47.24147" lon="-0.04934">
        <ele>72</ele>
        <time>2013-02-04T09:12:19.000Z</time>
      </trkpt>
      <trkpt lat="47.24147" lon="-0.04932">
        <ele>72</ele>
        <time>2013-02-04T09:12:20.000Z</time>
      </trkpt>
      <trkpt lat="47.24147" lon="-0.04925">
        <ele>72</ele>
        <time>2013-02-04T09:12:24.000Z</time>
      </trkpt>
      <trkpt lat="47.24147" lon="-0.04924">
        <ele>72</ele>
        <time>2013-02-04T09:12:25.000Z</time>
      </trkpt>
      <trkpt lat="47.24147" lon="-0.04917">
        <ele>71</ele>
        <time>2013-02-04T09:12:28.000Z</time>
      </trkpt>
      <trkpt lat="47.24147" lon="-0.04915">
        <ele>71</ele>
        <time>2013-02-04T09:12:29.000Z</time>
      </trkpt>
      <trkpt lat="47.24147" lon="-0.0491">
        <ele>71</ele>
        <time>2013-02-04T09:12:31.000Z</time>
      </trkpt>
      <trkpt lat="47.24147" lon="-0.04907">
        <ele>71</ele>
        <time>2013-02-04T09:12:32.000Z</time>
      </trkpt>
      <trkpt lat="47.24147" lon="-0.04901">
        <ele>71</ele>
        <time>2013-02-04T09:12:36.000Z</time>
      </trkpt>
      <trkpt lat="47.24147" lon="-0.049">
        <ele>71</ele>
        <time>2013-02-04T09:12:37.000Z</time>
      </trkpt>
      <trkpt lat="47.24146" lon="-0.04893">
        <ele>71</ele>
        <time>2013-02-04T09:12:41.000Z</time>
      </trkpt>
      <trkpt lat="47.24146" lon="-0.04891">
        <ele>71</ele>
        <time>2013-02-04T09:12:42.000Z</time>
      </trkpt>
      <trkpt lat="47.24145" lon="-0.04887">
        <ele>71</ele>
        <time>2013-02-04T09:12:44.000Z</time>
      </trkpt>
      <trkpt lat="47.24145" lon="-0.04885">
        <ele>71</ele>
        <time>2013-02-04T09:12:45.000Z</time>
      </trkpt>
      <trkpt lat="47.24145" lon="-0.04879">
        <ele>71</ele>
        <time>2013-02-04T09:12:48.000Z</time>
      </trkpt>
      <trkpt lat="47.24145" lon="-0.04878">
        <ele>71</ele>
        <time>2013-02-04T09:12:49.000Z</time>
      </trkpt>
      <trkpt lat="47.24144" lon="-0.04873">
        <ele>71</ele>
        <time>2013-02-04T09:12:53.000Z</time>
      </trkpt>
      <trkpt lat="47.24143" lon="-0.0487">
        <ele>71</ele>
        <time>2013-02-04T09:12:54.000Z</time>
      </trkpt>
      <trkpt lat="47.24142" lon="-0.04864">
        <ele>71</ele>
        <time>2013-02-04T09:12:57.000Z</time>
      </trkpt>
      <trkpt lat="47.24142" lon="-0.04862">
        <ele>71</ele>
        <time>2013-02-04T09:12:58.000Z</time>
      </trkpt>
      <trkpt lat="47.24141" lon="-0.04857">
        <ele>71</ele>
        <time>2013-02-04T09:13:02.000Z</time>
      </trkpt>
      <trkpt lat="47.24141" lon="-0.04855">
        <ele>71</ele>
        <time>2013-02-04T09:13:03.000Z</time>
      </trkpt>
      <trkpt lat="47.24141" lon="-0.04849">
        <ele>71</ele>
        <time>2013-02-04T09:13:05.000Z</time>
      </trkpt>
      <trkpt lat="47.24141" lon="-0.04847">
        <ele>71</ele>
        <time>2013-02-04T09:13:06.000Z</time>
      </trkpt>
      <trkpt lat="47.24141" lon="-0.04841">
        <ele>71</ele>
        <time>2013-02-04T09:13:09.000Z</time>
      </trkpt>
      <trkpt lat="47.24141" lon="-0.04839">
        <ele>71</ele>
        <time>2013-02-04T09:13:10.000Z</time>
      </trkpt>
      <trkpt lat="47.24141" lon="-0.04833">
        <ele>70</ele>
        <time>2013-02-04T09:13:14.000Z</time>
      </trkpt>
      <trkpt lat="47.2414" lon="-0.04832">
        <ele>70</ele>
        <time>2013-02-04T09:13:15.000Z</time>
      </trkpt>
      <trkpt lat="47.2414" lon="-0.04826">
        <ele>70</ele>
        <time>2013-02-04T09:13:20.000Z</time>
      </trkpt>
      <trkpt lat="47.2414" lon="-0.04825">
        <ele>70</ele>
        <time>2013-02-04T09:13:21.000Z</time>
      </trkpt>
      <trkpt lat="47.24139" lon="-0.04818">
        <ele>70</ele>
        <time>2013-02-04T09:13:25.000Z</time>
      </trkpt>
      <trkpt lat="47.24139" lon="-0.04817">
        <ele>70</ele>
        <time>2013-02-04T09:13:26.000Z</time>
      </trkpt>
      <trkpt lat="47.24139" lon="-0.0481">
        <ele>70</ele>
        <time>2013-02-04T09:13:29.000Z</time>
      </trkpt>
      <trkpt lat="47.24139" lon="-0.04809">
        <ele>70</ele>
        <time>2013-02-04T09:13:30.000Z</time>
      </trkpt>
      <trkpt lat="47.24139" lon="-0.04802">
        <ele>70</ele>
        <time>2013-02-04T09:13:34.000Z</time>
      </trkpt>
      <trkpt lat="47.24139" lon="-0.04801">
        <ele>70</ele>
        <time>2013-02-04T09:13:35.000Z</time>
      </trkpt>
      <trkpt lat="47.24137" lon="-0.04797">
        <ele>70</ele>
        <time>2013-02-04T09:13:39.000Z</time>
      </trkpt>
      <trkpt lat="47.24135" lon="-0.04796">
        <ele>70</ele>
        <time>2013-02-04T09:13:40.000Z</time>
      </trkpt>
      <trkpt lat="47.24131" lon="-0.04793">
        <ele>70</ele>
        <time>2013-02-04T09:13:44.000Z</time>
      </trkpt>
      <trkpt lat="47.24131" lon="-0.04793">
        <ele>70</ele>
        <time>2013-02-04T09:13:45.000Z</time>
      </trkpt>
      <trkpt lat="47.24126" lon="-0.04795">
        <ele>70</ele>
        <time>2013-02-04T09:13:49.000Z</time>
      </trkpt>
      <trkpt lat="47.24125" lon="-0.04796">
        <ele>71</ele>
        <time>2013-02-04T09:13:50.000Z</time>
      </trkpt>
      <trkpt lat="47.2412" lon="-0.04797">
        <ele>71</ele>
        <time>2013-02-04T09:13:55.000Z</time>
      </trkpt>
      <trkpt lat="47.24119" lon="-0.04798">
        <ele>71</ele>
        <time>2013-02-04T09:13:56.000Z</time>
      </trkpt>
      <trkpt lat="47.24116" lon="-0.04799">
        <ele>71</ele>
        <time>2013-02-04T09:13:58.000Z</time>
      </trkpt>
      <trkpt lat="47.24114" lon="-0.048">
        <ele>71</ele>
        <time>2013-02-04T09:13:59.000Z</time>
      </trkpt>
      <trkpt lat="47.24111" lon="-0.04801">
        <ele>71</ele>
        <time>2013-02-04T09:14:01.000Z</time>
      </trkpt>
      <trkpt lat="47.24108" lon="-0.04802">
        <ele>71</ele>
        <time>2013-02-04T09:14:02.000Z</time>
      </trkpt>
      <trkpt lat="47.24105" lon="-0.04804">
        <ele>71</ele>
        <time>2013-02-04T09:14:05.000Z</time>
      </trkpt>
      <trkpt lat="47.24104" lon="-0.04805">
        <ele>71</ele>
        <time>2013-02-04T09:14:06.000Z</time>
      </trkpt>
      <trkpt lat="47.241" lon="-0.04807">
        <ele>71</ele>
        <time>2013-02-04T09:14:10.000Z</time>
      </trkpt>
      <trkpt lat="47.24098" lon="-0.04807">
        <ele>71</ele>
        <time>2013-02-04T09:14:11.000Z</time>
      </trkpt>
      <trkpt lat="47.24095" lon="-0.04808">
        <ele>71</ele>
        <time>2013-02-04T09:14:13.000Z</time>
      </trkpt>
      <trkpt lat="47.24094" lon="-0.04809">
        <ele>71</ele>
        <time>2013-02-04T09:14:14.000Z</time>
      </trkpt>
      <trkpt lat="47.24091" lon="-0.04811">
        <ele>71</ele>
        <time>2013-02-04T09:14:17.000Z</time>
      </trkpt>
      <trkpt lat="47.24089" lon="-0.04811">
        <ele>71</ele>
        <time>2013-02-04T09:14:18.000Z</time>
      </trkpt>
      <trkpt lat="47.24085" lon="-0.04814">
        <ele>71</ele>
        <time>2013-02-04T09:14:22.000Z</time>
      </trkpt>
      <trkpt lat="47.24083" lon="-0.04814">
        <ele>72</ele>
        <time>2013-02-04T09:14:23.000Z</time>
      </trkpt>
      <trkpt lat="47.2408" lon="-0.04815">
        <ele>72</ele>
        <time>2013-02-04T09:14:26.000Z</time>
      </trkpt>
      <trkpt lat="47.24079" lon="-0.04816">
        <ele>72</ele>
        <time>2013-02-04T09:14:27.000Z</time>
      </trkpt>
      <trkpt lat="47.24076" lon="-0.04817">
        <ele>72</ele>
        <time>2013-02-04T09:14:29.000Z</time>
      </trkpt>
      <trkpt lat="47.24074" lon="-0.04818">
        <ele>72</ele>
        <time>2013-02-04T09:14:30.000Z</time>
      </trkpt>
      <trkpt lat="47.24071" lon="-0.0482">
        <ele>72</ele>
        <time>2013-02-04T09:14:33.000Z</time>
      </trkpt>
      <trkpt lat="47.2407" lon="-0.0482">
        <ele>72</ele>
        <time>2013-02-04T09:14:34.000Z</time>
      </trkpt>
      <trkpt lat="47.24065" lon="-0.04821">
        <ele>72</ele>
        <time>2013-02-04T09:14:38.000Z</time>
      </trkpt>
      <trkpt lat="47.24064" lon="-0.04821">
        <ele>72</ele>
        <time>2013-02-04T09:14:39.000Z</time>
      </trkpt>
      <trkpt lat="47.24062" lon="-0.04823">
        <ele>72</ele>
        <time>2013-02-04T09:14:42.000Z</time>
      </trkpt>
      <trkpt lat="47.2406" lon="-0.04825">
        <ele>72</ele>
        <time>2013-02-04T09:14:43.000Z</time>
      </trkpt>
      <trkpt lat="47.24056" lon="-0.04828">
        <ele>73</ele>
        <time>2013-02-04T09:14:47.000Z</time>
      </trkpt>
      <trkpt lat="47.24055" lon="-0.04829">
        <ele>73</ele>
        <time>2013-02-04T09:14:48.000Z</time>
      </trkpt>
      <trkpt lat="47.24051" lon="-0.0483">
        <ele>73</ele>
        <time>2013-02-04T09:14:50.000Z</time>
      </trkpt>
      <trkpt lat="47.2405" lon="-0.04831">
        <ele>73</ele>
        <time>2013-02-04T09:14:51.000Z</time>
      </trkpt>
      <trkpt lat="47.24045" lon="-0.04833">
        <ele>73</ele>
        <time>2013-02-04T09:14:55.000Z</time>
      </trkpt>
      <trkpt lat="47.24045" lon="-0.04834">
        <ele>73</ele>
        <time>2013-02-04T09:14:56.000Z</time>
      </trkpt>
      <trkpt lat="47.24041" lon="-0.04836">
        <ele>73</ele>
        <time>2013-02-04T09:15:02.000Z</time>
      </trkpt>
      <trkpt lat="47.2404" lon="-0.04836">
        <ele>73</ele>
        <time>2013-02-04T09:15:03.000Z</time>
      </trkpt>
      <trkpt lat="47.24036" lon="-0.04838">
        <ele>74</ele>
        <time>2013-02-04T09:15:06.000Z</time>
      </trkpt>
      <trkpt lat="47.24035" lon="-0.04839">
        <ele>74</ele>
        <time>2013-02-04T09:15:07.000Z</time>
      </trkpt>
      <trkpt lat="47.24032" lon="-0.0484">
        <ele>74</ele>
        <time>2013-02-04T09:15:10.000Z</time>
      </trkpt>
      <trkpt lat="47.2403" lon="-0.04841">
        <ele>74</ele>
        <time>2013-02-04T09:15:11.000Z</time>
      </trkpt>
      <trkpt lat="47.24028" lon="-0.04843">
        <ele>74</ele>
        <time>2013-02-04T09:15:13.000Z</time>
      </trkpt>
      <trkpt lat="47.24027" lon="-0.04844">
        <ele>74</ele>
        <time>2013-02-04T09:15:14.000Z</time>
      </trkpt>
      <trkpt lat="47.24024" lon="-0.04845">
        <ele>74</ele>
        <time>2013-02-04T09:15:17.000Z</time>
      </trkpt>
      <trkpt lat="47.24022" lon="-0.04846">
        <ele>74</ele>
        <time>2013-02-04T09:15:18.000Z</time>
      </trkpt>
      <trkpt lat="47.24019" lon="-0.04848">
        <ele>74</ele>
        <time>2013-02-04T09:15:21.000Z</time>
      </trkpt>
      <trkpt lat="47.24018" lon="-0.04849">
        <ele>74</ele>
        <time>2013-02-04T09:15:22.000Z</time>
      </trkpt>
      <trkpt lat="47.24014" lon="-0.04851">
        <ele>74</ele>
        <time>2013-02-04T09:15:25.000Z</time>
      </trkpt>
      <trkpt lat="47.24013" lon="-0.04852">
        <ele>74</ele>
        <time>2013-02-04T09:15:26.000Z</time>
      </trkpt>
      <trkpt lat="47.24009" lon="-0.04853">
        <ele>74</ele>
        <time>2013-02-04T09:15:30.000Z</time>
      </trkpt>
      <trkpt lat="47.24007" lon="-0.04854">
        <ele>74</ele>
        <time>2013-02-04T09:15:31.000Z</time>
      </trkpt>
      <trkpt lat="47.24004" lon="-0.04857">
        <ele>74</ele>
        <time>2013-02-04T09:15:34.000Z</time>
      </trkpt>
      <trkpt lat="47.24003" lon="-0.04858">
        <ele>74</ele>
        <time>2013-02-04T09:15:35.000Z</time>
      </trkpt>
      <trkpt lat="47.24001" lon="-0.0486">
        <ele>74</ele>
        <time>2013-02-04T09:15:37.000Z</time>
      </trkpt>
      <trkpt lat="47.24" lon="-0.04862">
        <ele>76</ele>
        <time>2013-02-04T09:15:38.000Z</time>
      </trkpt>
      <trkpt lat="47.23996" lon="-0.04865">
        <ele>76</ele>
        <time>2013-02-04T09:15:41.000Z</time>
      </trkpt>
      <trkpt lat="47.23995" lon="-0.04865">
        <ele>76</ele>
        <time>2013-02-04T09:15:42.000Z</time>
      </trkpt>
      <trkpt lat="47.23992" lon="-0.04866">
        <ele>76</ele>
        <time>2013-02-04T09:15:44.000Z</time>
      </trkpt>
      <trkpt lat="47.23991" lon="-0.04867">
        <ele>76</ele>
        <time>2013-02-04T09:15:45.000Z</time>
      </trkpt>
      <trkpt lat="47.23988" lon="-0.04871">
        <ele>76</ele>
        <time>2013-02-04T09:15:49.000Z</time>
      </trkpt>
      <trkpt lat="47.23986" lon="-0.04872">
        <ele>76</ele>
        <time>2013-02-04T09:15:50.000Z</time>
      </trkpt>
      <trkpt lat="47.23983" lon="-0.04874">
        <ele>76</ele>
        <time>2013-02-04T09:15:53.000Z</time>
      </trkpt>
      <trkpt lat="47.23982" lon="-0.04875">
        <ele>76</ele>
        <time>2013-02-04T09:15:54.000Z</time>
      </trkpt>
      <trkpt lat="47.23978" lon="-0.04876">
        <ele>76</ele>
        <time>2013-02-04T09:15:57.000Z</time>
      </trkpt>
      <trkpt lat="47.23976" lon="-0.04877">
        <ele>76</ele>
        <time>2013-02-04T09:15:58.000Z</time>
      </trkpt>
      <trkpt lat="47.23973" lon="-0.04879">
        <ele>76</ele>
        <time>2013-02-04T09:16:02.000Z</time>
      </trkpt>
      <trkpt lat="47.23971" lon="-0.04879">
        <ele>76</ele>
        <time>2013-02-04T09:16:03.000Z</time>
      </trkpt>
      <trkpt lat="47.23968" lon="-0.04881">
        <ele>76</ele>
        <time>2013-02-04T09:16:06.000Z</time>
      </trkpt>
      <trkpt lat="47.23967" lon="-0.04882">
        <ele>76</ele>
        <time>2013-02-04T09:16:07.000Z</time>
      </trkpt>
      <trkpt lat="47.23962" lon="-0.04884">
        <ele>76</ele>
        <time>2013-02-04T09:16:11.000Z</time>
      </trkpt>
      <trkpt lat="47.23961" lon="-0.04885">
        <ele>76</ele>
        <time>2013-02-04T09:16:12.000Z</time>
      </trkpt>
      <trkpt lat="47.23957" lon="-0.04884">
        <ele>76</ele>
        <time>2013-02-04T09:16:16.000Z</time>
      </trkpt>
      <trkpt lat="47.23956" lon="-0.04885">
        <ele>76</ele>
        <time>2013-02-04T09:16:17.000Z</time>
      </trkpt>
      <trkpt lat="47.23952" lon="-0.04886">
        <ele>76</ele>
        <time>2013-02-04T09:16:20.000Z</time>
      </trkpt>
      <trkpt lat="47.23951" lon="-0.04886">
        <ele>76</ele>
        <time>2013-02-04T09:16:21.000Z</time>
      </trkpt>
      <trkpt lat="47.23948" lon="-0.04886">
        <ele>76</ele>
        <time>2013-02-04T09:16:24.000Z</time>
      </trkpt>
      <trkpt lat="47.23946" lon="-0.04887">
        <ele>76</ele>
        <time>2013-02-04T09:16:25.000Z</time>
      </trkpt>
      <trkpt lat="47.23942" lon="-0.04886">
        <ele>76</ele>
        <time>2013-02-04T09:16:29.000Z</time>
      </trkpt>
      <trkpt lat="47.23942" lon="-0.04886">
        <ele>76</ele>
        <time>2013-02-04T09:16:30.000Z</time>
      </trkpt>
      <trkpt lat="47.23939" lon="-0.04887">
        <ele>76</ele>
        <time>2013-02-04T09:16:33.000Z</time>
      </trkpt>
      <trkpt lat="47.23937" lon="-0.04886">
        <ele>76</ele>
        <time>2013-02-04T09:16:34.000Z</time>
      </trkpt>
      <trkpt lat="47.23932" lon="-0.04886">
        <ele>76</ele>
        <time>2013-02-04T09:16:38.000Z</time>
      </trkpt>
      <trkpt lat="47.23931" lon="-0.04885">
        <ele>76</ele>
        <time>2013-02-04T09:16:39.000Z</time>
      </trkpt>
      <trkpt lat="47.23927" lon="-0.04883">
        <ele>76</ele>
        <time>2013-02-04T09:16:43.000Z</time>
      </trkpt>
      <trkpt lat="47.23926" lon="-0.04883">
        <ele>76</ele>
        <time>2013-02-04T09:16:44.000Z</time>
      </trkpt>
      <trkpt lat="47.23921" lon="-0.04883">
        <ele>76</ele>
        <time>2013-02-04T09:16:48.000Z</time>
      </trkpt>
      <trkpt lat="47.2392" lon="-0.04884">
        <ele>76</ele>
        <time>2013-02-04T09:16:49.000Z</time>
      </trkpt>
      <trkpt lat="47.23917" lon="-0.04884">
        <ele>76</ele>
        <time>2013-02-04T09:16:52.000Z</time>
      </trkpt>
      <trkpt lat="47.23915" lon="-0.04885">
        <ele>76</ele>
        <time>2013-02-04T09:16:53.000Z</time>
      </trkpt>
      <trkpt lat="47.23912" lon="-0.04887">
        <ele>76</ele>
        <time>2013-02-04T09:16:55.000Z</time>
      </trkpt>
      <trkpt lat="47.2391" lon="-0.04888">
        <ele>76</ele>
        <time>2013-02-04T09:16:56.000Z</time>
      </trkpt>
      <trkpt lat="47.23906" lon="-0.04889">
        <ele>76</ele>
        <time>2013-02-04T09:17:01.000Z</time>
      </trkpt>
      <trkpt lat="47.23905" lon="-0.0489">
        <ele>76</ele>
        <time>2013-02-04T09:17:02.000Z</time>
      </trkpt>
      <trkpt lat="47.23901" lon="-0.04893">
        <ele>76</ele>
        <time>2013-02-04T09:17:05.000Z</time>
      </trkpt>
      <trkpt lat="47.23899" lon="-0.04894">
        <ele>76</ele>
        <time>2013-02-04T09:17:06.000Z</time>
      </trkpt>
      <trkpt lat="47.23896" lon="-0.04895">
        <ele>76</ele>
        <time>2013-02-04T09:17:09.000Z</time>
      </trkpt>
      <trkpt lat="47.23895" lon="-0.04896">
        <ele>76</ele>
        <time>2013-02-04T09:17:10.000Z</time>
      </trkpt>
      <trkpt lat="47.23891" lon="-0.04896">
        <ele>77</ele>
        <time>2013-02-04T09:17:12.000Z</time>
      </trkpt>
      <trkpt lat="47.2389" lon="-0.04897">
        <ele>77</ele>
        <time>2013-02-04T09:17:13.000Z</time>
      </trkpt>
      <trkpt lat="47.23887" lon="-0.04899">
        <ele>77</ele>
        <time>2013-02-04T09:17:16.000Z</time>
      </trkpt>
      <trkpt lat="47.23886" lon="-0.049">
        <ele>77</ele>
        <time>2013-02-04T09:17:17.000Z</time>
      </trkpt>
      <trkpt lat="47.23882" lon="-0.04902">
        <ele>77</ele>
        <time>2013-02-04T09:17:21.000Z</time>
      </trkpt>
      <trkpt lat="47.2388" lon="-0.04903">
        <ele>77</ele>
        <time>2013-02-04T09:17:22.000Z</time>
      </trkpt>
      <trkpt lat="47.23877" lon="-0.04904">
        <ele>77</ele>
        <time>2013-02-04T09:17:26.000Z</time>
      </trkpt>
      <trkpt lat="47.23876" lon="-0.04905">
        <ele>77</ele>
        <time>2013-02-04T09:17:27.000Z</time>
      </trkpt>
      <trkpt lat="47.23872" lon="-0.04904">
        <ele>77</ele>
        <time>2013-02-04T09:17:31.000Z</time>
      </trkpt>
      <trkpt lat="47.2387" lon="-0.04905">
        <ele>77</ele>
        <time>2013-02-04T09:17:32.000Z</time>
      </trkpt>
      <trkpt lat="47.23866" lon="-0.04907">
        <ele>77</ele>
        <time>2013-02-04T09:17:35.000Z</time>
      </trkpt>
      <trkpt lat="47.23864" lon="-0.04908">
        <ele>77</ele>
        <time>2013-02-04T09:17:36.000Z</time>
      </trkpt>
      <trkpt lat="47.23861" lon="-0.0491">
        <ele>77</ele>
        <time>2013-02-04T09:17:39.000Z</time>
      </trkpt>
      <trkpt lat="47.2386" lon="-0.04911">
        <ele>77</ele>
        <time>2013-02-04T09:17:40.000Z</time>
      </trkpt>
      <trkpt lat="47.23856" lon="-0.04912">
        <ele>77</ele>
        <time>2013-02-04T09:17:54.000Z</time>
      </trkpt>
      <trkpt lat="47.23855" lon="-0.04913">
        <ele>77</ele>
        <time>2013-02-04T09:17:55.000Z</time>
      </trkpt>
      <trkpt lat="47.23851" lon="-0.04915">
        <ele>77</ele>
        <time>2013-02-04T09:18:00.000Z</time>
      </trkpt>
      <trkpt lat="47.23851" lon="-0.04916">
        <ele>77</ele>
        <time>2013-02-04T09:18:01.000Z</time>
      </trkpt>
      <trkpt lat="47.23847" lon="-0.04919">
        <ele>77</ele>
        <time>2013-02-04T09:18:04.000Z</time>
      </trkpt>
      <trkpt lat="47.23846" lon="-0.04921">
        <ele>77</ele>
        <time>2013-02-04T09:18:05.000Z</time>
      </trkpt>
      <trkpt lat="47.23843" lon="-0.04922">
        <ele>77</ele>
        <time>2013-02-04T09:18:08.000Z</time>
      </trkpt>
      <trkpt lat="47.23842" lon="-0.04923">
        <ele>77</ele>
        <time>2013-02-04T09:18:09.000Z</time>
      </trkpt>
      <trkpt lat="47.23839" lon="-0.04925">
        <ele>77</ele>
        <time>2013-02-04T09:18:11.000Z</time>
      </trkpt>
      <trkpt lat="47.23837" lon="-0.04926">
        <ele>77</ele>
        <time>2013-02-04T09:18:12.000Z</time>
      </trkpt>
      <trkpt lat="47.23833" lon="-0.04928">
        <ele>77</ele>
        <time>2013-02-04T09:18:14.000Z</time>
      </trkpt>
      <trkpt lat="47.23831" lon="-0.04929">
        <ele>77</ele>
        <time>2013-02-04T09:18:15.000Z</time>
      </trkpt>
      <trkpt lat="47.23827" lon="-0.04931">
        <ele>77</ele>
        <time>2013-02-04T09:18:18.000Z</time>
      </trkpt>
      <trkpt lat="47.23826" lon="-0.04931">
        <ele>77</ele>
        <time>2013-02-04T09:18:19.000Z</time>
      </trkpt>
      <trkpt lat="47.23822" lon="-0.04934">
        <ele>77</ele>
        <time>2013-02-04T09:18:22.000Z</time>
      </trkpt>
      <trkpt lat="47.23821" lon="-0.04935">
        <ele>77</ele>
        <time>2013-02-04T09:18:23.000Z</time>
      </trkpt>
      <trkpt lat="47.23818" lon="-0.04939">
        <ele>77</ele>
        <time>2013-02-04T09:18:26.000Z</time>
      </trkpt>
      <trkpt lat="47.23817" lon="-0.0494">
        <ele>77</ele>
        <time>2013-02-04T09:18:27.000Z</time>
      </trkpt>
      <trkpt lat="47.23814" lon="-0.04942">
        <ele>77</ele>
        <time>2013-02-04T09:18:31.000Z</time>
      </trkpt>
      <trkpt lat="47.23812" lon="-0.04942">
        <ele>77</ele>
        <time>2013-02-04T09:18:32.000Z</time>
      </trkpt>
      <trkpt lat="47.23809" lon="-0.04943">
        <ele>77</ele>
        <time>2013-02-04T09:18:36.000Z</time>
      </trkpt>
      <trkpt lat="47.23807" lon="-0.04944">
        <ele>77</ele>
        <time>2013-02-04T09:18:37.000Z</time>
      </trkpt>
      <trkpt lat="47.23803" lon="-0.04946">
        <ele>76</ele>
        <time>2013-02-04T09:18:41.000Z</time>
      </trkpt>
      <trkpt lat="47.23802" lon="-0.04947">
        <ele>76</ele>
        <time>2013-02-04T09:18:42.000Z</time>
      </trkpt>
      <trkpt lat="47.23799" lon="-0.0495">
        <ele>76</ele>
        <time>2013-02-04T09:18:44.000Z</time>
      </trkpt>
      <trkpt lat="47.23798" lon="-0.04951">
        <ele>76</ele>
        <time>2013-02-04T09:18:45.000Z</time>
      </trkpt>
      <trkpt lat="47.23795" lon="-0.04955">
        <ele>76</ele>
        <time>2013-02-04T09:18:48.000Z</time>
      </trkpt>
      <trkpt lat="47.23794" lon="-0.04956">
        <ele>76</ele>
        <time>2013-02-04T09:18:49.000Z</time>
      </trkpt>
      <trkpt lat="47.2379" lon="-0.04958">
        <ele>76</ele>
        <time>2013-02-04T09:18:51.000Z</time>
      </trkpt>
      <trkpt lat="47.23789" lon="-0.04959">
        <ele>76</ele>
        <time>2013-02-04T09:18:52.000Z</time>
      </trkpt>
      <trkpt lat="47.23786" lon="-0.04963">
        <ele>76</ele>
        <time>2013-02-04T09:18:56.000Z</time>
      </trkpt>
      <trkpt lat="47.23785" lon="-0.04964">
        <ele>76</ele>
        <time>2013-02-04T09:18:57.000Z</time>
      </trkpt>
      <trkpt lat="47.23782" lon="-0.04969">
        <ele>76</ele>
        <time>2013-02-04T09:19:00.000Z</time>
      </trkpt>
      <trkpt lat="47.23781" lon="-0.04971">
        <ele>76</ele>
        <time>2013-02-04T09:19:01.000Z</time>
      </trkpt>
      <trkpt lat="47.23779" lon="-0.04975">
        <ele>76</ele>
        <time>2013-02-04T09:19:03.000Z</time>
      </trkpt>
      <trkpt lat="47.23778" lon="-0.04976">
        <ele>76</ele>
        <time>2013-02-04T09:19:04.000Z</time>
      </trkpt>
      <trkpt lat="47.23775" lon="-0.04981">
        <ele>76</ele>
        <time>2013-02-04T09:19:08.000Z</time>
      </trkpt>
      <trkpt lat="47.23774" lon="-0.04983">
        <ele>76</ele>
        <time>2013-02-04T09:19:09.000Z</time>
      </trkpt>
      <trkpt lat="47.23772" lon="-0.04988">
        <ele>76</ele>
        <time>2013-02-04T09:19:12.000Z</time>
      </trkpt>
      <trkpt lat="47.23771" lon="-0.04989">
        <ele>76</ele>
        <time>2013-02-04T09:19:13.000Z</time>
      </trkpt>
      <trkpt lat="47.2377" lon="-0.04993">
        <ele>76</ele>
        <time>2013-02-04T09:19:15.000Z</time>
      </trkpt>
      <trkpt lat="47.23769" lon="-0.04995">
        <ele>76</ele>
        <time>2013-02-04T09:19:16.000Z</time>
      </trkpt>
      <trkpt lat="47.23768" lon="-0.05">
        <ele>76</ele>
        <time>2013-02-04T09:19:18.000Z</time>
      </trkpt>
      <trkpt lat="47.23767" lon="-0.05002">
        <ele>75</ele>
        <time>2013-02-04T09:19:19.000Z</time>
      </trkpt>
      <trkpt lat="47.23765" lon="-0.05006">
        <ele>75</ele>
        <time>2013-02-04T09:19:21.000Z</time>
      </trkpt>
      <trkpt lat="47.23764" lon="-0.05008">
        <ele>75</ele>
        <time>2013-02-04T09:19:22.000Z</time>
      </trkpt>
      <trkpt lat="47.23763" lon="-0.05014">
        <ele>75</ele>
        <time>2013-02-04T09:19:25.000Z</time>
      </trkpt>
      <trkpt lat="47.23762" lon="-0.05015">
        <ele>75</ele>
        <time>2013-02-04T09:19:26.000Z</time>
      </trkpt>
      <trkpt lat="47.23759" lon="-0.05019">
        <ele>75</ele>
        <time>2013-02-04T09:19:29.000Z</time>
      </trkpt>
      <trkpt lat="47.23758" lon="-0.05021">
        <ele>75</ele>
        <time>2013-02-04T09:19:30.000Z</time>
      </trkpt>
      <trkpt lat="47.23755" lon="-0.05024">
        <ele>75</ele>
        <time>2013-02-04T09:19:34.000Z</time>
      </trkpt>
      <trkpt lat="47.23754" lon="-0.05025">
        <ele>75</ele>
        <time>2013-02-04T09:19:35.000Z</time>
      </trkpt>
      <trkpt lat="47.23751" lon="-0.05029">
        <ele>75</ele>
        <time>2013-02-04T09:19:38.000Z</time>
      </trkpt>
      <trkpt lat="47.2375" lon="-0.05031">
        <ele>75</ele>
        <time>2013-02-04T09:19:39.000Z</time>
      </trkpt>
      <trkpt lat="47.23748" lon="-0.05036">
        <ele>75</ele>
        <time>2013-02-04T09:19:42.000Z</time>
      </trkpt>
      <trkpt lat="47.23747" lon="-0.05037">
        <ele>75</ele>
        <time>2013-02-04T09:19:43.000Z</time>
      </trkpt>
      <trkpt lat="47.23744" lon="-0.0504">
        <ele>75</ele>
        <time>2013-02-04T09:19:45.000Z</time>
      </trkpt>
      <trkpt lat="47.23743" lon="-0.05042">
        <ele>75</ele>
        <time>2013-02-04T09:19:46.000Z</time>
      </trkpt>
      <trkpt lat="47.2374" lon="-0.05046">
        <ele>75</ele>
        <time>2013-02-04T09:19:48.000Z</time>
      </trkpt>
      <trkpt lat="47.23739" lon="-0.05047">
        <ele>75</ele>
        <time>2013-02-04T09:19:49.000Z</time>
      </trkpt>
      <trkpt lat="47.23736" lon="-0.05051">
        <ele>75</ele>
        <time>2013-02-04T09:19:52.000Z</time>
      </trkpt>
      <trkpt lat="47.23736" lon="-0.05052">
        <ele>75</ele>
        <time>2013-02-04T09:19:53.000Z</time>
      </trkpt>
      <trkpt lat="47.23733" lon="-0.05055">
        <ele>75</ele>
        <time>2013-02-04T09:20:00.000Z</time>
      </trkpt>
      <trkpt lat="47.23732" lon="-0.05056">
        <ele>75</ele>
        <time>2013-02-04T09:20:01.000Z</time>
      </trkpt>
      <trkpt lat="47.23729" lon="-0.05059">
        <ele>75</ele>
        <time>2013-02-04T09:20:04.000Z</time>
      </trkpt>
      <trkpt lat="47.23728" lon="-0.0506">
        <ele>75</ele>
        <time>2013-02-04T09:20:05.000Z</time>
      </trkpt>
      <trkpt lat="47.23725" lon="-0.05063">
        <ele>75</ele>
        <time>2013-02-04T09:20:07.000Z</time>
      </trkpt>
      <trkpt lat="47.23723" lon="-0.05066">
        <ele>75</ele>
        <time>2013-02-04T09:20:08.000Z</time>
      </trkpt>
      <trkpt lat="47.2372" lon="-0.05068">
        <ele>75</ele>
        <time>2013-02-04T09:20:10.000Z</time>
      </trkpt>
      <trkpt lat="47.23719" lon="-0.05069">
        <ele>74</ele>
        <time>2013-02-04T09:20:11.000Z</time>
      </trkpt>
      <trkpt lat="47.23716" lon="-0.05071">
        <ele>74</ele>
        <time>2013-02-04T09:20:14.000Z</time>
      </trkpt>
      <trkpt lat="47.23714" lon="-0.05072">
        <ele>74</ele>
        <time>2013-02-04T09:20:15.000Z</time>
      </trkpt>
      <trkpt lat="47.2371" lon="-0.05074">
        <ele>74</ele>
        <time>2013-02-04T09:20:18.000Z</time>
      </trkpt>
      <trkpt lat="47.23709" lon="-0.05074">
        <ele>74</ele>
        <time>2013-02-04T09:20:19.000Z</time>
      </trkpt>
      <trkpt lat="47.23706" lon="-0.05077">
        <ele>74</ele>
        <time>2013-02-04T09:20:22.000Z</time>
      </trkpt>
      <trkpt lat="47.23704" lon="-0.05078">
        <ele>74</ele>
        <time>2013-02-04T09:20:23.000Z</time>
      </trkpt>
      <trkpt lat="47.23701" lon="-0.0508">
        <ele>74</ele>
        <time>2013-02-04T09:20:26.000Z</time>
      </trkpt>
      <trkpt lat="47.237" lon="-0.0508">
        <ele>74</ele>
        <time>2013-02-04T09:20:27.000Z</time>
      </trkpt>
      <trkpt lat="47.23696" lon="-0.05082">
        <ele>74</ele>
        <time>2013-02-04T09:20:30.000Z</time>
      </trkpt>
      <trkpt lat="47.23695" lon="-0.05082">
        <ele>74</ele>
        <time>2013-02-04T09:20:31.000Z</time>
      </trkpt>
      <trkpt lat="47.23691" lon="-0.05084">
        <ele>73</ele>
        <time>2013-02-04T09:20:33.000Z</time>
      </trkpt>
      <trkpt lat="47.23689" lon="-0.05084">
        <ele>73</ele>
        <time>2013-02-04T09:20:34.000Z</time>
      </trkpt>
      <trkpt lat="47.23686" lon="-0.05085">
        <ele>73</ele>
        <time>2013-02-04T09:20:37.000Z</time>
      </trkpt>
      <trkpt lat="47.23684" lon="-0.05085">
        <ele>73</ele>
        <time>2013-02-04T09:20:38.000Z</time>
      </trkpt>
      <trkpt lat="47.2368" lon="-0.05086">
        <ele>73</ele>
        <time>2013-02-04T09:20:41.000Z</time>
      </trkpt>
      <trkpt lat="47.23679" lon="-0.05087">
        <ele>73</ele>
        <time>2013-02-04T09:20:42.000Z</time>
      </trkpt>
      <trkpt lat="47.23675" lon="-0.05089">
        <ele>73</ele>
        <time>2013-02-04T09:20:44.000Z</time>
      </trkpt>
      <trkpt lat="47.23674" lon="-0.05089">
        <ele>73</ele>
        <time>2013-02-04T09:20:45.000Z</time>
      </trkpt>
      <trkpt lat="47.23669" lon="-0.0509">
        <ele>73</ele>
        <time>2013-02-04T09:20:50.000Z</time>
      </trkpt>
      <trkpt lat="47.23668" lon="-0.0509">
        <ele>73</ele>
        <time>2013-02-04T09:20:51.000Z</time>
      </trkpt>
      <trkpt lat="47.23664" lon="-0.05091">
        <ele>73</ele>
        <time>2013-02-04T09:20:54.000Z</time>
      </trkpt>
      <trkpt lat="47.23663" lon="-0.05092">
        <ele>73</ele>
        <time>2013-02-04T09:20:55.000Z</time>
      </trkpt>
      <trkpt lat="47.23658" lon="-0.05093">
        <ele>73</ele>
        <time>2013-02-04T09:20:59.000Z</time>
      </trkpt>
      <trkpt lat="47.23657" lon="-0.05094">
        <ele>73</ele>
        <time>2013-02-04T09:21:00.000Z</time>
      </trkpt>
      <trkpt lat="47.23655" lon="-0.05095">
        <ele>73</ele>
        <time>2013-02-04T09:21:01.000Z</time>
      </trkpt>
      <trkpt lat="47.23652" lon="-0.05097">
        <ele>73</ele>
        <time>2013-02-04T09:21:02.000Z</time>
      </trkpt>
      <trkpt lat="47.23648" lon="-0.05097">
        <ele>73</ele>
        <time>2013-02-04T09:21:04.000Z</time>
      </trkpt>
      <trkpt lat="47.23647" lon="-0.05098">
        <ele>73</ele>
        <time>2013-02-04T09:21:05.000Z</time>
      </trkpt>
      <trkpt lat="47.23644" lon="-0.05099">
        <ele>72</ele>
        <time>2013-02-04T09:21:07.000Z</time>
      </trkpt>
      <trkpt lat="47.23642" lon="-0.05099">
        <ele>72</ele>
        <time>2013-02-04T09:21:08.000Z</time>
      </trkpt>
      <trkpt lat="47.23638" lon="-0.05101">
        <ele>72</ele>
        <time>2013-02-04T09:21:11.000Z</time>
      </trkpt>
      <trkpt lat="47.23637" lon="-0.05101">
        <ele>72</ele>
        <time>2013-02-04T09:21:12.000Z</time>
      </trkpt>
      <trkpt lat="47.23634" lon="-0.05102">
        <ele>72</ele>
        <time>2013-02-04T09:21:14.000Z</time>
      </trkpt>
      <trkpt lat="47.23632" lon="-0.05103">
        <ele>72</ele>
        <time>2013-02-04T09:21:15.000Z</time>
      </trkpt>
      <trkpt lat="47.23629" lon="-0.05105">
        <ele>72</ele>
        <time>2013-02-04T09:21:17.000Z</time>
      </trkpt>
      <trkpt lat="47.23628" lon="-0.05105">
        <ele>72</ele>
        <time>2013-02-04T09:21:18.000Z</time>
      </trkpt>
      <trkpt lat="47.23624" lon="-0.05107">
        <ele>72</ele>
        <time>2013-02-04T09:21:22.000Z</time>
      </trkpt>
      <trkpt lat="47.23623" lon="-0.05108">
        <ele>72</ele>
        <time>2013-02-04T09:21:23.000Z</time>
      </trkpt>
      <trkpt lat="47.2362" lon="-0.05109">
        <ele>72</ele>
        <time>2013-02-04T09:21:25.000Z</time>
      </trkpt>
      <trkpt lat="47.23618" lon="-0.0511">
        <ele>72</ele>
        <time>2013-02-04T09:21:26.000Z</time>
      </trkpt>
      <trkpt lat="47.23614" lon="-0.05111">
        <ele>72</ele>
        <time>2013-02-04T09:21:31.000Z</time>
      </trkpt>
      <trkpt lat="47.23612" lon="-0.05112">
        <ele>72</ele>
        <time>2013-02-04T09:21:32.000Z</time>
      </trkpt>
      <trkpt lat="47.23609" lon="-0.05114">
        <ele>72</ele>
        <time>2013-02-04T09:21:34.000Z</time>
      </trkpt>
      <trkpt lat="47.23607" lon="-0.05115">
        <ele>72</ele>
        <time>2013-02-04T09:21:35.000Z</time>
      </trkpt>
      <trkpt lat="47.23603" lon="-0.05116">
        <ele>72</ele>
        <time>2013-02-04T09:21:38.000Z</time>
      </trkpt>
      <trkpt lat="47.23603" lon="-0.05117">
        <ele>72</ele>
        <time>2013-02-04T09:21:39.000Z</time>
      </trkpt>
      <trkpt lat="47.23599" lon="-0.05119">
        <ele>72</ele>
        <time>2013-02-04T09:21:42.000Z</time>
      </trkpt>
      <trkpt lat="47.23598" lon="-0.0512">
        <ele>72</ele>
        <time>2013-02-04T09:21:43.000Z</time>
      </trkpt>
      <trkpt lat="47.23594" lon="-0.05121">
        <ele>72</ele>
        <time>2013-02-04T09:21:46.000Z</time>
      </trkpt>
      <trkpt lat="47.23593" lon="-0.05122">
        <ele>72</ele>
        <time>2013-02-04T09:21:47.000Z</time>
      </trkpt>
      <trkpt lat="47.23589" lon="-0.05124">
        <ele>72</ele>
        <time>2013-02-04T09:21:50.000Z</time>
      </trkpt>
      <trkpt lat="47.23587" lon="-0.05125">
        <ele>72</ele>
        <time>2013-02-04T09:21:51.000Z</time>
      </trkpt>
      <trkpt lat="47.23584" lon="-0.05127">
        <ele>72</ele>
        <time>2013-02-04T09:21:55.000Z</time>
      </trkpt>
      <trkpt lat="47.23583" lon="-0.05127">
        <ele>72</ele>
        <time>2013-02-04T09:21:56.000Z</time>
      </trkpt>
      <trkpt lat="47.2358" lon="-0.05131">
        <ele>72</ele>
        <time>2013-02-04T09:21:59.000Z</time>
      </trkpt>
      <trkpt lat="47.23579" lon="-0.05132">
        <ele>72</ele>
        <time>2013-02-04T09:22:00.000Z</time>
      </trkpt>
      <trkpt lat="47.23576" lon="-0.05134">
        <ele>72</ele>
        <time>2013-02-04T09:22:04.000Z</time>
      </trkpt>
      <trkpt lat="47.23575" lon="-0.05135">
        <ele>72</ele>
        <time>2013-02-04T09:22:05.000Z</time>
      </trkpt>
      <trkpt lat="47.23571" lon="-0.05138">
        <ele>72</ele>
        <time>2013-02-04T09:22:07.000Z</time>
      </trkpt>
      <trkpt lat="47.2357" lon="-0.0514">
        <ele>72</ele>
        <time>2013-02-04T09:22:08.000Z</time>
      </trkpt>
      <trkpt lat="47.23567" lon="-0.05142">
        <ele>72</ele>
        <time>2013-02-04T09:22:10.000Z</time>
      </trkpt>
      <trkpt lat="47.23565" lon="-0.05143">
        <ele>72</ele>
        <time>2013-02-04T09:22:11.000Z</time>
      </trkpt>
      <trkpt lat="47.23561" lon="-0.05146">
        <ele>72</ele>
        <time>2013-02-04T09:22:14.000Z</time>
      </trkpt>
      <trkpt lat="47.23561" lon="-0.05146">
        <ele>72</ele>
        <time>2013-02-04T09:22:15.000Z</time>
      </trkpt>
      <trkpt lat="47.23556" lon="-0.05148">
        <ele>72</ele>
        <time>2013-02-04T09:22:19.000Z</time>
      </trkpt>
      <trkpt lat="47.23556" lon="-0.05149">
        <ele>72</ele>
        <time>2013-02-04T09:22:20.000Z</time>
      </trkpt>
      <trkpt lat="47.23552" lon="-0.05151">
        <ele>72</ele>
        <time>2013-02-04T09:22:26.000Z</time>
      </trkpt>
      <trkpt lat="47.23551" lon="-0.05152">
        <ele>72</ele>
        <time>2013-02-04T09:22:27.000Z</time>
      </trkpt>
      <trkpt lat="47.23546" lon="-0.05155">
        <ele>72</ele>
        <time>2013-02-04T09:22:30.000Z</time>
      </trkpt>
      <trkpt lat="47.23544" lon="-0.05156">
        <ele>72</ele>
        <time>2013-02-04T09:22:31.000Z</time>
      </trkpt>
      <trkpt lat="47.23541" lon="-0.05158">
        <ele>72</ele>
        <time>2013-02-04T09:22:34.000Z</time>
      </trkpt>
      <trkpt lat="47.2354" lon="-0.05158">
        <ele>72</ele>
        <time>2013-02-04T09:22:35.000Z</time>
      </trkpt>
      <trkpt lat="47.23537" lon="-0.0516">
        <ele>72</ele>
        <time>2013-02-04T09:22:37.000Z</time>
      </trkpt>
      <trkpt lat="47.23535" lon="-0.05161">
        <ele>72</ele>
        <time>2013-02-04T09:22:38.000Z</time>
      </trkpt>
      <trkpt lat="47.23531" lon="-0.05163">
        <ele>72</ele>
        <time>2013-02-04T09:22:42.000Z</time>
      </trkpt>
      <trkpt lat="47.2353" lon="-0.05163">
        <ele>72</ele>
        <time>2013-02-04T09:22:43.000Z</time>
      </trkpt>
      <trkpt lat="47.23525" lon="-0.05164">
        <ele>71</ele>
        <time>2013-02-04T09:22:46.000Z</time>
      </trkpt>
      <trkpt lat="47.23524" lon="-0.05165">
        <ele>71</ele>
        <time>2013-02-04T09:22:47.000Z</time>
      </trkpt>
      <trkpt lat="47.2352" lon="-0.05166">
        <ele>71</ele>
        <time>2013-02-04T09:22:50.000Z</time>
      </trkpt>
      <trkpt lat="47.23519" lon="-0.05166">
        <ele>71</ele>
        <time>2013-02-04T09:22:51.000Z</time>
      </trkpt>
      <trkpt lat="47.23514" lon="-0.05167">
        <ele>71</ele>
        <time>2013-02-04T09:22:55.000Z</time>
      </trkpt>
      <trkpt lat="47.23514" lon="-0.05167">
        <ele>71</ele>
        <time>2013-02-04T09:22:56.000Z</time>
      </trkpt>
      <trkpt lat="47.23509" lon="-0.05168">
        <ele>71</ele>
        <time>2013-02-04T09:23:00.000Z</time>
      </trkpt>
      <trkpt lat="47.23507" lon="-0.05169">
        <ele>71</ele>
        <time>2013-02-04T09:23:01.000Z</time>
      </trkpt>
      <trkpt lat="47.23503" lon="-0.05171">
        <ele>71</ele>
        <time>2013-02-04T09:23:04.000Z</time>
      </trkpt>
      <trkpt lat="47.23502" lon="-0.05171">
        <ele>71</ele>
        <time>2013-02-04T09:23:05.000Z</time>
      </trkpt>
      <trkpt lat="47.23498" lon="-0.05172">
        <ele>71</ele>
        <time>2013-02-04T09:23:08.000Z</time>
      </trkpt>
      <trkpt lat="47.23496" lon="-0.05173">
        <ele>71</ele>
        <time>2013-02-04T09:23:09.000Z</time>
      </trkpt>
      <trkpt lat="47.23492" lon="-0.05174">
        <ele>71</ele>
        <time>2013-02-04T09:23:13.000Z</time>
      </trkpt>
      <trkpt lat="47.23491" lon="-0.05174">
        <ele>71</ele>
        <time>2013-02-04T09:23:14.000Z</time>
      </trkpt>
      <trkpt lat="47.23487" lon="-0.05175">
        <ele>71</ele>
        <time>2013-02-04T09:23:17.000Z</time>
      </trkpt>
      <trkpt lat="47.23486" lon="-0.05175">
        <ele>71</ele>
        <time>2013-02-04T09:23:18.000Z</time>
      </trkpt>
      <trkpt lat="47.23482" lon="-0.05174">
        <ele>70</ele>
        <time>2013-02-04T09:23:21.000Z</time>
      </trkpt>
      <trkpt lat="47.23481" lon="-0.05174">
        <ele>70</ele>
        <time>2013-02-04T09:23:22.000Z</time>
      </trkpt>
      <trkpt lat="47.23477" lon="-0.05175">
        <ele>70</ele>
        <time>2013-02-04T09:23:25.000Z</time>
      </trkpt>
      <trkpt lat="47.23475" lon="-0.05175">
        <ele>70</ele>
        <time>2013-02-04T09:23:26.000Z</time>
      </trkpt>
      <trkpt lat="47.23471" lon="-0.05176">
        <ele>70</ele>
        <time>2013-02-04T09:23:29.000Z</time>
      </trkpt>
      <trkpt lat="47.23469" lon="-0.05176">
        <ele>70</ele>
        <time>2013-02-04T09:23:30.000Z</time>
      </trkpt>
      <trkpt lat="47.23465" lon="-0.05178">
        <ele>70</ele>
        <time>2013-02-04T09:23:33.000Z</time>
      </trkpt>
      <trkpt lat="47.23464" lon="-0.05178">
        <ele>70</ele>
        <time>2013-02-04T09:23:34.000Z</time>
      </trkpt>
      <trkpt lat="47.23461" lon="-0.05179">
        <ele>70</ele>
        <time>2013-02-04T09:23:37.000Z</time>
      </trkpt>
      <trkpt lat="47.23459" lon="-0.05179">
        <ele>70</ele>
        <time>2013-02-04T09:23:38.000Z</time>
      </trkpt>
      <trkpt lat="47.23455" lon="-0.05178">
        <ele>70</ele>
        <time>2013-02-04T09:23:42.000Z</time>
      </trkpt>
      <trkpt lat="47.23454" lon="-0.05178">
        <ele>70</ele>
        <time>2013-02-04T09:23:43.000Z</time>
      </trkpt>
      <trkpt lat="47.2345" lon="-0.05179">
        <ele>70</ele>
        <time>2013-02-04T09:23:47.000Z</time>
      </trkpt>
      <trkpt lat="47.23449" lon="-0.05179">
        <ele>70</ele>
        <time>2013-02-04T09:23:48.000Z</time>
      </trkpt>
      <trkpt lat="47.23445" lon="-0.0518">
        <ele>70</ele>
        <time>2013-02-04T09:23:51.000Z</time>
      </trkpt>
      <trkpt lat="47.23444" lon="-0.05181">
        <ele>70</ele>
        <time>2013-02-04T09:23:52.000Z</time>
      </trkpt>
      <trkpt lat="47.23441" lon="-0.05182">
        <ele>70</ele>
        <time>2013-02-04T09:23:54.000Z</time>
      </trkpt>
      <trkpt lat="47.23439" lon="-0.05183">
        <ele>70</ele>
        <time>2013-02-04T09:23:55.000Z</time>
      </trkpt>
      <trkpt lat="47.23435" lon="-0.05184">
        <ele>70</ele>
        <time>2013-02-04T09:23:57.000Z</time>
      </trkpt>
      <trkpt lat="47.23433" lon="-0.05185">
        <ele>70</ele>
        <time>2013-02-04T09:23:58.000Z</time>
      </trkpt>
      <trkpt lat="47.2343" lon="-0.05186">
        <ele>70</ele>
        <time>2013-02-04T09:24:01.000Z</time>
      </trkpt>
      <trkpt lat="47.23428" lon="-0.05186">
        <ele>70</ele>
        <time>2013-02-04T09:24:02.000Z</time>
      </trkpt>
      <trkpt lat="47.23424" lon="-0.05186">
        <ele>70</ele>
        <time>2013-02-04T09:24:06.000Z</time>
      </trkpt>
      <trkpt lat="47.23423" lon="-0.05187">
        <ele>70</ele>
        <time>2013-02-04T09:24:07.000Z</time>
      </trkpt>
      <trkpt lat="47.23421" lon="-0.05187">
        <ele>70</ele>
        <time>2013-02-04T09:24:09.000Z</time>
      </trkpt>
      <trkpt lat="47.23419" lon="-0.05188">
        <ele>70</ele>
        <time>2013-02-04T09:24:10.000Z</time>
      </trkpt>
      <trkpt lat="47.23416" lon="-0.05189">
        <ele>69</ele>
        <time>2013-02-04T09:24:12.000Z</time>
      </trkpt>
      <trkpt lat="47.23414" lon="-0.05191">
        <ele>69</ele>
        <time>2013-02-04T09:24:13.000Z</time>
      </trkpt>
      <trkpt lat="47.23412" lon="-0.05193">
        <ele>69</ele>
        <time>2013-02-04T09:24:15.000Z</time>
      </trkpt>
      <trkpt lat="47.2341" lon="-0.05193">
        <ele>69</ele>
        <time>2013-02-04T09:24:16.000Z</time>
      </trkpt>
      <trkpt lat="47.23406" lon="-0.05195">
        <ele>69</ele>
        <time>2013-02-04T09:24:19.000Z</time>
      </trkpt>
      <trkpt lat="47.23405" lon="-0.05195">
        <ele>69</ele>
        <time>2013-02-04T09:24:20.000Z</time>
      </trkpt>
      <trkpt lat="47.23401" lon="-0.05196">
        <ele>69</ele>
        <time>2013-02-04T09:24:24.000Z</time>
      </trkpt>
      <trkpt lat="47.23399" lon="-0.05196">
        <ele>69</ele>
        <time>2013-02-04T09:24:25.000Z</time>
      </trkpt>
      <trkpt lat="47.23396" lon="-0.05196">
        <ele>69</ele>
        <time>2013-02-04T09:24:28.000Z</time>
      </trkpt>
      <trkpt lat="47.23394" lon="-0.05196">
        <ele>69</ele>
        <time>2013-02-04T09:24:29.000Z</time>
      </trkpt>
      <trkpt lat="47.2339" lon="-0.05198">
        <ele>69</ele>
        <time>2013-02-04T09:24:33.000Z</time>
      </trkpt>
      <trkpt lat="47.23388" lon="-0.05199">
        <ele>69</ele>
        <time>2013-02-04T09:24:34.000Z</time>
      </trkpt>
      <trkpt lat="47.23384" lon="-0.052">
        <ele>69</ele>
        <time>2013-02-04T09:24:39.000Z</time>
      </trkpt>
      <trkpt lat="47.23383" lon="-0.052">
        <ele>69</ele>
        <time>2013-02-04T09:24:40.000Z</time>
      </trkpt>
      <trkpt lat="47.23379" lon="-0.05201">
        <ele>69</ele>
        <time>2013-02-04T09:24:43.000Z</time>
      </trkpt>
      <trkpt lat="47.23377" lon="-0.05203">
        <ele>69</ele>
        <time>2013-02-04T09:24:44.000Z</time>
      </trkpt>
      <trkpt lat="47.23374" lon="-0.05204">
        <ele>69</ele>
        <time>2013-02-04T09:24:46.000Z</time>
      </trkpt>
      <trkpt lat="47.23373" lon="-0.05205">
        <ele>69</ele>
        <time>2013-02-04T09:24:47.000Z</time>
      </trkpt>
      <trkpt lat="47.23369" lon="-0.05208">
        <ele>69</ele>
        <time>2013-02-04T09:24:52.000Z</time>
      </trkpt>
      <trkpt lat="47.23368" lon="-0.05209">
        <ele>69</ele>
        <time>2013-02-04T09:24:53.000Z</time>
      </trkpt>
      <trkpt lat="47.23364" lon="-0.05211">
        <ele>69</ele>
        <time>2013-02-04T09:24:56.000Z</time>
      </trkpt>
      <trkpt lat="47.23362" lon="-0.05211">
        <ele>69</ele>
        <time>2013-02-04T09:24:57.000Z</time>
      </trkpt>
      <trkpt lat="47.23358" lon="-0.05213">
        <ele>69</ele>
        <time>2013-02-04T09:25:01.000Z</time>
      </trkpt>
      <trkpt lat="47.23358" lon="-0.05213">
        <ele>69</ele>
        <time>2013-02-04T09:25:02.000Z</time>
      </trkpt>
      <trkpt lat="47.23354" lon="-0.05216">
        <ele>69</ele>
        <time>2013-02-04T09:25:05.000Z</time>
      </trkpt>
      <trkpt lat="47.23353" lon="-0.05217">
        <ele>69</ele>
        <time>2013-02-04T09:25:06.000Z</time>
      </trkpt>
      <trkpt lat="47.23349" lon="-0.0522">
        <ele>69</ele>
        <time>2013-02-04T09:25:16.000Z</time>
      </trkpt>
      <trkpt lat="47.23349" lon="-0.05221">
        <ele>69</ele>
        <time>2013-02-04T09:25:17.000Z</time>
      </trkpt>
      <trkpt lat="47.23346" lon="-0.05225">
        <ele>69</ele>
        <time>2013-02-04T09:26:06.000Z</time>
      </trkpt>
      <trkpt lat="47.23345" lon="-0.05226">
        <ele>69</ele>
        <time>2013-02-04T09:26:07.000Z</time>
      </trkpt>
      <trkpt lat="47.23341" lon="-0.05225">
        <ele>69</ele>
        <time>2013-02-04T09:26:20.000Z</time>
      </trkpt>
      <trkpt lat="47.2334" lon="-0.05226">
        <ele>69</ele>
        <time>2013-02-04T09:26:21.000Z</time>
      </trkpt>
      <trkpt lat="47.23336" lon="-0.05226">
        <ele>69</ele>
        <time>2013-02-04T09:26:24.000Z</time>
      </trkpt>
      <trkpt lat="47.23335" lon="-0.05226">
        <ele>69</ele>
        <time>2013-02-04T09:26:25.000Z</time>
      </trkpt>
      <trkpt lat="47.23331" lon="-0.05226">
        <ele>69</ele>
        <time>2013-02-04T09:26:28.000Z</time>
      </trkpt>
      <trkpt lat="47.23329" lon="-0.05228">
        <ele>69</ele>
        <time>2013-02-04T09:26:29.000Z</time>
      </trkpt>
      <trkpt lat="47.23326" lon="-0.05228">
        <ele>69</ele>
        <time>2013-02-04T09:26:33.000Z</time>
      </trkpt>
      <trkpt lat="47.23324" lon="-0.05228">
        <ele>69</ele>
        <time>2013-02-04T09:26:34.000Z</time>
      </trkpt>
      <trkpt lat="47.2332" lon="-0.05229">
        <ele>69</ele>
        <time>2013-02-04T09:26:37.000Z</time>
      </trkpt>
      <trkpt lat="47.23318" lon="-0.0523">
        <ele>69</ele>
        <time>2013-02-04T09:26:38.000Z</time>
      </trkpt>
      <trkpt lat="47.23315" lon="-0.0523">
        <ele>69</ele>
        <time>2013-02-04T09:26:41.000Z</time>
      </trkpt>
      <trkpt lat="47.23314" lon="-0.0523">
        <ele>69</ele>
        <time>2013-02-04T09:26:42.000Z</time>
      </trkpt>
      <trkpt lat="47.2331" lon="-0.05228">
        <ele>69</ele>
        <time>2013-02-04T09:26:45.000Z</time>
      </trkpt>
      <trkpt lat="47.23309" lon="-0.05228">
        <ele>69</ele>
        <time>2013-02-04T09:26:46.000Z</time>
      </trkpt>
      <trkpt lat="47.23305" lon="-0.05228">
        <ele>70</ele>
        <time>2013-02-04T09:26:50.000Z</time>
      </trkpt>
      <trkpt lat="47.23303" lon="-0.05228">
        <ele>70</ele>
        <time>2013-02-04T09:26:51.000Z</time>
      </trkpt>
      <trkpt lat="47.23299" lon="-0.05226">
        <ele>70</ele>
        <time>2013-02-04T09:26:54.000Z</time>
      </trkpt>
      <trkpt lat="47.23299" lon="-0.05226">
        <ele>70</ele>
        <time>2013-02-04T09:26:55.000Z</time>
      </trkpt>
      <trkpt lat="47.23295" lon="-0.05224">
        <ele>70</ele>
        <time>2013-02-04T09:26:59.000Z</time>
      </trkpt>
      <trkpt lat="47.23294" lon="-0.05223">
        <ele>70</ele>
        <time>2013-02-04T09:27:00.000Z</time>
      </trkpt>
      <trkpt lat="47.2329" lon="-0.05223">
        <ele>70</ele>
        <time>2013-02-04T09:27:03.000Z</time>
      </trkpt>
      <trkpt lat="47.23289" lon="-0.05222">
        <ele>70</ele>
        <time>2013-02-04T09:27:04.000Z</time>
      </trkpt>
      <trkpt lat="47.23285" lon="-0.05221">
        <ele>70</ele>
        <time>2013-02-04T09:27:07.000Z</time>
      </trkpt>
      <trkpt lat="47.23284" lon="-0.05222">
        <ele>70</ele>
        <time>2013-02-04T09:27:08.000Z</time>
      </trkpt>
      <trkpt lat="47.2328" lon="-0.05222">
        <ele>70</ele>
        <time>2013-02-04T09:27:11.000Z</time>
      </trkpt>
      <trkpt lat="47.23279" lon="-0.05222">
        <ele>70</ele>
        <time>2013-02-04T09:27:12.000Z</time>
      </trkpt>
      <trkpt lat="47.23275" lon="-0.05221">
        <ele>70</ele>
        <time>2013-02-04T09:27:15.000Z</time>
      </trkpt>
      <trkpt lat="47.23274" lon="-0.05222">
        <ele>70</ele>
        <time>2013-02-04T09:27:16.000Z</time>
      </trkpt>
      <trkpt lat="47.2327" lon="-0.05223">
        <ele>70</ele>
        <time>2013-02-04T09:27:19.000Z</time>
      </trkpt>
      <trkpt lat="47.23268" lon="-0.05224">
        <ele>70</ele>
        <time>2013-02-04T09:27:20.000Z</time>
      </trkpt>
      <trkpt lat="47.23265" lon="-0.05224">
        <ele>70</ele>
        <time>2013-02-04T09:27:22.000Z</time>
      </trkpt>
      <trkpt lat="47.23264" lon="-0.05224">
        <ele>70</ele>
        <time>2013-02-04T09:27:23.000Z</time>
      </trkpt>
      <trkpt lat="47.2326" lon="-0.05222">
        <ele>70</ele>
        <time>2013-02-04T09:27:27.000Z</time>
      </trkpt>
      <trkpt lat="47.23258" lon="-0.05221">
        <ele>70</ele>
        <time>2013-02-04T09:27:28.000Z</time>
      </trkpt>
      <trkpt lat="47.23254" lon="-0.0522">
        <ele>70</ele>
        <time>2013-02-04T09:27:32.000Z</time>
      </trkpt>
      <trkpt lat="47.23252" lon="-0.0522">
        <ele>70</ele>
        <time>2013-02-04T09:27:33.000Z</time>
      </trkpt>
      <trkpt lat="47.23248" lon="-0.0522">
        <ele>71</ele>
        <time>2013-02-04T09:27:36.000Z</time>
      </trkpt>
      <trkpt lat="47.23246" lon="-0.0522">
        <ele>71</ele>
        <time>2013-02-04T09:27:37.000Z</time>
      </trkpt>
      <trkpt lat="47.23242" lon="-0.05219">
        <ele>71</ele>
        <time>2013-02-04T09:27:40.000Z</time>
      </trkpt>
      <trkpt lat="47.2324" lon="-0.05219">
        <ele>71</ele>
        <time>2013-02-04T09:27:41.000Z</time>
      </trkpt>
      <trkpt lat="47.23237" lon="-0.05217">
        <ele>71</ele>
        <time>2013-02-04T09:27:44.000Z</time>
      </trkpt>
      <trkpt lat="47.23236" lon="-0.05217">
        <ele>71</ele>
        <time>2013-02-04T09:27:45.000Z</time>
      </trkpt>
      <trkpt lat="47.23232" lon="-0.05217">
        <ele>71</ele>
        <time>2013-02-04T09:27:48.000Z</time>
      </trkpt>
      <trkpt lat="47.23231" lon="-0.05217">
        <ele>71</ele>
        <time>2013-02-04T09:27:49.000Z</time>
      </trkpt>
      <trkpt lat="47.23227" lon="-0.05216">
        <ele>71</ele>
        <time>2013-02-04T09:27:52.000Z</time>
      </trkpt>
      <trkpt lat="47.23226" lon="-0.05216">
        <ele>71</ele>
        <time>2013-02-04T09:27:53.000Z</time>
      </trkpt>
      <trkpt lat="47.23223" lon="-0.05214">
        <ele>71</ele>
        <time>2013-02-04T09:27:58.000Z</time>
      </trkpt>
      <trkpt lat="47.23222" lon="-0.05214">
        <ele>71</ele>
        <time>2013-02-04T09:27:59.000Z</time>
      </trkpt>
      <trkpt lat="47.23219" lon="-0.05214">
        <ele>71</ele>
        <time>2013-02-04T09:28:01.000Z</time>
      </trkpt>
      <trkpt lat="47.23217" lon="-0.05214">
        <ele>71</ele>
        <time>2013-02-04T09:28:02.000Z</time>
      </trkpt>
      <trkpt lat="47.23213" lon="-0.05214">
        <ele>71</ele>
        <time>2013-02-04T09:28:05.000Z</time>
      </trkpt>
      <trkpt lat="47.23212" lon="-0.05215">
        <ele>71</ele>
        <time>2013-02-04T09:28:06.000Z</time>
      </trkpt>
      <trkpt lat="47.23208" lon="-0.05214">
        <ele>71</ele>
        <time>2013-02-04T09:28:10.000Z</time>
      </trkpt>
      <trkpt lat="47.23207" lon="-0.05214">
        <ele>71</ele>
        <time>2013-02-04T09:28:11.000Z</time>
      </trkpt>
      <trkpt lat="47.23203" lon="-0.05212">
        <ele>71</ele>
        <time>2013-02-04T09:28:14.000Z</time>
      </trkpt>
      <trkpt lat="47.23201" lon="-0.05212">
        <ele>71</ele>
        <time>2013-02-04T09:28:15.000Z</time>
      </trkpt>
      <trkpt lat="47.23198" lon="-0.05212">
        <ele>71</ele>
        <time>2013-02-04T09:28:17.000Z</time>
      </trkpt>
      <trkpt lat="47.23196" lon="-0.05212">
        <ele>71</ele>
        <time>2013-02-04T09:28:18.000Z</time>
      </trkpt>
      <trkpt lat="47.23192" lon="-0.05211">
        <ele>71</ele>
        <time>2013-02-04T09:28:21.000Z</time>
      </trkpt>
      <trkpt lat="47.2319" lon="-0.05212">
        <ele>71</ele>
        <time>2013-02-04T09:28:22.000Z</time>
      </trkpt>
      <trkpt lat="47.23186" lon="-0.05212">
        <ele>71</ele>
        <time>2013-02-04T09:28:26.000Z</time>
      </trkpt>
      <trkpt lat="47.23184" lon="-0.05212">
        <ele>71</ele>
        <time>2013-02-04T09:28:27.000Z</time>
      </trkpt>
      <trkpt lat="47.23181" lon="-0.05211">
        <ele>71</ele>
        <time>2013-02-04T09:28:33.000Z</time>
      </trkpt>
      <trkpt lat="47.2318" lon="-0.05211">
        <ele>71</ele>
        <time>2013-02-04T09:28:34.000Z</time>
      </trkpt>
      <trkpt lat="47.23176" lon="-0.05209">
        <ele>71</ele>
        <time>2013-02-04T09:28:38.000Z</time>
      </trkpt>
      <trkpt lat="47.23175" lon="-0.05209">
        <ele>71</ele>
        <time>2013-02-04T09:28:39.000Z</time>
      </trkpt>
      <trkpt lat="47.23171" lon="-0.05207">
        <ele>71</ele>
        <time>2013-02-04T09:28:43.000Z</time>
      </trkpt>
      <trkpt lat="47.23171" lon="-0.05205">
        <ele>71</ele>
        <time>2013-02-04T09:28:44.000Z</time>
      </trkpt>
      <trkpt lat="47.23169" lon="-0.052">
        <ele>71</ele>
        <time>2013-02-04T09:28:48.000Z</time>
      </trkpt>
      <trkpt lat="47.23169" lon="-0.05198">
        <ele>71</ele>
        <time>2013-02-04T09:28:49.000Z</time>
      </trkpt>
      <trkpt lat="47.2317" lon="-0.05193">
        <ele>72</ele>
        <time>2013-02-04T09:28:55.000Z</time>
      </trkpt>
      <trkpt lat="47.2317" lon="-0.05192">
        <ele>72</ele>
        <time>2013-02-04T09:28:56.000Z</time>
      </trkpt>
      <trkpt lat="47.23173" lon="-0.05189">
        <ele>72</ele>
        <time>2013-02-04T09:29:10.000Z</time>
      </trkpt>
      <trkpt lat="47.23174" lon="-0.05186">
        <ele>72</ele>
        <time>2013-02-04T09:29:11.000Z</time>
      </trkpt>
      <trkpt lat="47.23176" lon="-0.05182">
        <ele>72</ele>
        <time>2013-02-04T09:29:13.000Z</time>
      </trkpt>
      <trkpt lat="47.23177" lon="-0.0518">
        <ele>72</ele>
        <time>2013-02-04T09:29:14.000Z</time>
      </trkpt>
      <trkpt lat="47.23179" lon="-0.05175">
        <ele>72</ele>
        <time>2013-02-04T09:29:18.000Z</time>
      </trkpt>
      <trkpt lat="47.2318" lon="-0.05174">
        <ele>72</ele>
        <time>2013-02-04T09:29:19.000Z</time>
      </trkpt>
      <trkpt lat="47.23183" lon="-0.0517">
        <ele>72</ele>
        <time>2013-02-04T09:29:21.000Z</time>
      </trkpt>
      <trkpt lat="47.23183" lon="-0.05168">
        <ele>72</ele>
        <time>2013-02-04T09:29:22.000Z</time>
      </trkpt>
      <trkpt lat="47.23186" lon="-0.05165">
        <ele>73</ele>
        <time>2013-02-04T09:29:25.000Z</time>
      </trkpt>
      <trkpt lat="47.23187" lon="-0.05163">
        <ele>73</ele>
        <time>2013-02-04T09:29:26.000Z</time>
      </trkpt>
      <trkpt lat="47.2319" lon="-0.05159">
        <ele>73</ele>
        <time>2013-02-04T09:29:29.000Z</time>
      </trkpt>
      <trkpt lat="47.2319" lon="-0.05158">
        <ele>73</ele>
        <time>2013-02-04T09:29:30.000Z</time>
      </trkpt>
      <trkpt lat="47.23193" lon="-0.05153">
        <ele>73</ele>
        <time>2013-02-04T09:29:34.000Z</time>
      </trkpt>
      <trkpt lat="47.23194" lon="-0.05151">
        <ele>73</ele>
        <time>2013-02-04T09:29:35.000Z</time>
      </trkpt>
      <trkpt lat="47.23196" lon="-0.05146">
        <ele>73</ele>
        <time>2013-02-04T09:29:38.000Z</time>
      </trkpt>
      <trkpt lat="47.23197" lon="-0.05144">
        <ele>73</ele>
        <time>2013-02-04T09:29:39.000Z</time>
      </trkpt>
      <trkpt lat="47.23199" lon="-0.05141">
        <ele>73</ele>
        <time>2013-02-04T09:29:42.000Z</time>
      </trkpt>
      <trkpt lat="47.232" lon="-0.05139">
        <ele>73</ele>
        <time>2013-02-04T09:29:43.000Z</time>
      </trkpt>
      <trkpt lat="47.23202" lon="-0.05136">
        <ele>73</ele>
        <time>2013-02-04T09:29:45.000Z</time>
      </trkpt>
      <trkpt lat="47.23202" lon="-0.05133">
        <ele>73</ele>
        <time>2013-02-04T09:29:46.000Z</time>
      </trkpt>
      <trkpt lat="47.23204" lon="-0.05128">
        <ele>73</ele>
        <time>2013-02-04T09:29:48.000Z</time>
      </trkpt>
      <trkpt lat="47.23205" lon="-0.05126">
        <ele>73</ele>
        <time>2013-02-04T09:29:49.000Z</time>
      </trkpt>
      <trkpt lat="47.23208" lon="-0.05121">
        <ele>73</ele>
        <time>2013-02-04T09:29:52.000Z</time>
      </trkpt>
      <trkpt lat="47.23208" lon="-0.05121">
        <ele>73</ele>
        <time>2013-02-04T09:29:53.000Z</time>
      </trkpt>
      <trkpt lat="47.23211" lon="-0.05117">
        <ele>72</ele>
        <time>2013-02-04T09:29:56.000Z</time>
      </trkpt>
      <trkpt lat="47.23212" lon="-0.05116">
        <ele>72</ele>
        <time>2013-02-04T09:29:57.000Z</time>
      </trkpt>
      <trkpt lat="47.23213" lon="-0.0511">
        <ele>72</ele>
        <time>2013-02-04T09:30:01.000Z</time>
      </trkpt>
      <trkpt lat="47.23214" lon="-0.05109">
        <ele>72</ele>
        <time>2013-02-04T09:30:02.000Z</time>
      </trkpt>
      <trkpt lat="47.23217" lon="-0.05105">
        <ele>72</ele>
        <time>2013-02-04T09:30:06.000Z</time>
      </trkpt>
      <trkpt lat="47.23217" lon="-0.05103">
        <ele>72</ele>
        <time>2013-02-04T09:30:07.000Z</time>
      </trkpt>
      <trkpt lat="47.23219" lon="-0.05099">
        <ele>72</ele>
        <time>2013-02-04T09:30:10.000Z</time>
      </trkpt>
      <trkpt lat="47.2322" lon="-0.05097">
        <ele>72</ele>
        <time>2013-02-04T09:30:11.000Z</time>
      </trkpt>
      <trkpt lat="47.23222" lon="-0.05092">
        <ele>72</ele>
        <time>2013-02-04T09:30:15.000Z</time>
      </trkpt>
      <trkpt lat="47.23222" lon="-0.0509">
        <ele>72</ele>
        <time>2013-02-04T09:30:16.000Z</time>
      </trkpt>
      <trkpt lat="47.23224" lon="-0.05087">
        <ele>72</ele>
        <time>2013-02-04T09:30:17.000Z</time>
      </trkpt>
      <trkpt lat="47.23225" lon="-0.05084">
        <ele>72</ele>
        <time>2013-02-04T09:30:18.000Z</time>
      </trkpt>
      <trkpt lat="47.23226" lon="-0.05079">
        <ele>72</ele>
        <time>2013-02-04T09:30:20.000Z</time>
      </trkpt>
      <trkpt lat="47.23226" lon="-0.05077">
        <ele>72</ele>
        <time>2013-02-04T09:30:21.000Z</time>
      </trkpt>
      <trkpt lat="47.23228" lon="-0.05072">
        <ele>72</ele>
        <time>2013-02-04T09:30:25.000Z</time>
      </trkpt>
      <trkpt lat="47.23228" lon="-0.0507">
        <ele>72</ele>
        <time>2013-02-04T09:30:26.000Z</time>
      </trkpt>
      <trkpt lat="47.23229" lon="-0.05065">
        <ele>73</ele>
        <time>2013-02-04T09:30:30.000Z</time>
      </trkpt>
      <trkpt lat="47.2323" lon="-0.05064">
        <ele>73</ele>
        <time>2013-02-04T09:30:31.000Z</time>
      </trkpt>
      <trkpt lat="47.23232" lon="-0.05059">
        <ele>73</ele>
        <time>2013-02-04T09:30:34.000Z</time>
      </trkpt>
      <trkpt lat="47.23232" lon="-0.05056">
        <ele>73</ele>
        <time>2013-02-04T09:30:35.000Z</time>
      </trkpt>
      <trkpt lat="47.23234" lon="-0.05051">
        <ele>73</ele>
        <time>2013-02-04T09:30:39.000Z</time>
      </trkpt>
      <trkpt lat="47.23235" lon="-0.0505">
        <ele>73</ele>
        <time>2013-02-04T09:30:40.000Z</time>
      </trkpt>
      <trkpt lat="47.23236" lon="-0.05045">
        <ele>73</ele>
        <time>2013-02-04T09:30:43.000Z</time>
      </trkpt>
      <trkpt lat="47.23237" lon="-0.05043">
        <ele>73</ele>
        <time>2013-02-04T09:30:44.000Z</time>
      </trkpt>
      <trkpt lat="47.23238" lon="-0.05038">
        <ele>73</ele>
        <time>2013-02-04T09:30:47.000Z</time>
      </trkpt>
      <trkpt lat="47.23239" lon="-0.05036">
        <ele>73</ele>
        <time>2013-02-04T09:30:48.000Z</time>
      </trkpt>
      <trkpt lat="47.23241" lon="-0.05031">
        <ele>73</ele>
        <time>2013-02-04T09:30:52.000Z</time>
      </trkpt>
      <trkpt lat="47.23241" lon="-0.05029">
        <ele>73</ele>
        <time>2013-02-04T09:30:53.000Z</time>
      </trkpt>
      <trkpt lat="47.23243" lon="-0.05025">
        <ele>73</ele>
        <time>2013-02-04T09:30:56.000Z</time>
      </trkpt>
      <trkpt lat="47.23243" lon="-0.05023">
        <ele>73</ele>
        <time>2013-02-04T09:30:57.000Z</time>
      </trkpt>
      <trkpt lat="47.23244" lon="-0.05018">
        <ele>73</ele>
        <time>2013-02-04T09:30:59.000Z</time>
      </trkpt>
      <trkpt lat="47.23244" lon="-0.05016">
        <ele>73</ele>
        <time>2013-02-04T09:31:00.000Z</time>
      </trkpt>
      <trkpt lat="47.23244" lon="-0.05011">
        <ele>73</ele>
        <time>2013-02-04T09:31:03.000Z</time>
      </trkpt>
      <trkpt lat="47.23244" lon="-0.05009">
        <ele>73</ele>
        <time>2013-02-04T09:31:04.000Z</time>
      </trkpt>
      <trkpt lat="47.23245" lon="-0.05004">
        <ele>73</ele>
        <time>2013-02-04T09:31:08.000Z</time>
      </trkpt>
      <trkpt lat="47.23245" lon="-0.05002">
        <ele>73</ele>
        <time>2013-02-04T09:31:09.000Z</time>
      </trkpt>
      <trkpt lat="47.23244" lon="-0.04996">
        <ele>73</ele>
        <time>2013-02-04T09:31:12.000Z</time>
      </trkpt>
      <trkpt lat="47.23244" lon="-0.04995">
        <ele>73</ele>
        <time>2013-02-04T09:31:13.000Z</time>
      </trkpt>
      <trkpt lat="47.23244" lon="-0.04989">
        <ele>73</ele>
        <time>2013-02-04T09:31:18.000Z</time>
      </trkpt>
      <trkpt lat="47.23243" lon="-0.04987">
        <ele>73</ele>
        <time>2013-02-04T09:31:19.000Z</time>
      </trkpt>
      <trkpt lat="47.23243" lon="-0.04982">
        <ele>74</ele>
        <time>2013-02-04T09:31:22.000Z</time>
      </trkpt>
      <trkpt lat="47.23243" lon="-0.0498">
        <ele>74</ele>
        <time>2013-02-04T09:31:23.000Z</time>
      </trkpt>
      <trkpt lat="47.23243" lon="-0.04975">
        <ele>74</ele>
        <time>2013-02-04T09:31:25.000Z</time>
      </trkpt>
      <trkpt lat="47.23243" lon="-0.04972">
        <ele>74</ele>
        <time>2013-02-04T09:31:26.000Z</time>
      </trkpt>
      <trkpt lat="47.23242" lon="-0.04968">
        <ele>74</ele>
        <time>2013-02-04T09:31:28.000Z</time>
      </trkpt>
      <trkpt lat="47.23242" lon="-0.04965">
        <ele>74</ele>
        <time>2013-02-04T09:31:29.000Z</time>
      </trkpt>
      <trkpt lat="47.23242" lon="-0.04959">
        <ele>74</ele>
        <time>2013-02-04T09:31:32.000Z</time>
      </trkpt>
      <trkpt lat="47.23242" lon="-0.04957">
        <ele>74</ele>
        <time>2013-02-04T09:31:33.000Z</time>
      </trkpt>
      <trkpt lat="47.23241" lon="-0.04952">
        <ele>74</ele>
        <time>2013-02-04T09:31:35.000Z</time>
      </trkpt>
      <trkpt lat="47.23241" lon="-0.0495">
        <ele>74</ele>
        <time>2013-02-04T09:31:36.000Z</time>
      </trkpt>
      <trkpt lat="47.23241" lon="-0.04945">
        <ele>74</ele>
        <time>2013-02-04T09:31:39.000Z</time>
      </trkpt>
      <trkpt lat="47.23241" lon="-0.04943">
        <ele>74</ele>
        <time>2013-02-04T09:31:40.000Z</time>
      </trkpt>
      <trkpt lat="47.2324" lon="-0.04936">
        <ele>74</ele>
        <time>2013-02-04T09:36:25.000Z</time>
      </trkpt>
      <trkpt lat="47.2324" lon="-0.04936">
        <ele>74</ele>
        <time>2013-02-04T09:36:26.000Z</time>
      </trkpt>
      <trkpt lat="47.23237" lon="-0.0494">
        <ele>74</ele>
        <time>2013-02-04T09:37:42.000Z</time>
      </trkpt>
      <trkpt lat="47.23236" lon="-0.0494">
        <ele>74</ele>
        <time>2013-02-04T09:37:43.000Z</time>
      </trkpt>
      <trkpt lat="47.23241" lon="-0.04939">
        <ele>74</ele>
        <time>2013-02-04T09:40:06.000Z</time>
      </trkpt>
      <trkpt lat="47.23241" lon="-0.04938">
        <ele>74</ele>
        <time>2013-02-04T09:40:07.000Z</time>
      </trkpt>
      <trkpt lat="47.23243" lon="-0.04933">
        <ele>73</ele>
        <time>2013-02-04T09:41:04.000Z</time>
      </trkpt>
      <trkpt lat="47.23243" lon="-0.04931">
        <ele>73</ele>
        <time>2013-02-04T09:41:05.000Z</time>
      </trkpt>
      <trkpt lat="47.23243" lon="-0.04925">
        <ele>73</ele>
        <time>2013-02-04T09:41:09.000Z</time>
      </trkpt>
      <trkpt lat="47.23244" lon="-0.04923">
        <ele>73</ele>
        <time>2013-02-04T09:41:10.000Z</time>
      </trkpt>
      <trkpt lat="47.23245" lon="-0.04919">
        <ele>73</ele>
        <time>2013-02-04T09:41:12.000Z</time>
      </trkpt>
      <trkpt lat="47.23245" lon="-0.04916">
        <ele>73</ele>
        <time>2013-02-04T09:41:13.000Z</time>
      </trkpt>
      <trkpt lat="47.23248" lon="-0.04914">
        <ele>73</ele>
        <time>2013-02-04T09:41:18.000Z</time>
      </trkpt>
      <trkpt lat="47.23249" lon="-0.04911">
        <ele>73</ele>
        <time>2013-02-04T09:41:19.000Z</time>
      </trkpt>
      <trkpt lat="47.23251" lon="-0.04908">
        <ele>73</ele>
        <time>2013-02-04T09:41:21.000Z</time>
      </trkpt>
      <trkpt lat="47.23251" lon="-0.04906">
        <ele>73</ele>
        <time>2013-02-04T09:41:22.000Z</time>
      </trkpt>
      <trkpt lat="47.23255" lon="-0.04901">
        <ele>73</ele>
        <time>2013-02-04T09:41:26.000Z</time>
      </trkpt>
      <trkpt lat="47.23255" lon="-0.049">
        <ele>73</ele>
        <time>2013-02-04T09:41:27.000Z</time>
      </trkpt>
      <trkpt lat="47.23258" lon="-0.04897">
        <ele>74</ele>
        <time>2013-02-04T09:41:29.000Z</time>
      </trkpt>
      <trkpt lat="47.23258" lon="-0.04896">
        <ele>74</ele>
        <time>2013-02-04T09:41:30.000Z</time>
      </trkpt>
      <trkpt lat="47.23261" lon="-0.04891">
        <ele>74</ele>
        <time>2013-02-04T09:41:34.000Z</time>
      </trkpt>
      <trkpt lat="47.23262" lon="-0.0489">
        <ele>74</ele>
        <time>2013-02-04T09:41:35.000Z</time>
      </trkpt>
      <trkpt lat="47.23264" lon="-0.04886">
        <ele>74</ele>
        <time>2013-02-04T09:41:39.000Z</time>
      </trkpt>
      <trkpt lat="47.23264" lon="-0.04884">
        <ele>74</ele>
        <time>2013-02-04T09:41:40.000Z</time>
      </trkpt>
      <trkpt lat="47.23266" lon="-0.0488">
        <ele>74</ele>
        <time>2013-02-04T09:41:43.000Z</time>
      </trkpt>
      <trkpt lat="47.23267" lon="-0.04879">
        <ele>74</ele>
        <time>2013-02-04T09:41:44.000Z</time>
      </trkpt>
      <trkpt lat="47.23269" lon="-0.04875">
        <ele>74</ele>
        <time>2013-02-04T09:41:46.000Z</time>
      </trkpt>
      <trkpt lat="47.2327" lon="-0.04873">
        <ele>74</ele>
        <time>2013-02-04T09:41:47.000Z</time>
      </trkpt>
      <trkpt lat="47.23272" lon="-0.04869">
        <ele>74</ele>
        <time>2013-02-04T09:41:50.000Z</time>
      </trkpt>
      <trkpt lat="47.23273" lon="-0.04866">
        <ele>74</ele>
        <time>2013-02-04T09:41:51.000Z</time>
      </trkpt>
      <trkpt lat="47.23275" lon="-0.04861">
        <ele>74</ele>
        <time>2013-02-04T09:41:54.000Z</time>
      </trkpt>
      <trkpt lat="47.23275" lon="-0.0486">
        <ele>74</ele>
        <time>2013-02-04T09:41:55.000Z</time>
      </trkpt>
      <trkpt lat="47.23277" lon="-0.04855">
        <ele>74</ele>
        <time>2013-02-04T09:41:59.000Z</time>
      </trkpt>
      <trkpt lat="47.23277" lon="-0.04853">
        <ele>74</ele>
        <time>2013-02-04T09:42:00.000Z</time>
      </trkpt>
      <trkpt lat="47.2328" lon="-0.04848">
        <ele>74</ele>
        <time>2013-02-04T09:42:03.000Z</time>
      </trkpt>
      <trkpt lat="47.2328" lon="-0.04847">
        <ele>74</ele>
        <time>2013-02-04T09:42:04.000Z</time>
      </trkpt>
      <trkpt lat="47.23282" lon="-0.04842">
        <ele>74</ele>
        <time>2013-02-04T09:42:07.000Z</time>
      </trkpt>
      <trkpt lat="47.23283" lon="-0.04841">
        <ele>74</ele>
        <time>2013-02-04T09:42:08.000Z</time>
      </trkpt>
      <trkpt lat="47.23285" lon="-0.04838">
        <ele>74</ele>
        <time>2013-02-04T09:42:15.000Z</time>
      </trkpt>
      <trkpt lat="47.23286" lon="-0.04836">
        <ele>74</ele>
        <time>2013-02-04T09:42:16.000Z</time>
      </trkpt>
      <trkpt lat="47.23288" lon="-0.0483">
        <ele>75</ele>
        <time>2013-02-04T09:42:19.000Z</time>
      </trkpt>
      <trkpt lat="47.23288" lon="-0.04828">
        <ele>75</ele>
        <time>2013-02-04T09:42:20.000Z</time>
      </trkpt>
      <trkpt lat="47.23289" lon="-0.04823">
        <ele>75</ele>
        <time>2013-02-04T09:42:22.000Z</time>
      </trkpt>
      <trkpt lat="47.23289" lon="-0.0482">
        <ele>75</ele>
        <time>2013-02-04T09:42:23.000Z</time>
      </trkpt>
      <trkpt lat="47.2329" lon="-0.04815">
        <ele>75</ele>
        <time>2013-02-04T09:42:26.000Z</time>
      </trkpt>
      <trkpt lat="47.2329" lon="-0.04813">
        <ele>75</ele>
        <time>2013-02-04T09:42:27.000Z</time>
      </trkpt>
      <trkpt lat="47.23292" lon="-0.04807">
        <ele>75</ele>
        <time>2013-02-04T09:42:31.000Z</time>
      </trkpt>
      <trkpt lat="47.23292" lon="-0.04807">
        <ele>75</ele>
        <time>2013-02-04T09:42:32.000Z</time>
      </trkpt>
      <trkpt lat="47.23293" lon="-0.04802">
        <ele>75</ele>
        <time>2013-02-04T09:42:36.000Z</time>
      </trkpt>
      <trkpt lat="47.23293" lon="-0.04799">
        <ele>75</ele>
        <time>2013-02-04T09:42:37.000Z</time>
      </trkpt>
      <trkpt lat="47.23294" lon="-0.04794">
        <ele>75</ele>
        <time>2013-02-04T09:42:39.000Z</time>
      </trkpt>
      <trkpt lat="47.23295" lon="-0.04792">
        <ele>75</ele>
        <time>2013-02-04T09:42:40.000Z</time>
      </trkpt>
      <trkpt lat="47.23296" lon="-0.04786">
        <ele>75</ele>
        <time>2013-02-04T09:42:43.000Z</time>
      </trkpt>
      <trkpt lat="47.23297" lon="-0.04785">
        <ele>75</ele>
        <time>2013-02-04T09:42:44.000Z</time>
      </trkpt>
      <trkpt lat="47.23298" lon="-0.04779">
        <ele>75</ele>
        <time>2013-02-04T09:42:46.000Z</time>
      </trkpt>
      <trkpt lat="47.23298" lon="-0.04777">
        <ele>75</ele>
        <time>2013-02-04T09:42:47.000Z</time>
      </trkpt>
      <trkpt lat="47.23301" lon="-0.04771">
        <ele>75</ele>
        <time>2013-02-04T09:42:50.000Z</time>
      </trkpt>
      <trkpt lat="47.23302" lon="-0.04768">
        <ele>76</ele>
        <time>2013-02-04T09:42:51.000Z</time>
      </trkpt>
      <trkpt lat="47.23302" lon="-0.04763">
        <ele>76</ele>
        <time>2013-02-04T09:42:55.000Z</time>
      </trkpt>
      <trkpt lat="47.23303" lon="-0.04761">
        <ele>76</ele>
        <time>2013-02-04T09:42:56.000Z</time>
      </trkpt>
      <trkpt lat="47.23303" lon="-0.04757">
        <ele>76</ele>
        <time>2013-02-04T09:42:57.000Z</time>
      </trkpt>
      <trkpt lat="47.23304" lon="-0.04754">
        <ele>76</ele>
        <time>2013-02-04T09:42:58.000Z</time>
      </trkpt>
      <trkpt lat="47.23304" lon="-0.04748">
        <ele>76</ele>
        <time>2013-02-04T09:43:01.000Z</time>
      </trkpt>
      <trkpt lat="47.23303" lon="-0.04746">
        <ele>76</ele>
        <time>2013-02-04T09:43:02.000Z</time>
      </trkpt>
      <trkpt lat="47.23304" lon="-0.0474">
        <ele>76</ele>
        <time>2013-02-04T09:43:05.000Z</time>
      </trkpt>
      <trkpt lat="47.23304" lon="-0.04737">
        <ele>76</ele>
        <time>2013-02-04T09:43:06.000Z</time>
      </trkpt>
      <trkpt lat="47.23305" lon="-0.04731">
        <ele>76</ele>
        <time>2013-02-04T09:43:11.000Z</time>
      </trkpt>
      <trkpt lat="47.23306" lon="-0.0473">
        <ele>76</ele>
        <time>2013-02-04T09:43:12.000Z</time>
      </trkpt>
      <trkpt lat="47.23307" lon="-0.04727">
        <ele>76</ele>
        <time>2013-02-04T09:43:15.000Z</time>
      </trkpt>
      <trkpt lat="47.23308" lon="-0.04724">
        <ele>76</ele>
        <time>2013-02-04T09:43:16.000Z</time>
      </trkpt>
      <trkpt lat="47.23309" lon="-0.04719">
        <ele>76</ele>
        <time>2013-02-04T09:43:19.000Z</time>
      </trkpt>
      <trkpt lat="47.23309" lon="-0.04718">
        <ele>76</ele>
        <time>2013-02-04T09:43:20.000Z</time>
      </trkpt>
      <trkpt lat="47.23311" lon="-0.04713">
        <ele>76</ele>
        <time>2013-02-04T09:43:23.000Z</time>
      </trkpt>
      <trkpt lat="47.23311" lon="-0.04712">
        <ele>76</ele>
        <time>2013-02-04T09:43:24.000Z</time>
      </trkpt>
      <trkpt lat="47.23313" lon="-0.04706">
        <ele>76</ele>
        <time>2013-02-04T09:43:28.000Z</time>
      </trkpt>
      <trkpt lat="47.23314" lon="-0.04705">
        <ele>76</ele>
        <time>2013-02-04T09:43:29.000Z</time>
      </trkpt>
      <trkpt lat="47.23315" lon="-0.04698">
        <ele>76</ele>
        <time>2013-02-04T09:43:32.000Z</time>
      </trkpt>
      <trkpt lat="47.23316" lon="-0.04695">
        <ele>77</ele>
        <time>2013-02-04T09:43:33.000Z</time>
      </trkpt>
      <trkpt lat="47.23317" lon="-0.04689">
        <ele>77</ele>
        <time>2013-02-04T09:43:36.000Z</time>
      </trkpt>
      <trkpt lat="47.23317" lon="-0.04688">
        <ele>77</ele>
        <time>2013-02-04T09:43:37.000Z</time>
      </trkpt>
      <trkpt lat="47.23318" lon="-0.04683">
        <ele>77</ele>
        <time>2013-02-04T09:43:39.000Z</time>
      </trkpt>
      <trkpt lat="47.23318" lon="-0.04681">
        <ele>77</ele>
        <time>2013-02-04T09:43:40.000Z</time>
      </trkpt>
      <trkpt lat="47.23319" lon="-0.04677">
        <ele>77</ele>
        <time>2013-02-04T09:43:42.000Z</time>
      </trkpt>
      <trkpt lat="47.2332" lon="-0.04675">
        <ele>77</ele>
        <time>2013-02-04T09:43:43.000Z</time>
      </trkpt>
      <trkpt lat="47.23322" lon="-0.0467">
        <ele>77</ele>
        <time>2013-02-04T09:43:46.000Z</time>
      </trkpt>
      <trkpt lat="47.23323" lon="-0.04669">
        <ele>77</ele>
        <time>2013-02-04T09:43:47.000Z</time>
      </trkpt>
      <trkpt lat="47.23325" lon="-0.04664">
        <ele>77</ele>
        <time>2013-02-04T09:43:50.000Z</time>
      </trkpt>
      <trkpt lat="47.23326" lon="-0.04662">
        <ele>77</ele>
        <time>2013-02-04T09:43:51.000Z</time>
      </trkpt>
      <trkpt lat="47.23328" lon="-0.04657">
        <ele>77</ele>
        <time>2013-02-04T09:43:55.001Z</time>
      </trkpt>
      <trkpt lat="47.23328" lon="-0.04656">
        <ele>77</ele>
        <time>2013-02-04T09:43:56.001Z</time>
      </trkpt>
      <trkpt lat="47.2333" lon="-0.04651">
        <ele>77</ele>
        <time>2013-02-04T09:44:00.001Z</time>
      </trkpt>
      <trkpt lat="47.23331" lon="-0.0465">
        <ele>77</ele>
        <time>2013-02-04T09:44:01.001Z</time>
      </trkpt>
      <trkpt lat="47.23332" lon="-0.04644">
        <ele>77</ele>
        <time>2013-02-04T09:44:04.001Z</time>
      </trkpt>
      <trkpt lat="47.23332" lon="-0.04642">
        <ele>77</ele>
        <time>2013-02-04T09:44:05.001Z</time>
      </trkpt>
      <trkpt lat="47.23333" lon="-0.04638">
        <ele>77</ele>
        <time>2013-02-04T09:44:08.001Z</time>
      </trkpt>
      <trkpt lat="47.23334" lon="-0.04636">
        <ele>80</ele>
        <time>2013-02-04T09:44:09.001Z</time>
      </trkpt>
      <trkpt lat="47.23336" lon="-0.04632">
        <ele>80</ele>
        <time>2013-02-04T09:44:12.001Z</time>
      </trkpt>
      <trkpt lat="47.23336" lon="-0.0463">
        <ele>80</ele>
        <time>2013-02-04T09:44:13.001Z</time>
      </trkpt>
      <trkpt lat="47.23338" lon="-0.04625">
        <ele>80</ele>
        <time>2013-02-04T09:44:17.001Z</time>
      </trkpt>
      <trkpt lat="47.23338" lon="-0.04623">
        <ele>80</ele>
        <time>2013-02-04T09:44:18.001Z</time>
      </trkpt>
      <trkpt lat="47.2334" lon="-0.04617">
        <ele>80</ele>
        <time>2013-02-04T09:44:22.001Z</time>
      </trkpt>
      <trkpt lat="47.23341" lon="-0.04616">
        <ele>80</ele>
        <time>2013-02-04T09:44:23.001Z</time>
      </trkpt>
      <trkpt lat="47.23343" lon="-0.04613">
        <ele>80</ele>
        <time>2013-02-04T09:44:25.001Z</time>
      </trkpt>
      <trkpt lat="47.23344" lon="-0.04612">
        <ele>80</ele>
        <time>2013-02-04T09:44:26.001Z</time>
      </trkpt>
      <trkpt lat="47.23346" lon="-0.04607">
        <ele>80</ele>
        <time>2013-02-04T09:44:29.001Z</time>
      </trkpt>
      <trkpt lat="47.23347" lon="-0.04606">
        <ele>80</ele>
        <time>2013-02-04T09:44:30.001Z</time>
      </trkpt>
      <trkpt lat="47.2335" lon="-0.04602">
        <ele>80</ele>
        <time>2013-02-04T09:44:34.001Z</time>
      </trkpt>
      <trkpt lat="47.2335" lon="-0.04601">
        <ele>80</ele>
        <time>2013-02-04T09:44:35.001Z</time>
      </trkpt>
      <trkpt lat="47.23352" lon="-0.04598">
        <ele>80</ele>
        <time>2013-02-04T09:44:38.001Z</time>
      </trkpt>
      <trkpt lat="47.23354" lon="-0.04595">
        <ele>80</ele>
        <time>2013-02-04T09:44:39.001Z</time>
      </trkpt>
      <trkpt lat="47.23358" lon="-0.04592">
        <ele>80</ele>
        <time>2013-02-04T09:44:42.001Z</time>
      </trkpt>
      <trkpt lat="47.2336" lon="-0.0459">
        <ele>80</ele>
        <time>2013-02-04T09:44:43.001Z</time>
      </trkpt>
      <trkpt lat="47.23363" lon="-0.04588">
        <ele>80</ele>
        <time>2013-02-04T09:44:45.001Z</time>
      </trkpt>
      <trkpt lat="47.23364" lon="-0.04587">
        <ele>80</ele>
        <time>2013-02-04T09:44:46.001Z</time>
      </trkpt>
      <trkpt lat="47.23366" lon="-0.04582">
        <ele>80</ele>
        <time>2013-02-04T09:44:49.001Z</time>
      </trkpt>
      <trkpt lat="47.23367" lon="-0.04582">
        <ele>80</ele>
        <time>2013-02-04T09:44:50.001Z</time>
      </trkpt>
      <trkpt lat="47.23369" lon="-0.04579">
        <ele>80</ele>
        <time>2013-02-04T09:44:53.001Z</time>
      </trkpt>
      <trkpt lat="47.2337" lon="-0.04577">
        <ele>80</ele>
        <time>2013-02-04T09:44:54.001Z</time>
      </trkpt>
      <trkpt lat="47.23372" lon="-0.04573">
        <ele>80</ele>
        <time>2013-02-04T09:44:56.001Z</time>
      </trkpt>
      <trkpt lat="47.23373" lon="-0.04571">
        <ele>80</ele>
        <time>2013-02-04T09:44:57.001Z</time>
      </trkpt>
      <trkpt lat="47.23376" lon="-0.04568">
        <ele>80</ele>
        <time>2013-02-04T09:45:00.001Z</time>
      </trkpt>
      <trkpt lat="47.23377" lon="-0.04567">
        <ele>80</ele>
        <time>2013-02-04T09:45:01.001Z</time>
      </trkpt>
      <trkpt lat="47.2338" lon="-0.04563">
        <ele>80</ele>
        <time>2013-02-04T09:45:07.001Z</time>
      </trkpt>
      <trkpt lat="47.2338" lon="-0.04562">
        <ele>80</ele>
        <time>2013-02-04T09:45:08.001Z</time>
      </trkpt>
      <trkpt lat="47.23383" lon="-0.04559">
        <ele>80</ele>
        <time>2013-02-04T09:45:10.001Z</time>
      </trkpt>
      <trkpt lat="47.23385" lon="-0.04557">
        <ele>80</ele>
        <time>2013-02-04T09:45:11.001Z</time>
      </trkpt>
      <trkpt lat="47.23387" lon="-0.04554">
        <ele>81</ele>
        <time>2013-02-04T09:45:14.001Z</time>
      </trkpt>
      <trkpt lat="47.23389" lon="-0.04552">
        <ele>81</ele>
        <time>2013-02-04T09:45:15.001Z</time>
      </trkpt>
      <trkpt lat="47.23392" lon="-0.04548">
        <ele>81</ele>
        <time>2013-02-04T09:45:19.001Z</time>
      </trkpt>
      <trkpt lat="47.23393" lon="-0.04547">
        <ele>81</ele>
        <time>2013-02-04T09:45:20.001Z</time>
      </trkpt>
      <trkpt lat="47.23396" lon="-0.04543">
        <ele>81</ele>
        <time>2013-02-04T09:45:23.001Z</time>
      </trkpt>
      <trkpt lat="47.23397" lon="-0.04541">
        <ele>81</ele>
        <time>2013-02-04T09:45:24.001Z</time>
      </trkpt>
      <trkpt lat="47.23399" lon="-0.04537">
        <ele>81</ele>
        <time>2013-02-04T09:45:28.001Z</time>
      </trkpt>
      <trkpt lat="47.234" lon="-0.04536">
        <ele>81</ele>
        <time>2013-02-04T09:45:29.001Z</time>
      </trkpt>
      <trkpt lat="47.23402" lon="-0.04533">
        <ele>81</ele>
        <time>2013-02-04T09:45:32.001Z</time>
      </trkpt>
      <trkpt lat="47.23403" lon="-0.04531">
        <ele>81</ele>
        <time>2013-02-04T09:45:33.001Z</time>
      </trkpt>
      <trkpt lat="47.23406" lon="-0.04527">
        <ele>81</ele>
        <time>2013-02-04T09:45:36.001Z</time>
      </trkpt>
      <trkpt lat="47.23407" lon="-0.04526">
        <ele>81</ele>
        <time>2013-02-04T09:45:37.001Z</time>
      </trkpt>
      <trkpt lat="47.2341" lon="-0.04522">
        <ele>81</ele>
        <time>2013-02-04T09:45:42.001Z</time>
      </trkpt>
      <trkpt lat="47.2341" lon="-0.0452">
        <ele>81</ele>
        <time>2013-02-04T09:45:43.001Z</time>
      </trkpt>
      <trkpt lat="47.23412" lon="-0.04516">
        <ele>81</ele>
        <time>2013-02-04T09:45:46.001Z</time>
      </trkpt>
      <trkpt lat="47.23413" lon="-0.04514">
        <ele>81</ele>
        <time>2013-02-04T09:45:47.001Z</time>
      </trkpt>
      <trkpt lat="47.23412" lon="-0.04509">
        <ele>81</ele>
        <time>2013-02-04T09:45:52.001Z</time>
      </trkpt>
      <trkpt lat="47.23412" lon="-0.04508">
        <ele>81</ele>
        <time>2013-02-04T09:45:53.001Z</time>
      </trkpt>
      <trkpt lat="47.23408" lon="-0.04504">
        <ele>81</ele>
        <time>2013-02-04T09:45:57.001Z</time>
      </trkpt>
      <trkpt lat="47.23408" lon="-0.04504">
        <ele>81</ele>
        <time>2013-02-04T09:45:58.001Z</time>
      </trkpt>
      <trkpt lat="47.23404" lon="-0.04502">
        <ele>81</ele>
        <time>2013-02-04T09:46:01.001Z</time>
      </trkpt>
      <trkpt lat="47.23403" lon="-0.04501">
        <ele>81</ele>
        <time>2013-02-04T09:46:02.001Z</time>
      </trkpt>
      <trkpt lat="47.23399" lon="-0.04501">
        <ele>80</ele>
        <time>2013-02-04T09:46:06.001Z</time>
      </trkpt>
      <trkpt lat="47.23398" lon="-0.04501">
        <ele>80</ele>
        <time>2013-02-04T09:46:07.001Z</time>
      </trkpt>
      <trkpt lat="47.23395" lon="-0.04501">
        <ele>80</ele>
        <time>2013-02-04T09:46:10.001Z</time>
      </trkpt>
      <trkpt lat="47.23393" lon="-0.04501">
        <ele>80</ele>
        <time>2013-02-04T09:46:11.001Z</time>
      </trkpt>
      <trkpt lat="47.23388" lon="-0.04502">
        <ele>80</ele>
        <time>2013-02-04T09:46:14.001Z</time>
      </trkpt>
      <trkpt lat="47.23387" lon="-0.04501">
        <ele>80</ele>
        <time>2013-02-04T09:46:15.001Z</time>
      </trkpt>
      <trkpt lat="47.23384" lon="-0.04502">
        <ele>80</ele>
        <time>2013-02-04T09:46:18.001Z</time>
      </trkpt>
      <trkpt lat="47.23382" lon="-0.04502">
        <ele>80</ele>
        <time>2013-02-04T09:46:19.001Z</time>
      </trkpt>
      <trkpt lat="47.23379" lon="-0.045">
        <ele>80</ele>
        <time>2013-02-04T09:46:22.001Z</time>
      </trkpt>
      <trkpt lat="47.23378" lon="-0.04499">
        <ele>80</ele>
        <time>2013-02-04T09:46:23.001Z</time>
      </trkpt>
      <trkpt lat="47.23373" lon="-0.04496">
        <ele>80</ele>
        <time>2013-02-04T09:46:30.001Z</time>
      </trkpt>
      <trkpt lat="47.23372" lon="-0.04497">
        <ele>80</ele>
        <time>2013-02-04T09:46:31.001Z</time>
      </trkpt>
      <trkpt lat="47.23368" lon="-0.04497">
        <ele>80</ele>
        <time>2013-02-04T09:46:34.001Z</time>
      </trkpt>
      <trkpt lat="47.23365" lon="-0.04498">
        <ele>80</ele>
        <time>2013-02-04T09:46:35.001Z</time>
      </trkpt>
      <trkpt lat="47.23361" lon="-0.04498">
        <ele>80</ele>
        <time>2013-02-04T09:46:38.001Z</time>
      </trkpt>
      <trkpt lat="47.2336" lon="-0.04498">
        <ele>80</ele>
        <time>2013-02-04T09:46:39.001Z</time>
      </trkpt>
      <trkpt lat="47.23356" lon="-0.04497">
        <ele>80</ele>
        <time>2013-02-04T09:46:42.001Z</time>
      </trkpt>
      <trkpt lat="47.23355" lon="-0.04497">
        <ele>79</ele>
        <time>2013-02-04T09:46:43.001Z</time>
      </trkpt>
      <trkpt lat="47.2335" lon="-0.04496">
        <ele>79</ele>
        <time>2013-02-04T09:46:47.001Z</time>
      </trkpt>
      <trkpt lat="47.23349" lon="-0.04496">
        <ele>79</ele>
        <time>2013-02-04T09:46:48.001Z</time>
      </trkpt>
      <trkpt lat="47.23346" lon="-0.04496">
        <ele>79</ele>
        <time>2013-02-04T09:46:51.001Z</time>
      </trkpt>
      <trkpt lat="47.23344" lon="-0.04497">
        <ele>79</ele>
        <time>2013-02-04T09:46:52.001Z</time>
      </trkpt>
      <trkpt lat="47.23341" lon="-0.04496">
        <ele>79</ele>
        <time>2013-02-04T09:46:55.001Z</time>
      </trkpt>
      <trkpt lat="47.2334" lon="-0.04496">
        <ele>79</ele>
        <time>2013-02-04T09:46:56.001Z</time>
      </trkpt>
      <trkpt lat="47.23337" lon="-0.04496">
        <ele>78</ele>
        <time>2013-02-04T09:46:59.001Z</time>
      </trkpt>
      <trkpt lat="47.23335" lon="-0.04496">
        <ele>78</ele>
        <time>2013-02-04T09:47:00.001Z</time>
      </trkpt>
      <trkpt lat="47.23332" lon="-0.04495">
        <ele>78</ele>
        <time>2013-02-04T09:47:03.001Z</time>
      </trkpt>
      <trkpt lat="47.2333" lon="-0.04495">
        <ele>78</ele>
        <time>2013-02-04T09:47:04.001Z</time>
      </trkpt>
      <trkpt lat="47.23326" lon="-0.04495">
        <ele>78</ele>
        <time>2013-02-04T09:47:07.001Z</time>
      </trkpt>
      <trkpt lat="47.23326" lon="-0.04495">
        <ele>78</ele>
        <time>2013-02-04T09:47:08.001Z</time>
      </trkpt>
      <trkpt lat="47.23321" lon="-0.04496">
        <ele>78</ele>
        <time>2013-02-04T09:47:13.001Z</time>
      </trkpt>
      <trkpt lat="47.2332" lon="-0.04496">
        <ele>78</ele>
        <time>2013-02-04T09:47:14.001Z</time>
      </trkpt>
      <trkpt lat="47.23317" lon="-0.04496">
        <ele>78</ele>
        <time>2013-02-04T09:47:16.001Z</time>
      </trkpt>
      <trkpt lat="47.23315" lon="-0.04496">
        <ele>78</ele>
        <time>2013-02-04T09:47:17.001Z</time>
      </trkpt>
      <trkpt lat="47.23311" lon="-0.04497">
        <ele>78</ele>
        <time>2013-02-04T09:47:21.001Z</time>
      </trkpt>
      <trkpt lat="47.2331" lon="-0.04497">
        <ele>78</ele>
        <time>2013-02-04T09:47:22.001Z</time>
      </trkpt>
      <trkpt lat="47.23306" lon="-0.04496">
        <ele>78</ele>
        <time>2013-02-04T09:47:25.001Z</time>
      </trkpt>
      <trkpt lat="47.23305" lon="-0.04496">
        <ele>78</ele>
        <time>2013-02-04T09:47:26.001Z</time>
      </trkpt>
      <trkpt lat="47.23302" lon="-0.04498">
        <ele>78</ele>
        <time>2013-02-04T09:47:31.001Z</time>
      </trkpt>
      <trkpt lat="47.233" lon="-0.04499">
        <ele>78</ele>
        <time>2013-02-04T09:47:32.001Z</time>
      </trkpt>
      <trkpt lat="47.23296" lon="-0.045">
        <ele>77</ele>
        <time>2013-02-04T09:47:35.001Z</time>
      </trkpt>
      <trkpt lat="47.23295" lon="-0.04501">
        <ele>77</ele>
        <time>2013-02-04T09:47:36.001Z</time>
      </trkpt>
      <trkpt lat="47.23293" lon="-0.04502">
        <ele>77</ele>
        <time>2013-02-04T09:47:38.001Z</time>
      </trkpt>
      <trkpt lat="47.23291" lon="-0.04503">
        <ele>77</ele>
        <time>2013-02-04T09:47:39.001Z</time>
      </trkpt>
      <trkpt lat="47.23288" lon="-0.04504">
        <ele>77</ele>
        <time>2013-02-04T09:47:40.001Z</time>
      </trkpt>
      <trkpt lat="47.23286" lon="-0.04505">
        <ele>77</ele>
        <time>2013-02-04T09:47:41.001Z</time>
      </trkpt>
      <trkpt lat="47.23283" lon="-0.04508">
        <ele>77</ele>
        <time>2013-02-04T09:47:45.001Z</time>
      </trkpt>
      <trkpt lat="47.23281" lon="-0.04508">
        <ele>76</ele>
        <time>2013-02-04T09:47:46.001Z</time>
      </trkpt>
      <trkpt lat="47.23278" lon="-0.04508">
        <ele>76</ele>
        <time>2013-02-04T09:47:48.001Z</time>
      </trkpt>
      <trkpt lat="47.23276" lon="-0.04509">
        <ele>76</ele>
        <time>2013-02-04T09:47:49.001Z</time>
      </trkpt>
      <trkpt lat="47.23272" lon="-0.04511">
        <ele>76</ele>
        <time>2013-02-04T09:47:53.001Z</time>
      </trkpt>
      <trkpt lat="47.23269" lon="-0.04512">
        <ele>76</ele>
        <time>2013-02-04T09:47:54.001Z</time>
      </trkpt>
      <trkpt lat="47.23267" lon="-0.04513">
        <ele>76</ele>
        <time>2013-02-04T09:47:56.001Z</time>
      </trkpt>
      <trkpt lat="47.23265" lon="-0.04514">
        <ele>76</ele>
        <time>2013-02-04T09:47:57.001Z</time>
      </trkpt>
      <trkpt lat="47.23262" lon="-0.04515">
        <ele>76</ele>
        <time>2013-02-04T09:48:00.001Z</time>
      </trkpt>
      <trkpt lat="47.2326" lon="-0.04516">
        <ele>76</ele>
        <time>2013-02-04T09:48:01.001Z</time>
      </trkpt>
      <trkpt lat="47.23257" lon="-0.04518">
        <ele>76</ele>
        <time>2013-02-04T09:48:05.001Z</time>
      </trkpt>
      <trkpt lat="47.23255" lon="-0.04518">
        <ele>76</ele>
        <time>2013-02-04T09:48:06.001Z</time>
      </trkpt>
      <trkpt lat="47.23251" lon="-0.0452">
        <ele>76</ele>
        <time>2013-02-04T09:48:09.001Z</time>
      </trkpt>
      <trkpt lat="47.2325" lon="-0.04521">
        <ele>75</ele>
        <time>2013-02-04T09:48:10.001Z</time>
      </trkpt>
      <trkpt lat="47.23246" lon="-0.04522">
        <ele>75</ele>
        <time>2013-02-04T09:48:13.001Z</time>
      </trkpt>
      <trkpt lat="47.23245" lon="-0.04523">
        <ele>75</ele>
        <time>2013-02-04T09:48:14.001Z</time>
      </trkpt>
      <trkpt lat="47.23241" lon="-0.04524">
        <ele>75</ele>
        <time>2013-02-04T09:48:17.001Z</time>
      </trkpt>
      <trkpt lat="47.2324" lon="-0.04525">
        <ele>75</ele>
        <time>2013-02-04T09:48:18.001Z</time>
      </trkpt>
      <trkpt lat="47.23236" lon="-0.04529">
        <ele>75</ele>
        <time>2013-02-04T09:48:24.001Z</time>
      </trkpt>
      <trkpt lat="47.23235" lon="-0.0453">
        <ele>75</ele>
        <time>2013-02-04T09:48:25.001Z</time>
      </trkpt>
      <trkpt lat="47.23232" lon="-0.04533">
        <ele>75</ele>
        <time>2013-02-04T09:48:27.001Z</time>
      </trkpt>
      <trkpt lat="47.2323" lon="-0.04533">
        <ele>75</ele>
        <time>2013-02-04T09:48:28.001Z</time>
      </trkpt>
      <trkpt lat="47.23227" lon="-0.04536">
        <ele>75</ele>
        <time>2013-02-04T09:48:31.001Z</time>
      </trkpt>
      <trkpt lat="47.23225" lon="-0.04536">
        <ele>75</ele>
        <time>2013-02-04T09:48:32.001Z</time>
      </trkpt>
      <trkpt lat="47.23221" lon="-0.04538">
        <ele>75</ele>
        <time>2013-02-04T09:48:37.001Z</time>
      </trkpt>
      <trkpt lat="47.23221" lon="-0.04538">
        <ele>75</ele>
        <time>2013-02-04T09:48:38.001Z</time>
      </trkpt>
      <trkpt lat="47.23218" lon="-0.04541">
        <ele>75</ele>
        <time>2013-02-04T09:48:41.001Z</time>
      </trkpt>
      <trkpt lat="47.23216" lon="-0.04543">
        <ele>75</ele>
        <time>2013-02-04T09:48:42.001Z</time>
      </trkpt>
      <trkpt lat="47.23212" lon="-0.04544">
        <ele>75</ele>
        <time>2013-02-04T09:48:47.001Z</time>
      </trkpt>
      <trkpt lat="47.23212" lon="-0.04545">
        <ele>75</ele>
        <time>2013-02-04T09:48:48.001Z</time>
      </trkpt>
      <trkpt lat="47.23209" lon="-0.04549">
        <ele>74</ele>
        <time>2013-02-04T09:48:54.001Z</time>
      </trkpt>
      <trkpt lat="47.23208" lon="-0.0455">
        <ele>74</ele>
        <time>2013-02-04T09:48:55.001Z</time>
      </trkpt>
      <trkpt lat="47.23205" lon="-0.04554">
        <ele>74</ele>
        <time>2013-02-04T09:48:57.001Z</time>
      </trkpt>
      <trkpt lat="47.23203" lon="-0.04555">
        <ele>74</ele>
        <time>2013-02-04T09:48:58.001Z</time>
      </trkpt>
      <trkpt lat="47.232" lon="-0.04558">
        <ele>74</ele>
        <time>2013-02-04T09:49:01.001Z</time>
      </trkpt>
      <trkpt lat="47.23199" lon="-0.04559">
        <ele>74</ele>
        <time>2013-02-04T09:49:02.001Z</time>
      </trkpt>
      <trkpt lat="47.23195" lon="-0.04562">
        <ele>74</ele>
        <time>2013-02-04T09:49:06.001Z</time>
      </trkpt>
      <trkpt lat="47.23194" lon="-0.04563">
        <ele>74</ele>
        <time>2013-02-04T09:49:07.001Z</time>
      </trkpt>
      <trkpt lat="47.23191" lon="-0.04567">
        <ele>74</ele>
        <time>2013-02-04T09:49:11.001Z</time>
      </trkpt>
      <trkpt lat="47.23189" lon="-0.04568">
        <ele>74</ele>
        <time>2013-02-04T09:49:12.001Z</time>
      </trkpt>
      <trkpt lat="47.23186" lon="-0.04571">
        <ele>74</ele>
        <time>2013-02-04T09:49:15.001Z</time>
      </trkpt>
      <trkpt lat="47.23185" lon="-0.04572">
        <ele>74</ele>
        <time>2013-02-04T09:49:16.001Z</time>
      </trkpt>
      <trkpt lat="47.23181" lon="-0.04574">
        <ele>74</ele>
        <time>2013-02-04T09:49:19.001Z</time>
      </trkpt>
      <trkpt lat="47.2318" lon="-0.04574">
        <ele>74</ele>
        <time>2013-02-04T09:49:20.001Z</time>
      </trkpt>
      <trkpt lat="47.23176" lon="-0.04576">
        <ele>74</ele>
        <time>2013-02-04T09:49:23.001Z</time>
      </trkpt>
      <trkpt lat="47.23175" lon="-0.04576">
        <ele>74</ele>
        <time>2013-02-04T09:49:24.001Z</time>
      </trkpt>
      <trkpt lat="47.23172" lon="-0.04576">
        <ele>73</ele>
        <time>2013-02-04T09:49:27.001Z</time>
      </trkpt>
      <trkpt lat="47.23171" lon="-0.04576">
        <ele>73</ele>
        <time>2013-02-04T09:49:28.001Z</time>
      </trkpt>
      <trkpt lat="47.23167" lon="-0.04577">
        <ele>73</ele>
        <time>2013-02-04T09:49:31.001Z</time>
      </trkpt>
      <trkpt lat="47.23166" lon="-0.04578">
        <ele>73</ele>
        <time>2013-02-04T09:49:32.001Z</time>
      </trkpt>
      <trkpt lat="47.23162" lon="-0.04578">
        <ele>73</ele>
        <time>2013-02-04T09:49:35.001Z</time>
      </trkpt>
      <trkpt lat="47.2316" lon="-0.04578">
        <ele>73</ele>
        <time>2013-02-04T09:49:36.001Z</time>
      </trkpt>
      <trkpt lat="47.23156" lon="-0.0458">
        <ele>73</ele>
        <time>2013-02-04T09:49:39.001Z</time>
      </trkpt>
      <trkpt lat="47.23154" lon="-0.04581">
        <ele>73</ele>
        <time>2013-02-04T09:49:40.001Z</time>
      </trkpt>
      <trkpt lat="47.2315" lon="-0.04581">
        <ele>73</ele>
        <time>2013-02-04T09:49:44.001Z</time>
      </trkpt>
      <trkpt lat="47.23149" lon="-0.04581">
        <ele>72</ele>
        <time>2013-02-04T09:49:45.001Z</time>
      </trkpt>
      <trkpt lat="47.23145" lon="-0.04582">
        <ele>72</ele>
        <time>2013-02-04T09:49:50.001Z</time>
      </trkpt>
      <trkpt lat="47.23144" lon="-0.04582">
        <ele>72</ele>
        <time>2013-02-04T09:49:51.001Z</time>
      </trkpt>
      <trkpt lat="47.23141" lon="-0.04582">
        <ele>72</ele>
        <time>2013-02-04T09:49:54.001Z</time>
      </trkpt>
      <trkpt lat="47.23139" lon="-0.04583">
        <ele>72</ele>
        <time>2013-02-04T09:49:55.001Z</time>
      </trkpt>
      <trkpt lat="47.23135" lon="-0.04582">
        <ele>72</ele>
        <time>2013-02-04T09:49:58.001Z</time>
      </trkpt>
      <trkpt lat="47.23133" lon="-0.04582">
        <ele>72</ele>
        <time>2013-02-04T09:49:59.001Z</time>
      </trkpt>
      <trkpt lat="47.2313" lon="-0.04584">
        <ele>73</ele>
        <time>2013-02-04T09:50:02.001Z</time>
      </trkpt>
      <trkpt lat="47.23128" lon="-0.04584">
        <ele>73</ele>
        <time>2013-02-04T09:50:03.001Z</time>
      </trkpt>
      <trkpt lat="47.23125" lon="-0.04585">
        <ele>72</ele>
        <time>2013-02-04T09:50:05.001Z</time>
      </trkpt>
      <trkpt lat="47.23124" lon="-0.04586">
        <ele>72</ele>
        <time>2013-02-04T09:50:06.001Z</time>
      </trkpt>
      <trkpt lat="47.2312" lon="-0.04588">
        <ele>72</ele>
        <time>2013-02-04T09:50:08.001Z</time>
      </trkpt>
      <trkpt lat="47.23118" lon="-0.0459">
        <ele>72</ele>
        <time>2013-02-04T09:50:09.001Z</time>
      </trkpt>
      <trkpt lat="47.23116" lon="-0.04591">
        <ele>72</ele>
        <time>2013-02-04T09:50:11.001Z</time>
      </trkpt>
      <trkpt lat="47.23114" lon="-0.04592">
        <ele>72</ele>
        <time>2013-02-04T09:50:12.001Z</time>
      </trkpt>
      <trkpt lat="47.2311" lon="-0.04593">
        <ele>72</ele>
        <time>2013-02-04T09:50:15.001Z</time>
      </trkpt>
      <trkpt lat="47.23108" lon="-0.04594">
        <ele>72</ele>
        <time>2013-02-04T09:50:16.001Z</time>
      </trkpt>
      <trkpt lat="47.23103" lon="-0.04593">
        <ele>72</ele>
        <time>2013-02-04T09:50:20.001Z</time>
      </trkpt>
      <trkpt lat="47.23103" lon="-0.04594">
        <ele>72</ele>
        <time>2013-02-04T09:50:21.001Z</time>
      </trkpt>
      <trkpt lat="47.23101" lon="-0.04595">
        <ele>72</ele>
        <time>2013-02-04T09:50:22.001Z</time>
      </trkpt>
      <trkpt lat="47.23098" lon="-0.04596">
        <ele>72</ele>
        <time>2013-02-04T09:50:23.001Z</time>
      </trkpt>
      <trkpt lat="47.23094" lon="-0.04595">
        <ele>72</ele>
        <time>2013-02-04T09:50:29.001Z</time>
      </trkpt>
      <trkpt lat="47.23093" lon="-0.04595">
        <ele>72</ele>
        <time>2013-02-04T09:50:30.001Z</time>
      </trkpt>
      <trkpt lat="47.2309" lon="-0.04596">
        <ele>72</ele>
        <time>2013-02-04T09:50:34.001Z</time>
      </trkpt>
      <trkpt lat="47.23088" lon="-0.04597">
        <ele>72</ele>
        <time>2013-02-04T09:50:35.001Z</time>
      </trkpt>
      <trkpt lat="47.23085" lon="-0.04599">
        <ele>72</ele>
        <time>2013-02-04T09:50:37.001Z</time>
      </trkpt>
      <trkpt lat="47.23083" lon="-0.046">
        <ele>71</ele>
        <time>2013-02-04T09:50:38.001Z</time>
      </trkpt>
      <trkpt lat="47.23081" lon="-0.04601">
        <ele>71</ele>
        <time>2013-02-04T09:50:41.001Z</time>
      </trkpt>
      <trkpt lat="47.23079" lon="-0.04601">
        <ele>71</ele>
        <time>2013-02-04T09:50:42.001Z</time>
      </trkpt>
      <trkpt lat="47.23076" lon="-0.04602">
        <ele>71</ele>
        <time>2013-02-04T09:50:45.001Z</time>
      </trkpt>
      <trkpt lat="47.23074" lon="-0.04603">
        <ele>71</ele>
        <time>2013-02-04T09:50:46.001Z</time>
      </trkpt>
      <trkpt lat="47.2307" lon="-0.04606">
        <ele>70</ele>
        <time>2013-02-04T09:50:51.001Z</time>
      </trkpt>
      <trkpt lat="47.2307" lon="-0.04605">
        <ele>70</ele>
        <time>2013-02-04T09:50:52.001Z</time>
      </trkpt>
      <trkpt lat="47.23066" lon="-0.04607">
        <ele>70</ele>
        <time>2013-02-04T09:50:56.001Z</time>
      </trkpt>
      <trkpt lat="47.23065" lon="-0.04608">
        <ele>70</ele>
        <time>2013-02-04T09:50:57.001Z</time>
      </trkpt>
      <trkpt lat="47.23061" lon="-0.0461">
        <ele>70</ele>
        <time>2013-02-04T09:51:00.001Z</time>
      </trkpt>
      <trkpt lat="47.2306" lon="-0.0461">
        <ele>70</ele>
        <time>2013-02-04T09:51:01.001Z</time>
      </trkpt>
      <trkpt lat="47.23056" lon="-0.04613">
        <ele>70</ele>
        <time>2013-02-04T09:51:07.001Z</time>
      </trkpt>
      <trkpt lat="47.23055" lon="-0.04614">
        <ele>70</ele>
        <time>2013-02-04T09:51:08.001Z</time>
      </trkpt>
      <trkpt lat="47.23051" lon="-0.04615">
        <ele>70</ele>
        <time>2013-02-04T09:51:11.001Z</time>
      </trkpt>
      <trkpt lat="47.2305" lon="-0.04616">
        <ele>70</ele>
        <time>2013-02-04T09:51:12.001Z</time>
      </trkpt>
      <trkpt lat="47.23047" lon="-0.04619">
        <ele>70</ele>
        <time>2013-02-04T09:51:17.001Z</time>
      </trkpt>
      <trkpt lat="47.23046" lon="-0.0462">
        <ele>70</ele>
        <time>2013-02-04T09:51:18.001Z</time>
      </trkpt>
      <trkpt lat="47.23042" lon="-0.04619">
        <ele>70</ele>
        <time>2013-02-04T09:51:22.001Z</time>
      </trkpt>
      <trkpt lat="47.23042" lon="-0.04619">
        <ele>70</ele>
        <time>2013-02-04T09:51:23.001Z</time>
      </trkpt>
      <trkpt lat="47.23038" lon="-0.04621">
        <ele>70</ele>
        <time>2013-02-04T09:51:27.001Z</time>
      </trkpt>
      <trkpt lat="47.23036" lon="-0.04622">
        <ele>70</ele>
        <time>2013-02-04T09:51:28.001Z</time>
      </trkpt>
      <trkpt lat="47.23033" lon="-0.04624">
        <ele>70</ele>
        <time>2013-02-04T09:51:31.001Z</time>
      </trkpt>
      <trkpt lat="47.23032" lon="-0.04625">
        <ele>70</ele>
        <time>2013-02-04T09:51:32.001Z</time>
      </trkpt>
      <trkpt lat="47.23028" lon="-0.04627">
        <ele>70</ele>
        <time>2013-02-04T09:51:35.001Z</time>
      </trkpt>
      <trkpt lat="47.23027" lon="-0.04628">
        <ele>70</ele>
        <time>2013-02-04T09:51:36.001Z</time>
      </trkpt>
      <trkpt lat="47.23023" lon="-0.0463">
        <ele>70</ele>
        <time>2013-02-04T09:51:39.001Z</time>
      </trkpt>
      <trkpt lat="47.23022" lon="-0.04631">
        <ele>70</ele>
        <time>2013-02-04T09:51:40.001Z</time>
      </trkpt>
      <trkpt lat="47.23019" lon="-0.04634">
        <ele>70</ele>
        <time>2013-02-04T09:51:42.001Z</time>
      </trkpt>
      <trkpt lat="47.23018" lon="-0.04635">
        <ele>70</ele>
        <time>2013-02-04T09:51:43.001Z</time>
      </trkpt>
      <trkpt lat="47.23015" lon="-0.04637">
        <ele>70</ele>
        <time>2013-02-04T09:51:45.001Z</time>
      </trkpt>
      <trkpt lat="47.23013" lon="-0.04638">
        <ele>70</ele>
        <time>2013-02-04T09:51:46.001Z</time>
      </trkpt>
      <trkpt lat="47.2301" lon="-0.04642">
        <ele>70</ele>
        <time>2013-02-04T09:51:48.001Z</time>
      </trkpt>
      <trkpt lat="47.23009" lon="-0.04643">
        <ele>69</ele>
        <time>2013-02-04T09:51:49.001Z</time>
      </trkpt>
      <trkpt lat="47.23005" lon="-0.04647">
        <ele>69</ele>
        <time>2013-02-04T09:51:52.001Z</time>
      </trkpt>
      <trkpt lat="47.23004" lon="-0.04648">
        <ele>69</ele>
        <time>2013-02-04T09:51:53.001Z</time>
      </trkpt>
      <trkpt lat="47.23001" lon="-0.04651">
        <ele>69</ele>
        <time>2013-02-04T09:51:55.001Z</time>
      </trkpt>
      <trkpt lat="47.23" lon="-0.04652">
        <ele>69</ele>
        <time>2013-02-04T09:51:56.001Z</time>
      </trkpt>
      <trkpt lat="47.22997" lon="-0.04655">
        <ele>67</ele>
        <time>2013-02-04T09:52:00.001Z</time>
      </trkpt>
      <trkpt lat="47.22996" lon="-0.04656">
        <ele>67</ele>
        <time>2013-02-04T09:52:01.001Z</time>
      </trkpt>
      <trkpt lat="47.22992" lon="-0.04659">
        <ele>67</ele>
        <time>2013-02-04T09:52:05.001Z</time>
      </trkpt>
      <trkpt lat="47.22991" lon="-0.04659">
        <ele>67</ele>
        <time>2013-02-04T09:52:06.001Z</time>
      </trkpt>
      <trkpt lat="47.22988" lon="-0.04661">
        <ele>66</ele>
        <time>2013-02-04T09:52:10.001Z</time>
      </trkpt>
      <trkpt lat="47.22987" lon="-0.04662">
        <ele>66</ele>
        <time>2013-02-04T09:52:11.001Z</time>
      </trkpt>
      <trkpt lat="47.22983" lon="-0.04663">
        <ele>66</ele>
        <time>2013-02-04T09:52:18.001Z</time>
      </trkpt>
      <trkpt lat="47.22983" lon="-0.04663">
        <ele>66</ele>
        <time>2013-02-04T09:52:19.001Z</time>
      </trkpt>
      <trkpt lat="47.22979" lon="-0.04665">
        <ele>65</ele>
        <time>2013-02-04T09:52:24.001Z</time>
      </trkpt>
      <trkpt lat="47.22977" lon="-0.04666">
        <ele>65</ele>
        <time>2013-02-04T09:52:25.001Z</time>
      </trkpt>
      <trkpt lat="47.22974" lon="-0.04666">
        <ele>64</ele>
        <time>2013-02-04T09:52:28.001Z</time>
      </trkpt>
      <trkpt lat="47.22971" lon="-0.04665">
        <ele>64</ele>
        <time>2013-02-04T09:52:29.001Z</time>
      </trkpt>
      <trkpt lat="47.22967" lon="-0.04665">
        <ele>64</ele>
        <time>2013-02-04T09:52:33.001Z</time>
      </trkpt>
      <trkpt lat="47.22967" lon="-0.04665">
        <ele>64</ele>
        <time>2013-02-04T09:52:34.001Z</time>
      </trkpt>
      <trkpt lat="47.22963" lon="-0.04667">
        <ele>65</ele>
        <time>2013-02-04T09:52:37.001Z</time>
      </trkpt>
      <trkpt lat="47.2296" lon="-0.04667">
        <ele>65</ele>
        <time>2013-02-04T09:52:38.001Z</time>
      </trkpt>
      <trkpt lat="47.22957" lon="-0.04665">
        <ele>63</ele>
        <time>2013-02-04T09:52:41.001Z</time>
      </trkpt>
      <trkpt lat="47.22956" lon="-0.04665">
        <ele>63</ele>
        <time>2013-02-04T09:52:42.001Z</time>
      </trkpt>
      <trkpt lat="47.22952" lon="-0.04663">
        <ele>62</ele>
        <time>2013-02-04T09:52:48.001Z</time>
      </trkpt>
      <trkpt lat="47.22951" lon="-0.04663">
        <ele>62</ele>
        <time>2013-02-04T09:52:49.001Z</time>
      </trkpt>
      <trkpt lat="47.22947" lon="-0.04662">
        <ele>62</ele>
        <time>2013-02-04T09:52:53.001Z</time>
      </trkpt>
      <trkpt lat="47.22945" lon="-0.04661">
        <ele>62</ele>
        <time>2013-02-04T09:52:54.001Z</time>
      </trkpt>
      <trkpt lat="47.22941" lon="-0.04661">
        <ele>61</ele>
        <time>2013-02-04T09:52:57.001Z</time>
      </trkpt>
      <trkpt lat="47.2294" lon="-0.04661">
        <ele>61</ele>
        <time>2013-02-04T09:52:58.001Z</time>
      </trkpt>
      <trkpt lat="47.22936" lon="-0.04661">
        <ele>61</ele>
        <time>2013-02-04T09:53:01.001Z</time>
      </trkpt>
      <trkpt lat="47.22935" lon="-0.0466">
        <ele>61</ele>
        <time>2013-02-04T09:53:02.001Z</time>
      </trkpt>
      <trkpt lat="47.22931" lon="-0.04658">
        <ele>60</ele>
        <time>2013-02-04T09:53:06.001Z</time>
      </trkpt>
      <trkpt lat="47.2293" lon="-0.04658">
        <ele>60</ele>
        <time>2013-02-04T09:53:07.001Z</time>
      </trkpt>
      <trkpt lat="47.22926" lon="-0.04657">
        <ele>60</ele>
        <time>2013-02-04T09:53:12.001Z</time>
      </trkpt>
      <trkpt lat="47.22925" lon="-0.04657">
        <ele>60</ele>
        <time>2013-02-04T09:53:13.001Z</time>
      </trkpt>
      <trkpt lat="47.2292" lon="-0.04658">
        <ele>59</ele>
        <time>2013-02-04T09:53:19.001Z</time>
      </trkpt>
      <trkpt lat="47.2292" lon="-0.04658">
        <ele>59</ele>
        <time>2013-02-04T09:53:20.001Z</time>
      </trkpt>
      <trkpt lat="47.22916" lon="-0.04658">
        <ele>57</ele>
        <time>2013-02-04T09:53:24.001Z</time>
      </trkpt>
      <trkpt lat="47.22915" lon="-0.04658">
        <ele>57</ele>
        <time>2013-02-04T09:53:25.001Z</time>
      </trkpt>
      <trkpt lat="47.2291" lon="-0.04658">
        <ele>57</ele>
        <time>2013-02-04T09:53:28.001Z</time>
      </trkpt>
      <trkpt lat="47.22908" lon="-0.04659">
        <ele>57</ele>
        <time>2013-02-04T09:53:29.001Z</time>
      </trkpt>
      <trkpt lat="47.22904" lon="-0.04659">
        <ele>57</ele>
        <time>2013-02-04T09:53:33.001Z</time>
      </trkpt>
      <trkpt lat="47.22903" lon="-0.04659">
        <ele>56</ele>
        <time>2013-02-04T09:53:34.001Z</time>
      </trkpt>
      <trkpt lat="47.22898" lon="-0.04659">
        <ele>56</ele>
        <time>2013-02-04T09:53:37.001Z</time>
      </trkpt>
      <trkpt lat="47.22897" lon="-0.0466">
        <ele>56</ele>
        <time>2013-02-04T09:53:38.001Z</time>
      </trkpt>
      <trkpt lat="47.22893" lon="-0.0466">
        <ele>56</ele>
        <time>2013-02-04T09:53:43.001Z</time>
      </trkpt>
      <trkpt lat="47.22891" lon="-0.0466">
        <ele>56</ele>
        <time>2013-02-04T09:53:44.001Z</time>
      </trkpt>
      <trkpt lat="47.22888" lon="-0.04659">
        <ele>56</ele>
        <time>2013-02-04T09:53:46.001Z</time>
      </trkpt>
      <trkpt lat="47.22886" lon="-0.04659">
        <ele>56</ele>
        <time>2013-02-04T09:53:47.001Z</time>
      </trkpt>
      <trkpt lat="47.22883" lon="-0.0466">
        <ele>55</ele>
        <time>2013-02-04T09:53:51.001Z</time>
      </trkpt>
      <trkpt lat="47.22882" lon="-0.0466">
        <ele>55</ele>
        <time>2013-02-04T09:53:52.001Z</time>
      </trkpt>
      <trkpt lat="47.22877" lon="-0.0466">
        <ele>55</ele>
        <time>2013-02-04T09:53:55.001Z</time>
      </trkpt>
      <trkpt lat="47.22877" lon="-0.0466">
        <ele>55</ele>
        <time>2013-02-04T09:53:56.001Z</time>
      </trkpt>
      <trkpt lat="47.22872" lon="-0.04661">
        <ele>55</ele>
        <time>2013-02-04T09:54:11.001Z</time>
      </trkpt>
      <trkpt lat="47.22871" lon="-0.0466">
        <ele>55</ele>
        <time>2013-02-04T09:54:12.001Z</time>
      </trkpt>
      <trkpt lat="47.22867" lon="-0.04661">
        <ele>55</ele>
        <time>2013-02-04T09:54:15.001Z</time>
      </trkpt>
      <trkpt lat="47.22866" lon="-0.04661">
        <ele>55</ele>
        <time>2013-02-04T09:54:16.001Z</time>
      </trkpt>
      <trkpt lat="47.22862" lon="-0.04663">
        <ele>54</ele>
        <time>2013-02-04T09:54:19.001Z</time>
      </trkpt>
      <trkpt lat="47.22861" lon="-0.04664">
        <ele>54</ele>
        <time>2013-02-04T09:54:20.001Z</time>
      </trkpt>
      <trkpt lat="47.22857" lon="-0.04663">
        <ele>54</ele>
        <time>2013-02-04T09:54:23.001Z</time>
      </trkpt>
      <trkpt lat="47.22856" lon="-0.04663">
        <ele>54</ele>
        <time>2013-02-04T09:54:24.001Z</time>
      </trkpt>
      <trkpt lat="47.22853" lon="-0.04663">
        <ele>54</ele>
        <time>2013-02-04T09:54:27.001Z</time>
      </trkpt>
      <trkpt lat="47.22851" lon="-0.04662">
        <ele>54</ele>
        <time>2013-02-04T09:54:28.001Z</time>
      </trkpt>
      <trkpt lat="47.22848" lon="-0.0466">
        <ele>54</ele>
        <time>2013-02-04T09:54:30.001Z</time>
      </trkpt>
      <trkpt lat="47.22847" lon="-0.0466">
        <ele>54</ele>
        <time>2013-02-04T09:54:31.001Z</time>
      </trkpt>
      <trkpt lat="47.22843" lon="-0.04659">
        <ele>54</ele>
        <time>2013-02-04T09:54:34.001Z</time>
      </trkpt>
      <trkpt lat="47.22842" lon="-0.04658">
        <ele>54</ele>
        <time>2013-02-04T09:54:35.001Z</time>
      </trkpt>
      <trkpt lat="47.22838" lon="-0.04657">
        <ele>54</ele>
        <time>2013-02-04T09:54:39.001Z</time>
      </trkpt>
      <trkpt lat="47.22836" lon="-0.04657">
        <ele>54</ele>
        <time>2013-02-04T09:54:40.001Z</time>
      </trkpt>
      <trkpt lat="47.22833" lon="-0.04655">
        <ele>52</ele>
        <time>2013-02-04T09:54:44.001Z</time>
      </trkpt>
      <trkpt lat="47.22832" lon="-0.04654">
        <ele>52</ele>
        <time>2013-02-04T09:54:45.001Z</time>
      </trkpt>
      <trkpt lat="47.22829" lon="-0.04652">
        <ele>52</ele>
        <time>2013-02-04T09:54:50.001Z</time>
      </trkpt>
      <trkpt lat="47.22827" lon="-0.04652">
        <ele>52</ele>
        <time>2013-02-04T09:54:51.001Z</time>
      </trkpt>
      <trkpt lat="47.22823" lon="-0.0465">
        <ele>52</ele>
        <time>2013-02-04T09:54:55.001Z</time>
      </trkpt>
      <trkpt lat="47.22822" lon="-0.04649">
        <ele>52</ele>
        <time>2013-02-04T09:54:56.001Z</time>
      </trkpt>
      <trkpt lat="47.22819" lon="-0.04645">
        <ele>52</ele>
        <time>2013-02-04T09:55:02.001Z</time>
      </trkpt>
      <trkpt lat="47.22817" lon="-0.04645">
        <ele>52</ele>
        <time>2013-02-04T09:55:03.001Z</time>
      </trkpt>
      <trkpt lat="47.22813" lon="-0.04643">
        <ele>52</ele>
        <time>2013-02-04T09:55:05.001Z</time>
      </trkpt>
      <trkpt lat="47.22813" lon="-0.04642">
        <ele>52</ele>
        <time>2013-02-04T09:55:06.001Z</time>
      </trkpt>
      <trkpt lat="47.22809" lon="-0.04641">
        <ele>52</ele>
        <time>2013-02-04T09:55:09.001Z</time>
      </trkpt>
      <trkpt lat="47.22807" lon="-0.0464">
        <ele>52</ele>
        <time>2013-02-04T09:55:10.001Z</time>
      </trkpt>
      <trkpt lat="47.22804" lon="-0.04639">
        <ele>52</ele>
        <time>2013-02-04T09:55:13.001Z</time>
      </trkpt>
      <trkpt lat="47.22802" lon="-0.04639">
        <ele>51</ele>
        <time>2013-02-04T09:55:14.001Z</time>
      </trkpt>
      <trkpt lat="47.22799" lon="-0.04637">
        <ele>51</ele>
        <time>2013-02-04T09:55:18.001Z</time>
      </trkpt>
      <trkpt lat="47.22797" lon="-0.04636">
        <ele>51</ele>
        <time>2013-02-04T09:55:19.001Z</time>
      </trkpt>
      <trkpt lat="47.22793" lon="-0.04633">
        <ele>51</ele>
        <time>2013-02-04T09:55:23.001Z</time>
      </trkpt>
      <trkpt lat="47.22792" lon="-0.04632">
        <ele>51</ele>
        <time>2013-02-04T09:55:24.001Z</time>
      </trkpt>
      <trkpt lat="47.22789" lon="-0.0463">
        <ele>51</ele>
        <time>2013-02-04T09:55:27.001Z</time>
      </trkpt>
      <trkpt lat="47.22788" lon="-0.04629">
        <ele>51</ele>
        <time>2013-02-04T09:55:28.001Z</time>
      </trkpt>
      <trkpt lat="47.22783" lon="-0.04628">
        <ele>51</ele>
        <time>2013-02-04T09:55:31.001Z</time>
      </trkpt>
      <trkpt lat="47.22782" lon="-0.04628">
        <ele>51</ele>
        <time>2013-02-04T09:55:32.001Z</time>
      </trkpt>
      <trkpt lat="47.22778" lon="-0.04626">
        <ele>51</ele>
        <time>2013-02-04T09:55:36.001Z</time>
      </trkpt>
      <trkpt lat="47.22776" lon="-0.04625">
        <ele>51</ele>
        <time>2013-02-04T09:55:37.001Z</time>
      </trkpt>
      <trkpt lat="47.22772" lon="-0.04624">
        <ele>51</ele>
        <time>2013-02-04T09:55:39.001Z</time>
      </trkpt>
      <trkpt lat="47.2277" lon="-0.04623">
        <ele>51</ele>
        <time>2013-02-04T09:55:40.001Z</time>
      </trkpt>
      <trkpt lat="47.22768" lon="-0.04622">
        <ele>51</ele>
        <time>2013-02-04T09:55:41.001Z</time>
      </trkpt>
      <trkpt lat="47.22765" lon="-0.04622">
        <ele>51</ele>
        <time>2013-02-04T09:55:42.001Z</time>
      </trkpt>
      <trkpt lat="47.22762" lon="-0.04622">
        <ele>51</ele>
        <time>2013-02-04T09:55:45.001Z</time>
      </trkpt>
      <trkpt lat="47.2276" lon="-0.04622">
        <ele>51</ele>
        <time>2013-02-04T09:55:46.001Z</time>
      </trkpt>
      <trkpt lat="47.22756" lon="-0.04621">
        <ele>51</ele>
        <time>2013-02-04T09:55:49.001Z</time>
      </trkpt>
      <trkpt lat="47.22754" lon="-0.04621">
        <ele>51</ele>
        <time>2013-02-04T09:55:50.001Z</time>
      </trkpt>
      <trkpt lat="47.22751" lon="-0.04619">
        <ele>51</ele>
        <time>2013-02-04T09:55:53.001Z</time>
      </trkpt>
      <trkpt lat="47.22749" lon="-0.04619">
        <ele>50</ele>
        <time>2013-02-04T09:55:54.001Z</time>
      </trkpt>
      <trkpt lat="47.22746" lon="-0.04617">
        <ele>50</ele>
        <time>2013-02-04T09:55:56.001Z</time>
      </trkpt>
      <trkpt lat="47.22745" lon="-0.04617">
        <ele>50</ele>
        <time>2013-02-04T09:55:57.001Z</time>
      </trkpt>
      <trkpt lat="47.22742" lon="-0.04614">
        <ele>50</ele>
        <time>2013-02-04T09:56:00.001Z</time>
      </trkpt>
      <trkpt lat="47.22741" lon="-0.04614">
        <ele>50</ele>
        <time>2013-02-04T09:56:01.001Z</time>
      </trkpt>
      <trkpt lat="47.22737" lon="-0.04612">
        <ele>50</ele>
        <time>2013-02-04T09:56:06.001Z</time>
      </trkpt>
      <trkpt lat="47.22736" lon="-0.04612">
        <ele>50</ele>
        <time>2013-02-04T09:56:07.001Z</time>
      </trkpt>
      <trkpt lat="47.22732" lon="-0.0461">
        <ele>50</ele>
        <time>2013-02-04T09:56:11.001Z</time>
      </trkpt>
      <trkpt lat="47.22731" lon="-0.0461">
        <ele>50</ele>
        <time>2013-02-04T09:56:12.001Z</time>
      </trkpt>
      <trkpt lat="47.22727" lon="-0.04607">
        <ele>50</ele>
        <time>2013-02-04T09:56:15.001Z</time>
      </trkpt>
      <trkpt lat="47.22726" lon="-0.04606">
        <ele>50</ele>
        <time>2013-02-04T09:56:16.001Z</time>
      </trkpt>
      <trkpt lat="47.22722" lon="-0.04604">
        <ele>50</ele>
        <time>2013-02-04T09:56:19.001Z</time>
      </trkpt>
      <trkpt lat="47.22721" lon="-0.04604">
        <ele>50</ele>
        <time>2013-02-04T09:56:20.001Z</time>
      </trkpt>
      <trkpt lat="47.22717" lon="-0.04603">
        <ele>50</ele>
        <time>2013-02-04T09:56:24.001Z</time>
      </trkpt>
      <trkpt lat="47.22716" lon="-0.04603">
        <ele>50</ele>
        <time>2013-02-04T09:56:25.001Z</time>
      </trkpt>
      <trkpt lat="47.22712" lon="-0.04604">
        <ele>50</ele>
        <time>2013-02-04T09:56:28.001Z</time>
      </trkpt>
      <trkpt lat="47.22711" lon="-0.04604">
        <ele>50</ele>
        <time>2013-02-04T09:56:29.001Z</time>
      </trkpt>
      <trkpt lat="47.22707" lon="-0.04603">
        <ele>50</ele>
        <time>2013-02-04T09:56:33.001Z</time>
      </trkpt>
      <trkpt lat="47.22706" lon="-0.04603">
        <ele>50</ele>
        <time>2013-02-04T09:56:34.001Z</time>
      </trkpt>
      <trkpt lat="47.22702" lon="-0.04602">
        <ele>50</ele>
        <time>2013-02-04T09:56:38.001Z</time>
      </trkpt>
      <trkpt lat="47.22701" lon="-0.04602">
        <ele>50</ele>
        <time>2013-02-04T09:56:39.001Z</time>
      </trkpt>
      <trkpt lat="47.22698" lon="-0.04599">
        <ele>50</ele>
        <time>2013-02-04T09:56:43.001Z</time>
      </trkpt>
      <trkpt lat="47.22697" lon="-0.04597">
        <ele>50</ele>
        <time>2013-02-04T09:56:44.001Z</time>
      </trkpt>
      <trkpt lat="47.22695" lon="-0.04594">
        <ele>50</ele>
        <time>2013-02-04T09:56:47.001Z</time>
      </trkpt>
      <trkpt lat="47.22693" lon="-0.04593">
        <ele>50</ele>
        <time>2013-02-04T09:56:48.001Z</time>
      </trkpt>
      <trkpt lat="47.2269" lon="-0.04589">
        <ele>50</ele>
        <time>2013-02-04T09:56:51.001Z</time>
      </trkpt>
      <trkpt lat="47.2269" lon="-0.04587">
        <ele>50</ele>
        <time>2013-02-04T09:56:52.001Z</time>
      </trkpt>
      <trkpt lat="47.22693" lon="-0.04583">
        <ele>50</ele>
        <time>2013-02-04T09:56:55.001Z</time>
      </trkpt>
      <trkpt lat="47.22693" lon="-0.04582">
        <ele>50</ele>
        <time>2013-02-04T09:56:56.001Z</time>
      </trkpt>
      <trkpt lat="47.22693" lon="-0.04576">
        <ele>50</ele>
        <time>2013-02-04T09:56:59.001Z</time>
      </trkpt>
      <trkpt lat="47.22694" lon="-0.04573">
        <ele>50</ele>
        <time>2013-02-04T09:57:00.001Z</time>
      </trkpt>
      <trkpt lat="47.22696" lon="-0.04568">
        <ele>50</ele>
        <time>2013-02-04T09:57:02.001Z</time>
      </trkpt>
      <trkpt lat="47.22696" lon="-0.04566">
        <ele>50</ele>
        <time>2013-02-04T09:57:03.001Z</time>
      </trkpt>
      <trkpt lat="47.22698" lon="-0.04561">
        <ele>50</ele>
        <time>2013-02-04T09:57:07.001Z</time>
      </trkpt>
      <trkpt lat="47.22699" lon="-0.04559">
        <ele>50</ele>
        <time>2013-02-04T09:57:08.001Z</time>
      </trkpt>
      <trkpt lat="47.22702" lon="-0.04555">
        <ele>50</ele>
        <time>2013-02-04T09:57:13.001Z</time>
      </trkpt>
      <trkpt lat="47.22703" lon="-0.04553">
        <ele>50</ele>
        <time>2013-02-04T09:57:14.001Z</time>
      </trkpt>
      <trkpt lat="47.22705" lon="-0.04547">
        <ele>50</ele>
        <time>2013-02-04T09:57:19.001Z</time>
      </trkpt>
      <trkpt lat="47.22705" lon="-0.04547">
        <ele>50</ele>
        <time>2013-02-04T09:57:20.001Z</time>
      </trkpt>
      <trkpt lat="47.22707" lon="-0.04541">
        <ele>51</ele>
        <time>2013-02-04T09:57:23.001Z</time>
      </trkpt>
      <trkpt lat="47.22709" lon="-0.04538">
        <ele>51</ele>
        <time>2013-02-04T09:57:24.001Z</time>
      </trkpt>
      <trkpt lat="47.22711" lon="-0.04533">
        <ele>51</ele>
        <time>2013-02-04T09:57:27.001Z</time>
      </trkpt>
      <trkpt lat="47.22711" lon="-0.04532">
        <ele>51</ele>
        <time>2013-02-04T09:57:28.001Z</time>
      </trkpt>
      <trkpt lat="47.22713" lon="-0.04527">
        <ele>51</ele>
        <time>2013-02-04T09:57:32.001Z</time>
      </trkpt>
      <trkpt lat="47.22714" lon="-0.04526">
        <ele>51</ele>
        <time>2013-02-04T09:57:33.001Z</time>
      </trkpt>
      <trkpt lat="47.22716" lon="-0.04521">
        <ele>51</ele>
        <time>2013-02-04T09:57:36.001Z</time>
      </trkpt>
      <trkpt lat="47.22716" lon="-0.04518">
        <ele>51</ele>
        <time>2013-02-04T09:57:37.001Z</time>
      </trkpt>
      <trkpt lat="47.22717" lon="-0.04513">
        <ele>51</ele>
        <time>2013-02-04T09:57:40.001Z</time>
      </trkpt>
      <trkpt lat="47.22718" lon="-0.04511">
        <ele>51</ele>
        <time>2013-02-04T09:57:41.001Z</time>
      </trkpt>
      <trkpt lat="47.2272" lon="-0.04507">
        <ele>51</ele>
        <time>2013-02-04T09:57:43.001Z</time>
      </trkpt>
      <trkpt lat="47.2272" lon="-0.04505">
        <ele>51</ele>
        <time>2013-02-04T09:57:44.001Z</time>
      </trkpt>
      <trkpt lat="47.22722" lon="-0.04501">
        <ele>51</ele>
        <time>2013-02-04T09:57:47.001Z</time>
      </trkpt>
      <trkpt lat="47.22723" lon="-0.04499">
        <ele>52</ele>
        <time>2013-02-04T09:57:48.001Z</time>
      </trkpt>
      <trkpt lat="47.22726" lon="-0.04495">
        <ele>52</ele>
        <time>2013-02-04T09:57:52.001Z</time>
      </trkpt>
      <trkpt lat="47.22726" lon="-0.04494">
        <ele>52</ele>
        <time>2013-02-04T09:57:53.001Z</time>
      </trkpt>
      <trkpt lat="47.22729" lon="-0.0449">
        <ele>52</ele>
        <time>2013-02-04T09:57:57.001Z</time>
      </trkpt>
      <trkpt lat="47.2273" lon="-0.04489">
        <ele>52</ele>
        <time>2013-02-04T09:57:58.001Z</time>
      </trkpt>
      <trkpt lat="47.22732" lon="-0.04484">
        <ele>52</ele>
        <time>2013-02-04T09:58:03.001Z</time>
      </trkpt>
      <trkpt lat="47.22732" lon="-0.04481">
        <ele>52</ele>
        <time>2013-02-04T09:58:04.001Z</time>
      </trkpt>
      <trkpt lat="47.22733" lon="-0.04476">
        <ele>52</ele>
        <time>2013-02-04T09:58:06.001Z</time>
      </trkpt>
      <trkpt lat="47.22733" lon="-0.04475">
        <ele>52</ele>
        <time>2013-02-04T09:58:07.001Z</time>
      </trkpt>
      <trkpt lat="47.2273" lon="-0.04472">
        <ele>52</ele>
        <time>2013-02-04T09:58:17.001Z</time>
      </trkpt>
      <trkpt lat="47.22729" lon="-0.04471">
        <ele>52</ele>
        <time>2013-02-04T09:58:18.001Z</time>
      </trkpt>
      <trkpt lat="47.22728" lon="-0.04466">
        <ele>52</ele>
        <time>2013-02-04T09:58:21.001Z</time>
      </trkpt>
      <trkpt lat="47.22727" lon="-0.04465">
        <ele>52</ele>
        <time>2013-02-04T09:58:22.001Z</time>
      </trkpt>
      <trkpt lat="47.22725" lon="-0.04461">
        <ele>52</ele>
        <time>2013-02-04T09:58:25.001Z</time>
      </trkpt>
      <trkpt lat="47.22724" lon="-0.04459">
        <ele>52</ele>
        <time>2013-02-04T09:58:26.001Z</time>
      </trkpt>
      <trkpt lat="47.22722" lon="-0.04454">
        <ele>53</ele>
        <time>2013-02-04T09:58:30.001Z</time>
      </trkpt>
      <trkpt lat="47.22722" lon="-0.04452">
        <ele>53</ele>
        <time>2013-02-04T09:58:31.001Z</time>
      </trkpt>
      <trkpt lat="47.2272" lon="-0.04447">
        <ele>53</ele>
        <time>2013-02-04T09:58:35.001Z</time>
      </trkpt>
      <trkpt lat="47.22719" lon="-0.04445">
        <ele>53</ele>
        <time>2013-02-04T09:58:36.001Z</time>
      </trkpt>
      <trkpt lat="47.22717" lon="-0.0444">
        <ele>53</ele>
        <time>2013-02-04T09:58:39.001Z</time>
      </trkpt>
      <trkpt lat="47.22716" lon="-0.04439">
        <ele>53</ele>
        <time>2013-02-04T09:58:40.001Z</time>
      </trkpt>
      <trkpt lat="47.22713" lon="-0.04436">
        <ele>53</ele>
        <time>2013-02-04T09:58:42.001Z</time>
      </trkpt>
      <trkpt lat="47.22712" lon="-0.04435">
        <ele>53</ele>
        <time>2013-02-04T09:58:43.001Z</time>
      </trkpt>
      <trkpt lat="47.2271" lon="-0.0443">
        <ele>53</ele>
        <time>2013-02-04T09:58:47.001Z</time>
      </trkpt>
      <trkpt lat="47.22709" lon="-0.04428">
        <ele>53</ele>
        <time>2013-02-04T09:58:48.001Z</time>
      </trkpt>
      <trkpt lat="47.22707" lon="-0.04424">
        <ele>53</ele>
        <time>2013-02-04T09:58:51.001Z</time>
      </trkpt>
      <trkpt lat="47.22707" lon="-0.04422">
        <ele>53</ele>
        <time>2013-02-04T09:58:52.001Z</time>
      </trkpt>
      <trkpt lat="47.22704" lon="-0.04417">
        <ele>53</ele>
        <time>2013-02-04T09:58:55.001Z</time>
      </trkpt>
      <trkpt lat="47.22703" lon="-0.04415">
        <ele>56</ele>
        <time>2013-02-04T09:58:56.001Z</time>
      </trkpt>
      <trkpt lat="47.22699" lon="-0.04411">
        <ele>56</ele>
        <time>2013-02-04T09:58:59.001Z</time>
      </trkpt>
      <trkpt lat="47.22697" lon="-0.0441">
        <ele>56</ele>
        <time>2013-02-04T09:59:00.001Z</time>
      </trkpt>
      <trkpt lat="47.22694" lon="-0.04406">
        <ele>56</ele>
        <time>2013-02-04T09:59:02.001Z</time>
      </trkpt>
      <trkpt lat="47.22693" lon="-0.04405">
        <ele>56</ele>
        <time>2013-02-04T09:59:03.001Z</time>
      </trkpt>
      <trkpt lat="47.2269" lon="-0.04401">
        <ele>56</ele>
        <time>2013-02-04T09:59:07.001Z</time>
      </trkpt>
      <trkpt lat="47.22689" lon="-0.044">
        <ele>56</ele>
        <time>2013-02-04T09:59:08.001Z</time>
      </trkpt>
      <trkpt lat="47.22686" lon="-0.04395">
        <ele>56</ele>
        <time>2013-02-04T09:59:11.001Z</time>
      </trkpt>
      <trkpt lat="47.22686" lon="-0.04394">
        <ele>56</ele>
        <time>2013-02-04T09:59:12.001Z</time>
      </trkpt>
      <trkpt lat="47.22685" lon="-0.04389">
        <ele>56</ele>
        <time>2013-02-04T09:59:15.001Z</time>
      </trkpt>
      <trkpt lat="47.22685" lon="-0.04387">
        <ele>56</ele>
        <time>2013-02-04T09:59:16.001Z</time>
      </trkpt>
      <trkpt lat="47.22683" lon="-0.04383">
        <ele>56</ele>
        <time>2013-02-04T09:59:20.001Z</time>
      </trkpt>
      <trkpt lat="47.22682" lon="-0.04382">
        <ele>56</ele>
        <time>2013-02-04T09:59:21.001Z</time>
      </trkpt>
      <trkpt lat="47.22679" lon="-0.04376">
        <ele>56</ele>
        <time>2013-02-04T09:59:24.001Z</time>
      </trkpt>
      <trkpt lat="47.22678" lon="-0.04376">
        <ele>56</ele>
        <time>2013-02-04T09:59:25.001Z</time>
      </trkpt>
      <trkpt lat="47.22675" lon="-0.04373">
        <ele>57</ele>
        <time>2013-02-04T09:59:28.001Z</time>
      </trkpt>
      <trkpt lat="47.22674" lon="-0.04372">
        <ele>57</ele>
        <time>2013-02-04T09:59:29.001Z</time>
      </trkpt>
      <trkpt lat="47.22671" lon="-0.04367">
        <ele>57</ele>
        <time>2013-02-04T09:59:34.001Z</time>
      </trkpt>
      <trkpt lat="47.2267" lon="-0.04367">
        <ele>57</ele>
        <time>2013-02-04T09:59:35.001Z</time>
      </trkpt>
      <trkpt lat="47.22667" lon="-0.04363">
        <ele>57</ele>
        <time>2013-02-04T09:59:40.001Z</time>
      </trkpt>
      <trkpt lat="47.22665" lon="-0.04362">
        <ele>57</ele>
        <time>2013-02-04T09:59:41.001Z</time>
      </trkpt>
      <trkpt lat="47.22661" lon="-0.0436">
        <ele>57</ele>
        <time>2013-02-04T09:59:45.001Z</time>
      </trkpt>
      <trkpt lat="47.2266" lon="-0.0436">
        <ele>57</ele>
        <time>2013-02-04T09:59:46.001Z</time>
      </trkpt>
      <trkpt lat="47.22656" lon="-0.04358">
        <ele>57</ele>
        <time>2013-02-04T09:59:50.001Z</time>
      </trkpt>
      <trkpt lat="47.22655" lon="-0.04358">
        <ele>57</ele>
        <time>2013-02-04T09:59:51.001Z</time>
      </trkpt>
      <trkpt lat="47.2265" lon="-0.04357">
        <ele>57</ele>
        <time>2013-02-04T09:59:54.001Z</time>
      </trkpt>
      <trkpt lat="47.22649" lon="-0.04357">
        <ele>57</ele>
        <time>2013-02-04T09:59:55.001Z</time>
      </trkpt>
      <trkpt lat="47.22646" lon="-0.04355">
        <ele>57</ele>
        <time>2013-02-04T09:59:59.001Z</time>
      </trkpt>
      <trkpt lat="47.22645" lon="-0.04355">
        <ele>57</ele>
        <time>2013-02-04T10:00:00.001Z</time>
      </trkpt>
      <trkpt lat="47.22641" lon="-0.0435">
        <ele>57</ele>
        <time>2013-02-04T10:00:04.001Z</time>
      </trkpt>
      <trkpt lat="47.2264" lon="-0.04349">
        <ele>57</ele>
        <time>2013-02-04T10:00:05.001Z</time>
      </trkpt>
      <trkpt lat="47.22637" lon="-0.04346">
        <ele>57</ele>
        <time>2013-02-04T10:00:09.001Z</time>
      </trkpt>
      <trkpt lat="47.22636" lon="-0.04345">
        <ele>57</ele>
        <time>2013-02-04T10:00:10.001Z</time>
      </trkpt>
      <trkpt lat="47.22632" lon="-0.04341">
        <ele>57</ele>
        <time>2013-02-04T10:00:14.001Z</time>
      </trkpt>
      <trkpt lat="47.22631" lon="-0.04339">
        <ele>57</ele>
        <time>2013-02-04T10:00:15.001Z</time>
      </trkpt>
      <trkpt lat="47.22627" lon="-0.04335">
        <ele>57</ele>
        <time>2013-02-04T10:00:23.001Z</time>
      </trkpt>
      <trkpt lat="47.22627" lon="-0.04335">
        <ele>57</ele>
        <time>2013-02-04T10:00:24.001Z</time>
      </trkpt>
      <trkpt lat="47.22624" lon="-0.04332">
        <ele>61</ele>
        <time>2013-02-04T10:00:27.001Z</time>
      </trkpt>
      <trkpt lat="47.22622" lon="-0.04331">
        <ele>61</ele>
        <time>2013-02-04T10:00:28.001Z</time>
      </trkpt>
      <trkpt lat="47.22619" lon="-0.0433">
        <ele>61</ele>
        <time>2013-02-04T10:00:30.001Z</time>
      </trkpt>
      <trkpt lat="47.22617" lon="-0.0433">
        <ele>61</ele>
        <time>2013-02-04T10:00:31.001Z</time>
      </trkpt>
      <trkpt lat="47.22613" lon="-0.04329">
        <ele>61</ele>
        <time>2013-02-04T10:00:35.001Z</time>
      </trkpt>
      <trkpt lat="47.22612" lon="-0.04329">
        <ele>61</ele>
        <time>2013-02-04T10:00:36.001Z</time>
      </trkpt>
      <trkpt lat="47.22608" lon="-0.04325">
        <ele>61</ele>
        <time>2013-02-04T10:00:40.001Z</time>
      </trkpt>
      <trkpt lat="47.22607" lon="-0.04324">
        <ele>61</ele>
        <time>2013-02-04T10:00:41.001Z</time>
      </trkpt>
      <trkpt lat="47.22604" lon="-0.04321">
        <ele>61</ele>
        <time>2013-02-04T10:00:44.001Z</time>
      </trkpt>
      <trkpt lat="47.22603" lon="-0.0432">
        <ele>61</ele>
        <time>2013-02-04T10:00:45.001Z</time>
      </trkpt>
      <trkpt lat="47.22601" lon="-0.04315">
        <ele>61</ele>
        <time>2013-02-04T10:00:53.001Z</time>
      </trkpt>
      <trkpt lat="47.22601" lon="-0.04314">
        <ele>61</ele>
        <time>2013-02-04T10:00:54.001Z</time>
      </trkpt>
      <trkpt lat="47.226" lon="-0.04308">
        <ele>61</ele>
        <time>2013-02-04T10:00:58.001Z</time>
      </trkpt>
      <trkpt lat="47.22599" lon="-0.04307">
        <ele>61</ele>
        <time>2013-02-04T10:00:59.001Z</time>
      </trkpt>
      <trkpt lat="47.22596" lon="-0.04303">
        <ele>62</ele>
        <time>2013-02-04T10:01:02.001Z</time>
      </trkpt>
      <trkpt lat="47.22595" lon="-0.04301">
        <ele>62</ele>
        <time>2013-02-04T10:01:03.001Z</time>
      </trkpt>
      <trkpt lat="47.22592" lon="-0.04298">
        <ele>62</ele>
        <time>2013-02-04T10:01:04.001Z</time>
      </trkpt>
      <trkpt lat="47.22589" lon="-0.04297">
        <ele>62</ele>
        <time>2013-02-04T10:01:05.001Z</time>
      </trkpt>
      <trkpt lat="47.22586" lon="-0.04296">
        <ele>62</ele>
        <time>2013-02-04T10:01:06.001Z</time>
      </trkpt>
      <trkpt lat="47.22584" lon="-0.04295">
        <ele>62</ele>
        <time>2013-02-04T10:01:07.001Z</time>
      </trkpt>
      <trkpt lat="47.2258" lon="-0.04294">
        <ele>60</ele>
        <time>2013-02-04T10:01:09.001Z</time>
      </trkpt>
      <trkpt lat="47.22578" lon="-0.04294">
        <ele>60</ele>
        <time>2013-02-04T10:01:10.001Z</time>
      </trkpt>
      <trkpt lat="47.22575" lon="-0.04294">
        <ele>60</ele>
        <time>2013-02-04T10:01:15.001Z</time>
      </trkpt>
      <trkpt lat="47.22573" lon="-0.04293">
        <ele>60</ele>
        <time>2013-02-04T10:01:16.001Z</time>
      </trkpt>
      <trkpt lat="47.2257" lon="-0.04295">
        <ele>60</ele>
        <time>2013-02-04T10:01:18.001Z</time>
      </trkpt>
      <trkpt lat="47.22568" lon="-0.04295">
        <ele>59</ele>
        <time>2013-02-04T10:01:19.001Z</time>
      </trkpt>
      <trkpt lat="47.22564" lon="-0.04297">
        <ele>59</ele>
        <time>2013-02-04T10:01:22.001Z</time>
      </trkpt>
      <trkpt lat="47.22563" lon="-0.04297">
        <ele>59</ele>
        <time>2013-02-04T10:01:23.001Z</time>
      </trkpt>
      <trkpt lat="47.22559" lon="-0.04296">
        <ele>59</ele>
        <time>2013-02-04T10:01:30.001Z</time>
      </trkpt>
      <trkpt lat="47.22558" lon="-0.04296">
        <ele>59</ele>
        <time>2013-02-04T10:01:31.001Z</time>
      </trkpt>
      <trkpt lat="47.22554" lon="-0.04295">
        <ele>59</ele>
        <time>2013-02-04T10:01:35.001Z</time>
      </trkpt>
      <trkpt lat="47.22552" lon="-0.04296">
        <ele>59</ele>
        <time>2013-02-04T10:01:36.001Z</time>
      </trkpt>
      <trkpt lat="47.22549" lon="-0.04296">
        <ele>59</ele>
        <time>2013-02-04T10:01:38.001Z</time>
      </trkpt>
      <trkpt lat="47.22548" lon="-0.04297">
        <ele>59</ele>
        <time>2013-02-04T10:01:39.001Z</time>
      </trkpt>
      <trkpt lat="47.22544" lon="-0.04297">
        <ele>59</ele>
        <time>2013-02-04T10:01:42.001Z</time>
      </trkpt>
      <trkpt lat="47.22542" lon="-0.04298">
        <ele>59</ele>
        <time>2013-02-04T10:01:43.001Z</time>
      </trkpt>
      <trkpt lat="47.22537" lon="-0.04298">
        <ele>58</ele>
        <time>2013-02-04T10:01:46.001Z</time>
      </trkpt>
      <trkpt lat="47.22536" lon="-0.04298">
        <ele>58</ele>
        <time>2013-02-04T10:01:47.001Z</time>
      </trkpt>
      <trkpt lat="47.22532" lon="-0.04297">
        <ele>58</ele>
        <time>2013-02-04T10:01:49.001Z</time>
      </trkpt>
      <trkpt lat="47.22531" lon="-0.04297">
        <ele>58</ele>
        <time>2013-02-04T10:01:50.001Z</time>
      </trkpt>
      <trkpt lat="47.22527" lon="-0.04296">
        <ele>58</ele>
        <time>2013-02-04T10:01:53.001Z</time>
      </trkpt>
      <trkpt lat="47.22526" lon="-0.04295">
        <ele>58</ele>
        <time>2013-02-04T10:01:54.001Z</time>
      </trkpt>
      <trkpt lat="47.22522" lon="-0.04295">
        <ele>58</ele>
        <time>2013-02-04T10:01:57.001Z</time>
      </trkpt>
      <trkpt lat="47.22521" lon="-0.04295">
        <ele>58</ele>
        <time>2013-02-04T10:01:58.001Z</time>
      </trkpt>
      <trkpt lat="47.22517" lon="-0.04296">
        <ele>58</ele>
        <time>2013-02-04T10:02:01.001Z</time>
      </trkpt>
      <trkpt lat="47.22517" lon="-0.04296">
        <ele>58</ele>
        <time>2013-02-04T10:02:02.001Z</time>
      </trkpt>
      <trkpt lat="47.22512" lon="-0.04296">
        <ele>58</ele>
        <time>2013-02-04T10:02:06.001Z</time>
      </trkpt>
      <trkpt lat="47.22512" lon="-0.04296">
        <ele>58</ele>
        <time>2013-02-04T10:02:07.001Z</time>
      </trkpt>
      <trkpt lat="47.22507" lon="-0.04296">
        <ele>58</ele>
        <time>2013-02-04T10:02:11.001Z</time>
      </trkpt>
      <trkpt lat="47.22506" lon="-0.04295">
        <ele>58</ele>
        <time>2013-02-04T10:02:12.001Z</time>
      </trkpt>
      <trkpt lat="47.22503" lon="-0.04296">
        <ele>57</ele>
        <time>2013-02-04T10:02:15.001Z</time>
      </trkpt>
      <trkpt lat="47.22502" lon="-0.04296">
        <ele>57</ele>
        <time>2013-02-04T10:02:16.001Z</time>
      </trkpt>
      <trkpt lat="47.22499" lon="-0.04295">
        <ele>54</ele>
        <time>2013-02-04T10:02:18.001Z</time>
      </trkpt>
      <trkpt lat="47.22497" lon="-0.04295">
        <ele>54</ele>
        <time>2013-02-04T10:02:19.001Z</time>
      </trkpt>
      <trkpt lat="47.22493" lon="-0.04296">
        <ele>54</ele>
        <time>2013-02-04T10:02:22.001Z</time>
      </trkpt>
      <trkpt lat="47.22492" lon="-0.04295">
        <ele>54</ele>
        <time>2013-02-04T10:02:23.001Z</time>
      </trkpt>
      <trkpt lat="47.22488" lon="-0.04296">
        <ele>54</ele>
        <time>2013-02-04T10:02:28.001Z</time>
      </trkpt>
      <trkpt lat="47.22486" lon="-0.04296">
        <ele>54</ele>
        <time>2013-02-04T10:02:29.001Z</time>
      </trkpt>
      <trkpt lat="47.22482" lon="-0.04295">
        <ele>54</ele>
        <time>2013-02-04T10:02:34.001Z</time>
      </trkpt>
      <trkpt lat="47.22482" lon="-0.04295">
        <ele>54</ele>
        <time>2013-02-04T10:02:35.001Z</time>
      </trkpt>
      <trkpt lat="47.22478" lon="-0.04294">
        <ele>54</ele>
        <time>2013-02-04T10:02:39.001Z</time>
      </trkpt>
      <trkpt lat="47.22476" lon="-0.04294">
        <ele>54</ele>
        <time>2013-02-04T10:02:40.001Z</time>
      </trkpt>
      <trkpt lat="47.22472" lon="-0.04295">
        <ele>54</ele>
        <time>2013-02-04T10:02:44.001Z</time>
      </trkpt>
      <trkpt lat="47.22472" lon="-0.04295">
        <ele>54</ele>
        <time>2013-02-04T10:02:45.001Z</time>
      </trkpt>
      <trkpt lat="47.22468" lon="-0.04293">
        <ele>54</ele>
        <time>2013-02-04T10:03:10.001Z</time>
      </trkpt>
      <trkpt lat="47.22467" lon="-0.04292">
        <ele>54</ele>
        <time>2013-02-04T10:03:11.001Z</time>
      </trkpt>
      <trkpt lat="47.22467" lon="-0.04298">
        <ele>54</ele>
        <time>2013-02-04T10:04:24.001Z</time>
      </trkpt>
      <trkpt lat="47.22467" lon="-0.04298">
        <ele>54</ele>
        <time>2013-02-04T10:04:25.001Z</time>
      </trkpt>
      <trkpt lat="47.22463" lon="-0.04296">
        <ele>54</ele>
        <time>2013-02-04T10:04:56.001Z</time>
      </trkpt>
      <trkpt lat="47.22463" lon="-0.04295">
        <ele>54</ele>
        <time>2013-02-04T10:04:57.001Z</time>
      </trkpt>
      <trkpt lat="47.22459" lon="-0.04292">
        <ele>54</ele>
        <time>2013-02-04T10:05:16.001Z</time>
      </trkpt>
      <trkpt lat="47.22459" lon="-0.04289">
        <ele>54</ele>
        <time>2013-02-04T10:05:17.001Z</time>
      </trkpt>
      <trkpt lat="47.22458" lon="-0.04283">
        <ele>54</ele>
        <time>2013-02-04T10:05:20.001Z</time>
      </trkpt>
      <trkpt lat="47.22458" lon="-0.04281">
        <ele>54</ele>
        <time>2013-02-04T10:05:21.001Z</time>
      </trkpt>
      <trkpt lat="47.22458" lon="-0.04276">
        <ele>54</ele>
        <time>2013-02-04T10:05:26.001Z</time>
      </trkpt>
      <trkpt lat="47.22458" lon="-0.04274">
        <ele>54</ele>
        <time>2013-02-04T10:05:27.001Z</time>
      </trkpt>
      <trkpt lat="47.22458" lon="-0.04268">
        <ele>54</ele>
        <time>2013-02-04T10:05:31.001Z</time>
      </trkpt>
      <trkpt lat="47.22457" lon="-0.04266">
        <ele>54</ele>
        <time>2013-02-04T10:05:32.001Z</time>
      </trkpt>
      <trkpt lat="47.22457" lon="-0.04261">
        <ele>54</ele>
        <time>2013-02-04T10:05:35.001Z</time>
      </trkpt>
      <trkpt lat="47.22456" lon="-0.04259">
        <ele>54</ele>
        <time>2013-02-04T10:05:36.001Z</time>
      </trkpt>
      <trkpt lat="47.22454" lon="-0.04255">
        <ele>53</ele>
        <time>2013-02-04T10:05:40.001Z</time>
      </trkpt>
      <trkpt lat="47.22454" lon="-0.04253">
        <ele>53</ele>
        <time>2013-02-04T10:05:41.001Z</time>
      </trkpt>
      <trkpt lat="47.22452" lon="-0.04249">
        <ele>55</ele>
        <time>2013-02-04T10:05:43.001Z</time>
      </trkpt>
      <trkpt lat="47.22451" lon="-0.04247">
        <ele>55</ele>
        <time>2013-02-04T10:05:44.001Z</time>
      </trkpt>
      <trkpt lat="47.2245" lon="-0.04241">
        <ele>55</ele>
        <time>2013-02-04T10:05:46.001Z</time>
      </trkpt>
      <trkpt lat="47.22449" lon="-0.04239">
        <ele>55</ele>
        <time>2013-02-04T10:05:47.001Z</time>
      </trkpt>
      <trkpt lat="47.22447" lon="-0.04233">
        <ele>55</ele>
        <time>2013-02-04T10:05:50.001Z</time>
      </trkpt>
      <trkpt lat="47.22447" lon="-0.04231">
        <ele>55</ele>
        <time>2013-02-04T10:05:51.001Z</time>
      </trkpt>
      <trkpt lat="47.22446" lon="-0.04225">
        <ele>55</ele>
        <time>2013-02-04T10:05:55.001Z</time>
      </trkpt>
      <trkpt lat="47.22446" lon="-0.04224">
        <ele>55</ele>
        <time>2013-02-04T10:05:56.001Z</time>
      </trkpt>
      <trkpt lat="47.22445" lon="-0.04218">
        <ele>55</ele>
        <time>2013-02-04T10:06:00.001Z</time>
      </trkpt>
      <trkpt lat="47.22444" lon="-0.04216">
        <ele>55</ele>
        <time>2013-02-04T10:06:01.001Z</time>
      </trkpt>
      <trkpt lat="47.22442" lon="-0.04211">
        <ele>55</ele>
        <time>2013-02-04T10:06:05.001Z</time>
      </trkpt>
      <trkpt lat="47.22442" lon="-0.0421">
        <ele>55</ele>
        <time>2013-02-04T10:06:06.001Z</time>
      </trkpt>
      <trkpt lat="47.22441" lon="-0.04205">
        <ele>56</ele>
        <time>2013-02-04T10:06:09.001Z</time>
      </trkpt>
      <trkpt lat="47.22441" lon="-0.04203">
        <ele>56</ele>
        <time>2013-02-04T10:06:10.001Z</time>
      </trkpt>
      <trkpt lat="47.22441" lon="-0.04197">
        <ele>56</ele>
        <time>2013-02-04T10:06:14.001Z</time>
      </trkpt>
      <trkpt lat="47.2244" lon="-0.04195">
        <ele>56</ele>
        <time>2013-02-04T10:06:15.001Z</time>
      </trkpt>
      <trkpt lat="47.22439" lon="-0.04189">
        <ele>56</ele>
        <time>2013-02-04T10:06:18.001Z</time>
      </trkpt>
      <trkpt lat="47.22439" lon="-0.04187">
        <ele>56</ele>
        <time>2013-02-04T10:06:19.001Z</time>
      </trkpt>
      <trkpt lat="47.22439" lon="-0.04181">
        <ele>56</ele>
        <time>2013-02-04T10:06:25.001Z</time>
      </trkpt>
      <trkpt lat="47.22439" lon="-0.04179">
        <ele>56</ele>
        <time>2013-02-04T10:06:26.001Z</time>
      </trkpt>
      <trkpt lat="47.22439" lon="-0.04177">
        <ele>56</ele>
        <time>2013-02-04T10:06:27.001Z</time>
      </trkpt>
      <trkpt lat="47.22439" lon="-0.04171">
        <ele>56</ele>
        <time>2013-02-04T10:06:28.001Z</time>
      </trkpt>
      <trkpt lat="47.22439" lon="-0.04165">
        <ele>59</ele>
        <time>2013-02-04T10:06:30.001Z</time>
      </trkpt>
      <trkpt lat="47.22439" lon="-0.04163">
        <ele>59</ele>
        <time>2013-02-04T10:06:31.001Z</time>
      </trkpt>
      <trkpt lat="47.2244" lon="-0.04158">
        <ele>60</ele>
        <time>2013-02-04T10:06:36.001Z</time>
      </trkpt>
      <trkpt lat="47.2244" lon="-0.04156">
        <ele>60</ele>
        <time>2013-02-04T10:06:37.001Z</time>
      </trkpt>
      <trkpt lat="47.22441" lon="-0.0415">
        <ele>60</ele>
        <time>2013-02-04T10:06:43.001Z</time>
      </trkpt>
      <trkpt lat="47.22441" lon="-0.04148">
        <ele>60</ele>
        <time>2013-02-04T10:06:44.001Z</time>
      </trkpt>
      <trkpt lat="47.22441" lon="-0.04141">
        <ele>60</ele>
        <time>2013-02-04T10:06:49.001Z</time>
      </trkpt>
      <trkpt lat="47.22441" lon="-0.04141">
        <ele>60</ele>
        <time>2013-02-04T10:06:50.001Z</time>
      </trkpt>
      <trkpt lat="47.22443" lon="-0.04135">
        <ele>61</ele>
        <time>2013-02-04T10:06:54.001Z</time>
      </trkpt>
      <trkpt lat="47.22443" lon="-0.04134">
        <ele>61</ele>
        <time>2013-02-04T10:06:55.001Z</time>
      </trkpt>
      <trkpt lat="47.22444" lon="-0.0413">
        <ele>61</ele>
        <time>2013-02-04T10:06:59.001Z</time>
      </trkpt>
      <trkpt lat="47.22445" lon="-0.04127">
        <ele>61</ele>
        <time>2013-02-04T10:07:00.001Z</time>
      </trkpt>
      <trkpt lat="47.22445" lon="-0.04124">
        <ele>61</ele>
        <time>2013-02-04T10:07:01.001Z</time>
      </trkpt>
      <trkpt lat="47.22446" lon="-0.04121">
        <ele>62</ele>
        <time>2013-02-04T10:07:02.001Z</time>
      </trkpt>
      <trkpt lat="47.22447" lon="-0.04115">
        <ele>62</ele>
        <time>2013-02-04T10:07:05.001Z</time>
      </trkpt>
      <trkpt lat="47.22448" lon="-0.04114">
        <ele>62</ele>
        <time>2013-02-04T10:07:06.001Z</time>
      </trkpt>
      <trkpt lat="47.22448" lon="-0.04109">
        <ele>62</ele>
        <time>2013-02-04T10:07:08.001Z</time>
      </trkpt>
      <trkpt lat="47.22449" lon="-0.04107">
        <ele>62</ele>
        <time>2013-02-04T10:07:09.001Z</time>
      </trkpt>
      <trkpt lat="47.22449" lon="-0.04101">
        <ele>62</ele>
        <time>2013-02-04T10:07:11.001Z</time>
      </trkpt>
      <trkpt lat="47.22449" lon="-0.04097">
        <ele>62</ele>
        <time>2013-02-04T10:07:12.001Z</time>
      </trkpt>
      <trkpt lat="47.22449" lon="-0.04091">
        <ele>62</ele>
        <time>2013-02-04T10:07:21.001Z</time>
      </trkpt>
      <trkpt lat="47.2245" lon="-0.04091">
        <ele>62</ele>
        <time>2013-02-04T10:07:22.001Z</time>
      </trkpt>
      <trkpt lat="47.22449" lon="-0.04084">
        <ele>63</ele>
        <time>2013-02-04T10:07:28.001Z</time>
      </trkpt>
      <trkpt lat="47.22449" lon="-0.04082">
        <ele>67</ele>
        <time>2013-02-04T10:07:29.001Z</time>
      </trkpt>
      <trkpt lat="47.22448" lon="-0.04076">
        <ele>67</ele>
        <time>2013-02-04T10:07:35.001Z</time>
      </trkpt>
      <trkpt lat="47.22448" lon="-0.04074">
        <ele>67</ele>
        <time>2013-02-04T10:07:36.001Z</time>
      </trkpt>
      <trkpt lat="47.22449" lon="-0.04069">
        <ele>67</ele>
        <time>2013-02-04T10:07:37.001Z</time>
      </trkpt>
      <trkpt lat="47.22448" lon="-0.04067">
        <ele>68</ele>
        <time>2013-02-04T10:07:38.001Z</time>
      </trkpt>
      <trkpt lat="47.22446" lon="-0.04061">
        <ele>68</ele>
        <time>2013-02-04T10:07:41.001Z</time>
      </trkpt>
      <trkpt lat="47.22446" lon="-0.0406">
        <ele>68</ele>
        <time>2013-02-04T10:07:42.001Z</time>
      </trkpt>
      <trkpt lat="47.22448" lon="-0.04055">
        <ele>68</ele>
        <time>2013-02-04T10:07:46.001Z</time>
      </trkpt>
      <trkpt lat="47.22448" lon="-0.04053">
        <ele>68</ele>
        <time>2013-02-04T10:07:47.001Z</time>
      </trkpt>
      <trkpt lat="47.2245" lon="-0.04048">
        <ele>69</ele>
        <time>2013-02-04T10:07:50.001Z</time>
      </trkpt>
      <trkpt lat="47.2245" lon="-0.04046">
        <ele>69</ele>
        <time>2013-02-04T10:07:51.001Z</time>
      </trkpt>
      <trkpt lat="47.22451" lon="-0.0404">
        <ele>69</ele>
        <time>2013-02-04T10:07:56.001Z</time>
      </trkpt>
      <trkpt lat="47.2245" lon="-0.0404">
        <ele>69</ele>
        <time>2013-02-04T10:07:57.001Z</time>
      </trkpt>
      <trkpt lat="47.22451" lon="-0.04036">
        <ele>69</ele>
        <time>2013-02-04T10:07:58.001Z</time>
      </trkpt>
      <trkpt lat="47.22451" lon="-0.04033">
        <ele>69</ele>
        <time>2013-02-04T10:07:59.001Z</time>
      </trkpt>
      <trkpt lat="47.22452" lon="-0.04028">
        <ele>70</ele>
        <time>2013-02-04T10:08:07.001Z</time>
      </trkpt>
      <trkpt lat="47.22453" lon="-0.04027">
        <ele>70</ele>
        <time>2013-02-04T10:08:08.001Z</time>
      </trkpt>
      <trkpt lat="47.22452" lon="-0.04021">
        <ele>70</ele>
        <time>2013-02-04T10:08:14.001Z</time>
      </trkpt>
      <trkpt lat="47.22451" lon="-0.0402">
        <ele>70</ele>
        <time>2013-02-04T10:08:15.001Z</time>
      </trkpt>
      <trkpt lat="47.22452" lon="-0.04015">
        <ele>70</ele>
        <time>2013-02-04T10:08:22.001Z</time>
      </trkpt>
      <trkpt lat="47.22452" lon="-0.04014">
        <ele>70</ele>
        <time>2013-02-04T10:08:23.001Z</time>
      </trkpt>
      <trkpt lat="47.22453" lon="-0.04008">
        <ele>71</ele>
        <time>2013-02-04T10:08:29.001Z</time>
      </trkpt>
      <trkpt lat="47.22453" lon="-0.04007">
        <ele>71</ele>
        <time>2013-02-04T10:08:30.001Z</time>
      </trkpt>
      <trkpt lat="47.22455" lon="-0.04003">
        <ele>71</ele>
        <time>2013-02-04T10:08:35.001Z</time>
      </trkpt>
      <trkpt lat="47.22458" lon="-0.03999">
        <ele>75</ele>
        <time>2013-02-04T10:08:36.001Z</time>
      </trkpt>
      <trkpt lat="47.22461" lon="-0.03995">
        <ele>75</ele>
        <time>2013-02-04T10:08:40.001Z</time>
      </trkpt>
      <trkpt lat="47.22462" lon="-0.03994">
        <ele>75</ele>
        <time>2013-02-04T10:08:41.001Z</time>
      </trkpt>
      <trkpt lat="47.2246" lon="-0.03989">
        <ele>75</ele>
        <time>2013-02-04T10:08:52.001Z</time>
      </trkpt>
      <trkpt lat="47.2246" lon="-0.03987">
        <ele>75</ele>
        <time>2013-02-04T10:08:53.001Z</time>
      </trkpt>
      <trkpt lat="47.22462" lon="-0.03984">
        <ele>75</ele>
        <time>2013-02-04T10:08:55.001Z</time>
      </trkpt>
      <trkpt lat="47.22466" lon="-0.03977">
        <ele>76</ele>
        <time>2013-02-04T10:08:56.001Z</time>
      </trkpt>
      <trkpt lat="47.22466" lon="-0.03971">
        <ele>76</ele>
        <time>2013-02-04T10:09:02.001Z</time>
      </trkpt>
      <trkpt lat="47.22466" lon="-0.03969">
        <ele>76</ele>
        <time>2013-02-04T10:09:03.001Z</time>
      </trkpt>
      <trkpt lat="47.22466" lon="-0.03963">
        <ele>76</ele>
        <time>2013-02-04T10:09:10.001Z</time>
      </trkpt>
      <trkpt lat="47.22466" lon="-0.03961">
        <ele>76</ele>
        <time>2013-02-04T10:09:11.001Z</time>
      </trkpt>
      <trkpt lat="47.22466" lon="-0.03957">
        <ele>76</ele>
        <time>2013-02-04T10:09:12.001Z</time>
      </trkpt>
      <trkpt lat="47.22467" lon="-0.03954">
        <ele>76</ele>
        <time>2013-02-04T10:09:13.001Z</time>
      </trkpt>
      <trkpt lat="47.22468" lon="-0.03947">
        <ele>76</ele>
        <time>2013-02-04T10:09:16.001Z</time>
      </trkpt>
      <trkpt lat="47.22469" lon="-0.03943">
        <ele>76</ele>
        <time>2013-02-04T10:09:17.001Z</time>
      </trkpt>
      <trkpt lat="47.2247" lon="-0.03938">
        <ele>77</ele>
        <time>2013-02-04T10:09:20.001Z</time>
      </trkpt>
      <trkpt lat="47.22474" lon="-0.03929">
        <ele>77</ele>
        <time>2013-02-04T10:09:21.001Z</time>
      </trkpt>
      <trkpt lat="47.22475" lon="-0.03926">
        <ele>77</ele>
        <time>2013-02-04T10:09:22.001Z</time>
      </trkpt>
      <trkpt lat="47.22476" lon="-0.0392">
        <ele>77</ele>
        <time>2013-02-04T10:09:23.001Z</time>
      </trkpt>
      <trkpt lat="47.22477" lon="-0.03911">
        <ele>79</ele>
        <time>2013-02-04T10:09:24.001Z</time>
      </trkpt>
      <trkpt lat="47.22477" lon="-0.03906">
        <ele>79</ele>
        <time>2013-02-04T10:09:25.001Z</time>
      </trkpt>
      <trkpt lat="47.22478" lon="-0.03904">
        <ele>79</ele>
        <time>2013-02-04T10:09:26.001Z</time>
      </trkpt>
      <trkpt lat="47.22474" lon="-0.03903">
        <ele>79</ele>
        <time>2013-02-04T10:09:34.001Z</time>
      </trkpt>
      <trkpt lat="47.22473" lon="-0.03903">
        <ele>79</ele>
        <time>2013-02-04T10:09:35.001Z</time>
      </trkpt>
      <trkpt lat="47.22474" lon="-0.03899">
        <ele>79</ele>
        <time>2013-02-04T10:09:38.001Z</time>
      </trkpt>
      <trkpt lat="47.22475" lon="-0.03895">
        <ele>79</ele>
        <time>2013-02-04T10:09:39.001Z</time>
      </trkpt>
      <trkpt lat="47.22476" lon="-0.03891">
        <ele>79</ele>
        <time>2013-02-04T10:09:41.001Z</time>
      </trkpt>
      <trkpt lat="47.22476" lon="-0.03888">
        <ele>79</ele>
        <time>2013-02-04T10:09:42.001Z</time>
      </trkpt>
      <trkpt lat="47.22474" lon="-0.03882">
        <ele>78</ele>
        <time>2013-02-04T10:09:45.001Z</time>
      </trkpt>
      <trkpt lat="47.22474" lon="-0.03882">
        <ele>78</ele>
        <time>2013-02-04T10:09:46.001Z</time>
      </trkpt>
      <trkpt lat="47.22474" lon="-0.03878">
        <ele>78</ele>
        <time>2013-02-04T10:09:53.001Z</time>
      </trkpt>
      <trkpt lat="47.22475" lon="-0.03873">
        <ele>78</ele>
        <time>2013-02-04T10:09:54.001Z</time>
      </trkpt>
      <trkpt lat="47.22475" lon="-0.03866">
        <ele>79</ele>
        <time>2013-02-04T10:10:02.001Z</time>
      </trkpt>
      <trkpt lat="47.22476" lon="-0.03865">
        <ele>79</ele>
        <time>2013-02-04T10:10:03.001Z</time>
      </trkpt>
      <trkpt lat="47.22477" lon="-0.0386">
        <ele>79</ele>
        <time>2013-02-04T10:10:09.001Z</time>
      </trkpt>
      <trkpt lat="47.22479" lon="-0.03858">
        <ele>79</ele>
        <time>2013-02-04T10:10:10.001Z</time>
      </trkpt>
      <trkpt lat="47.22481" lon="-0.03853">
        <ele>79</ele>
        <time>2013-02-04T10:10:13.001Z</time>
      </trkpt>
      <trkpt lat="47.22482" lon="-0.03852">
        <ele>79</ele>
        <time>2013-02-04T10:10:14.001Z</time>
      </trkpt>
      <trkpt lat="47.2248" lon="-0.03847">
        <ele>79</ele>
        <time>2013-02-04T10:10:20.001Z</time>
      </trkpt>
      <trkpt lat="47.22479" lon="-0.03846">
        <ele>79</ele>
        <time>2013-02-04T10:10:21.001Z</time>
      </trkpt>
      <trkpt lat="47.2248" lon="-0.03842">
        <ele>79</ele>
        <time>2013-02-04T10:10:25.001Z</time>
      </trkpt>
      <trkpt lat="47.2248" lon="-0.0384">
        <ele>79</ele>
        <time>2013-02-04T10:10:26.001Z</time>
      </trkpt>
      <trkpt lat="47.2248" lon="-0.03835">
        <ele>79</ele>
        <time>2013-02-04T10:10:31.001Z</time>
      </trkpt>
      <trkpt lat="47.22481" lon="-0.03833">
        <ele>80</ele>
        <time>2013-02-04T10:10:32.001Z</time>
      </trkpt>
      <trkpt lat="47.22483" lon="-0.03829">
        <ele>80</ele>
        <time>2013-02-04T10:10:35.001Z</time>
      </trkpt>
      <trkpt lat="47.22484" lon="-0.03828">
        <ele>80</ele>
        <time>2013-02-04T10:10:36.001Z</time>
      </trkpt>
      <trkpt lat="47.22485" lon="-0.03823">
        <ele>80</ele>
        <time>2013-02-04T10:10:38.001Z</time>
      </trkpt>
      <trkpt lat="47.22486" lon="-0.0382">
        <ele>80</ele>
        <time>2013-02-04T10:10:39.001Z</time>
      </trkpt>
      <trkpt lat="47.22487" lon="-0.03815">
        <ele>80</ele>
        <time>2013-02-04T10:10:42.001Z</time>
      </trkpt>
      <trkpt lat="47.22489" lon="-0.03813">
        <ele>80</ele>
        <time>2013-02-04T10:10:43.001Z</time>
      </trkpt>
      <trkpt lat="47.22492" lon="-0.03811">
        <ele>80</ele>
        <time>2013-02-04T10:10:48.001Z</time>
      </trkpt>
      <trkpt lat="47.22493" lon="-0.03809">
        <ele>80</ele>
        <time>2013-02-04T10:10:49.001Z</time>
      </trkpt>
      <trkpt lat="47.22496" lon="-0.03803">
        <ele>79</ele>
        <time>2013-02-04T10:10:52.001Z</time>
      </trkpt>
      <trkpt lat="47.22497" lon="-0.03802">
        <ele>79</ele>
        <time>2013-02-04T10:10:53.001Z</time>
      </trkpt>
      <trkpt lat="47.22499" lon="-0.03799">
        <ele>79</ele>
        <time>2013-02-04T10:10:55.001Z</time>
      </trkpt>
      <trkpt lat="47.22503" lon="-0.03794">
        <ele>81</ele>
        <time>2013-02-04T10:10:56.001Z</time>
      </trkpt>
      <trkpt lat="47.22504" lon="-0.03791">
        <ele>81</ele>
        <time>2013-02-04T10:10:57.001Z</time>
      </trkpt>
      <trkpt lat="47.22507" lon="-0.03786">
        <ele>81</ele>
        <time>2013-02-04T10:10:58.001Z</time>
      </trkpt>
      <trkpt lat="47.22508" lon="-0.03781">
        <ele>81</ele>
        <time>2013-02-04T10:11:02.001Z</time>
      </trkpt>
      <trkpt lat="47.22509" lon="-0.03778">
        <ele>81</ele>
        <time>2013-02-04T10:11:03.001Z</time>
      </trkpt>
      <trkpt lat="47.2251" lon="-0.03772">
        <ele>81</ele>
        <time>2013-02-04T10:11:10.001Z</time>
      </trkpt>
      <trkpt lat="47.2251" lon="-0.0377">
        <ele>81</ele>
        <time>2013-02-04T10:11:11.001Z</time>
      </trkpt>
      <trkpt lat="47.22512" lon="-0.03765">
        <ele>81</ele>
        <time>2013-02-04T10:11:13.001Z</time>
      </trkpt>
      <trkpt lat="47.22513" lon="-0.03764">
        <ele>81</ele>
        <time>2013-02-04T10:11:14.001Z</time>
      </trkpt>
      <trkpt lat="47.22513" lon="-0.0376">
        <ele>81</ele>
        <time>2013-02-04T10:11:17.001Z</time>
      </trkpt>
      <trkpt lat="47.22512" lon="-0.03758">
        <ele>81</ele>
        <time>2013-02-04T10:11:18.001Z</time>
      </trkpt>
      <trkpt lat="47.22513" lon="-0.03753">
        <ele>81</ele>
        <time>2013-02-04T10:11:26.001Z</time>
      </trkpt>
      <trkpt lat="47.22514" lon="-0.03751">
        <ele>81</ele>
        <time>2013-02-04T10:11:27.001Z</time>
      </trkpt>
      <trkpt lat="47.22515" lon="-0.03747">
        <ele>81</ele>
        <time>2013-02-04T10:11:29.001Z</time>
      </trkpt>
      <trkpt lat="47.22516" lon="-0.03745">
        <ele>81</ele>
        <time>2013-02-04T10:11:30.001Z</time>
      </trkpt>
      <trkpt lat="47.22518" lon="-0.03741">
        <ele>81</ele>
        <time>2013-02-04T10:11:35.001Z</time>
      </trkpt>
      <trkpt lat="47.22519" lon="-0.03739">
        <ele>81</ele>
        <time>2013-02-04T10:11:36.001Z</time>
      </trkpt>
      <trkpt lat="47.22521" lon="-0.03737">
        <ele>81</ele>
        <time>2013-02-04T10:11:39.001Z</time>
      </trkpt>
      <trkpt lat="47.22523" lon="-0.03735">
        <ele>81</ele>
        <time>2013-02-04T10:11:40.001Z</time>
      </trkpt>
      <trkpt lat="47.22525" lon="-0.03729">
        <ele>81</ele>
        <time>2013-02-04T10:11:42.001Z</time>
      </trkpt>
      <trkpt lat="47.22525" lon="-0.03726">
        <ele>81</ele>
        <time>2013-02-04T10:11:43.001Z</time>
      </trkpt>
      <trkpt lat="47.22527" lon="-0.03713">
        <ele>81</ele>
        <time>2013-02-04T10:11:44.001Z</time>
      </trkpt>
      <trkpt lat="47.22528" lon="-0.03709">
        <ele>81</ele>
        <time>2013-02-04T10:11:45.001Z</time>
      </trkpt>
      <trkpt lat="47.22529" lon="-0.03707">
        <ele>81</ele>
        <time>2013-02-04T10:11:46.001Z</time>
      </trkpt>
      <trkpt lat="47.22531" lon="-0.03701">
        <ele>81</ele>
        <time>2013-02-04T10:11:49.001Z</time>
      </trkpt>
      <trkpt lat="47.22532" lon="-0.03698">
        <ele>81</ele>
        <time>2013-02-04T10:11:50.001Z</time>
      </trkpt>
      <trkpt lat="47.22533" lon="-0.03694">
        <ele>81</ele>
        <time>2013-02-04T10:11:52.001Z</time>
      </trkpt>
      <trkpt lat="47.22534" lon="-0.03691">
        <ele>81</ele>
        <time>2013-02-04T10:11:53.001Z</time>
      </trkpt>
      <trkpt lat="47.22534" lon="-0.03686">
        <ele>81</ele>
        <time>2013-02-04T10:12:01.001Z</time>
      </trkpt>
      <trkpt lat="47.22534" lon="-0.03684">
        <ele>81</ele>
        <time>2013-02-04T10:12:02.001Z</time>
      </trkpt>
      <trkpt lat="47.22536" lon="-0.03679">
        <ele>81</ele>
        <time>2013-02-04T10:12:05.001Z</time>
      </trkpt>
      <trkpt lat="47.22536" lon="-0.03678">
        <ele>81</ele>
        <time>2013-02-04T10:12:06.001Z</time>
      </trkpt>
      <trkpt lat="47.22536" lon="-0.03674">
        <ele>81</ele>
        <time>2013-02-04T10:12:09.001Z</time>
      </trkpt>
      <trkpt lat="47.22537" lon="-0.03671">
        <ele>81</ele>
        <time>2013-02-04T10:12:10.001Z</time>
      </trkpt>
      <trkpt lat="47.22538" lon="-0.03667">
        <ele>80</ele>
        <time>2013-02-04T10:12:11.001Z</time>
      </trkpt>
      <trkpt lat="47.22538" lon="-0.03664">
        <ele>80</ele>
        <time>2013-02-04T10:12:12.001Z</time>
      </trkpt>
      <trkpt lat="47.22539" lon="-0.03658">
        <ele>80</ele>
        <time>2013-02-04T10:12:26.001Z</time>
      </trkpt>
      <trkpt lat="47.22539" lon="-0.03657">
        <ele>80</ele>
        <time>2013-02-04T10:12:27.001Z</time>
      </trkpt>
      <trkpt lat="47.22542" lon="-0.03654">
        <ele>80</ele>
        <time>2013-02-04T10:12:32.001Z</time>
      </trkpt>
      <trkpt lat="47.22542" lon="-0.03652">
        <ele>80</ele>
        <time>2013-02-04T10:12:33.001Z</time>
      </trkpt>
      <trkpt lat="47.22544" lon="-0.03647">
        <ele>80</ele>
        <time>2013-02-04T10:12:35.001Z</time>
      </trkpt>
      <trkpt lat="47.22545" lon="-0.03645">
        <ele>80</ele>
        <time>2013-02-04T10:12:36.001Z</time>
      </trkpt>
      <trkpt lat="47.22547" lon="-0.0364">
        <ele>80</ele>
        <time>2013-02-04T10:12:42.001Z</time>
      </trkpt>
      <trkpt lat="47.22548" lon="-0.03639">
        <ele>80</ele>
        <time>2013-02-04T10:12:43.001Z</time>
      </trkpt>
      <trkpt lat="47.2255" lon="-0.03634">
        <ele>80</ele>
        <time>2013-02-04T10:12:51.001Z</time>
      </trkpt>
      <trkpt lat="47.22551" lon="-0.03633">
        <ele>80</ele>
        <time>2013-02-04T10:12:52.001Z</time>
      </trkpt>
      <trkpt lat="47.22552" lon="-0.0363">
        <ele>80</ele>
        <time>2013-02-04T10:12:53.001Z</time>
      </trkpt>
      <trkpt lat="47.22553" lon="-0.03626">
        <ele>80</ele>
        <time>2013-02-04T10:12:54.001Z</time>
      </trkpt>
      <trkpt lat="47.22553" lon="-0.03622">
        <ele>80</ele>
        <time>2013-02-04T10:12:55.001Z</time>
      </trkpt>
      <trkpt lat="47.2256" lon="-0.03613">
        <ele>80</ele>
        <time>2013-02-04T10:12:56.001Z</time>
      </trkpt>
      <trkpt lat="47.22563" lon="-0.03609">
        <ele>80</ele>
        <time>2013-02-04T10:12:57.001Z</time>
      </trkpt>
      <trkpt lat="47.22565" lon="-0.03607">
        <ele>80</ele>
        <time>2013-02-04T10:12:58.001Z</time>
      </trkpt>
      <trkpt lat="47.22566" lon="-0.03601">
        <ele>80</ele>
        <time>2013-02-04T10:13:00.001Z</time>
      </trkpt>
      <trkpt lat="47.22566" lon="-0.036">
        <ele>80</ele>
        <time>2013-02-04T10:13:01.001Z</time>
      </trkpt>
      <trkpt lat="47.22569" lon="-0.03593">
        <ele>80</ele>
        <time>2013-02-04T10:13:02.001Z</time>
      </trkpt>
      <trkpt lat="47.22571" lon="-0.03587">
        <ele>80</ele>
        <time>2013-02-04T10:13:06.001Z</time>
      </trkpt>
      <trkpt lat="47.22571" lon="-0.03587">
        <ele>80</ele>
        <time>2013-02-04T10:13:07.001Z</time>
      </trkpt>
      <trkpt lat="47.22573" lon="-0.03582">
        <ele>79</ele>
        <time>2013-02-04T10:13:10.001Z</time>
      </trkpt>
      <trkpt lat="47.22575" lon="-0.03579">
        <ele>79</ele>
        <time>2013-02-04T10:13:11.001Z</time>
      </trkpt>
      <trkpt lat="47.22575" lon="-0.03573">
        <ele>79</ele>
        <time>2013-02-04T10:13:22.001Z</time>
      </trkpt>
      <trkpt lat="47.22576" lon="-0.03572">
        <ele>79</ele>
        <time>2013-02-04T10:13:23.001Z</time>
      </trkpt>
      <trkpt lat="47.22577" lon="-0.03568">
        <ele>79</ele>
        <time>2013-02-04T10:13:25.001Z</time>
      </trkpt>
      <trkpt lat="47.22577" lon="-0.03565">
        <ele>79</ele>
        <time>2013-02-04T10:13:26.001Z</time>
      </trkpt>
      <trkpt lat="47.2258" lon="-0.03561">
        <ele>79</ele>
        <time>2013-02-04T10:13:29.001Z</time>
      </trkpt>
      <trkpt lat="47.22581" lon="-0.03559">
        <ele>79</ele>
        <time>2013-02-04T10:13:30.001Z</time>
      </trkpt>
      <trkpt lat="47.22583" lon="-0.03554">
        <ele>79</ele>
        <time>2013-02-04T10:13:36.001Z</time>
      </trkpt>
      <trkpt lat="47.22583" lon="-0.03553">
        <ele>81</ele>
        <time>2013-02-04T10:13:37.001Z</time>
      </trkpt>
      <trkpt lat="47.22585" lon="-0.03548">
        <ele>81</ele>
        <time>2013-02-04T10:13:42.001Z</time>
      </trkpt>
      <trkpt lat="47.22586" lon="-0.03546">
        <ele>81</ele>
        <time>2013-02-04T10:13:43.001Z</time>
      </trkpt>
      <trkpt lat="47.22587" lon="-0.03544">
        <ele>81</ele>
        <time>2013-02-04T10:13:44.001Z</time>
      </trkpt>
      <trkpt lat="47.22589" lon="-0.03534">
        <ele>81</ele>
        <time>2013-02-04T10:13:45.001Z</time>
      </trkpt>
      <trkpt lat="47.2259" lon="-0.03529">
        <ele>81</ele>
        <time>2013-02-04T10:13:46.001Z</time>
      </trkpt>
      <trkpt lat="47.2259" lon="-0.03527">
        <ele>81</ele>
        <time>2013-02-04T10:13:47.001Z</time>
      </trkpt>
      <trkpt lat="47.2259" lon="-0.0352">
        <ele>81</ele>
        <time>2013-02-04T10:13:49.001Z</time>
      </trkpt>
      <trkpt lat="47.2259" lon="-0.03518">
        <ele>80</ele>
        <time>2013-02-04T10:13:50.001Z</time>
      </trkpt>
      <trkpt lat="47.2259" lon="-0.03512">
        <ele>80</ele>
        <time>2013-02-04T10:13:56.001Z</time>
      </trkpt>
      <trkpt lat="47.22589" lon="-0.03509">
        <ele>80</ele>
        <time>2013-02-04T10:13:57.001Z</time>
      </trkpt>
      <trkpt lat="47.2259" lon="-0.03503">
        <ele>80</ele>
        <time>2013-02-04T10:14:05.001Z</time>
      </trkpt>
      <trkpt lat="47.22591" lon="-0.03502">
        <ele>80</ele>
        <time>2013-02-04T10:14:06.001Z</time>
      </trkpt>
      <trkpt lat="47.2259" lon="-0.03497">
        <ele>80</ele>
        <time>2013-02-04T10:14:13.001Z</time>
      </trkpt>
      <trkpt lat="47.2259" lon="-0.03495">
        <ele>80</ele>
        <time>2013-02-04T10:14:14.001Z</time>
      </trkpt>
      <trkpt lat="47.22592" lon="-0.03486">
        <ele>81</ele>
        <time>2013-02-04T10:14:15.001Z</time>
      </trkpt>
      <trkpt lat="47.22593" lon="-0.03482">
        <ele>81</ele>
        <time>2013-02-04T10:14:20.001Z</time>
      </trkpt>
      <trkpt lat="47.22594" lon="-0.03473">
        <ele>81</ele>
        <time>2013-02-04T10:14:21.001Z</time>
      </trkpt>
      <trkpt lat="47.22595" lon="-0.03469">
        <ele>81</ele>
        <time>2013-02-04T10:14:24.001Z</time>
      </trkpt>
      <trkpt lat="47.22595" lon="-0.03467">
        <ele>81</ele>
        <time>2013-02-04T10:14:25.001Z</time>
      </trkpt>
      <trkpt lat="47.22596" lon="-0.03462">
        <ele>81</ele>
        <time>2013-02-04T10:14:27.001Z</time>
      </trkpt>
      <trkpt lat="47.22596" lon="-0.03459">
        <ele>81</ele>
        <time>2013-02-04T10:14:28.001Z</time>
      </trkpt>
      <trkpt lat="47.22596" lon="-0.03453">
        <ele>81</ele>
        <time>2013-02-04T10:14:30.001Z</time>
      </trkpt>
      <trkpt lat="47.22595" lon="-0.03451">
        <ele>81</ele>
        <time>2013-02-04T10:14:31.001Z</time>
      </trkpt>
      <trkpt lat="47.22594" lon="-0.03445">
        <ele>81</ele>
        <time>2013-02-04T10:14:35.001Z</time>
      </trkpt>
      <trkpt lat="47.22594" lon="-0.03442">
        <ele>81</ele>
        <time>2013-02-04T10:14:36.001Z</time>
      </trkpt>
      <trkpt lat="47.22595" lon="-0.03437">
        <ele>81</ele>
        <time>2013-02-04T10:14:39.001Z</time>
      </trkpt>
      <trkpt lat="47.22595" lon="-0.03434">
        <ele>81</ele>
        <time>2013-02-04T10:14:40.001Z</time>
      </trkpt>
      <trkpt lat="47.22595" lon="-0.03433">
        <ele>81</ele>
        <time>2013-02-04T10:14:41.001Z</time>
      </trkpt>
      <trkpt lat="47.22595" lon="-0.03427">
        <ele>82</ele>
        <time>2013-02-04T10:14:42.001Z</time>
      </trkpt>
      <trkpt lat="47.22593" lon="-0.03422">
        <ele>82</ele>
        <time>2013-02-04T10:14:50.001Z</time>
      </trkpt>
      <trkpt lat="47.22593" lon="-0.0342">
        <ele>82</ele>
        <time>2013-02-04T10:14:51.001Z</time>
      </trkpt>
      <trkpt lat="47.22594" lon="-0.03417">
        <ele>82</ele>
        <time>2013-02-04T10:14:52.001Z</time>
      </trkpt>
      <trkpt lat="47.22595" lon="-0.0341">
        <ele>81</ele>
        <time>2013-02-04T10:14:53.001Z</time>
      </trkpt>
      <trkpt lat="47.22595" lon="-0.03404">
        <ele>81</ele>
        <time>2013-02-04T10:14:55.001Z</time>
      </trkpt>
      <trkpt lat="47.22595" lon="-0.03403">
        <ele>81</ele>
        <time>2013-02-04T10:14:56.001Z</time>
      </trkpt>
      <trkpt lat="47.22596" lon="-0.03399">
        <ele>81</ele>
        <time>2013-02-04T10:14:58.001Z</time>
      </trkpt>
      <trkpt lat="47.22595" lon="-0.03394">
        <ele>81</ele>
        <time>2013-02-04T10:14:59.001Z</time>
      </trkpt>
      <trkpt lat="47.22594" lon="-0.03388">
        <ele>81</ele>
        <time>2013-02-04T10:15:07.001Z</time>
      </trkpt>
      <trkpt lat="47.22594" lon="-0.03383">
        <ele>80</ele>
        <time>2013-02-04T10:15:08.001Z</time>
      </trkpt>
      <trkpt lat="47.22593" lon="-0.03377">
        <ele>80</ele>
        <time>2013-02-04T10:15:10.001Z</time>
      </trkpt>
      <trkpt lat="47.22592" lon="-0.03374">
        <ele>80</ele>
        <time>2013-02-04T10:15:11.001Z</time>
      </trkpt>
      <trkpt lat="47.22593" lon="-0.03369">
        <ele>80</ele>
        <time>2013-02-04T10:15:15.001Z</time>
      </trkpt>
      <trkpt lat="47.22593" lon="-0.03366">
        <ele>80</ele>
        <time>2013-02-04T10:15:16.001Z</time>
      </trkpt>
      <trkpt lat="47.22593" lon="-0.03363">
        <ele>80</ele>
        <time>2013-02-04T10:15:17.001Z</time>
      </trkpt>
      <trkpt lat="47.22593" lon="-0.0336">
        <ele>80</ele>
        <time>2013-02-04T10:15:18.001Z</time>
      </trkpt>
      <trkpt lat="47.22593" lon="-0.03354">
        <ele>80</ele>
        <time>2013-02-04T10:15:22.001Z</time>
      </trkpt>
      <trkpt lat="47.22592" lon="-0.0335">
        <ele>80</ele>
        <time>2013-02-04T10:15:23.001Z</time>
      </trkpt>
      <trkpt lat="47.22591" lon="-0.03344">
        <ele>80</ele>
        <time>2013-02-04T10:15:27.001Z</time>
      </trkpt>
      <trkpt lat="47.22591" lon="-0.03342">
        <ele>80</ele>
        <time>2013-02-04T10:15:28.001Z</time>
      </trkpt>
      <trkpt lat="47.22591" lon="-0.03336">
        <ele>80</ele>
        <time>2013-02-04T10:15:31.001Z</time>
      </trkpt>
      <trkpt lat="47.2259" lon="-0.03334">
        <ele>80</ele>
        <time>2013-02-04T10:15:32.001Z</time>
      </trkpt>
      <trkpt lat="47.22588" lon="-0.03329">
        <ele>79</ele>
        <time>2013-02-04T10:15:35.001Z</time>
      </trkpt>
      <trkpt lat="47.22588" lon="-0.03328">
        <ele>79</ele>
        <time>2013-02-04T10:15:36.001Z</time>
      </trkpt>
      <trkpt lat="47.22586" lon="-0.03323">
        <ele>79</ele>
        <time>2013-02-04T10:15:40.001Z</time>
      </trkpt>
      <trkpt lat="47.22584" lon="-0.03322">
        <ele>79</ele>
        <time>2013-02-04T10:15:41.001Z</time>
      </trkpt>
      <trkpt lat="47.22582" lon="-0.03318">
        <ele>78</ele>
        <time>2013-02-04T10:15:44.001Z</time>
      </trkpt>
      <trkpt lat="47.2258" lon="-0.03316">
        <ele>78</ele>
        <time>2013-02-04T10:15:45.001Z</time>
      </trkpt>
      <trkpt lat="47.22577" lon="-0.03313">
        <ele>77</ele>
        <time>2013-02-04T10:15:48.001Z</time>
      </trkpt>
      <trkpt lat="47.22576" lon="-0.03313">
        <ele>77</ele>
        <time>2013-02-04T10:15:49.001Z</time>
      </trkpt>
      <trkpt lat="47.22572" lon="-0.03311">
        <ele>77</ele>
        <time>2013-02-04T10:15:54.001Z</time>
      </trkpt>
      <trkpt lat="47.22572" lon="-0.0331">
        <ele>77</ele>
        <time>2013-02-04T10:15:55.001Z</time>
      </trkpt>
      <trkpt lat="47.2257" lon="-0.03305">
        <ele>77</ele>
        <time>2013-02-04T10:15:59.001Z</time>
      </trkpt>
      <trkpt lat="47.2257" lon="-0.03304">
        <ele>77</ele>
        <time>2013-02-04T10:16:00.001Z</time>
      </trkpt>
      <trkpt lat="47.22568" lon="-0.03298">
        <ele>76</ele>
        <time>2013-02-04T10:16:07.001Z</time>
      </trkpt>
      <trkpt lat="47.22567" lon="-0.03295">
        <ele>76</ele>
        <time>2013-02-04T10:16:08.001Z</time>
      </trkpt>
      <trkpt lat="47.22564" lon="-0.03293">
        <ele>76</ele>
        <time>2013-02-04T10:16:15.001Z</time>
      </trkpt>
      <trkpt lat="47.2256" lon="-0.03298">
        <ele>76</ele>
        <time>2013-02-04T10:16:16.001Z</time>
      </trkpt>
      <trkpt lat="47.22555" lon="-0.03296">
        <ele>76</ele>
        <time>2013-02-04T10:16:27.001Z</time>
      </trkpt>
      <trkpt lat="47.22555" lon="-0.03297">
        <ele>76</ele>
        <time>2013-02-04T10:16:28.001Z</time>
      </trkpt>
      <trkpt lat="47.22554" lon="-0.03292">
        <ele>76</ele>
        <time>2013-02-04T10:16:48.001Z</time>
      </trkpt>
      <trkpt lat="47.22554" lon="-0.0329">
        <ele>76</ele>
        <time>2013-02-04T10:16:49.001Z</time>
      </trkpt>
      <trkpt lat="47.22558" lon="-0.03287">
        <ele>76</ele>
        <time>2013-02-04T10:18:01.000Z</time>
      </trkpt>
      <trkpt lat="47.22558" lon="-0.03287">
        <ele>76</ele>
        <time>2013-02-04T10:18:02.000Z</time>
      </trkpt>
      <trkpt lat="47.22557" lon="-0.03293">
        <ele>76</ele>
        <time>2013-02-04T10:19:09.000Z</time>
      </trkpt>
      <trkpt lat="47.22557" lon="-0.03294">
        <ele>76</ele>
        <time>2013-02-04T10:19:10.000Z</time>
      </trkpt>
      <trkpt lat="47.22554" lon="-0.03289">
        <ele>76</ele>
        <time>2013-02-04T10:19:50.000Z</time>
      </trkpt>
      <trkpt lat="47.22554" lon="-0.03288">
        <ele>76</ele>
        <time>2013-02-04T10:19:51.000Z</time>
      </trkpt>
      <trkpt lat="47.22551" lon="-0.03293">
        <ele>76</ele>
        <time>2013-02-04T10:19:59.000Z</time>
      </trkpt>
      <trkpt lat="47.2255" lon="-0.03294">
        <ele>76</ele>
        <time>2013-02-04T10:20:00.000Z</time>
      </trkpt>
      <trkpt lat="47.22547" lon="-0.03299">
        <ele>76</ele>
        <time>2013-02-04T10:20:03.000Z</time>
      </trkpt>
      <trkpt lat="47.22547" lon="-0.03299">
        <ele>76</ele>
        <time>2013-02-04T10:20:04.000Z</time>
      </trkpt>
      <trkpt lat="47.22545" lon="-0.03299">
        <ele>76</ele>
        <time>2013-02-04T10:20:09.000Z</time>
      </trkpt>
      <trkpt lat="47.22543" lon="-0.033">
        <ele>75</ele>
        <time>2013-02-04T10:20:10.000Z</time>
      </trkpt>
      <trkpt lat="47.22539" lon="-0.03302">
        <ele>75</ele>
        <time>2013-02-04T10:20:13.000Z</time>
      </trkpt>
      <trkpt lat="47.22538" lon="-0.03302">
        <ele>75</ele>
        <time>2013-02-04T10:20:14.000Z</time>
      </trkpt>
      <trkpt lat="47.22535" lon="-0.03305">
        <ele>75</ele>
        <time>2013-02-04T10:20:17.000Z</time>
      </trkpt>
      <trkpt lat="47.22534" lon="-0.03306">
        <ele>75</ele>
        <time>2013-02-04T10:20:18.000Z</time>
      </trkpt>
      <trkpt lat="47.22531" lon="-0.03309">
        <ele>75</ele>
        <time>2013-02-04T10:20:22.000Z</time>
      </trkpt>
      <trkpt lat="47.22529" lon="-0.03311">
        <ele>75</ele>
        <time>2013-02-04T10:20:23.000Z</time>
      </trkpt>
      <trkpt lat="47.22526" lon="-0.03315">
        <ele>75</ele>
        <time>2013-02-04T10:20:25.000Z</time>
      </trkpt>
      <trkpt lat="47.22525" lon="-0.03316">
        <ele>75</ele>
        <time>2013-02-04T10:20:26.000Z</time>
      </trkpt>
      <trkpt lat="47.22521" lon="-0.03319">
        <ele>75</ele>
        <time>2013-02-04T10:20:30.000Z</time>
      </trkpt>
      <trkpt lat="47.2252" lon="-0.0332">
        <ele>75</ele>
        <time>2013-02-04T10:20:31.000Z</time>
      </trkpt>
      <trkpt lat="47.22517" lon="-0.03322">
        <ele>75</ele>
        <time>2013-02-04T10:20:33.000Z</time>
      </trkpt>
      <trkpt lat="47.22516" lon="-0.03323">
        <ele>75</ele>
        <time>2013-02-04T10:20:34.000Z</time>
      </trkpt>
      <trkpt lat="47.22512" lon="-0.03323">
        <ele>75</ele>
        <time>2013-02-04T10:20:37.000Z</time>
      </trkpt>
      <trkpt lat="47.22507" lon="-0.03326">
        <ele>74</ele>
        <time>2013-02-04T10:20:38.000Z</time>
      </trkpt>
      <trkpt lat="47.22504" lon="-0.03328">
        <ele>74</ele>
        <time>2013-02-04T10:20:39.000Z</time>
      </trkpt>
      <trkpt lat="47.22502" lon="-0.03329">
        <ele>74</ele>
        <time>2013-02-04T10:20:40.000Z</time>
      </trkpt>
      <trkpt lat="47.22499" lon="-0.03333">
        <ele>74</ele>
        <time>2013-02-04T10:20:46.000Z</time>
      </trkpt>
      <trkpt lat="47.22498" lon="-0.03334">
        <ele>74</ele>
        <time>2013-02-04T10:20:47.000Z</time>
      </trkpt>
      <trkpt lat="47.22496" lon="-0.03339">
        <ele>73</ele>
        <time>2013-02-04T10:20:49.000Z</time>
      </trkpt>
      <trkpt lat="47.22495" lon="-0.03341">
        <ele>73</ele>
        <time>2013-02-04T10:20:50.000Z</time>
      </trkpt>
      <trkpt lat="47.22492" lon="-0.03347">
        <ele>72</ele>
        <time>2013-02-04T10:20:52.000Z</time>
      </trkpt>
      <trkpt lat="47.22491" lon="-0.03349">
        <ele>72</ele>
        <time>2013-02-04T10:20:53.000Z</time>
      </trkpt>
      <trkpt lat="47.22489" lon="-0.03353">
        <ele>71</ele>
        <time>2013-02-04T10:20:56.000Z</time>
      </trkpt>
      <trkpt lat="47.22489" lon="-0.03355">
        <ele>71</ele>
        <time>2013-02-04T10:20:57.000Z</time>
      </trkpt>
      <trkpt lat="47.22487" lon="-0.03358">
        <ele>71</ele>
        <time>2013-02-04T10:20:59.000Z</time>
      </trkpt>
      <trkpt lat="47.22486" lon="-0.03361">
        <ele>71</ele>
        <time>2013-02-04T10:21:00.000Z</time>
      </trkpt>
      <trkpt lat="47.22484" lon="-0.03366">
        <ele>71</ele>
        <time>2013-02-04T10:21:06.000Z</time>
      </trkpt>
      <trkpt lat="47.22484" lon="-0.03368">
        <ele>71</ele>
        <time>2013-02-04T10:21:07.000Z</time>
      </trkpt>
      <trkpt lat="47.22482" lon="-0.03372">
        <ele>71</ele>
        <time>2013-02-04T10:21:11.000Z</time>
      </trkpt>
      <trkpt lat="47.22482" lon="-0.03374">
        <ele>71</ele>
        <time>2013-02-04T10:21:12.000Z</time>
      </trkpt>
      <trkpt lat="47.22482" lon="-0.03379">
        <ele>71</ele>
        <time>2013-02-04T10:21:14.000Z</time>
      </trkpt>
      <trkpt lat="47.22482" lon="-0.03383">
        <ele>71</ele>
        <time>2013-02-04T10:21:15.000Z</time>
      </trkpt>
      <trkpt lat="47.22482" lon="-0.03389">
        <ele>71</ele>
        <time>2013-02-04T10:21:18.000Z</time>
      </trkpt>
      <trkpt lat="47.22482" lon="-0.0339">
        <ele>71</ele>
        <time>2013-02-04T10:21:19.000Z</time>
      </trkpt>
      <trkpt lat="47.22483" lon="-0.03396">
        <ele>71</ele>
        <time>2013-02-04T10:21:25.000Z</time>
      </trkpt>
      <trkpt lat="47.22483" lon="-0.03397">
        <ele>71</ele>
        <time>2013-02-04T10:21:26.000Z</time>
      </trkpt>
      <trkpt lat="47.22482" lon="-0.03403">
        <ele>72</ele>
        <time>2013-02-04T10:21:36.000Z</time>
      </trkpt>
      <trkpt lat="47.22481" lon="-0.03407">
        <ele>72</ele>
        <time>2013-02-04T10:21:37.000Z</time>
      </trkpt>
      <trkpt lat="47.22478" lon="-0.03411">
        <ele>72</ele>
        <time>2013-02-04T10:21:43.000Z</time>
      </trkpt>
      <trkpt lat="47.22477" lon="-0.03413">
        <ele>72</ele>
        <time>2013-02-04T10:21:44.000Z</time>
      </trkpt>
      <trkpt lat="47.22475" lon="-0.03416">
        <ele>71</ele>
        <time>2013-02-04T10:21:48.000Z</time>
      </trkpt>
      <trkpt lat="47.22473" lon="-0.03418">
        <ele>72</ele>
        <time>2013-02-04T10:21:49.000Z</time>
      </trkpt>
      <trkpt lat="47.22471" lon="-0.03423">
        <ele>72</ele>
        <time>2013-02-04T10:21:50.000Z</time>
      </trkpt>
      <trkpt lat="47.22469" lon="-0.03425">
        <ele>71</ele>
        <time>2013-02-04T10:21:51.000Z</time>
      </trkpt>
      <trkpt lat="47.22467" lon="-0.03429">
        <ele>71</ele>
        <time>2013-02-04T10:21:56.000Z</time>
      </trkpt>
      <trkpt lat="47.22466" lon="-0.0343">
        <ele>71</ele>
        <time>2013-02-04T10:21:57.000Z</time>
      </trkpt>
      <trkpt lat="47.22464" lon="-0.03435">
        <ele>71</ele>
        <time>2013-02-04T10:22:01.000Z</time>
      </trkpt>
      <trkpt lat="47.22463" lon="-0.03436">
        <ele>71</ele>
        <time>2013-02-04T10:22:02.000Z</time>
      </trkpt>
      <trkpt lat="47.2246" lon="-0.03439">
        <ele>71</ele>
        <time>2013-02-04T10:22:05.000Z</time>
      </trkpt>
      <trkpt lat="47.22455" lon="-0.03442">
        <ele>70</ele>
        <time>2013-02-04T10:22:06.000Z</time>
      </trkpt>
      <trkpt lat="47.22453" lon="-0.03446">
        <ele>70</ele>
        <time>2013-02-04T10:22:08.000Z</time>
      </trkpt>
      <trkpt lat="47.22452" lon="-0.03447">
        <ele>70</ele>
        <time>2013-02-04T10:22:09.000Z</time>
      </trkpt>
      <trkpt lat="47.22449" lon="-0.03451">
        <ele>70</ele>
        <time>2013-02-04T10:22:11.000Z</time>
      </trkpt>
      <trkpt lat="47.22448" lon="-0.03454">
        <ele>70</ele>
        <time>2013-02-04T10:22:12.000Z</time>
      </trkpt>
      <trkpt lat="47.22446" lon="-0.03459">
        <ele>70</ele>
        <time>2013-02-04T10:22:15.000Z</time>
      </trkpt>
      <trkpt lat="47.22446" lon="-0.0346">
        <ele>70</ele>
        <time>2013-02-04T10:22:16.000Z</time>
      </trkpt>
      <trkpt lat="47.22443" lon="-0.03465">
        <ele>70</ele>
        <time>2013-02-04T10:22:21.000Z</time>
      </trkpt>
      <trkpt lat="47.22443" lon="-0.03466">
        <ele>70</ele>
        <time>2013-02-04T10:22:22.000Z</time>
      </trkpt>
      <trkpt lat="47.22442" lon="-0.03469">
        <ele>70</ele>
        <time>2013-02-04T10:22:25.000Z</time>
      </trkpt>
      <trkpt lat="47.2244" lon="-0.03473">
        <ele>70</ele>
        <time>2013-02-04T10:22:26.000Z</time>
      </trkpt>
      <trkpt lat="47.22439" lon="-0.03478">
        <ele>70</ele>
        <time>2013-02-04T10:22:29.000Z</time>
      </trkpt>
      <trkpt lat="47.22438" lon="-0.03479">
        <ele>70</ele>
        <time>2013-02-04T10:22:30.000Z</time>
      </trkpt>
      <trkpt lat="47.22436" lon="-0.03482">
        <ele>70</ele>
        <time>2013-02-04T10:22:37.000Z</time>
      </trkpt>
      <trkpt lat="47.22435" lon="-0.03485">
        <ele>70</ele>
        <time>2013-02-04T10:22:38.000Z</time>
      </trkpt>
      <trkpt lat="47.22433" lon="-0.03489">
        <ele>69</ele>
        <time>2013-02-04T10:22:43.000Z</time>
      </trkpt>
      <trkpt lat="47.22432" lon="-0.0349">
        <ele>69</ele>
        <time>2013-02-04T10:22:44.000Z</time>
      </trkpt>
      <trkpt lat="47.22428" lon="-0.03493">
        <ele>69</ele>
        <time>2013-02-04T10:22:47.000Z</time>
      </trkpt>
      <trkpt lat="47.22428" lon="-0.03494">
        <ele>69</ele>
        <time>2013-02-04T10:22:48.000Z</time>
      </trkpt>
      <trkpt lat="47.22424" lon="-0.03496">
        <ele>69</ele>
        <time>2013-02-04T10:22:56.000Z</time>
      </trkpt>
      <trkpt lat="47.22423" lon="-0.03496">
        <ele>69</ele>
        <time>2013-02-04T10:22:57.000Z</time>
      </trkpt>
      <trkpt lat="47.2242" lon="-0.03499">
        <ele>68</ele>
        <time>2013-02-04T10:23:00.000Z</time>
      </trkpt>
      <trkpt lat="47.22419" lon="-0.035">
        <ele>68</ele>
        <time>2013-02-04T10:23:01.000Z</time>
      </trkpt>
      <trkpt lat="47.22415" lon="-0.035">
        <ele>68</ele>
        <time>2013-02-04T10:23:04.000Z</time>
      </trkpt>
      <trkpt lat="47.22413" lon="-0.03499">
        <ele>67</ele>
        <time>2013-02-04T10:23:05.000Z</time>
      </trkpt>
      <trkpt lat="47.22411" lon="-0.035">
        <ele>67</ele>
        <time>2013-02-04T10:23:06.000Z</time>
      </trkpt>
      <trkpt lat="47.22408" lon="-0.03502">
        <ele>67</ele>
        <time>2013-02-04T10:23:07.000Z</time>
      </trkpt>
      <trkpt lat="47.22405" lon="-0.03504">
        <ele>67</ele>
        <time>2013-02-04T10:23:09.000Z</time>
      </trkpt>
      <trkpt lat="47.22403" lon="-0.03507">
        <ele>67</ele>
        <time>2013-02-04T10:23:10.000Z</time>
      </trkpt>
      <trkpt lat="47.22401" lon="-0.03512">
        <ele>67</ele>
        <time>2013-02-04T10:23:12.000Z</time>
      </trkpt>
      <trkpt lat="47.22399" lon="-0.03516">
        <ele>67</ele>
        <time>2013-02-04T10:23:13.000Z</time>
      </trkpt>
      <trkpt lat="47.22397" lon="-0.03519">
        <ele>67</ele>
        <time>2013-02-04T10:23:14.000Z</time>
      </trkpt>
      <trkpt lat="47.22396" lon="-0.03521">
        <ele>67</ele>
        <time>2013-02-04T10:23:15.000Z</time>
      </trkpt>
      <trkpt lat="47.22393" lon="-0.03525">
        <ele>67</ele>
        <time>2013-02-04T10:23:18.000Z</time>
      </trkpt>
      <trkpt lat="47.22392" lon="-0.03526">
        <ele>67</ele>
        <time>2013-02-04T10:23:19.000Z</time>
      </trkpt>
      <trkpt lat="47.22389" lon="-0.03528">
        <ele>67</ele>
        <time>2013-02-04T10:23:23.000Z</time>
      </trkpt>
      <trkpt lat="47.22388" lon="-0.03529">
        <ele>67</ele>
        <time>2013-02-04T10:23:24.000Z</time>
      </trkpt>
      <trkpt lat="47.22386" lon="-0.03534">
        <ele>67</ele>
        <time>2013-02-04T10:23:33.000Z</time>
      </trkpt>
      <trkpt lat="47.22385" lon="-0.03535">
        <ele>67</ele>
        <time>2013-02-04T10:23:34.000Z</time>
      </trkpt>
      <trkpt lat="47.22385" lon="-0.03542">
        <ele>67</ele>
        <time>2013-02-04T10:23:41.000Z</time>
      </trkpt>
      <trkpt lat="47.22385" lon="-0.03543">
        <ele>67</ele>
        <time>2013-02-04T10:23:42.000Z</time>
      </trkpt>
      <trkpt lat="47.22383" lon="-0.03548">
        <ele>67</ele>
        <time>2013-02-04T10:23:49.000Z</time>
      </trkpt>
      <trkpt lat="47.22382" lon="-0.03549">
        <ele>67</ele>
        <time>2013-02-04T10:23:50.000Z</time>
      </trkpt>
      <trkpt lat="47.2238" lon="-0.03554">
        <ele>67</ele>
        <time>2013-02-04T10:23:54.000Z</time>
      </trkpt>
      <trkpt lat="47.2238" lon="-0.03555">
        <ele>67</ele>
        <time>2013-02-04T10:23:55.000Z</time>
      </trkpt>
      <trkpt lat="47.22377" lon="-0.0356">
        <ele>67</ele>
        <time>2013-02-04T10:23:59.000Z</time>
      </trkpt>
      <trkpt lat="47.22376" lon="-0.03561">
        <ele>67</ele>
        <time>2013-02-04T10:24:00.000Z</time>
      </trkpt>
      <trkpt lat="47.22374" lon="-0.03566">
        <ele>67</ele>
        <time>2013-02-04T10:24:04.000Z</time>
      </trkpt>
      <trkpt lat="47.22373" lon="-0.03566">
        <ele>67</ele>
        <time>2013-02-04T10:24:05.000Z</time>
      </trkpt>
      <trkpt lat="47.22371" lon="-0.03572">
        <ele>67</ele>
        <time>2013-02-04T10:24:15.000Z</time>
      </trkpt>
      <trkpt lat="47.2237" lon="-0.03574">
        <ele>67</ele>
        <time>2013-02-04T10:24:16.000Z</time>
      </trkpt>
      <trkpt lat="47.22368" lon="-0.03576">
        <ele>66</ele>
        <time>2013-02-04T10:24:17.000Z</time>
      </trkpt>
      <trkpt lat="47.22366" lon="-0.03581">
        <ele>66</ele>
        <time>2013-02-04T10:24:18.000Z</time>
      </trkpt>
      <trkpt lat="47.22364" lon="-0.03586">
        <ele>68</ele>
        <time>2013-02-04T10:24:19.000Z</time>
      </trkpt>
      <trkpt lat="47.22362" lon="-0.0359">
        <ele>68</ele>
        <time>2013-02-04T10:24:20.000Z</time>
      </trkpt>
      <trkpt lat="47.22359" lon="-0.03594">
        <ele>68</ele>
        <time>2013-02-04T10:24:21.000Z</time>
      </trkpt>
      <trkpt lat="47.22357" lon="-0.03599">
        <ele>68</ele>
        <time>2013-02-04T10:24:22.000Z</time>
      </trkpt>
      <trkpt lat="47.22351" lon="-0.03609">
        <ele>68</ele>
        <time>2013-02-04T10:24:23.000Z</time>
      </trkpt>
      <trkpt lat="47.22347" lon="-0.03616">
        <ele>68</ele>
        <time>2013-02-04T10:24:24.000Z</time>
      </trkpt>
      <trkpt lat="47.22344" lon="-0.03621">
        <ele>68</ele>
        <time>2013-02-04T10:24:25.000Z</time>
      </trkpt>
      <trkpt lat="47.22342" lon="-0.03625">
        <ele>69</ele>
        <time>2013-02-04T10:24:26.000Z</time>
      </trkpt>
      <trkpt lat="47.2234" lon="-0.0363">
        <ele>69</ele>
        <time>2013-02-04T10:24:28.000Z</time>
      </trkpt>
      <trkpt lat="47.22338" lon="-0.03634">
        <ele>69</ele>
        <time>2013-02-04T10:24:29.000Z</time>
      </trkpt>
      <trkpt lat="47.22337" lon="-0.0364">
        <ele>69</ele>
        <time>2013-02-04T10:24:31.000Z</time>
      </trkpt>
      <trkpt lat="47.22336" lon="-0.03642">
        <ele>69</ele>
        <time>2013-02-04T10:24:32.000Z</time>
      </trkpt>
      <trkpt lat="47.22335" lon="-0.03647">
        <ele>68</ele>
        <time>2013-02-04T10:24:36.000Z</time>
      </trkpt>
      <trkpt lat="47.22334" lon="-0.03649">
        <ele>68</ele>
        <time>2013-02-04T10:24:37.000Z</time>
      </trkpt>
      <trkpt lat="47.22334" lon="-0.03653">
        <ele>68</ele>
        <time>2013-02-04T10:24:41.000Z</time>
      </trkpt>
      <trkpt lat="47.22334" lon="-0.03656">
        <ele>68</ele>
        <time>2013-02-04T10:24:42.000Z</time>
      </trkpt>
      <trkpt lat="47.22332" lon="-0.03661">
        <ele>66</ele>
        <time>2013-02-04T10:24:46.000Z</time>
      </trkpt>
      <trkpt lat="47.22332" lon="-0.03663">
        <ele>66</ele>
        <time>2013-02-04T10:24:47.000Z</time>
      </trkpt>
      <trkpt lat="47.2233" lon="-0.03668">
        <ele>66</ele>
        <time>2013-02-04T10:24:50.000Z</time>
      </trkpt>
      <trkpt lat="47.2233" lon="-0.03671">
        <ele>66</ele>
        <time>2013-02-04T10:24:51.000Z</time>
      </trkpt>
      <trkpt lat="47.22329" lon="-0.03675">
        <ele>66</ele>
        <time>2013-02-04T10:24:53.000Z</time>
      </trkpt>
      <trkpt lat="47.22329" lon="-0.03678">
        <ele>65</ele>
        <time>2013-02-04T10:24:54.000Z</time>
      </trkpt>
      <trkpt lat="47.22327" lon="-0.03682">
        <ele>65</ele>
        <time>2013-02-04T10:25:00.000Z</time>
      </trkpt>
      <trkpt lat="47.22326" lon="-0.03683">
        <ele>65</ele>
        <time>2013-02-04T10:25:01.000Z</time>
      </trkpt>
      <trkpt lat="47.22324" lon="-0.03688">
        <ele>64</ele>
        <time>2013-02-04T10:25:05.000Z</time>
      </trkpt>
      <trkpt lat="47.22324" lon="-0.03689">
        <ele>64</ele>
        <time>2013-02-04T10:25:06.000Z</time>
      </trkpt>
      <trkpt lat="47.22325" lon="-0.03695">
        <ele>64</ele>
        <time>2013-02-04T10:25:09.000Z</time>
      </trkpt>
      <trkpt lat="47.22325" lon="-0.03697">
        <ele>64</ele>
        <time>2013-02-04T10:25:10.000Z</time>
      </trkpt>
      <trkpt lat="47.22326" lon="-0.03702">
        <ele>64</ele>
        <time>2013-02-04T10:25:13.000Z</time>
      </trkpt>
      <trkpt lat="47.22325" lon="-0.03703">
        <ele>64</ele>
        <time>2013-02-04T10:25:14.000Z</time>
      </trkpt>
      <trkpt lat="47.22324" lon="-0.03708">
        <ele>64</ele>
        <time>2013-02-04T10:25:17.000Z</time>
      </trkpt>
      <trkpt lat="47.22324" lon="-0.0371">
        <ele>64</ele>
        <time>2013-02-04T10:25:18.000Z</time>
      </trkpt>
      <trkpt lat="47.22323" lon="-0.03714">
        <ele>64</ele>
        <time>2013-02-04T10:25:21.000Z</time>
      </trkpt>
      <trkpt lat="47.22322" lon="-0.03716">
        <ele>64</ele>
        <time>2013-02-04T10:25:22.000Z</time>
      </trkpt>
      <trkpt lat="47.22321" lon="-0.03723">
        <ele>64</ele>
        <time>2013-02-04T10:25:26.000Z</time>
      </trkpt>
      <trkpt lat="47.22321" lon="-0.03723">
        <ele>64</ele>
        <time>2013-02-04T10:25:27.000Z</time>
      </trkpt>
      <trkpt lat="47.22318" lon="-0.03728">
        <ele>64</ele>
        <time>2013-02-04T10:25:35.000Z</time>
      </trkpt>
      <trkpt lat="47.22317" lon="-0.03729">
        <ele>64</ele>
        <time>2013-02-04T10:25:36.000Z</time>
      </trkpt>
      <trkpt lat="47.22317" lon="-0.03732">
        <ele>64</ele>
        <time>2013-02-04T10:25:37.000Z</time>
      </trkpt>
      <trkpt lat="47.22317" lon="-0.0374">
        <ele>65</ele>
        <time>2013-02-04T10:25:38.000Z</time>
      </trkpt>
      <trkpt lat="47.22317" lon="-0.03747">
        <ele>65</ele>
        <time>2013-02-04T10:25:40.000Z</time>
      </trkpt>
      <trkpt lat="47.22316" lon="-0.03749">
        <ele>65</ele>
        <time>2013-02-04T10:25:41.000Z</time>
      </trkpt>
      <trkpt lat="47.22316" lon="-0.03755">
        <ele>64</ele>
        <time>2013-02-04T10:25:46.000Z</time>
      </trkpt>
      <trkpt lat="47.22315" lon="-0.03755">
        <ele>64</ele>
        <time>2013-02-04T10:25:47.000Z</time>
      </trkpt>
      <trkpt lat="47.22315" lon="-0.0376">
        <ele>64</ele>
        <time>2013-02-04T10:25:52.000Z</time>
      </trkpt>
      <trkpt lat="47.22315" lon="-0.03762">
        <ele>64</ele>
        <time>2013-02-04T10:25:53.000Z</time>
      </trkpt>
      <trkpt lat="47.22313" lon="-0.03767">
        <ele>63</ele>
        <time>2013-02-04T10:25:58.000Z</time>
      </trkpt>
      <trkpt lat="47.22312" lon="-0.03769">
        <ele>63</ele>
        <time>2013-02-04T10:25:59.000Z</time>
      </trkpt>
      <trkpt lat="47.22311" lon="-0.03774">
        <ele>63</ele>
        <time>2013-02-04T10:26:00.000Z</time>
      </trkpt>
      <trkpt lat="47.2231" lon="-0.03778">
        <ele>62</ele>
        <time>2013-02-04T10:26:01.000Z</time>
      </trkpt>
      <trkpt lat="47.22312" lon="-0.03784">
        <ele>62</ele>
        <time>2013-02-04T10:26:05.000Z</time>
      </trkpt>
      <trkpt lat="47.22311" lon="-0.03786">
        <ele>62</ele>
        <time>2013-02-04T10:26:06.000Z</time>
      </trkpt>
      <trkpt lat="47.22311" lon="-0.03789">
        <ele>62</ele>
        <time>2013-02-04T10:26:08.000Z</time>
      </trkpt>
      <trkpt lat="47.22311" lon="-0.03792">
        <ele>62</ele>
        <time>2013-02-04T10:26:09.000Z</time>
      </trkpt>
      <trkpt lat="47.22312" lon="-0.03799">
        <ele>62</ele>
        <time>2013-02-04T10:26:12.000Z</time>
      </trkpt>
      <trkpt lat="47.22313" lon="-0.038">
        <ele>62</ele>
        <time>2013-02-04T10:26:13.000Z</time>
      </trkpt>
      <trkpt lat="47.22313" lon="-0.03806">
        <ele>62</ele>
        <time>2013-02-04T10:26:15.000Z</time>
      </trkpt>
      <trkpt lat="47.22313" lon="-0.03807">
        <ele>62</ele>
        <time>2013-02-04T10:26:16.000Z</time>
      </trkpt>
      <trkpt lat="47.22313" lon="-0.0381">
        <ele>62</ele>
        <time>2013-02-04T10:26:17.000Z</time>
      </trkpt>
      <trkpt lat="47.22314" lon="-0.03814">
        <ele>62</ele>
        <time>2013-02-04T10:26:18.000Z</time>
      </trkpt>
      <trkpt lat="47.22314" lon="-0.0382">
        <ele>62</ele>
        <time>2013-02-04T10:26:22.000Z</time>
      </trkpt>
      <trkpt lat="47.22315" lon="-0.03822">
        <ele>62</ele>
        <time>2013-02-04T10:26:23.000Z</time>
      </trkpt>
      <trkpt lat="47.22315" lon="-0.03826">
        <ele>62</ele>
        <time>2013-02-04T10:26:24.000Z</time>
      </trkpt>
      <trkpt lat="47.22315" lon="-0.03829">
        <ele>62</ele>
        <time>2013-02-04T10:26:25.000Z</time>
      </trkpt>
      <trkpt lat="47.22315" lon="-0.03835">
        <ele>62</ele>
        <time>2013-02-04T10:26:27.000Z</time>
      </trkpt>
      <trkpt lat="47.22315" lon="-0.03836">
        <ele>62</ele>
        <time>2013-02-04T10:26:28.000Z</time>
      </trkpt>
      <trkpt lat="47.22316" lon="-0.03842">
        <ele>62</ele>
        <time>2013-02-04T10:26:31.000Z</time>
      </trkpt>
      <trkpt lat="47.22316" lon="-0.03844">
        <ele>62</ele>
        <time>2013-02-04T10:26:32.000Z</time>
      </trkpt>
      <trkpt lat="47.22318" lon="-0.03849">
        <ele>62</ele>
        <time>2013-02-04T10:26:44.000Z</time>
      </trkpt>
      <trkpt lat="47.22318" lon="-0.0385">
        <ele>62</ele>
        <time>2013-02-04T10:26:45.000Z</time>
      </trkpt>
      <trkpt lat="47.2232" lon="-0.03855">
        <ele>62</ele>
        <time>2013-02-04T10:26:46.000Z</time>
      </trkpt>
      <trkpt lat="47.22321" lon="-0.03857">
        <ele>62</ele>
        <time>2013-02-04T10:26:47.000Z</time>
      </trkpt>
      <trkpt lat="47.22323" lon="-0.03863">
        <ele>62</ele>
        <time>2013-02-04T10:26:54.000Z</time>
      </trkpt>
      <trkpt lat="47.22322" lon="-0.03865">
        <ele>62</ele>
        <time>2013-02-04T10:26:55.000Z</time>
      </trkpt>
      <trkpt lat="47.22322" lon="-0.03868">
        <ele>62</ele>
        <time>2013-02-04T10:26:56.000Z</time>
      </trkpt>
      <trkpt lat="47.22324" lon="-0.03874">
        <ele>62</ele>
        <time>2013-02-04T10:26:57.000Z</time>
      </trkpt>
      <trkpt lat="47.22326" lon="-0.0388">
        <ele>62</ele>
        <time>2013-02-04T10:27:00.000Z</time>
      </trkpt>
      <trkpt lat="47.22326" lon="-0.03881">
        <ele>62</ele>
        <time>2013-02-04T10:27:01.000Z</time>
      </trkpt>
      <trkpt lat="47.22329" lon="-0.03887">
        <ele>62</ele>
        <time>2013-02-04T10:27:07.000Z</time>
      </trkpt>
      <trkpt lat="47.22329" lon="-0.03888">
        <ele>62</ele>
        <time>2013-02-04T10:27:08.000Z</time>
      </trkpt>
      <trkpt lat="47.22327" lon="-0.03893">
        <ele>62</ele>
        <time>2013-02-04T10:27:18.000Z</time>
      </trkpt>
      <trkpt lat="47.22325" lon="-0.03893">
        <ele>62</ele>
        <time>2013-02-04T10:27:19.000Z</time>
      </trkpt>
      <trkpt lat="47.22322" lon="-0.03894">
        <ele>62</ele>
        <time>2013-02-04T10:27:22.000Z</time>
      </trkpt>
      <trkpt lat="47.2232" lon="-0.03895">
        <ele>62</ele>
        <time>2013-02-04T10:27:23.000Z</time>
      </trkpt>
      <trkpt lat="47.22316" lon="-0.03894">
        <ele>62</ele>
        <time>2013-02-04T10:27:27.000Z</time>
      </trkpt>
      <trkpt lat="47.22315" lon="-0.03893">
        <ele>62</ele>
        <time>2013-02-04T10:27:28.000Z</time>
      </trkpt>
      <trkpt lat="47.22314" lon="-0.03891">
        <ele>62</ele>
        <time>2013-02-04T10:27:29.000Z</time>
      </trkpt>
      <trkpt lat="47.22311" lon="-0.03889">
        <ele>62</ele>
        <time>2013-02-04T10:27:30.000Z</time>
      </trkpt>
      <trkpt lat="47.22308" lon="-0.03886">
        <ele>61</ele>
        <time>2013-02-04T10:27:31.000Z</time>
      </trkpt>
      <trkpt lat="47.22307" lon="-0.03885">
        <ele>61</ele>
        <time>2013-02-04T10:27:32.000Z</time>
      </trkpt>
      <trkpt lat="47.22303" lon="-0.03883">
        <ele>61</ele>
        <time>2013-02-04T10:27:34.000Z</time>
      </trkpt>
      <trkpt lat="47.22301" lon="-0.03883">
        <ele>61</ele>
        <time>2013-02-04T10:27:35.000Z</time>
      </trkpt>
      <trkpt lat="47.22297" lon="-0.03882">
        <ele>61</ele>
        <time>2013-02-04T10:27:39.000Z</time>
      </trkpt>
      <trkpt lat="47.22296" lon="-0.03881">
        <ele>61</ele>
        <time>2013-02-04T10:27:40.000Z</time>
      </trkpt>
      <trkpt lat="47.22292" lon="-0.03878">
        <ele>61</ele>
        <time>2013-02-04T10:27:43.000Z</time>
      </trkpt>
      <trkpt lat="47.22291" lon="-0.03878">
        <ele>60</ele>
        <time>2013-02-04T10:27:44.000Z</time>
      </trkpt>
      <trkpt lat="47.22288" lon="-0.03877">
        <ele>60</ele>
        <time>2013-02-04T10:27:47.000Z</time>
      </trkpt>
      <trkpt lat="47.22286" lon="-0.03877">
        <ele>60</ele>
        <time>2013-02-04T10:27:48.000Z</time>
      </trkpt>
      <trkpt lat="47.22282" lon="-0.03873">
        <ele>60</ele>
        <time>2013-02-04T10:27:51.000Z</time>
      </trkpt>
      <trkpt lat="47.22281" lon="-0.03872">
        <ele>60</ele>
        <time>2013-02-04T10:27:52.000Z</time>
      </trkpt>
      <trkpt lat="47.22278" lon="-0.03871">
        <ele>60</ele>
        <time>2013-02-04T10:27:55.000Z</time>
      </trkpt>
      <trkpt lat="47.22277" lon="-0.0387">
        <ele>60</ele>
        <time>2013-02-04T10:27:56.000Z</time>
      </trkpt>
      <trkpt lat="47.22274" lon="-0.03868">
        <ele>60</ele>
        <time>2013-02-04T10:27:59.000Z</time>
      </trkpt>
      <trkpt lat="47.22273" lon="-0.03868">
        <ele>60</ele>
        <time>2013-02-04T10:28:00.000Z</time>
      </trkpt>
      <trkpt lat="47.22269" lon="-0.03866">
        <ele>59</ele>
        <time>2013-02-04T10:28:04.000Z</time>
      </trkpt>
      <trkpt lat="47.22268" lon="-0.03865">
        <ele>59</ele>
        <time>2013-02-04T10:28:05.000Z</time>
      </trkpt>
      <trkpt lat="47.22264" lon="-0.03864">
        <ele>59</ele>
        <time>2013-02-04T10:28:09.000Z</time>
      </trkpt>
      <trkpt lat="47.22264" lon="-0.03864">
        <ele>59</ele>
        <time>2013-02-04T10:28:10.000Z</time>
      </trkpt>
      <trkpt lat="47.2226" lon="-0.03862">
        <ele>59</ele>
        <time>2013-02-04T10:28:13.000Z</time>
      </trkpt>
      <trkpt lat="47.22259" lon="-0.03861">
        <ele>59</ele>
        <time>2013-02-04T10:28:14.000Z</time>
      </trkpt>
      <trkpt lat="47.22257" lon="-0.03858">
        <ele>59</ele>
        <time>2013-02-04T10:28:16.000Z</time>
      </trkpt>
      <trkpt lat="47.22255" lon="-0.03858">
        <ele>59</ele>
        <time>2013-02-04T10:28:17.000Z</time>
      </trkpt>
      <trkpt lat="47.22252" lon="-0.03857">
        <ele>58</ele>
        <time>2013-02-04T10:28:19.000Z</time>
      </trkpt>
      <trkpt lat="47.2225" lon="-0.03857">
        <ele>57</ele>
        <time>2013-02-04T10:28:20.000Z</time>
      </trkpt>
      <trkpt lat="47.22245" lon="-0.03857">
        <ele>57</ele>
        <time>2013-02-04T10:28:24.000Z</time>
      </trkpt>
      <trkpt lat="47.22244" lon="-0.03857">
        <ele>57</ele>
        <time>2013-02-04T10:28:25.000Z</time>
      </trkpt>
      <trkpt lat="47.22241" lon="-0.03854">
        <ele>57</ele>
        <time>2013-02-04T10:28:28.000Z</time>
      </trkpt>
      <trkpt lat="47.22239" lon="-0.03853">
        <ele>57</ele>
        <time>2013-02-04T10:28:29.000Z</time>
      </trkpt>
      <trkpt lat="47.22235" lon="-0.03851">
        <ele>57</ele>
        <time>2013-02-04T10:28:35.000Z</time>
      </trkpt>
      <trkpt lat="47.22234" lon="-0.03851">
        <ele>57</ele>
        <time>2013-02-04T10:28:36.000Z</time>
      </trkpt>
      <trkpt lat="47.22231" lon="-0.03848">
        <ele>57</ele>
        <time>2013-02-04T10:28:40.000Z</time>
      </trkpt>
      <trkpt lat="47.2223" lon="-0.03847">
        <ele>57</ele>
        <time>2013-02-04T10:28:41.000Z</time>
      </trkpt>
      <trkpt lat="47.22226" lon="-0.03846">
        <ele>57</ele>
        <time>2013-02-04T10:28:43.000Z</time>
      </trkpt>
      <trkpt lat="47.22225" lon="-0.03845">
        <ele>57</ele>
        <time>2013-02-04T10:28:44.000Z</time>
      </trkpt>
      <trkpt lat="47.22221" lon="-0.03844">
        <ele>57</ele>
        <time>2013-02-04T10:28:46.000Z</time>
      </trkpt>
      <trkpt lat="47.22219" lon="-0.03844">
        <ele>57</ele>
        <time>2013-02-04T10:28:47.000Z</time>
      </trkpt>
      <trkpt lat="47.22216" lon="-0.03846">
        <ele>57</ele>
        <time>2013-02-04T10:28:52.000Z</time>
      </trkpt>
      <trkpt lat="47.22215" lon="-0.03847">
        <ele>58</ele>
        <time>2013-02-04T10:28:53.000Z</time>
      </trkpt>
      <trkpt lat="47.22212" lon="-0.03851">
        <ele>58</ele>
        <time>2013-02-04T10:28:56.000Z</time>
      </trkpt>
      <trkpt lat="47.22212" lon="-0.03853">
        <ele>58</ele>
        <time>2013-02-04T10:28:57.000Z</time>
      </trkpt>
      <trkpt lat="47.22211" lon="-0.03857">
        <ele>58</ele>
        <time>2013-02-04T10:28:59.000Z</time>
      </trkpt>
      <trkpt lat="47.22211" lon="-0.0386">
        <ele>58</ele>
        <time>2013-02-04T10:29:00.000Z</time>
      </trkpt>
      <trkpt lat="47.22211" lon="-0.03866">
        <ele>58</ele>
        <time>2013-02-04T10:29:02.000Z</time>
      </trkpt>
      <trkpt lat="47.2221" lon="-0.03868">
        <ele>58</ele>
        <time>2013-02-04T10:29:03.000Z</time>
      </trkpt>
      <trkpt lat="47.2221" lon="-0.03874">
        <ele>58</ele>
        <time>2013-02-04T10:29:05.000Z</time>
      </trkpt>
      <trkpt lat="47.2221" lon="-0.03876">
        <ele>58</ele>
        <time>2013-02-04T10:29:06.000Z</time>
      </trkpt>
      <trkpt lat="47.2221" lon="-0.03882">
        <ele>58</ele>
        <time>2013-02-04T10:29:09.000Z</time>
      </trkpt>
      <trkpt lat="47.22209" lon="-0.03884">
        <ele>58</ele>
        <time>2013-02-04T10:29:10.000Z</time>
      </trkpt>
      <trkpt lat="47.2221" lon="-0.0389">
        <ele>58</ele>
        <time>2013-02-04T10:29:13.000Z</time>
      </trkpt>
      <trkpt lat="47.2221" lon="-0.03891">
        <ele>58</ele>
        <time>2013-02-04T10:29:14.000Z</time>
      </trkpt>
      <trkpt lat="47.2221" lon="-0.03897">
        <ele>58</ele>
        <time>2013-02-04T10:29:20.000Z</time>
      </trkpt>
      <trkpt lat="47.22209" lon="-0.03899">
        <ele>58</ele>
        <time>2013-02-04T10:29:21.000Z</time>
      </trkpt>
      <trkpt lat="47.22208" lon="-0.03904">
        <ele>58</ele>
        <time>2013-02-04T10:29:23.000Z</time>
      </trkpt>
      <trkpt lat="47.22208" lon="-0.03906">
        <ele>58</ele>
        <time>2013-02-04T10:29:24.000Z</time>
      </trkpt>
      <trkpt lat="47.22208" lon="-0.03913">
        <ele>58</ele>
        <time>2013-02-04T10:29:27.000Z</time>
      </trkpt>
      <trkpt lat="47.22208" lon="-0.03916">
        <ele>58</ele>
        <time>2013-02-04T10:29:28.000Z</time>
      </trkpt>
      <trkpt lat="47.22208" lon="-0.03921">
        <ele>57</ele>
        <time>2013-02-04T10:29:32.000Z</time>
      </trkpt>
      <trkpt lat="47.22208" lon="-0.03923">
        <ele>57</ele>
        <time>2013-02-04T10:29:33.000Z</time>
      </trkpt>
      <trkpt lat="47.22207" lon="-0.03928">
        <ele>57</ele>
        <time>2013-02-04T10:29:36.000Z</time>
      </trkpt>
      <trkpt lat="47.22207" lon="-0.0393">
        <ele>57</ele>
        <time>2013-02-04T10:29:37.000Z</time>
      </trkpt>
      <trkpt lat="47.22206" lon="-0.03936">
        <ele>57</ele>
        <time>2013-02-04T10:29:40.000Z</time>
      </trkpt>
      <trkpt lat="47.22207" lon="-0.03939">
        <ele>57</ele>
        <time>2013-02-04T10:29:41.000Z</time>
      </trkpt>
      <trkpt lat="47.22207" lon="-0.03944">
        <ele>57</ele>
        <time>2013-02-04T10:29:43.000Z</time>
      </trkpt>
      <trkpt lat="47.22207" lon="-0.03946">
        <ele>57</ele>
        <time>2013-02-04T10:29:44.000Z</time>
      </trkpt>
      <trkpt lat="47.22207" lon="-0.03953">
        <ele>57</ele>
        <time>2013-02-04T10:29:47.000Z</time>
      </trkpt>
      <trkpt lat="47.22207" lon="-0.03955">
        <ele>57</ele>
        <time>2013-02-04T10:29:48.000Z</time>
      </trkpt>
      <trkpt lat="47.22206" lon="-0.0396">
        <ele>57</ele>
        <time>2013-02-04T10:29:51.000Z</time>
      </trkpt>
      <trkpt lat="47.22206" lon="-0.03962">
        <ele>57</ele>
        <time>2013-02-04T10:29:52.000Z</time>
      </trkpt>
      <trkpt lat="47.22206" lon="-0.03968">
        <ele>57</ele>
        <time>2013-02-04T10:29:56.000Z</time>
      </trkpt>
      <trkpt lat="47.22206" lon="-0.03969">
        <ele>57</ele>
        <time>2013-02-04T10:29:57.000Z</time>
      </trkpt>
      <trkpt lat="47.22206" lon="-0.03975">
        <ele>57</ele>
        <time>2013-02-04T10:30:00.000Z</time>
      </trkpt>
      <trkpt lat="47.22206" lon="-0.03977">
        <ele>57</ele>
        <time>2013-02-04T10:30:01.000Z</time>
      </trkpt>
      <trkpt lat="47.22207" lon="-0.03982">
        <ele>57</ele>
        <time>2013-02-04T10:30:05.000Z</time>
      </trkpt>
      <trkpt lat="47.22207" lon="-0.03984">
        <ele>57</ele>
        <time>2013-02-04T10:30:06.000Z</time>
      </trkpt>
      <trkpt lat="47.22207" lon="-0.0399">
        <ele>57</ele>
        <time>2013-02-04T10:30:09.000Z</time>
      </trkpt>
      <trkpt lat="47.22207" lon="-0.03991">
        <ele>57</ele>
        <time>2013-02-04T10:30:10.000Z</time>
      </trkpt>
      <trkpt lat="47.22208" lon="-0.03998">
        <ele>57</ele>
        <time>2013-02-04T10:30:13.000Z</time>
      </trkpt>
      <trkpt lat="47.22208" lon="-0.03999">
        <ele>57</ele>
        <time>2013-02-04T10:30:14.000Z</time>
      </trkpt>
      <trkpt lat="47.22207" lon="-0.04005">
        <ele>55</ele>
        <time>2013-02-04T10:30:18.000Z</time>
      </trkpt>
      <trkpt lat="47.22207" lon="-0.04007">
        <ele>55</ele>
        <time>2013-02-04T10:30:19.000Z</time>
      </trkpt>
      <trkpt lat="47.22208" lon="-0.04013">
        <ele>55</ele>
        <time>2013-02-04T10:30:23.000Z</time>
      </trkpt>
      <trkpt lat="47.22208" lon="-0.04015">
        <ele>55</ele>
        <time>2013-02-04T10:30:24.000Z</time>
      </trkpt>
      <trkpt lat="47.22209" lon="-0.04021">
        <ele>55</ele>
        <time>2013-02-04T10:30:27.000Z</time>
      </trkpt>
      <trkpt lat="47.22209" lon="-0.04023">
        <ele>55</ele>
        <time>2013-02-04T10:30:28.000Z</time>
      </trkpt>
      <trkpt lat="47.2221" lon="-0.04029">
        <ele>55</ele>
        <time>2013-02-04T10:30:31.000Z</time>
      </trkpt>
      <trkpt lat="47.2221" lon="-0.04031">
        <ele>55</ele>
        <time>2013-02-04T10:30:32.000Z</time>
      </trkpt>
      <trkpt lat="47.2221" lon="-0.04035">
        <ele>55</ele>
        <time>2013-02-04T10:30:34.000Z</time>
      </trkpt>
      <trkpt lat="47.2221" lon="-0.04038">
        <ele>55</ele>
        <time>2013-02-04T10:30:35.000Z</time>
      </trkpt>
      <trkpt lat="47.2221" lon="-0.04043">
        <ele>55</ele>
        <time>2013-02-04T10:30:38.000Z</time>
      </trkpt>
      <trkpt lat="47.2221" lon="-0.04046">
        <ele>55</ele>
        <time>2013-02-04T10:30:39.000Z</time>
      </trkpt>
      <trkpt lat="47.2221" lon="-0.0405">
        <ele>55</ele>
        <time>2013-02-04T10:30:41.000Z</time>
      </trkpt>
      <trkpt lat="47.2221" lon="-0.04053">
        <ele>55</ele>
        <time>2013-02-04T10:30:42.000Z</time>
      </trkpt>
      <trkpt lat="47.22208" lon="-0.04058">
        <ele>55</ele>
        <time>2013-02-04T10:30:46.000Z</time>
      </trkpt>
      <trkpt lat="47.22208" lon="-0.04059">
        <ele>55</ele>
        <time>2013-02-04T10:30:47.000Z</time>
      </trkpt>
      <trkpt lat="47.22207" lon="-0.04065">
        <ele>54</ele>
        <time>2013-02-04T10:30:51.000Z</time>
      </trkpt>
      <trkpt lat="47.22208" lon="-0.04066">
        <ele>54</ele>
        <time>2013-02-04T10:30:52.000Z</time>
      </trkpt>
      <trkpt lat="47.22208" lon="-0.04072">
        <ele>54</ele>
        <time>2013-02-04T10:30:55.000Z</time>
      </trkpt>
      <trkpt lat="47.22208" lon="-0.04073">
        <ele>54</ele>
        <time>2013-02-04T10:30:56.000Z</time>
      </trkpt>
      <trkpt lat="47.22208" lon="-0.04078">
        <ele>54</ele>
        <time>2013-02-04T10:30:59.000Z</time>
      </trkpt>
      <trkpt lat="47.22207" lon="-0.0408">
        <ele>54</ele>
        <time>2013-02-04T10:31:00.000Z</time>
      </trkpt>
      <trkpt lat="47.22207" lon="-0.04086">
        <ele>53</ele>
        <time>2013-02-04T10:31:02.000Z</time>
      </trkpt>
      <trkpt lat="47.22207" lon="-0.04088">
        <ele>53</ele>
        <time>2013-02-04T10:31:03.000Z</time>
      </trkpt>
      <trkpt lat="47.22207" lon="-0.04094">
        <ele>53</ele>
        <time>2013-02-04T10:31:06.000Z</time>
      </trkpt>
      <trkpt lat="47.22207" lon="-0.04097">
        <ele>53</ele>
        <time>2013-02-04T10:31:07.000Z</time>
      </trkpt>
      <trkpt lat="47.22208" lon="-0.04103">
        <ele>53</ele>
        <time>2013-02-04T10:31:11.000Z</time>
      </trkpt>
      <trkpt lat="47.22209" lon="-0.04104">
        <ele>53</ele>
        <time>2013-02-04T10:31:12.000Z</time>
      </trkpt>
      <trkpt lat="47.22209" lon="-0.0411">
        <ele>53</ele>
        <time>2013-02-04T10:31:15.000Z</time>
      </trkpt>
      <trkpt lat="47.22209" lon="-0.04112">
        <ele>53</ele>
        <time>2013-02-04T10:31:16.000Z</time>
      </trkpt>
      <trkpt lat="47.2221" lon="-0.04118">
        <ele>53</ele>
        <time>2013-02-04T10:31:21.000Z</time>
      </trkpt>
      <trkpt lat="47.2221" lon="-0.04119">
        <ele>53</ele>
        <time>2013-02-04T10:31:22.000Z</time>
      </trkpt>
      <trkpt lat="47.2221" lon="-0.04125">
        <ele>53</ele>
        <time>2013-02-04T10:31:26.000Z</time>
      </trkpt>
      <trkpt lat="47.2221" lon="-0.04127">
        <ele>53</ele>
        <time>2013-02-04T10:31:27.000Z</time>
      </trkpt>
      <trkpt lat="47.22211" lon="-0.04131">
        <ele>53</ele>
        <time>2013-02-04T10:31:29.000Z</time>
      </trkpt>
      <trkpt lat="47.22211" lon="-0.04134">
        <ele>53</ele>
        <time>2013-02-04T10:31:30.000Z</time>
      </trkpt>
      <trkpt lat="47.22211" lon="-0.0414">
        <ele>53</ele>
        <time>2013-02-04T10:31:35.000Z</time>
      </trkpt>
      <trkpt lat="47.22211" lon="-0.04141">
        <ele>53</ele>
        <time>2013-02-04T10:31:36.000Z</time>
      </trkpt>
      <trkpt lat="47.22211" lon="-0.04148">
        <ele>53</ele>
        <time>2013-02-04T10:31:39.000Z</time>
      </trkpt>
      <trkpt lat="47.22212" lon="-0.0415">
        <ele>53</ele>
        <time>2013-02-04T10:31:40.000Z</time>
      </trkpt>
      <trkpt lat="47.22212" lon="-0.04156">
        <ele>53</ele>
        <time>2013-02-04T10:31:43.000Z</time>
      </trkpt>
      <trkpt lat="47.22212" lon="-0.04159">
        <ele>53</ele>
        <time>2013-02-04T10:31:44.000Z</time>
      </trkpt>
      <trkpt lat="47.22212" lon="-0.04163">
        <ele>53</ele>
        <time>2013-02-04T10:31:47.000Z</time>
      </trkpt>
      <trkpt lat="47.22212" lon="-0.04165">
        <ele>53</ele>
        <time>2013-02-04T10:31:48.000Z</time>
      </trkpt>
      <trkpt lat="47.22213" lon="-0.04172">
        <ele>53</ele>
        <time>2013-02-04T10:31:52.000Z</time>
      </trkpt>
      <trkpt lat="47.22213" lon="-0.04173">
        <ele>53</ele>
        <time>2013-02-04T10:31:53.000Z</time>
      </trkpt>
      <trkpt lat="47.22214" lon="-0.04179">
        <ele>52</ele>
        <time>2013-02-04T10:31:58.000Z</time>
      </trkpt>
      <trkpt lat="47.22214" lon="-0.04181">
        <ele>52</ele>
        <time>2013-02-04T10:31:59.000Z</time>
      </trkpt>
      <trkpt lat="47.22215" lon="-0.04187">
        <ele>52</ele>
        <time>2013-02-04T10:32:02.000Z</time>
      </trkpt>
      <trkpt lat="47.22215" lon="-0.04188">
        <ele>52</ele>
        <time>2013-02-04T10:32:03.000Z</time>
      </trkpt>
      <trkpt lat="47.22215" lon="-0.04193">
        <ele>52</ele>
        <time>2013-02-04T10:32:05.000Z</time>
      </trkpt>
      <trkpt lat="47.22216" lon="-0.04195">
        <ele>52</ele>
        <time>2013-02-04T10:32:06.000Z</time>
      </trkpt>
      <trkpt lat="47.22217" lon="-0.042">
        <ele>52</ele>
        <time>2013-02-04T10:32:09.000Z</time>
      </trkpt>
      <trkpt lat="47.22218" lon="-0.04203">
        <ele>52</ele>
        <time>2013-02-04T10:32:10.000Z</time>
      </trkpt>
      <trkpt lat="47.22218" lon="-0.04209">
        <ele>52</ele>
        <time>2013-02-04T10:32:13.000Z</time>
      </trkpt>
      <trkpt lat="47.22218" lon="-0.04211">
        <ele>52</ele>
        <time>2013-02-04T10:32:14.000Z</time>
      </trkpt>
      <trkpt lat="47.22218" lon="-0.04217">
        <ele>52</ele>
        <time>2013-02-04T10:32:17.000Z</time>
      </trkpt>
      <trkpt lat="47.22219" lon="-0.04219">
        <ele>52</ele>
        <time>2013-02-04T10:32:18.000Z</time>
      </trkpt>
      <trkpt lat="47.22219" lon="-0.04224">
        <ele>52</ele>
        <time>2013-02-04T10:32:21.000Z</time>
      </trkpt>
      <trkpt lat="47.22219" lon="-0.04226">
        <ele>52</ele>
        <time>2013-02-04T10:32:22.000Z</time>
      </trkpt>
      <trkpt lat="47.22219" lon="-0.04231">
        <ele>52</ele>
        <time>2013-02-04T10:32:24.000Z</time>
      </trkpt>
      <trkpt lat="47.22219" lon="-0.04233">
        <ele>52</ele>
        <time>2013-02-04T10:32:25.000Z</time>
      </trkpt>
      <trkpt lat="47.2222" lon="-0.04239">
        <ele>52</ele>
        <time>2013-02-04T10:32:28.000Z</time>
      </trkpt>
      <trkpt lat="47.2222" lon="-0.04242">
        <ele>52</ele>
        <time>2013-02-04T10:32:29.000Z</time>
      </trkpt>
      <trkpt lat="47.22221" lon="-0.04248">
        <ele>52</ele>
        <time>2013-02-04T10:32:32.000Z</time>
      </trkpt>
      <trkpt lat="47.22221" lon="-0.0425">
        <ele>52</ele>
        <time>2013-02-04T10:32:33.000Z</time>
      </trkpt>
      <trkpt lat="47.22222" lon="-0.04256">
        <ele>51</ele>
        <time>2013-02-04T10:32:37.000Z</time>
      </trkpt>
      <trkpt lat="47.22222" lon="-0.04257">
        <ele>51</ele>
        <time>2013-02-04T10:32:38.000Z</time>
      </trkpt>
      <trkpt lat="47.22223" lon="-0.04262">
        <ele>51</ele>
        <time>2013-02-04T10:32:43.000Z</time>
      </trkpt>
      <trkpt lat="47.22224" lon="-0.04266">
        <ele>51</ele>
        <time>2013-02-04T10:32:44.000Z</time>
      </trkpt>
      <trkpt lat="47.22224" lon="-0.04272">
        <ele>51</ele>
        <time>2013-02-04T10:32:48.000Z</time>
      </trkpt>
      <trkpt lat="47.22224" lon="-0.04274">
        <ele>51</ele>
        <time>2013-02-04T10:32:49.000Z</time>
      </trkpt>
      <trkpt lat="47.22224" lon="-0.0428">
        <ele>51</ele>
        <time>2013-02-04T10:32:53.000Z</time>
      </trkpt>
      <trkpt lat="47.22224" lon="-0.04284">
        <ele>51</ele>
        <time>2013-02-04T10:32:54.000Z</time>
      </trkpt>
      <trkpt lat="47.22223" lon="-0.0429">
        <ele>51</ele>
        <time>2013-02-04T10:32:58.000Z</time>
      </trkpt>
      <trkpt lat="47.22223" lon="-0.04292">
        <ele>51</ele>
        <time>2013-02-04T10:32:59.000Z</time>
      </trkpt>
      <trkpt lat="47.22223" lon="-0.04297">
        <ele>51</ele>
        <time>2013-02-04T10:33:03.000Z</time>
      </trkpt>
      <trkpt lat="47.22223" lon="-0.04299">
        <ele>51</ele>
        <time>2013-02-04T10:33:04.000Z</time>
      </trkpt>
      <trkpt lat="47.22223" lon="-0.04305">
        <ele>51</ele>
        <time>2013-02-04T10:33:07.000Z</time>
      </trkpt>
      <trkpt lat="47.22223" lon="-0.04307">
        <ele>51</ele>
        <time>2013-02-04T10:33:08.000Z</time>
      </trkpt>
      <trkpt lat="47.22226" lon="-0.0431">
        <ele>51</ele>
        <time>2013-02-04T10:33:21.000Z</time>
      </trkpt>
      <trkpt lat="47.22226" lon="-0.04311">
        <ele>51</ele>
        <time>2013-02-04T10:33:22.000Z</time>
      </trkpt>
      <trkpt lat="47.22226" lon="-0.04316">
        <ele>51</ele>
        <time>2013-02-04T10:33:24.000Z</time>
      </trkpt>
      <trkpt lat="47.22225" lon="-0.04319">
        <ele>51</ele>
        <time>2013-02-04T10:33:25.000Z</time>
      </trkpt>
      <trkpt lat="47.22225" lon="-0.04325">
        <ele>51</ele>
        <time>2013-02-04T10:33:27.000Z</time>
      </trkpt>
      <trkpt lat="47.22225" lon="-0.04328">
        <ele>51</ele>
        <time>2013-02-04T10:33:28.000Z</time>
      </trkpt>
      <trkpt lat="47.22225" lon="-0.04334">
        <ele>51</ele>
        <time>2013-02-04T10:33:31.000Z</time>
      </trkpt>
      <trkpt lat="47.22225" lon="-0.04337">
        <ele>51</ele>
        <time>2013-02-04T10:33:32.000Z</time>
      </trkpt>
      <trkpt lat="47.22225" lon="-0.04343">
        <ele>51</ele>
        <time>2013-02-04T10:33:35.000Z</time>
      </trkpt>
      <trkpt lat="47.22225" lon="-0.04345">
        <ele>51</ele>
        <time>2013-02-04T10:33:36.000Z</time>
      </trkpt>
      <trkpt lat="47.22226" lon="-0.0435">
        <ele>51</ele>
        <time>2013-02-04T10:33:38.000Z</time>
      </trkpt>
      <trkpt lat="47.22226" lon="-0.04352">
        <ele>51</ele>
        <time>2013-02-04T10:33:39.000Z</time>
      </trkpt>
      <trkpt lat="47.22226" lon="-0.04357">
        <ele>51</ele>
        <time>2013-02-04T10:33:42.000Z</time>
      </trkpt>
      <trkpt lat="47.22226" lon="-0.04358">
        <ele>51</ele>
        <time>2013-02-04T10:33:43.000Z</time>
      </trkpt>
      <trkpt lat="47.22225" lon="-0.04364">
        <ele>51</ele>
        <time>2013-02-04T10:33:47.000Z</time>
      </trkpt>
      <trkpt lat="47.22225" lon="-0.04365">
        <ele>51</ele>
        <time>2013-02-04T10:33:48.000Z</time>
      </trkpt>
      <trkpt lat="47.22225" lon="-0.0437">
        <ele>51</ele>
        <time>2013-02-04T10:33:52.000Z</time>
      </trkpt>
      <trkpt lat="47.22226" lon="-0.04372">
        <ele>51</ele>
        <time>2013-02-04T10:33:53.000Z</time>
      </trkpt>
      <trkpt lat="47.22226" lon="-0.04379">
        <ele>51</ele>
        <time>2013-02-04T10:33:56.000Z</time>
      </trkpt>
      <trkpt lat="47.22226" lon="-0.04381">
        <ele>51</ele>
        <time>2013-02-04T10:33:57.000Z</time>
      </trkpt>
      <trkpt lat="47.22225" lon="-0.04387">
        <ele>51</ele>
        <time>2013-02-04T10:34:00.000Z</time>
      </trkpt>
      <trkpt lat="47.22225" lon="-0.04389">
        <ele>51</ele>
        <time>2013-02-04T10:34:01.000Z</time>
      </trkpt>
      <trkpt lat="47.22226" lon="-0.04393">
        <ele>51</ele>
        <time>2013-02-04T10:34:03.000Z</time>
      </trkpt>
      <trkpt lat="47.22226" lon="-0.04396">
        <ele>51</ele>
        <time>2013-02-04T10:34:04.000Z</time>
      </trkpt>
      <trkpt lat="47.22228" lon="-0.04402">
        <ele>51</ele>
        <time>2013-02-04T10:34:07.000Z</time>
      </trkpt>
      <trkpt lat="47.22228" lon="-0.04403">
        <ele>51</ele>
        <time>2013-02-04T10:34:08.000Z</time>
      </trkpt>
      <trkpt lat="47.22228" lon="-0.04409">
        <ele>50</ele>
        <time>2013-02-04T10:34:10.000Z</time>
      </trkpt>
      <trkpt lat="47.22228" lon="-0.04411">
        <ele>50</ele>
        <time>2013-02-04T10:34:11.000Z</time>
      </trkpt>
      <trkpt lat="47.2223" lon="-0.04416">
        <ele>50</ele>
        <time>2013-02-04T10:34:18.000Z</time>
      </trkpt>
      <trkpt lat="47.22229" lon="-0.04418">
        <ele>50</ele>
        <time>2013-02-04T10:34:19.000Z</time>
      </trkpt>
      <trkpt lat="47.2223" lon="-0.04424">
        <ele>50</ele>
        <time>2013-02-04T10:34:23.000Z</time>
      </trkpt>
      <trkpt lat="47.2223" lon="-0.04426">
        <ele>50</ele>
        <time>2013-02-04T10:34:24.000Z</time>
      </trkpt>
      <trkpt lat="47.2223" lon="-0.04432">
        <ele>50</ele>
        <time>2013-02-04T10:34:27.000Z</time>
      </trkpt>
      <trkpt lat="47.2223" lon="-0.04434">
        <ele>50</ele>
        <time>2013-02-04T10:34:28.000Z</time>
      </trkpt>
      <trkpt lat="47.2223" lon="-0.04439">
        <ele>50</ele>
        <time>2013-02-04T10:34:30.000Z</time>
      </trkpt>
      <trkpt lat="47.2223" lon="-0.04442">
        <ele>50</ele>
        <time>2013-02-04T10:34:31.000Z</time>
      </trkpt>
      <trkpt lat="47.2223" lon="-0.04446">
        <ele>50</ele>
        <time>2013-02-04T10:34:33.000Z</time>
      </trkpt>
      <trkpt lat="47.2223" lon="-0.04448">
        <ele>50</ele>
        <time>2013-02-04T10:34:34.000Z</time>
      </trkpt>
      <trkpt lat="47.22231" lon="-0.04454">
        <ele>50</ele>
        <time>2013-02-04T10:34:38.000Z</time>
      </trkpt>
      <trkpt lat="47.22231" lon="-0.04456">
        <ele>50</ele>
        <time>2013-02-04T10:34:39.000Z</time>
      </trkpt>
      <trkpt lat="47.22232" lon="-0.0446">
        <ele>50</ele>
        <time>2013-02-04T10:34:41.000Z</time>
      </trkpt>
      <trkpt lat="47.22232" lon="-0.04463">
        <ele>50</ele>
        <time>2013-02-04T10:34:42.000Z</time>
      </trkpt>
      <trkpt lat="47.22233" lon="-0.04469">
        <ele>50</ele>
        <time>2013-02-04T10:34:44.000Z</time>
      </trkpt>
      <trkpt lat="47.22233" lon="-0.04471">
        <ele>50</ele>
        <time>2013-02-04T10:34:45.000Z</time>
      </trkpt>
      <trkpt lat="47.22234" lon="-0.04477">
        <ele>50</ele>
        <time>2013-02-04T10:34:47.000Z</time>
      </trkpt>
      <trkpt lat="47.22234" lon="-0.04478">
        <ele>50</ele>
        <time>2013-02-04T10:34:48.000Z</time>
      </trkpt>
      <trkpt lat="47.22234" lon="-0.04484">
        <ele>50</ele>
        <time>2013-02-04T10:34:51.000Z</time>
      </trkpt>
      <trkpt lat="47.22234" lon="-0.04487">
        <ele>50</ele>
        <time>2013-02-04T10:34:52.000Z</time>
      </trkpt>
      <trkpt lat="47.22234" lon="-0.04492">
        <ele>50</ele>
        <time>2013-02-04T10:34:56.000Z</time>
      </trkpt>
      <trkpt lat="47.22234" lon="-0.04494">
        <ele>49</ele>
        <time>2013-02-04T10:34:57.000Z</time>
      </trkpt>
      <trkpt lat="47.22234" lon="-0.045">
        <ele>49</ele>
        <time>2013-02-04T10:35:01.000Z</time>
      </trkpt>
      <trkpt lat="47.22235" lon="-0.04502">
        <ele>49</ele>
        <time>2013-02-04T10:35:02.000Z</time>
      </trkpt>
      <trkpt lat="47.22235" lon="-0.04508">
        <ele>49</ele>
        <time>2013-02-04T10:35:05.000Z</time>
      </trkpt>
      <trkpt lat="47.22234" lon="-0.0451">
        <ele>49</ele>
        <time>2013-02-04T10:35:06.000Z</time>
      </trkpt>
      <trkpt lat="47.22234" lon="-0.04516">
        <ele>49</ele>
        <time>2013-02-04T10:35:10.000Z</time>
      </trkpt>
      <trkpt lat="47.22234" lon="-0.04518">
        <ele>49</ele>
        <time>2013-02-04T10:35:11.000Z</time>
      </trkpt>
      <trkpt lat="47.22234" lon="-0.04523">
        <ele>49</ele>
        <time>2013-02-04T10:35:14.000Z</time>
      </trkpt>
      <trkpt lat="47.22234" lon="-0.04524">
        <ele>49</ele>
        <time>2013-02-04T10:35:15.000Z</time>
      </trkpt>
      <trkpt lat="47.2223" lon="-0.04528">
        <ele>49</ele>
        <time>2013-02-04T10:35:23.000Z</time>
      </trkpt>
      <trkpt lat="47.22229" lon="-0.04529">
        <ele>49</ele>
        <time>2013-02-04T10:35:24.000Z</time>
      </trkpt>
      <trkpt lat="47.22227" lon="-0.04533">
        <ele>49</ele>
        <time>2013-02-04T10:35:27.000Z</time>
      </trkpt>
      <trkpt lat="47.22226" lon="-0.04534">
        <ele>49</ele>
        <time>2013-02-04T10:35:28.000Z</time>
      </trkpt>
      <trkpt lat="47.22222" lon="-0.04534">
        <ele>49</ele>
        <time>2013-02-04T10:35:31.000Z</time>
      </trkpt>
      <trkpt lat="47.22221" lon="-0.04534">
        <ele>49</ele>
        <time>2013-02-04T10:35:32.000Z</time>
      </trkpt>
      <trkpt lat="47.22217" lon="-0.04533">
        <ele>49</ele>
        <time>2013-02-04T10:35:38.000Z</time>
      </trkpt>
      <trkpt lat="47.22216" lon="-0.04533">
        <ele>49</ele>
        <time>2013-02-04T10:35:39.000Z</time>
      </trkpt>
      <trkpt lat="47.22212" lon="-0.04531">
        <ele>49</ele>
        <time>2013-02-04T10:35:42.000Z</time>
      </trkpt>
      <trkpt lat="47.22211" lon="-0.0453">
        <ele>49</ele>
        <time>2013-02-04T10:35:43.000Z</time>
      </trkpt>
      <trkpt lat="47.22207" lon="-0.04528">
        <ele>49</ele>
        <time>2013-02-04T10:35:49.000Z</time>
      </trkpt>
      <trkpt lat="47.22206" lon="-0.04528">
        <ele>49</ele>
        <time>2013-02-04T10:35:50.000Z</time>
      </trkpt>
      <trkpt lat="47.22202" lon="-0.04529">
        <ele>49</ele>
        <time>2013-02-04T10:35:54.000Z</time>
      </trkpt>
      <trkpt lat="47.22201" lon="-0.04529">
        <ele>49</ele>
        <time>2013-02-04T10:35:55.000Z</time>
      </trkpt>
      <trkpt lat="47.22197" lon="-0.04526">
        <ele>49</ele>
        <time>2013-02-04T10:35:58.000Z</time>
      </trkpt>
      <trkpt lat="47.22196" lon="-0.04525">
        <ele>49</ele>
        <time>2013-02-04T10:35:59.000Z</time>
      </trkpt>
      <trkpt lat="47.22192" lon="-0.04521">
        <ele>49</ele>
        <time>2013-02-04T10:36:03.000Z</time>
      </trkpt>
      <trkpt lat="47.22191" lon="-0.04521">
        <ele>49</ele>
        <time>2013-02-04T10:36:04.000Z</time>
      </trkpt>
      <trkpt lat="47.22187" lon="-0.04519">
        <ele>49</ele>
        <time>2013-02-04T10:36:07.000Z</time>
      </trkpt>
      <trkpt lat="47.22185" lon="-0.04519">
        <ele>49</ele>
        <time>2013-02-04T10:36:08.000Z</time>
      </trkpt>
      <trkpt lat="47.22182" lon="-0.04517">
        <ele>49</ele>
        <time>2013-02-04T10:36:13.000Z</time>
      </trkpt>
      <trkpt lat="47.2218" lon="-0.04516">
        <ele>49</ele>
        <time>2013-02-04T10:36:14.000Z</time>
      </trkpt>
      <trkpt lat="47.22176" lon="-0.04513">
        <ele>50</ele>
        <time>2013-02-04T10:36:18.000Z</time>
      </trkpt>
      <trkpt lat="47.22175" lon="-0.04512">
        <ele>50</ele>
        <time>2013-02-04T10:36:19.000Z</time>
      </trkpt>
      <trkpt lat="47.22171" lon="-0.04511">
        <ele>50</ele>
        <time>2013-02-04T10:36:22.000Z</time>
      </trkpt>
      <trkpt lat="47.22169" lon="-0.04511">
        <ele>50</ele>
        <time>2013-02-04T10:36:23.000Z</time>
      </trkpt>
      <trkpt lat="47.22165" lon="-0.04511">
        <ele>50</ele>
        <time>2013-02-04T10:36:27.000Z</time>
      </trkpt>
      <trkpt lat="47.22164" lon="-0.04511">
        <ele>50</ele>
        <time>2013-02-04T10:36:28.000Z</time>
      </trkpt>
      <trkpt lat="47.2216" lon="-0.04512">
        <ele>50</ele>
        <time>2013-02-04T10:36:33.000Z</time>
      </trkpt>
      <trkpt lat="47.22159" lon="-0.04512">
        <ele>50</ele>
        <time>2013-02-04T10:36:34.000Z</time>
      </trkpt>
      <trkpt lat="47.22155" lon="-0.04513">
        <ele>50</ele>
        <time>2013-02-04T10:36:36.000Z</time>
      </trkpt>
      <trkpt lat="47.22154" lon="-0.04513">
        <ele>50</ele>
        <time>2013-02-04T10:36:37.000Z</time>
      </trkpt>
      <trkpt lat="47.2215" lon="-0.04514">
        <ele>50</ele>
        <time>2013-02-04T10:36:40.000Z</time>
      </trkpt>
      <trkpt lat="47.22149" lon="-0.04515">
        <ele>50</ele>
        <time>2013-02-04T10:36:41.000Z</time>
      </trkpt>
      <trkpt lat="47.22145" lon="-0.04515">
        <ele>50</ele>
        <time>2013-02-04T10:36:44.000Z</time>
      </trkpt>
      <trkpt lat="47.22144" lon="-0.04516">
        <ele>50</ele>
        <time>2013-02-04T10:36:45.000Z</time>
      </trkpt>
      <trkpt lat="47.2214" lon="-0.04516">
        <ele>50</ele>
        <time>2013-02-04T10:36:49.000Z</time>
      </trkpt>
      <trkpt lat="47.22139" lon="-0.04517">
        <ele>50</ele>
        <time>2013-02-04T10:36:50.000Z</time>
      </trkpt>
      <trkpt lat="47.22134" lon="-0.04518">
        <ele>50</ele>
        <time>2013-02-04T10:36:54.000Z</time>
      </trkpt>
      <trkpt lat="47.22133" lon="-0.04518">
        <ele>51</ele>
        <time>2013-02-04T10:36:55.000Z</time>
      </trkpt>
      <trkpt lat="47.2213" lon="-0.0452">
        <ele>51</ele>
        <time>2013-02-04T10:36:57.000Z</time>
      </trkpt>
      <trkpt lat="47.22129" lon="-0.04521">
        <ele>51</ele>
        <time>2013-02-04T10:36:58.000Z</time>
      </trkpt>
      <trkpt lat="47.22125" lon="-0.04522">
        <ele>51</ele>
        <time>2013-02-04T10:37:01.000Z</time>
      </trkpt>
      <trkpt lat="47.22124" lon="-0.04522">
        <ele>51</ele>
        <time>2013-02-04T10:37:02.000Z</time>
      </trkpt>
      <trkpt lat="47.2212" lon="-0.04523">
        <ele>51</ele>
        <time>2013-02-04T10:37:06.000Z</time>
      </trkpt>
      <trkpt lat="47.22119" lon="-0.04524">
        <ele>51</ele>
        <time>2013-02-04T10:37:07.000Z</time>
      </trkpt>
      <trkpt lat="47.22115" lon="-0.04524">
        <ele>51</ele>
        <time>2013-02-04T10:37:11.000Z</time>
      </trkpt>
      <trkpt lat="47.22115" lon="-0.04524">
        <ele>51</ele>
        <time>2013-02-04T10:37:12.000Z</time>
      </trkpt>
      <trkpt lat="47.22111" lon="-0.04525">
        <ele>51</ele>
        <time>2013-02-04T10:37:17.000Z</time>
      </trkpt>
      <trkpt lat="47.22109" lon="-0.04524">
        <ele>51</ele>
        <time>2013-02-04T10:37:18.000Z</time>
      </trkpt>
      <trkpt lat="47.22105" lon="-0.04523">
        <ele>51</ele>
        <time>2013-02-04T10:37:24.000Z</time>
      </trkpt>
      <trkpt lat="47.22103" lon="-0.04525">
        <ele>51</ele>
        <time>2013-02-04T10:37:25.000Z</time>
      </trkpt>
      <trkpt lat="47.22099" lon="-0.04527">
        <ele>51</ele>
        <time>2013-02-04T10:37:29.000Z</time>
      </trkpt>
      <trkpt lat="47.22097" lon="-0.04527">
        <ele>51</ele>
        <time>2013-02-04T10:37:30.000Z</time>
      </trkpt>
      <trkpt lat="47.22093" lon="-0.04527">
        <ele>51</ele>
        <time>2013-02-04T10:37:34.000Z</time>
      </trkpt>
      <trkpt lat="47.22091" lon="-0.04527">
        <ele>51</ele>
        <time>2013-02-04T10:37:35.000Z</time>
      </trkpt>
      <trkpt lat="47.22087" lon="-0.04526">
        <ele>51</ele>
        <time>2013-02-04T10:37:39.000Z</time>
      </trkpt>
      <trkpt lat="47.22086" lon="-0.04526">
        <ele>51</ele>
        <time>2013-02-04T10:37:40.000Z</time>
      </trkpt>
      <trkpt lat="47.22082" lon="-0.04526">
        <ele>52</ele>
        <time>2013-02-04T10:37:45.000Z</time>
      </trkpt>
      <trkpt lat="47.2208" lon="-0.04526">
        <ele>52</ele>
        <time>2013-02-04T10:37:46.000Z</time>
      </trkpt>
      <trkpt lat="47.22077" lon="-0.04526">
        <ele>53</ele>
        <time>2013-02-04T10:37:49.000Z</time>
      </trkpt>
      <trkpt lat="47.22076" lon="-0.04526">
        <ele>53</ele>
        <time>2013-02-04T10:37:50.000Z</time>
      </trkpt>
      <trkpt lat="47.22072" lon="-0.04526">
        <ele>53</ele>
        <time>2013-02-04T10:37:53.000Z</time>
      </trkpt>
      <trkpt lat="47.22071" lon="-0.04526">
        <ele>53</ele>
        <time>2013-02-04T10:37:54.000Z</time>
      </trkpt>
      <trkpt lat="47.22067" lon="-0.04526">
        <ele>53</ele>
        <time>2013-02-04T10:37:57.000Z</time>
      </trkpt>
      <trkpt lat="47.22066" lon="-0.04525">
        <ele>53</ele>
        <time>2013-02-04T10:37:58.000Z</time>
      </trkpt>
      <trkpt lat="47.22062" lon="-0.04525">
        <ele>53</ele>
        <time>2013-02-04T10:38:02.000Z</time>
      </trkpt>
      <trkpt lat="47.22061" lon="-0.04525">
        <ele>53</ele>
        <time>2013-02-04T10:38:03.000Z</time>
      </trkpt>
      <trkpt lat="47.22057" lon="-0.04523">
        <ele>53</ele>
        <time>2013-02-04T10:38:06.000Z</time>
      </trkpt>
      <trkpt lat="47.22056" lon="-0.04523">
        <ele>53</ele>
        <time>2013-02-04T10:38:07.000Z</time>
      </trkpt>
      <trkpt lat="47.22052" lon="-0.04522">
        <ele>53</ele>
        <time>2013-02-04T10:38:10.000Z</time>
      </trkpt>
      <trkpt lat="47.2205" lon="-0.04522">
        <ele>53</ele>
        <time>2013-02-04T10:38:11.000Z</time>
      </trkpt>
      <trkpt lat="47.22046" lon="-0.0452">
        <ele>53</ele>
        <time>2013-02-04T10:38:15.000Z</time>
      </trkpt>
      <trkpt lat="47.22045" lon="-0.0452">
        <ele>53</ele>
        <time>2013-02-04T10:38:16.000Z</time>
      </trkpt>
      <trkpt lat="47.22041" lon="-0.04519">
        <ele>53</ele>
        <time>2013-02-04T10:38:19.000Z</time>
      </trkpt>
      <trkpt lat="47.2204" lon="-0.04518">
        <ele>53</ele>
        <time>2013-02-04T10:38:20.000Z</time>
      </trkpt>
      <trkpt lat="47.22037" lon="-0.04517">
        <ele>53</ele>
        <time>2013-02-04T10:38:22.000Z</time>
      </trkpt>
      <trkpt lat="47.22036" lon="-0.04516">
        <ele>53</ele>
        <time>2013-02-04T10:38:23.000Z</time>
      </trkpt>
      <trkpt lat="47.22032" lon="-0.04515">
        <ele>53</ele>
        <time>2013-02-04T10:38:26.000Z</time>
      </trkpt>
      <trkpt lat="47.22031" lon="-0.04514">
        <ele>53</ele>
        <time>2013-02-04T10:38:27.000Z</time>
      </trkpt>
      <trkpt lat="47.22027" lon="-0.04515">
        <ele>54</ele>
        <time>2013-02-04T10:38:31.000Z</time>
      </trkpt>
      <trkpt lat="47.22026" lon="-0.04515">
        <ele>54</ele>
        <time>2013-02-04T10:38:32.000Z</time>
      </trkpt>
      <trkpt lat="47.22023" lon="-0.04519">
        <ele>54</ele>
        <time>2013-02-04T10:38:36.000Z</time>
      </trkpt>
      <trkpt lat="47.22022" lon="-0.04521">
        <ele>54</ele>
        <time>2013-02-04T10:38:37.000Z</time>
      </trkpt>
      <trkpt lat="47.2202" lon="-0.04525">
        <ele>54</ele>
        <time>2013-02-04T10:38:41.000Z</time>
      </trkpt>
      <trkpt lat="47.2202" lon="-0.04528">
        <ele>54</ele>
        <time>2013-02-04T10:38:42.000Z</time>
      </trkpt>
      <trkpt lat="47.22018" lon="-0.04531">
        <ele>54</ele>
        <time>2013-02-04T10:38:43.000Z</time>
      </trkpt>
      <trkpt lat="47.22016" lon="-0.04534">
        <ele>53</ele>
        <time>2013-02-04T10:38:44.000Z</time>
      </trkpt>
      <trkpt lat="47.22014" lon="-0.04537">
        <ele>53</ele>
        <time>2013-02-04T10:38:46.000Z</time>
      </trkpt>
      <trkpt lat="47.22012" lon="-0.04539">
        <ele>53</ele>
        <time>2013-02-04T10:38:47.000Z</time>
      </trkpt>
      <trkpt lat="47.22008" lon="-0.04542">
        <ele>54</ele>
        <time>2013-02-04T10:38:50.000Z</time>
      </trkpt>
      <trkpt lat="47.22008" lon="-0.04542">
        <ele>54</ele>
        <time>2013-02-04T10:38:51.000Z</time>
      </trkpt>
      <trkpt lat="47.22005" lon="-0.04545">
        <ele>54</ele>
        <time>2013-02-04T10:38:58.000Z</time>
      </trkpt>
      <trkpt lat="47.22004" lon="-0.04546">
        <ele>54</ele>
        <time>2013-02-04T10:38:59.000Z</time>
      </trkpt>
      <trkpt lat="47.22002" lon="-0.04548">
        <ele>54</ele>
        <time>2013-02-04T10:39:00.000Z</time>
      </trkpt>
      <trkpt lat="47.22" lon="-0.0455">
        <ele>55</ele>
        <time>2013-02-04T10:39:01.000Z</time>
      </trkpt>
      <trkpt lat="47.21996" lon="-0.04553">
        <ele>55</ele>
        <time>2013-02-04T10:39:04.000Z</time>
      </trkpt>
      <trkpt lat="47.21995" lon="-0.04553">
        <ele>55</ele>
        <time>2013-02-04T10:39:05.000Z</time>
      </trkpt>
      <trkpt lat="47.21992" lon="-0.04557">
        <ele>55</ele>
        <time>2013-02-04T10:39:09.000Z</time>
      </trkpt>
      <trkpt lat="47.21991" lon="-0.04558">
        <ele>55</ele>
        <time>2013-02-04T10:39:10.000Z</time>
      </trkpt>
      <trkpt lat="47.21987" lon="-0.04561">
        <ele>55</ele>
        <time>2013-02-04T10:39:13.000Z</time>
      </trkpt>
      <trkpt lat="47.21985" lon="-0.04562">
        <ele>55</ele>
        <time>2013-02-04T10:39:14.000Z</time>
      </trkpt>
      <trkpt lat="47.21981" lon="-0.04564">
        <ele>55</ele>
        <time>2013-02-04T10:39:18.000Z</time>
      </trkpt>
      <trkpt lat="47.2198" lon="-0.04565">
        <ele>55</ele>
        <time>2013-02-04T10:39:19.000Z</time>
      </trkpt>
      <trkpt lat="47.21976" lon="-0.04566">
        <ele>55</ele>
        <time>2013-02-04T10:39:23.000Z</time>
      </trkpt>
      <trkpt lat="47.21975" lon="-0.04566">
        <ele>55</ele>
        <time>2013-02-04T10:39:24.000Z</time>
      </trkpt>
      <trkpt lat="47.21971" lon="-0.04569">
        <ele>55</ele>
        <time>2013-02-04T10:39:27.000Z</time>
      </trkpt>
      <trkpt lat="47.2197" lon="-0.0457">
        <ele>55</ele>
        <time>2013-02-04T10:39:28.000Z</time>
      </trkpt>
      <trkpt lat="47.21967" lon="-0.04571">
        <ele>55</ele>
        <time>2013-02-04T10:39:32.000Z</time>
      </trkpt>
      <trkpt lat="47.21966" lon="-0.04572">
        <ele>55</ele>
        <time>2013-02-04T10:39:33.000Z</time>
      </trkpt>
      <trkpt lat="47.21963" lon="-0.04575">
        <ele>55</ele>
        <time>2013-02-04T10:39:36.000Z</time>
      </trkpt>
      <trkpt lat="47.21962" lon="-0.04576">
        <ele>55</ele>
        <time>2013-02-04T10:39:37.000Z</time>
      </trkpt>
      <trkpt lat="47.21959" lon="-0.04581">
        <ele>55</ele>
        <time>2013-02-04T10:39:40.000Z</time>
      </trkpt>
      <trkpt lat="47.21959" lon="-0.04582">
        <ele>55</ele>
        <time>2013-02-04T10:39:41.000Z</time>
      </trkpt>
      <trkpt lat="47.21957" lon="-0.04587">
        <ele>54</ele>
        <time>2013-02-04T10:39:44.000Z</time>
      </trkpt>
      <trkpt lat="47.21956" lon="-0.04588">
        <ele>54</ele>
        <time>2013-02-04T10:39:45.000Z</time>
      </trkpt>
      <trkpt lat="47.21954" lon="-0.04592">
        <ele>54</ele>
        <time>2013-02-04T10:39:47.000Z</time>
      </trkpt>
      <trkpt lat="47.21954" lon="-0.04594">
        <ele>54</ele>
        <time>2013-02-04T10:39:48.000Z</time>
      </trkpt>
      <trkpt lat="47.21953" lon="-0.04601">
        <ele>54</ele>
        <time>2013-02-04T10:39:52.000Z</time>
      </trkpt>
      <trkpt lat="47.21953" lon="-0.04603">
        <ele>54</ele>
        <time>2013-02-04T10:39:53.000Z</time>
      </trkpt>
      <trkpt lat="47.21952" lon="-0.04608">
        <ele>54</ele>
        <time>2013-02-04T10:39:56.000Z</time>
      </trkpt>
      <trkpt lat="47.21952" lon="-0.0461">
        <ele>54</ele>
        <time>2013-02-04T10:39:57.000Z</time>
      </trkpt>
      <trkpt lat="47.21952" lon="-0.04615">
        <ele>54</ele>
        <time>2013-02-04T10:40:00.000Z</time>
      </trkpt>
      <trkpt lat="47.21952" lon="-0.04618">
        <ele>54</ele>
        <time>2013-02-04T10:40:01.000Z</time>
      </trkpt>
      <trkpt lat="47.21951" lon="-0.04624">
        <ele>54</ele>
        <time>2013-02-04T10:40:05.000Z</time>
      </trkpt>
      <trkpt lat="47.21951" lon="-0.04626">
        <ele>54</ele>
        <time>2013-02-04T10:40:06.000Z</time>
      </trkpt>
      <trkpt lat="47.21951" lon="-0.04631">
        <ele>54</ele>
        <time>2013-02-04T10:40:10.000Z</time>
      </trkpt>
      <trkpt lat="47.2195" lon="-0.04634">
        <ele>54</ele>
        <time>2013-02-04T10:40:11.000Z</time>
      </trkpt>
      <trkpt lat="47.21949" lon="-0.04638">
        <ele>54</ele>
        <time>2013-02-04T10:40:13.000Z</time>
      </trkpt>
      <trkpt lat="47.21948" lon="-0.0464">
        <ele>54</ele>
        <time>2013-02-04T10:40:14.000Z</time>
      </trkpt>
      <trkpt lat="47.21947" lon="-0.04646">
        <ele>54</ele>
        <time>2013-02-04T10:40:17.000Z</time>
      </trkpt>
      <trkpt lat="47.21947" lon="-0.04648">
        <ele>54</ele>
        <time>2013-02-04T10:40:18.000Z</time>
      </trkpt>
      <trkpt lat="47.21945" lon="-0.04654">
        <ele>54</ele>
        <time>2013-02-04T10:40:21.000Z</time>
      </trkpt>
      <trkpt lat="47.21945" lon="-0.04656">
        <ele>54</ele>
        <time>2013-02-04T10:40:22.000Z</time>
      </trkpt>
      <trkpt lat="47.21943" lon="-0.04659">
        <ele>54</ele>
        <time>2013-02-04T10:40:24.000Z</time>
      </trkpt>
      <trkpt lat="47.21941" lon="-0.0466">
        <ele>54</ele>
        <time>2013-02-04T10:40:25.000Z</time>
      </trkpt>
      <trkpt lat="47.21938" lon="-0.04665">
        <ele>54</ele>
        <time>2013-02-04T10:40:28.000Z</time>
      </trkpt>
      <trkpt lat="47.21937" lon="-0.04667">
        <ele>54</ele>
        <time>2013-02-04T10:40:29.000Z</time>
      </trkpt>
      <trkpt lat="47.21935" lon="-0.04672">
        <ele>53</ele>
        <time>2013-02-04T10:40:32.000Z</time>
      </trkpt>
      <trkpt lat="47.21934" lon="-0.04674">
        <ele>54</ele>
        <time>2013-02-04T10:40:33.000Z</time>
      </trkpt>
      <trkpt lat="47.21933" lon="-0.04679">
        <ele>54</ele>
        <time>2013-02-04T10:40:36.000Z</time>
      </trkpt>
      <trkpt lat="47.21932" lon="-0.0468">
        <ele>54</ele>
        <time>2013-02-04T10:40:37.000Z</time>
      </trkpt>
      <trkpt lat="47.21929" lon="-0.04684">
        <ele>54</ele>
        <time>2013-02-04T10:40:40.000Z</time>
      </trkpt>
      <trkpt lat="47.21928" lon="-0.04686">
        <ele>54</ele>
        <time>2013-02-04T10:40:41.000Z</time>
      </trkpt>
      <trkpt lat="47.21926" lon="-0.0469">
        <ele>54</ele>
        <time>2013-02-04T10:40:44.000Z</time>
      </trkpt>
      <trkpt lat="47.21926" lon="-0.04692">
        <ele>54</ele>
        <time>2013-02-04T10:40:45.000Z</time>
      </trkpt>
      <trkpt lat="47.21923" lon="-0.04697">
        <ele>54</ele>
        <time>2013-02-04T10:40:48.000Z</time>
      </trkpt>
      <trkpt lat="47.21923" lon="-0.04699">
        <ele>54</ele>
        <time>2013-02-04T10:40:49.000Z</time>
      </trkpt>
      <trkpt lat="47.21924" lon="-0.04706">
        <ele>54</ele>
        <time>2013-02-04T10:40:55.000Z</time>
      </trkpt>
      <trkpt lat="47.21924" lon="-0.04706">
        <ele>54</ele>
        <time>2013-02-04T10:40:56.000Z</time>
      </trkpt>
      <trkpt lat="47.21928" lon="-0.04704">
        <ele>54</ele>
        <time>2013-02-04T10:41:06.000Z</time>
      </trkpt>
      <trkpt lat="47.21929" lon="-0.04704">
        <ele>54</ele>
        <time>2013-02-04T10:41:07.000Z</time>
      </trkpt>
      <trkpt lat="47.21931" lon="-0.04708">
        <ele>54</ele>
        <time>2013-02-04T10:41:14.000Z</time>
      </trkpt>
      <trkpt lat="47.21932" lon="-0.04709">
        <ele>54</ele>
        <time>2013-02-04T10:41:15.000Z</time>
      </trkpt>
      <trkpt lat="47.21934" lon="-0.04713">
        <ele>54</ele>
        <time>2013-02-04T10:41:18.000Z</time>
      </trkpt>
      <trkpt lat="47.21935" lon="-0.04715">
        <ele>54</ele>
        <time>2013-02-04T10:41:19.000Z</time>
      </trkpt>
      <trkpt lat="47.21937" lon="-0.04718">
        <ele>54</ele>
        <time>2013-02-04T10:41:21.000Z</time>
      </trkpt>
      <trkpt lat="47.21938" lon="-0.0472">
        <ele>54</ele>
        <time>2013-02-04T10:41:22.000Z</time>
      </trkpt>
      <trkpt lat="47.2194" lon="-0.04724">
        <ele>54</ele>
        <time>2013-02-04T10:41:25.000Z</time>
      </trkpt>
      <trkpt lat="47.21941" lon="-0.04725">
        <ele>54</ele>
        <time>2013-02-04T10:41:26.000Z</time>
      </trkpt>
      <trkpt lat="47.21944" lon="-0.04729">
        <ele>54</ele>
        <time>2013-02-04T10:41:28.000Z</time>
      </trkpt>
      <trkpt lat="47.21944" lon="-0.0473">
        <ele>54</ele>
        <time>2013-02-04T10:41:29.000Z</time>
      </trkpt>
      <trkpt lat="47.21946" lon="-0.04735">
        <ele>54</ele>
        <time>2013-02-04T10:41:37.000Z</time>
      </trkpt>
      <trkpt lat="47.21947" lon="-0.04738">
        <ele>54</ele>
        <time>2013-02-04T10:41:38.000Z</time>
      </trkpt>
      <trkpt lat="47.21948" lon="-0.04744">
        <ele>53</ele>
        <time>2013-02-04T10:41:40.000Z</time>
      </trkpt>
      <trkpt lat="47.21949" lon="-0.04746">
        <ele>53</ele>
        <time>2013-02-04T10:41:41.000Z</time>
      </trkpt>
      <trkpt lat="47.21951" lon="-0.04751">
        <ele>54</ele>
        <time>2013-02-04T10:41:43.000Z</time>
      </trkpt>
      <trkpt lat="47.21951" lon="-0.04753">
        <ele>54</ele>
        <time>2013-02-04T10:41:44.000Z</time>
      </trkpt>
      <trkpt lat="47.21953" lon="-0.04759">
        <ele>54</ele>
        <time>2013-02-04T10:41:48.000Z</time>
      </trkpt>
      <trkpt lat="47.21954" lon="-0.0476">
        <ele>54</ele>
        <time>2013-02-04T10:41:49.000Z</time>
      </trkpt>
      <trkpt lat="47.21956" lon="-0.04766">
        <ele>54</ele>
        <time>2013-02-04T10:41:53.000Z</time>
      </trkpt>
      <trkpt lat="47.21957" lon="-0.04767">
        <ele>54</ele>
        <time>2013-02-04T10:41:54.000Z</time>
      </trkpt>
      <trkpt lat="47.21959" lon="-0.04772">
        <ele>54</ele>
        <time>2013-02-04T10:41:57.000Z</time>
      </trkpt>
      <trkpt lat="47.2196" lon="-0.04773">
        <ele>54</ele>
        <time>2013-02-04T10:41:58.000Z</time>
      </trkpt>
      <trkpt lat="47.21962" lon="-0.04776">
        <ele>54</ele>
        <time>2013-02-04T10:42:02.000Z</time>
      </trkpt>
      <trkpt lat="47.21963" lon="-0.04778">
        <ele>54</ele>
        <time>2013-02-04T10:42:03.000Z</time>
      </trkpt>
      <trkpt lat="47.21963" lon="-0.04783">
        <ele>54</ele>
        <time>2013-02-04T10:42:09.000Z</time>
      </trkpt>
      <trkpt lat="47.21964" lon="-0.04785">
        <ele>54</ele>
        <time>2013-02-04T10:42:10.000Z</time>
      </trkpt>
      <trkpt lat="47.21967" lon="-0.04789">
        <ele>54</ele>
        <time>2013-02-04T10:42:12.000Z</time>
      </trkpt>
      <trkpt lat="47.21968" lon="-0.04791">
        <ele>54</ele>
        <time>2013-02-04T10:42:13.000Z</time>
      </trkpt>
      <trkpt lat="47.2197" lon="-0.04795">
        <ele>54</ele>
        <time>2013-02-04T10:42:15.000Z</time>
      </trkpt>
      <trkpt lat="47.21971" lon="-0.04797">
        <ele>54</ele>
        <time>2013-02-04T10:42:16.000Z</time>
      </trkpt>
      <trkpt lat="47.21973" lon="-0.04802">
        <ele>54</ele>
        <time>2013-02-04T10:42:20.000Z</time>
      </trkpt>
      <trkpt lat="47.21974" lon="-0.04803">
        <ele>54</ele>
        <time>2013-02-04T10:42:21.000Z</time>
      </trkpt>
      <trkpt lat="47.21977" lon="-0.04806">
        <ele>54</ele>
        <time>2013-02-04T10:42:24.000Z</time>
      </trkpt>
      <trkpt lat="47.21979" lon="-0.04808">
        <ele>53</ele>
        <time>2013-02-04T10:42:25.000Z</time>
      </trkpt>
      <trkpt lat="47.21981" lon="-0.0481">
        <ele>53</ele>
        <time>2013-02-04T10:42:26.000Z</time>
      </trkpt>
      <trkpt lat="47.21983" lon="-0.04811">
        <ele>53</ele>
        <time>2013-02-04T10:42:27.000Z</time>
      </trkpt>
      <trkpt lat="47.21986" lon="-0.04815">
        <ele>53</ele>
        <time>2013-02-04T10:42:30.000Z</time>
      </trkpt>
      <trkpt lat="47.21987" lon="-0.04816">
        <ele>53</ele>
        <time>2013-02-04T10:42:31.000Z</time>
      </trkpt>
      <trkpt lat="47.21989" lon="-0.0482">
        <ele>52</ele>
        <time>2013-02-04T10:42:33.000Z</time>
      </trkpt>
      <trkpt lat="47.21991" lon="-0.04821">
        <ele>52</ele>
        <time>2013-02-04T10:42:34.000Z</time>
      </trkpt>
      <trkpt lat="47.21993" lon="-0.04826">
        <ele>52</ele>
        <time>2013-02-04T10:42:37.000Z</time>
      </trkpt>
      <trkpt lat="47.21994" lon="-0.04827">
        <ele>51</ele>
        <time>2013-02-04T10:42:38.000Z</time>
      </trkpt>
      <trkpt lat="47.21997" lon="-0.04831">
        <ele>51</ele>
        <time>2013-02-04T10:42:43.000Z</time>
      </trkpt>
      <trkpt lat="47.21998" lon="-0.04832">
        <ele>50</ele>
        <time>2013-02-04T10:42:44.000Z</time>
      </trkpt>
      <trkpt lat="47.22" lon="-0.04836">
        <ele>51</ele>
        <time>2013-02-04T10:42:46.000Z</time>
      </trkpt>
      <trkpt lat="47.22001" lon="-0.04838">
        <ele>50</ele>
        <time>2013-02-04T10:42:47.000Z</time>
      </trkpt>
      <trkpt lat="47.22004" lon="-0.04842">
        <ele>50</ele>
        <time>2013-02-04T10:42:50.000Z</time>
      </trkpt>
      <trkpt lat="47.22004" lon="-0.04844">
        <ele>50</ele>
        <time>2013-02-04T10:42:51.000Z</time>
      </trkpt>
      <trkpt lat="47.22006" lon="-0.04849">
        <ele>50</ele>
        <time>2013-02-04T10:42:54.000Z</time>
      </trkpt>
      <trkpt lat="47.22006" lon="-0.0485">
        <ele>50</ele>
        <time>2013-02-04T10:42:55.000Z</time>
      </trkpt>
      <trkpt lat="47.22009" lon="-0.04855">
        <ele>50</ele>
        <time>2013-02-04T10:42:58.000Z</time>
      </trkpt>
      <trkpt lat="47.2201" lon="-0.04857">
        <ele>50</ele>
        <time>2013-02-04T10:42:59.000Z</time>
      </trkpt>
      <trkpt lat="47.22013" lon="-0.04861">
        <ele>50</ele>
        <time>2013-02-04T10:43:02.000Z</time>
      </trkpt>
      <trkpt lat="47.22014" lon="-0.04863">
        <ele>50</ele>
        <time>2013-02-04T10:43:03.000Z</time>
      </trkpt>
      <trkpt lat="47.22018" lon="-0.04866">
        <ele>50</ele>
        <time>2013-02-04T10:43:08.000Z</time>
      </trkpt>
      <trkpt lat="47.22019" lon="-0.04866">
        <ele>50</ele>
        <time>2013-02-04T10:43:09.000Z</time>
      </trkpt>
      <trkpt lat="47.22022" lon="-0.04866">
        <ele>50</ele>
        <time>2013-02-04T10:43:11.000Z</time>
      </trkpt>
      <trkpt lat="47.22023" lon="-0.04866">
        <ele>50</ele>
        <time>2013-02-04T10:43:12.000Z</time>
      </trkpt>
      <trkpt lat="47.22026" lon="-0.04865">
        <ele>50</ele>
        <time>2013-02-04T10:43:14.000Z</time>
      </trkpt>
      <trkpt lat="47.22028" lon="-0.04864">
        <ele>50</ele>
        <time>2013-02-04T10:43:15.000Z</time>
      </trkpt>
      <trkpt lat="47.22031" lon="-0.04861">
        <ele>50</ele>
        <time>2013-02-04T10:43:18.000Z</time>
      </trkpt>
      <trkpt lat="47.22032" lon="-0.0486">
        <ele>50</ele>
        <time>2013-02-04T10:43:19.000Z</time>
      </trkpt>
      <trkpt lat="47.22035" lon="-0.04858">
        <ele>50</ele>
        <time>2013-02-04T10:43:21.000Z</time>
      </trkpt>
      <trkpt lat="47.22036" lon="-0.04857">
        <ele>50</ele>
        <time>2013-02-04T10:43:22.000Z</time>
      </trkpt>
      <trkpt lat="47.22039" lon="-0.04854">
        <ele>50</ele>
        <time>2013-02-04T10:43:25.000Z</time>
      </trkpt>
      <trkpt lat="47.2204" lon="-0.04853">
        <ele>50</ele>
        <time>2013-02-04T10:43:26.000Z</time>
      </trkpt>
      <trkpt lat="47.22044" lon="-0.0485">
        <ele>49</ele>
        <time>2013-02-04T10:43:32.000Z</time>
      </trkpt>
      <trkpt lat="47.22045" lon="-0.04851">
        <ele>49</ele>
        <time>2013-02-04T10:43:33.000Z</time>
      </trkpt>
      <trkpt lat="47.22047" lon="-0.04855">
        <ele>49</ele>
        <time>2013-02-04T10:43:35.000Z</time>
      </trkpt>
      <trkpt lat="47.22049" lon="-0.04857">
        <ele>49</ele>
        <time>2013-02-04T10:43:36.000Z</time>
      </trkpt>
      <trkpt lat="47.22051" lon="-0.04862">
        <ele>49</ele>
        <time>2013-02-04T10:43:38.000Z</time>
      </trkpt>
      <trkpt lat="47.22052" lon="-0.04863">
        <ele>49</ele>
        <time>2013-02-04T10:43:39.000Z</time>
      </trkpt>
      <trkpt lat="47.22053" lon="-0.04869">
        <ele>49</ele>
        <time>2013-02-04T10:43:42.000Z</time>
      </trkpt>
      <trkpt lat="47.22053" lon="-0.04871">
        <ele>49</ele>
        <time>2013-02-04T10:43:43.000Z</time>
      </trkpt>
      <trkpt lat="47.22054" lon="-0.04876">
        <ele>49</ele>
        <time>2013-02-04T10:43:48.000Z</time>
      </trkpt>
      <trkpt lat="47.22055" lon="-0.04877">
        <ele>49</ele>
        <time>2013-02-04T10:43:49.000Z</time>
      </trkpt>
      <trkpt lat="47.22058" lon="-0.04883">
        <ele>49</ele>
        <time>2013-02-04T10:43:53.000Z</time>
      </trkpt>
      <trkpt lat="47.22059" lon="-0.04886">
        <ele>49</ele>
        <time>2013-02-04T10:43:54.000Z</time>
      </trkpt>
      <trkpt lat="47.22061" lon="-0.04891">
        <ele>49</ele>
        <time>2013-02-04T10:43:56.000Z</time>
      </trkpt>
      <trkpt lat="47.22062" lon="-0.04893">
        <ele>49</ele>
        <time>2013-02-04T10:43:57.000Z</time>
      </trkpt>
      <trkpt lat="47.22064" lon="-0.04898">
        <ele>49</ele>
        <time>2013-02-04T10:44:00.000Z</time>
      </trkpt>
      <trkpt lat="47.22065" lon="-0.049">
        <ele>49</ele>
        <time>2013-02-04T10:44:01.000Z</time>
      </trkpt>
      <trkpt lat="47.22066" lon="-0.04904">
        <ele>49</ele>
        <time>2013-02-04T10:44:03.000Z</time>
      </trkpt>
      <trkpt lat="47.22066" lon="-0.04906">
        <ele>49</ele>
        <time>2013-02-04T10:44:04.000Z</time>
      </trkpt>
      <trkpt lat="47.22067" lon="-0.04912">
        <ele>49</ele>
        <time>2013-02-04T10:44:08.000Z</time>
      </trkpt>
      <trkpt lat="47.22067" lon="-0.04914">
        <ele>49</ele>
        <time>2013-02-04T10:44:09.000Z</time>
      </trkpt>
      <trkpt lat="47.22068" lon="-0.04919">
        <ele>49</ele>
        <time>2013-02-04T10:44:12.000Z</time>
      </trkpt>
      <trkpt lat="47.22069" lon="-0.04921">
        <ele>49</ele>
        <time>2013-02-04T10:44:13.000Z</time>
      </trkpt>
      <trkpt lat="47.2207" lon="-0.04926">
        <ele>49</ele>
        <time>2013-02-04T10:44:16.000Z</time>
      </trkpt>
      <trkpt lat="47.22071" lon="-0.04927">
        <ele>49</ele>
        <time>2013-02-04T10:44:17.000Z</time>
      </trkpt>
      <trkpt lat="47.22072" lon="-0.04933">
        <ele>49</ele>
        <time>2013-02-04T10:44:20.000Z</time>
      </trkpt>
      <trkpt lat="47.22073" lon="-0.04935">
        <ele>49</ele>
        <time>2013-02-04T10:44:21.000Z</time>
      </trkpt>
      <trkpt lat="47.22076" lon="-0.04939">
        <ele>49</ele>
        <time>2013-02-04T10:44:25.000Z</time>
      </trkpt>
      <trkpt lat="47.22077" lon="-0.04941">
        <ele>49</ele>
        <time>2013-02-04T10:44:26.000Z</time>
      </trkpt>
      <trkpt lat="47.22078" lon="-0.04946">
        <ele>49</ele>
        <time>2013-02-04T10:44:28.000Z</time>
      </trkpt>
      <trkpt lat="47.22079" lon="-0.04947">
        <ele>49</ele>
        <time>2013-02-04T10:44:29.000Z</time>
      </trkpt>
      <trkpt lat="47.22082" lon="-0.04952">
        <ele>49</ele>
        <time>2013-02-04T10:44:32.000Z</time>
      </trkpt>
      <trkpt lat="47.22083" lon="-0.04954">
        <ele>49</ele>
        <time>2013-02-04T10:44:33.000Z</time>
      </trkpt>
      <trkpt lat="47.22085" lon="-0.04959">
        <ele>47</ele>
        <time>2013-02-04T10:44:36.000Z</time>
      </trkpt>
      <trkpt lat="47.22085" lon="-0.04961">
        <ele>47</ele>
        <time>2013-02-04T10:44:37.000Z</time>
      </trkpt>
      <trkpt lat="47.22087" lon="-0.04965">
        <ele>47</ele>
        <time>2013-02-04T10:44:40.000Z</time>
      </trkpt>
      <trkpt lat="47.22088" lon="-0.04967">
        <ele>47</ele>
        <time>2013-02-04T10:44:41.000Z</time>
      </trkpt>
      <trkpt lat="47.22089" lon="-0.04972">
        <ele>47</ele>
        <time>2013-02-04T10:44:44.000Z</time>
      </trkpt>
      <trkpt lat="47.22089" lon="-0.04973">
        <ele>47</ele>
        <time>2013-02-04T10:44:45.000Z</time>
      </trkpt>
      <trkpt lat="47.2209" lon="-0.04979">
        <ele>47</ele>
        <time>2013-02-04T10:44:47.000Z</time>
      </trkpt>
      <trkpt lat="47.22089" lon="-0.04982">
        <ele>47</ele>
        <time>2013-02-04T10:44:48.000Z</time>
      </trkpt>
      <trkpt lat="47.22091" lon="-0.04988">
        <ele>47</ele>
        <time>2013-02-04T10:44:50.000Z</time>
      </trkpt>
      <trkpt lat="47.22092" lon="-0.0499">
        <ele>47</ele>
        <time>2013-02-04T10:44:51.000Z</time>
      </trkpt>
      <trkpt lat="47.22093" lon="-0.04994">
        <ele>47</ele>
        <time>2013-02-04T10:44:54.000Z</time>
      </trkpt>
      <trkpt lat="47.22094" lon="-0.04995">
        <ele>47</ele>
        <time>2013-02-04T10:44:55.000Z</time>
      </trkpt>
      <trkpt lat="47.22096" lon="-0.05">
        <ele>47</ele>
        <time>2013-02-04T10:44:57.000Z</time>
      </trkpt>
      <trkpt lat="47.22097" lon="-0.05001">
        <ele>46</ele>
        <time>2013-02-04T10:44:58.000Z</time>
      </trkpt>
      <trkpt lat="47.22098" lon="-0.05004">
        <ele>46</ele>
        <time>2013-02-04T10:45:00.000Z</time>
      </trkpt>
      <trkpt lat="47.221" lon="-0.05006">
        <ele>46</ele>
        <time>2013-02-04T10:45:01.000Z</time>
      </trkpt>
      <trkpt lat="47.22104" lon="-0.05006">
        <ele>46</ele>
        <time>2013-02-04T10:45:05.000Z</time>
      </trkpt>
      <trkpt lat="47.22105" lon="-0.05005">
        <ele>46</ele>
        <time>2013-02-04T10:45:06.000Z</time>
      </trkpt>
      <trkpt lat="47.22108" lon="-0.05005">
        <ele>46</ele>
        <time>2013-02-04T10:45:08.000Z</time>
      </trkpt>
      <trkpt lat="47.22109" lon="-0.05004">
        <ele>46</ele>
        <time>2013-02-04T10:45:09.000Z</time>
      </trkpt>
      <trkpt lat="47.22112" lon="-0.05002">
        <ele>46</ele>
        <time>2013-02-04T10:45:11.000Z</time>
      </trkpt>
      <trkpt lat="47.22114" lon="-0.05002">
        <ele>46</ele>
        <time>2013-02-04T10:45:12.000Z</time>
      </trkpt>
      <trkpt lat="47.22118" lon="-0.05002">
        <ele>46</ele>
        <time>2013-02-04T10:45:14.000Z</time>
      </trkpt>
      <trkpt lat="47.2212" lon="-0.05001">
        <ele>46</ele>
        <time>2013-02-04T10:45:15.000Z</time>
      </trkpt>
      <trkpt lat="47.22123" lon="-0.05002">
        <ele>46</ele>
        <time>2013-02-04T10:45:18.000Z</time>
      </trkpt>
      <trkpt lat="47.22124" lon="-0.05002">
        <ele>46</ele>
        <time>2013-02-04T10:45:19.000Z</time>
      </trkpt>
      <trkpt lat="47.22129" lon="-0.05004">
        <ele>45</ele>
        <time>2013-02-04T10:45:23.000Z</time>
      </trkpt>
      <trkpt lat="47.22129" lon="-0.05004">
        <ele>45</ele>
        <time>2013-02-04T10:45:24.000Z</time>
      </trkpt>
      <trkpt lat="47.22131" lon="-0.05008">
        <ele>45</ele>
        <time>2013-02-04T10:45:27.000Z</time>
      </trkpt>
      <trkpt lat="47.22132" lon="-0.0501">
        <ele>45</ele>
        <time>2013-02-04T10:45:28.000Z</time>
      </trkpt>
      <trkpt lat="47.22133" lon="-0.05016">
        <ele>45</ele>
        <time>2013-02-04T10:45:30.000Z</time>
      </trkpt>
      <trkpt lat="47.22134" lon="-0.05019">
        <ele>45</ele>
        <time>2013-02-04T10:45:31.000Z</time>
      </trkpt>
      <trkpt lat="47.22135" lon="-0.05023">
        <ele>45</ele>
        <time>2013-02-04T10:45:33.000Z</time>
      </trkpt>
      <trkpt lat="47.22136" lon="-0.05025">
        <ele>45</ele>
        <time>2013-02-04T10:45:34.000Z</time>
      </trkpt>
      <trkpt lat="47.22137" lon="-0.05029">
        <ele>45</ele>
        <time>2013-02-04T10:45:36.000Z</time>
      </trkpt>
      <trkpt lat="47.22138" lon="-0.05031">
        <ele>45</ele>
        <time>2013-02-04T10:45:37.000Z</time>
      </trkpt>
      <trkpt lat="47.22139" lon="-0.05035">
        <ele>45</ele>
        <time>2013-02-04T10:45:39.000Z</time>
      </trkpt>
      <trkpt lat="47.22139" lon="-0.05038">
        <ele>45</ele>
        <time>2013-02-04T10:45:40.000Z</time>
      </trkpt>
      <trkpt lat="47.2214" lon="-0.05043">
        <ele>45</ele>
        <time>2013-02-04T10:45:42.000Z</time>
      </trkpt>
      <trkpt lat="47.22141" lon="-0.05046">
        <ele>45</ele>
        <time>2013-02-04T10:45:43.000Z</time>
      </trkpt>
      <trkpt lat="47.22142" lon="-0.05051">
        <ele>45</ele>
        <time>2013-02-04T10:45:48.000Z</time>
      </trkpt>
      <trkpt lat="47.22142" lon="-0.05052">
        <ele>45</ele>
        <time>2013-02-04T10:45:49.000Z</time>
      </trkpt>
      <trkpt lat="47.22143" lon="-0.05058">
        <ele>45</ele>
        <time>2013-02-04T10:45:52.000Z</time>
      </trkpt>
      <trkpt lat="47.22143" lon="-0.0506">
        <ele>45</ele>
        <time>2013-02-04T10:45:53.000Z</time>
      </trkpt>
      <trkpt lat="47.22144" lon="-0.05065">
        <ele>45</ele>
        <time>2013-02-04T10:45:55.000Z</time>
      </trkpt>
      <trkpt lat="47.22144" lon="-0.05067">
        <ele>45</ele>
        <time>2013-02-04T10:45:56.000Z</time>
      </trkpt>
      <trkpt lat="47.22146" lon="-0.05073">
        <ele>45</ele>
        <time>2013-02-04T10:45:59.000Z</time>
      </trkpt>
      <trkpt lat="47.22146" lon="-0.05075">
        <ele>45</ele>
        <time>2013-02-04T10:46:00.000Z</time>
      </trkpt>
      <trkpt lat="47.22146" lon="-0.05079">
        <ele>45</ele>
        <time>2013-02-04T10:46:02.000Z</time>
      </trkpt>
      <trkpt lat="47.22146" lon="-0.05082">
        <ele>45</ele>
        <time>2013-02-04T10:46:03.000Z</time>
      </trkpt>
      <trkpt lat="47.22145" lon="-0.05087">
        <ele>44</ele>
        <time>2013-02-04T10:46:05.000Z</time>
      </trkpt>
      <trkpt lat="47.22145" lon="-0.05088">
        <ele>44</ele>
        <time>2013-02-04T10:46:06.000Z</time>
      </trkpt>
      <trkpt lat="47.22146" lon="-0.05094">
        <ele>44</ele>
        <time>2013-02-04T10:46:08.000Z</time>
      </trkpt>
      <trkpt lat="47.22146" lon="-0.05096">
        <ele>44</ele>
        <time>2013-02-04T10:46:09.000Z</time>
      </trkpt>
      <trkpt lat="47.22147" lon="-0.05102">
        <ele>44</ele>
        <time>2013-02-04T10:46:12.000Z</time>
      </trkpt>
      <trkpt lat="47.22147" lon="-0.05103">
        <ele>44</ele>
        <time>2013-02-04T10:46:13.000Z</time>
      </trkpt>
      <trkpt lat="47.22149" lon="-0.05108">
        <ele>44</ele>
        <time>2013-02-04T10:46:16.000Z</time>
      </trkpt>
      <trkpt lat="47.22149" lon="-0.0511">
        <ele>44</ele>
        <time>2013-02-04T10:46:17.000Z</time>
      </trkpt>
      <trkpt lat="47.22149" lon="-0.05116">
        <ele>44</ele>
        <time>2013-02-04T10:46:21.000Z</time>
      </trkpt>
      <trkpt lat="47.2215" lon="-0.05117">
        <ele>44</ele>
        <time>2013-02-04T10:46:22.000Z</time>
      </trkpt>
      <trkpt lat="47.22151" lon="-0.05122">
        <ele>44</ele>
        <time>2013-02-04T10:46:25.000Z</time>
      </trkpt>
      <trkpt lat="47.22151" lon="-0.05124">
        <ele>44</ele>
        <time>2013-02-04T10:46:26.000Z</time>
      </trkpt>
      <trkpt lat="47.22151" lon="-0.05129">
        <ele>44</ele>
        <time>2013-02-04T10:46:30.000Z</time>
      </trkpt>
      <trkpt lat="47.22151" lon="-0.05131">
        <ele>44</ele>
        <time>2013-02-04T10:46:31.000Z</time>
      </trkpt>
      <trkpt lat="47.2215" lon="-0.05137">
        <ele>44</ele>
        <time>2013-02-04T10:46:34.000Z</time>
      </trkpt>
      <trkpt lat="47.2215" lon="-0.05139">
        <ele>44</ele>
        <time>2013-02-04T10:46:35.000Z</time>
      </trkpt>
      <trkpt lat="47.22151" lon="-0.05144">
        <ele>44</ele>
        <time>2013-02-04T10:46:37.000Z</time>
      </trkpt>
      <trkpt lat="47.22151" lon="-0.05146">
        <ele>44</ele>
        <time>2013-02-04T10:46:38.000Z</time>
      </trkpt>
      <trkpt lat="47.22153" lon="-0.05151">
        <ele>44</ele>
        <time>2013-02-04T10:46:42.000Z</time>
      </trkpt>
      <trkpt lat="47.22153" lon="-0.05152">
        <ele>44</ele>
        <time>2013-02-04T10:46:43.000Z</time>
      </trkpt>
      <trkpt lat="47.22155" lon="-0.05157">
        <ele>44</ele>
        <time>2013-02-04T10:46:46.000Z</time>
      </trkpt>
      <trkpt lat="47.22156" lon="-0.05159">
        <ele>44</ele>
        <time>2013-02-04T10:46:47.000Z</time>
      </trkpt>
      <trkpt lat="47.22157" lon="-0.05166">
        <ele>44</ele>
        <time>2013-02-04T10:46:52.000Z</time>
      </trkpt>
      <trkpt lat="47.22157" lon="-0.05167">
        <ele>44</ele>
        <time>2013-02-04T10:46:53.000Z</time>
      </trkpt>
      <trkpt lat="47.2216" lon="-0.05172">
        <ele>44</ele>
        <time>2013-02-04T10:47:33.000Z</time>
      </trkpt>
      <trkpt lat="47.2216" lon="-0.05172">
        <ele>44</ele>
        <time>2013-02-04T10:47:34.000Z</time>
      </trkpt>
      <trkpt lat="47.22163" lon="-0.05175">
        <ele>44</ele>
        <time>2013-02-04T10:47:44.000Z</time>
      </trkpt>
      <trkpt lat="47.22163" lon="-0.05177">
        <ele>44</ele>
        <time>2013-02-04T10:47:45.000Z</time>
      </trkpt>
      <trkpt lat="47.22164" lon="-0.05183">
        <ele>44</ele>
        <time>2013-02-04T10:47:49.000Z</time>
      </trkpt>
      <trkpt lat="47.22164" lon="-0.05185">
        <ele>44</ele>
        <time>2013-02-04T10:47:50.000Z</time>
      </trkpt>
      <trkpt lat="47.22168" lon="-0.05184">
        <ele>43</ele>
        <time>2013-02-04T10:49:05.000Z</time>
      </trkpt>
      <trkpt lat="47.22169" lon="-0.05184">
        <ele>43</ele>
        <time>2013-02-04T10:49:06.000Z</time>
      </trkpt>
      <trkpt lat="47.2217" lon="-0.05189">
        <ele>43</ele>
        <time>2013-02-04T10:50:13.000Z</time>
      </trkpt>
      <trkpt lat="47.22171" lon="-0.0519">
        <ele>43</ele>
        <time>2013-02-04T10:50:14.000Z</time>
      </trkpt>
      <trkpt lat="47.22173" lon="-0.05196">
        <ele>43</ele>
        <time>2013-02-04T10:50:19.000Z</time>
      </trkpt>
      <trkpt lat="47.22173" lon="-0.05197">
        <ele>43</ele>
        <time>2013-02-04T10:50:20.000Z</time>
      </trkpt>
      <trkpt lat="47.22175" lon="-0.05203">
        <ele>43</ele>
        <time>2013-02-04T10:50:23.000Z</time>
      </trkpt>
      <trkpt lat="47.22175" lon="-0.05204">
        <ele>43</ele>
        <time>2013-02-04T10:50:24.000Z</time>
      </trkpt>
      <trkpt lat="47.22176" lon="-0.0521">
        <ele>43</ele>
        <time>2013-02-04T10:50:27.000Z</time>
      </trkpt>
      <trkpt lat="47.22176" lon="-0.05212">
        <ele>43</ele>
        <time>2013-02-04T10:50:28.000Z</time>
      </trkpt>
      <trkpt lat="47.22177" lon="-0.05218">
        <ele>43</ele>
        <time>2013-02-04T10:50:32.000Z</time>
      </trkpt>
      <trkpt lat="47.22178" lon="-0.0522">
        <ele>43</ele>
        <time>2013-02-04T10:50:33.000Z</time>
      </trkpt>
      <trkpt lat="47.22178" lon="-0.05224">
        <ele>43</ele>
        <time>2013-02-04T10:50:36.000Z</time>
      </trkpt>
      <trkpt lat="47.22179" lon="-0.05226">
        <ele>43</ele>
        <time>2013-02-04T10:50:37.000Z</time>
      </trkpt>
      <trkpt lat="47.22178" lon="-0.05231">
        <ele>43</ele>
        <time>2013-02-04T10:50:39.000Z</time>
      </trkpt>
      <trkpt lat="47.22179" lon="-0.05234">
        <ele>43</ele>
        <time>2013-02-04T10:50:40.000Z</time>
      </trkpt>
      <trkpt lat="47.22179" lon="-0.05239">
        <ele>43</ele>
        <time>2013-02-04T10:50:43.000Z</time>
      </trkpt>
      <trkpt lat="47.22179" lon="-0.05241">
        <ele>43</ele>
        <time>2013-02-04T10:50:44.000Z</time>
      </trkpt>
      <trkpt lat="47.2218" lon="-0.05247">
        <ele>43</ele>
        <time>2013-02-04T10:50:48.000Z</time>
      </trkpt>
      <trkpt lat="47.2218" lon="-0.0525">
        <ele>43</ele>
        <time>2013-02-04T10:50:49.000Z</time>
      </trkpt>
      <trkpt lat="47.22181" lon="-0.05256">
        <ele>43</ele>
        <time>2013-02-04T10:50:51.000Z</time>
      </trkpt>
      <trkpt lat="47.22181" lon="-0.05258">
        <ele>43</ele>
        <time>2013-02-04T10:50:52.000Z</time>
      </trkpt>
      <trkpt lat="47.22183" lon="-0.05264">
        <ele>43</ele>
        <time>2013-02-04T10:50:55.000Z</time>
      </trkpt>
      <trkpt lat="47.22184" lon="-0.05266">
        <ele>43</ele>
        <time>2013-02-04T10:50:56.000Z</time>
      </trkpt>
      <trkpt lat="47.22185" lon="-0.05271">
        <ele>43</ele>
        <time>2013-02-04T10:51:00.000Z</time>
      </trkpt>
      <trkpt lat="47.22186" lon="-0.05274">
        <ele>43</ele>
        <time>2013-02-04T10:51:01.000Z</time>
      </trkpt>
      <trkpt lat="47.22187" lon="-0.05279">
        <ele>43</ele>
        <time>2013-02-04T10:51:03.000Z</time>
      </trkpt>
      <trkpt lat="47.22188" lon="-0.0528">
        <ele>43</ele>
        <time>2013-02-04T10:51:04.000Z</time>
      </trkpt>
      <trkpt lat="47.2219" lon="-0.05286">
        <ele>43</ele>
        <time>2013-02-04T10:51:10.000Z</time>
      </trkpt>
      <trkpt lat="47.2219" lon="-0.05287">
        <ele>43</ele>
        <time>2013-02-04T10:51:11.000Z</time>
      </trkpt>
      <trkpt lat="47.22191" lon="-0.0529">
        <ele>43</ele>
        <time>2013-02-04T10:51:13.000Z</time>
      </trkpt>
      <trkpt lat="47.22193" lon="-0.05293">
        <ele>43</ele>
        <time>2013-02-04T10:51:14.000Z</time>
      </trkpt>
      <trkpt lat="47.22195" lon="-0.05295">
        <ele>43</ele>
        <time>2013-02-04T10:51:16.000Z</time>
      </trkpt>
      <trkpt lat="47.22196" lon="-0.05297">
        <ele>43</ele>
        <time>2013-02-04T10:51:17.000Z</time>
      </trkpt>
      <trkpt lat="47.22198" lon="-0.05301">
        <ele>43</ele>
        <time>2013-02-04T10:51:20.000Z</time>
      </trkpt>
      <trkpt lat="47.22199" lon="-0.05303">
        <ele>43</ele>
        <time>2013-02-04T10:51:21.000Z</time>
      </trkpt>
      <trkpt lat="47.22201" lon="-0.05307">
        <ele>43</ele>
        <time>2013-02-04T10:51:24.000Z</time>
      </trkpt>
      <trkpt lat="47.22202" lon="-0.05309">
        <ele>43</ele>
        <time>2013-02-04T10:51:25.000Z</time>
      </trkpt>
      <trkpt lat="47.22204" lon="-0.05312">
        <ele>43</ele>
        <time>2013-02-04T10:51:27.000Z</time>
      </trkpt>
      <trkpt lat="47.22206" lon="-0.05314">
        <ele>43</ele>
        <time>2013-02-04T10:51:28.000Z</time>
      </trkpt>
      <trkpt lat="47.22208" lon="-0.05319">
        <ele>43</ele>
        <time>2013-02-04T10:51:30.000Z</time>
      </trkpt>
      <trkpt lat="47.22209" lon="-0.05321">
        <ele>43</ele>
        <time>2013-02-04T10:51:31.000Z</time>
      </trkpt>
      <trkpt lat="47.2221" lon="-0.05326">
        <ele>43</ele>
        <time>2013-02-04T10:51:34.001Z</time>
      </trkpt>
      <trkpt lat="47.22211" lon="-0.05329">
        <ele>43</ele>
        <time>2013-02-04T10:51:35.001Z</time>
      </trkpt>
      <trkpt lat="47.22211" lon="-0.05335">
        <ele>42</ele>
        <time>2013-02-04T10:51:38.001Z</time>
      </trkpt>
      <trkpt lat="47.22211" lon="-0.05336">
        <ele>42</ele>
        <time>2013-02-04T10:51:39.001Z</time>
      </trkpt>
      <trkpt lat="47.22213" lon="-0.0534">
        <ele>42</ele>
        <time>2013-02-04T10:51:44.001Z</time>
      </trkpt>
      <trkpt lat="47.22214" lon="-0.05342">
        <ele>42</ele>
        <time>2013-02-04T10:51:45.001Z</time>
      </trkpt>
      <trkpt lat="47.22216" lon="-0.05347">
        <ele>42</ele>
        <time>2013-02-04T10:51:47.001Z</time>
      </trkpt>
      <trkpt lat="47.22216" lon="-0.05349">
        <ele>42</ele>
        <time>2013-02-04T10:51:48.001Z</time>
      </trkpt>
      <trkpt lat="47.22217" lon="-0.05354">
        <ele>42</ele>
        <time>2013-02-04T10:51:51.001Z</time>
      </trkpt>
      <trkpt lat="47.22217" lon="-0.05355">
        <ele>42</ele>
        <time>2013-02-04T10:51:52.001Z</time>
      </trkpt>
      <trkpt lat="47.22217" lon="-0.05361">
        <ele>42</ele>
        <time>2013-02-04T10:51:54.001Z</time>
      </trkpt>
      <trkpt lat="47.22217" lon="-0.05364">
        <ele>42</ele>
        <time>2013-02-04T10:51:55.001Z</time>
      </trkpt>
      <trkpt lat="47.22218" lon="-0.05368">
        <ele>42</ele>
        <time>2013-02-04T10:51:57.001Z</time>
      </trkpt>
      <trkpt lat="47.22218" lon="-0.05371">
        <ele>42</ele>
        <time>2013-02-04T10:51:58.001Z</time>
      </trkpt>
      <trkpt lat="47.22218" lon="-0.05376">
        <ele>42</ele>
        <time>2013-02-04T10:52:01.001Z</time>
      </trkpt>
      <trkpt lat="47.22218" lon="-0.05378">
        <ele>42</ele>
        <time>2013-02-04T10:52:02.001Z</time>
      </trkpt>
      <trkpt lat="47.2222" lon="-0.05382">
        <ele>42</ele>
        <time>2013-02-04T10:52:05.001Z</time>
      </trkpt>
      <trkpt lat="47.22221" lon="-0.05384">
        <ele>42</ele>
        <time>2013-02-04T10:52:06.001Z</time>
      </trkpt>
      <trkpt lat="47.22222" lon="-0.05389">
        <ele>42</ele>
        <time>2013-02-04T10:52:09.001Z</time>
      </trkpt>
      <trkpt lat="47.22223" lon="-0.0539">
        <ele>42</ele>
        <time>2013-02-04T10:52:10.001Z</time>
      </trkpt>
      <trkpt lat="47.22224" lon="-0.05396">
        <ele>42</ele>
        <time>2013-02-04T10:52:14.001Z</time>
      </trkpt>
      <trkpt lat="47.22224" lon="-0.05397">
        <ele>42</ele>
        <time>2013-02-04T10:52:15.001Z</time>
      </trkpt>
      <trkpt lat="47.22225" lon="-0.05401">
        <ele>42</ele>
        <time>2013-02-04T10:52:17.001Z</time>
      </trkpt>
      <trkpt lat="47.22225" lon="-0.05404">
        <ele>42</ele>
        <time>2013-02-04T10:52:18.001Z</time>
      </trkpt>
      <trkpt lat="47.22227" lon="-0.05409">
        <ele>42</ele>
        <time>2013-02-04T10:52:23.001Z</time>
      </trkpt>
      <trkpt lat="47.22227" lon="-0.05411">
        <ele>42</ele>
        <time>2013-02-04T10:52:24.001Z</time>
      </trkpt>
      <trkpt lat="47.22229" lon="-0.05415">
        <ele>42</ele>
        <time>2013-02-04T10:52:27.001Z</time>
      </trkpt>
      <trkpt lat="47.2223" lon="-0.05417">
        <ele>42</ele>
        <time>2013-02-04T10:52:28.001Z</time>
      </trkpt>
      <trkpt lat="47.22231" lon="-0.05421">
        <ele>42</ele>
        <time>2013-02-04T10:52:30.001Z</time>
      </trkpt>
      <trkpt lat="47.22232" lon="-0.05424">
        <ele>42</ele>
        <time>2013-02-04T10:52:31.001Z</time>
      </trkpt>
      <trkpt lat="47.22233" lon="-0.0543">
        <ele>42</ele>
        <time>2013-02-04T10:52:34.001Z</time>
      </trkpt>
      <trkpt lat="47.22233" lon="-0.05431">
        <ele>42</ele>
        <time>2013-02-04T10:52:35.001Z</time>
      </trkpt>
      <trkpt lat="47.22234" lon="-0.05437">
        <ele>42</ele>
        <time>2013-02-04T10:52:38.001Z</time>
      </trkpt>
      <trkpt lat="47.22234" lon="-0.05438">
        <ele>42</ele>
        <time>2013-02-04T10:52:39.001Z</time>
      </trkpt>
      <trkpt lat="47.22235" lon="-0.05444">
        <ele>42</ele>
        <time>2013-02-04T10:52:43.001Z</time>
      </trkpt>
      <trkpt lat="47.22236" lon="-0.05446">
        <ele>42</ele>
        <time>2013-02-04T10:52:44.001Z</time>
      </trkpt>
      <trkpt lat="47.22236" lon="-0.0545">
        <ele>42</ele>
        <time>2013-02-04T10:52:46.001Z</time>
      </trkpt>
      <trkpt lat="47.22237" lon="-0.05453">
        <ele>42</ele>
        <time>2013-02-04T10:52:47.001Z</time>
      </trkpt>
      <trkpt lat="47.22238" lon="-0.05458">
        <ele>42</ele>
        <time>2013-02-04T10:52:49.001Z</time>
      </trkpt>
      <trkpt lat="47.22238" lon="-0.0546">
        <ele>42</ele>
        <time>2013-02-04T10:52:50.001Z</time>
      </trkpt>
      <trkpt lat="47.22239" lon="-0.05466">
        <ele>42</ele>
        <time>2013-02-04T10:52:54.001Z</time>
      </trkpt>
      <trkpt lat="47.22239" lon="-0.05469">
        <ele>42</ele>
        <time>2013-02-04T10:52:55.001Z</time>
      </trkpt>
      <trkpt lat="47.2224" lon="-0.05475">
        <ele>42</ele>
        <time>2013-02-04T10:52:58.001Z</time>
      </trkpt>
      <trkpt lat="47.2224" lon="-0.05476">
        <ele>42</ele>
        <time>2013-02-04T10:52:59.001Z</time>
      </trkpt>
      <trkpt lat="47.2224" lon="-0.05482">
        <ele>42</ele>
        <time>2013-02-04T10:53:04.001Z</time>
      </trkpt>
      <trkpt lat="47.2224" lon="-0.05483">
        <ele>42</ele>
        <time>2013-02-04T10:53:05.001Z</time>
      </trkpt>
      <trkpt lat="47.2224" lon="-0.05489">
        <ele>42</ele>
        <time>2013-02-04T10:53:08.001Z</time>
      </trkpt>
      <trkpt lat="47.2224" lon="-0.05491">
        <ele>42</ele>
        <time>2013-02-04T10:53:09.001Z</time>
      </trkpt>
      <trkpt lat="47.22241" lon="-0.05495">
        <ele>41</ele>
        <time>2013-02-04T10:53:12.001Z</time>
      </trkpt>
      <trkpt lat="47.22241" lon="-0.05499">
        <ele>41</ele>
        <time>2013-02-04T10:53:13.001Z</time>
      </trkpt>
      <trkpt lat="47.22241" lon="-0.05504">
        <ele>41</ele>
        <time>2013-02-04T10:53:15.001Z</time>
      </trkpt>
      <trkpt lat="47.22241" lon="-0.05506">
        <ele>41</ele>
        <time>2013-02-04T10:53:16.001Z</time>
      </trkpt>
      <trkpt lat="47.22242" lon="-0.05512">
        <ele>41</ele>
        <time>2013-02-04T10:53:19.001Z</time>
      </trkpt>
      <trkpt lat="47.22242" lon="-0.05513">
        <ele>41</ele>
        <time>2013-02-04T10:53:20.001Z</time>
      </trkpt>
      <trkpt lat="47.22243" lon="-0.05518">
        <ele>41</ele>
        <time>2013-02-04T10:53:22.001Z</time>
      </trkpt>
      <trkpt lat="47.22243" lon="-0.0552">
        <ele>41</ele>
        <time>2013-02-04T10:53:23.001Z</time>
      </trkpt>
      <trkpt lat="47.22245" lon="-0.05525">
        <ele>41</ele>
        <time>2013-02-04T10:53:25.001Z</time>
      </trkpt>
      <trkpt lat="47.22245" lon="-0.05527">
        <ele>41</ele>
        <time>2013-02-04T10:53:26.001Z</time>
      </trkpt>
      <trkpt lat="47.22247" lon="-0.05532">
        <ele>41</ele>
        <time>2013-02-04T10:53:29.001Z</time>
      </trkpt>
      <trkpt lat="47.22247" lon="-0.05533">
        <ele>41</ele>
        <time>2013-02-04T10:53:30.001Z</time>
      </trkpt>
      <trkpt lat="47.22249" lon="-0.05538">
        <ele>41</ele>
        <time>2013-02-04T10:53:33.001Z</time>
      </trkpt>
      <trkpt lat="47.22249" lon="-0.0554">
        <ele>41</ele>
        <time>2013-02-04T10:53:34.001Z</time>
      </trkpt>
      <trkpt lat="47.2225" lon="-0.05546">
        <ele>40</ele>
        <time>2013-02-04T10:53:37.001Z</time>
      </trkpt>
      <trkpt lat="47.22251" lon="-0.05547">
        <ele>40</ele>
        <time>2013-02-04T10:53:38.001Z</time>
      </trkpt>
      <trkpt lat="47.22253" lon="-0.05553">
        <ele>40</ele>
        <time>2013-02-04T10:53:41.001Z</time>
      </trkpt>
      <trkpt lat="47.22254" lon="-0.05555">
        <ele>40</ele>
        <time>2013-02-04T10:53:42.001Z</time>
      </trkpt>
      <trkpt lat="47.22254" lon="-0.0556">
        <ele>40</ele>
        <time>2013-02-04T10:53:45.001Z</time>
      </trkpt>
      <trkpt lat="47.22254" lon="-0.05562">
        <ele>40</ele>
        <time>2013-02-04T10:53:46.001Z</time>
      </trkpt>
      <trkpt lat="47.22255" lon="-0.05567">
        <ele>40</ele>
        <time>2013-02-04T10:53:49.001Z</time>
      </trkpt>
      <trkpt lat="47.22255" lon="-0.0557">
        <ele>40</ele>
        <time>2013-02-04T10:53:50.001Z</time>
      </trkpt>
      <trkpt lat="47.22256" lon="-0.05575">
        <ele>40</ele>
        <time>2013-02-04T10:53:53.001Z</time>
      </trkpt>
      <trkpt lat="47.22257" lon="-0.05577">
        <ele>40</ele>
        <time>2013-02-04T10:53:54.001Z</time>
      </trkpt>
      <trkpt lat="47.22257" lon="-0.05582">
        <ele>40</ele>
        <time>2013-02-04T10:53:56.001Z</time>
      </trkpt>
      <trkpt lat="47.22257" lon="-0.05585">
        <ele>40</ele>
        <time>2013-02-04T10:53:57.001Z</time>
      </trkpt>
      <trkpt lat="47.22259" lon="-0.05591">
        <ele>40</ele>
        <time>2013-02-04T10:54:01.001Z</time>
      </trkpt>
      <trkpt lat="47.22259" lon="-0.05594">
        <ele>40</ele>
        <time>2013-02-04T10:54:02.001Z</time>
      </trkpt>
      <trkpt lat="47.22259" lon="-0.05598">
        <ele>40</ele>
        <time>2013-02-04T10:54:04.001Z</time>
      </trkpt>
      <trkpt lat="47.22259" lon="-0.056">
        <ele>40</ele>
        <time>2013-02-04T10:54:05.001Z</time>
      </trkpt>
      <trkpt lat="47.2226" lon="-0.05607">
        <ele>40</ele>
        <time>2013-02-04T10:54:11.001Z</time>
      </trkpt>
      <trkpt lat="47.2226" lon="-0.05609">
        <ele>40</ele>
        <time>2013-02-04T10:54:12.001Z</time>
      </trkpt>
      <trkpt lat="47.22259" lon="-0.05615">
        <ele>40</ele>
        <time>2013-02-04T10:54:15.001Z</time>
      </trkpt>
      <trkpt lat="47.22259" lon="-0.05617">
        <ele>40</ele>
        <time>2013-02-04T10:54:16.001Z</time>
      </trkpt>
      <trkpt lat="47.22259" lon="-0.05621">
        <ele>40</ele>
        <time>2013-02-04T10:54:18.001Z</time>
      </trkpt>
      <trkpt lat="47.22259" lon="-0.05623">
        <ele>40</ele>
        <time>2013-02-04T10:54:19.001Z</time>
      </trkpt>
      <trkpt lat="47.22259" lon="-0.05629">
        <ele>40</ele>
        <time>2013-02-04T10:54:22.001Z</time>
      </trkpt>
      <trkpt lat="47.22259" lon="-0.05631">
        <ele>40</ele>
        <time>2013-02-04T10:54:23.001Z</time>
      </trkpt>
      <trkpt lat="47.22259" lon="-0.05637">
        <ele>40</ele>
        <time>2013-02-04T10:54:26.001Z</time>
      </trkpt>
      <trkpt lat="47.2226" lon="-0.05639">
        <ele>40</ele>
        <time>2013-02-04T10:54:27.001Z</time>
      </trkpt>
      <trkpt lat="47.22261" lon="-0.05643">
        <ele>40</ele>
        <time>2013-02-04T10:54:29.001Z</time>
      </trkpt>
      <trkpt lat="47.22262" lon="-0.05645">
        <ele>40</ele>
        <time>2013-02-04T10:54:30.001Z</time>
      </trkpt>
      <trkpt lat="47.22262" lon="-0.05651">
        <ele>40</ele>
        <time>2013-02-04T10:54:33.001Z</time>
      </trkpt>
      <trkpt lat="47.22262" lon="-0.05653">
        <ele>40</ele>
        <time>2013-02-04T10:54:34.001Z</time>
      </trkpt>
      <trkpt lat="47.22263" lon="-0.05659">
        <ele>40</ele>
        <time>2013-02-04T10:54:38.001Z</time>
      </trkpt>
      <trkpt lat="47.22262" lon="-0.05661">
        <ele>40</ele>
        <time>2013-02-04T10:54:39.001Z</time>
      </trkpt>
      <trkpt lat="47.22262" lon="-0.05665">
        <ele>41</ele>
        <time>2013-02-04T10:54:41.001Z</time>
      </trkpt>
      <trkpt lat="47.22263" lon="-0.05667">
        <ele>40</ele>
        <time>2013-02-04T10:54:42.001Z</time>
      </trkpt>
      <trkpt lat="47.22265" lon="-0.05673">
        <ele>40</ele>
        <time>2013-02-04T10:54:46.001Z</time>
      </trkpt>
      <trkpt lat="47.22265" lon="-0.05674">
        <ele>40</ele>
        <time>2013-02-04T10:54:47.001Z</time>
      </trkpt>
      <trkpt lat="47.22266" lon="-0.05679">
        <ele>40</ele>
        <time>2013-02-04T10:54:51.001Z</time>
      </trkpt>
      <trkpt lat="47.22267" lon="-0.05681">
        <ele>40</ele>
        <time>2013-02-04T10:54:52.001Z</time>
      </trkpt>
      <trkpt lat="47.22268" lon="-0.05687">
        <ele>40</ele>
        <time>2013-02-04T10:54:55.001Z</time>
      </trkpt>
      <trkpt lat="47.22269" lon="-0.05689">
        <ele>40</ele>
        <time>2013-02-04T10:54:56.001Z</time>
      </trkpt>
      <trkpt lat="47.22273" lon="-0.05691">
        <ele>40</ele>
        <time>2013-02-04T10:55:12.001Z</time>
      </trkpt>
      <trkpt lat="47.22273" lon="-0.05691">
        <ele>40</ele>
        <time>2013-02-04T10:55:13.001Z</time>
      </trkpt>
      <trkpt lat="47.22276" lon="-0.05695">
        <ele>40</ele>
        <time>2013-02-04T10:55:18.001Z</time>
      </trkpt>
      <trkpt lat="47.22277" lon="-0.05696">
        <ele>40</ele>
        <time>2013-02-04T10:55:19.001Z</time>
      </trkpt>
      <trkpt lat="47.2228" lon="-0.05699">
        <ele>40</ele>
        <time>2013-02-04T10:55:24.001Z</time>
      </trkpt>
      <trkpt lat="47.22282" lon="-0.057">
        <ele>40</ele>
        <time>2013-02-04T10:55:25.001Z</time>
      </trkpt>
      <trkpt lat="47.22284" lon="-0.05705">
        <ele>40</ele>
        <time>2013-02-04T10:55:30.001Z</time>
      </trkpt>
      <trkpt lat="47.22284" lon="-0.05706">
        <ele>40</ele>
        <time>2013-02-04T10:55:31.001Z</time>
      </trkpt>
      <trkpt lat="47.22286" lon="-0.05712">
        <ele>40</ele>
        <time>2013-02-04T10:55:37.001Z</time>
      </trkpt>
      <trkpt lat="47.22287" lon="-0.05713">
        <ele>40</ele>
        <time>2013-02-04T10:55:38.001Z</time>
      </trkpt>
      <trkpt lat="47.22289" lon="-0.05718">
        <ele>40</ele>
        <time>2013-02-04T10:55:41.001Z</time>
      </trkpt>
      <trkpt lat="47.2229" lon="-0.0572">
        <ele>40</ele>
        <time>2013-02-04T10:55:42.001Z</time>
      </trkpt>
      <trkpt lat="47.22291" lon="-0.05724">
        <ele>40</ele>
        <time>2013-02-04T10:55:44.001Z</time>
      </trkpt>
      <trkpt lat="47.22293" lon="-0.05726">
        <ele>40</ele>
        <time>2013-02-04T10:55:45.001Z</time>
      </trkpt>
      <trkpt lat="47.22295" lon="-0.05729">
        <ele>40</ele>
        <time>2013-02-04T10:55:48.001Z</time>
      </trkpt>
      <trkpt lat="47.22296" lon="-0.05731">
        <ele>40</ele>
        <time>2013-02-04T10:55:49.001Z</time>
      </trkpt>
      <trkpt lat="47.22299" lon="-0.05735">
        <ele>40</ele>
        <time>2013-02-04T10:55:51.001Z</time>
      </trkpt>
      <trkpt lat="47.223" lon="-0.05737">
        <ele>40</ele>
        <time>2013-02-04T10:55:52.001Z</time>
      </trkpt>
      <trkpt lat="47.22303" lon="-0.0574">
        <ele>40</ele>
        <time>2013-02-04T10:55:57.001Z</time>
      </trkpt>
      <trkpt lat="47.22306" lon="-0.05742">
        <ele>40</ele>
        <time>2013-02-04T10:55:58.001Z</time>
      </trkpt>
      <trkpt lat="47.2231" lon="-0.05745">
        <ele>39</ele>
        <time>2013-02-04T10:56:01.001Z</time>
      </trkpt>
      <trkpt lat="47.22311" lon="-0.05746">
        <ele>39</ele>
        <time>2013-02-04T10:56:02.001Z</time>
      </trkpt>
      <trkpt lat="47.22313" lon="-0.0575">
        <ele>39</ele>
        <time>2013-02-04T10:56:06.001Z</time>
      </trkpt>
      <trkpt lat="47.22313" lon="-0.05751">
        <ele>39</ele>
        <time>2013-02-04T10:56:07.001Z</time>
      </trkpt>
      <trkpt lat="47.22315" lon="-0.05757">
        <ele>39</ele>
        <time>2013-02-04T10:56:10.001Z</time>
      </trkpt>
      <trkpt lat="47.22316" lon="-0.05758">
        <ele>39</ele>
        <time>2013-02-04T10:56:11.001Z</time>
      </trkpt>
      <trkpt lat="47.22318" lon="-0.05761">
        <ele>39</ele>
        <time>2013-02-04T10:56:15.001Z</time>
      </trkpt>
      <trkpt lat="47.22319" lon="-0.05762">
        <ele>39</ele>
        <time>2013-02-04T10:56:16.001Z</time>
      </trkpt>
      <trkpt lat="47.22322" lon="-0.05766">
        <ele>39</ele>
        <time>2013-02-04T10:56:19.001Z</time>
      </trkpt>
      <trkpt lat="47.22324" lon="-0.05768">
        <ele>39</ele>
        <time>2013-02-04T10:56:20.001Z</time>
      </trkpt>
      <trkpt lat="47.22327" lon="-0.05772">
        <ele>39</ele>
        <time>2013-02-04T10:56:22.001Z</time>
      </trkpt>
      <trkpt lat="47.22328" lon="-0.05773">
        <ele>39</ele>
        <time>2013-02-04T10:56:23.001Z</time>
      </trkpt>
      <trkpt lat="47.22331" lon="-0.05777">
        <ele>39</ele>
        <time>2013-02-04T10:56:27.001Z</time>
      </trkpt>
      <trkpt lat="47.22332" lon="-0.05777">
        <ele>39</ele>
        <time>2013-02-04T10:56:28.001Z</time>
      </trkpt>
      <trkpt lat="47.22335" lon="-0.05781">
        <ele>38</ele>
        <time>2013-02-04T10:56:31.001Z</time>
      </trkpt>
      <trkpt lat="47.22336" lon="-0.05782">
        <ele>38</ele>
        <time>2013-02-04T10:56:32.001Z</time>
      </trkpt>
      <trkpt lat="47.22339" lon="-0.05785">
        <ele>38</ele>
        <time>2013-02-04T10:56:36.001Z</time>
      </trkpt>
      <trkpt lat="47.2234" lon="-0.05787">
        <ele>38</ele>
        <time>2013-02-04T10:56:37.001Z</time>
      </trkpt>
      <trkpt lat="47.2234" lon="-0.05793">
        <ele>38</ele>
        <time>2013-02-04T10:56:40.001Z</time>
      </trkpt>
      <trkpt lat="47.2234" lon="-0.05794">
        <ele>38</ele>
        <time>2013-02-04T10:56:41.001Z</time>
      </trkpt>
      <trkpt lat="47.22341" lon="-0.058">
        <ele>38</ele>
        <time>2013-02-04T10:56:45.001Z</time>
      </trkpt>
      <trkpt lat="47.22342" lon="-0.05801">
        <ele>38</ele>
        <time>2013-02-04T10:56:46.001Z</time>
      </trkpt>
      <trkpt lat="47.22344" lon="-0.05806">
        <ele>38</ele>
        <time>2013-02-04T10:56:49.001Z</time>
      </trkpt>
      <trkpt lat="47.22345" lon="-0.05807">
        <ele>38</ele>
        <time>2013-02-04T10:56:50.001Z</time>
      </trkpt>
      <trkpt lat="47.22349" lon="-0.0581">
        <ele>38</ele>
        <time>2013-02-04T10:56:56.001Z</time>
      </trkpt>
      <trkpt lat="47.22351" lon="-0.05812">
        <ele>38</ele>
        <time>2013-02-04T10:56:57.001Z</time>
      </trkpt>
      <trkpt lat="47.22354" lon="-0.05816">
        <ele>38</ele>
        <time>2013-02-04T10:57:00.001Z</time>
      </trkpt>
      <trkpt lat="47.22355" lon="-0.05817">
        <ele>38</ele>
        <time>2013-02-04T10:57:01.001Z</time>
      </trkpt>
      <trkpt lat="47.22358" lon="-0.05819">
        <ele>38</ele>
        <time>2013-02-04T10:57:07.001Z</time>
      </trkpt>
      <trkpt lat="47.2236" lon="-0.05821">
        <ele>38</ele>
        <time>2013-02-04T10:57:08.001Z</time>
      </trkpt>
      <trkpt lat="47.22364" lon="-0.05824">
        <ele>38</ele>
        <time>2013-02-04T10:57:10.001Z</time>
      </trkpt>
      <trkpt lat="47.22365" lon="-0.05825">
        <ele>38</ele>
        <time>2013-02-04T10:57:11.001Z</time>
      </trkpt>
      <trkpt lat="47.22369" lon="-0.05827">
        <ele>38</ele>
        <time>2013-02-04T10:57:13.001Z</time>
      </trkpt>
      <trkpt lat="47.2237" lon="-0.05829">
        <ele>38</ele>
        <time>2013-02-04T10:57:14.001Z</time>
      </trkpt>
      <trkpt lat="47.22374" lon="-0.05832">
        <ele>38</ele>
        <time>2013-02-04T10:57:17.001Z</time>
      </trkpt>
      <trkpt lat="47.22375" lon="-0.05833">
        <ele>39</ele>
        <time>2013-02-04T10:57:18.001Z</time>
      </trkpt>
      <trkpt lat="47.22377" lon="-0.05836">
        <ele>39</ele>
        <time>2013-02-04T10:57:21.001Z</time>
      </trkpt>
      <trkpt lat="47.22378" lon="-0.05837">
        <ele>39</ele>
        <time>2013-02-04T10:57:22.001Z</time>
      </trkpt>
      <trkpt lat="47.2238" lon="-0.05838">
        <ele>39</ele>
        <time>2013-02-04T10:57:23.001Z</time>
      </trkpt>
      <trkpt lat="47.22382" lon="-0.05842">
        <ele>39</ele>
        <time>2013-02-04T10:57:24.001Z</time>
      </trkpt>
      <trkpt lat="47.22384" lon="-0.05847">
        <ele>39</ele>
        <time>2013-02-04T10:57:26.001Z</time>
      </trkpt>
      <trkpt lat="47.22386" lon="-0.05849">
        <ele>39</ele>
        <time>2013-02-04T10:57:27.001Z</time>
      </trkpt>
      <trkpt lat="47.22389" lon="-0.05853">
        <ele>39</ele>
        <time>2013-02-04T10:57:31.001Z</time>
      </trkpt>
      <trkpt lat="47.2239" lon="-0.05854">
        <ele>39</ele>
        <time>2013-02-04T10:57:32.001Z</time>
      </trkpt>
      <trkpt lat="47.22393" lon="-0.05858">
        <ele>39</ele>
        <time>2013-02-04T10:57:35.001Z</time>
      </trkpt>
      <trkpt lat="47.22394" lon="-0.05859">
        <ele>39</ele>
        <time>2013-02-04T10:57:36.001Z</time>
      </trkpt>
      <trkpt lat="47.22397" lon="-0.05862">
        <ele>39</ele>
        <time>2013-02-04T10:57:40.001Z</time>
      </trkpt>
      <trkpt lat="47.22398" lon="-0.05863">
        <ele>39</ele>
        <time>2013-02-04T10:57:41.001Z</time>
      </trkpt>
      <trkpt lat="47.22401" lon="-0.05867">
        <ele>39</ele>
        <time>2013-02-04T10:57:46.001Z</time>
      </trkpt>
      <trkpt lat="47.22401" lon="-0.05868">
        <ele>39</ele>
        <time>2013-02-04T10:57:47.001Z</time>
      </trkpt>
      <trkpt lat="47.22404" lon="-0.05872">
        <ele>39</ele>
        <time>2013-02-04T10:57:50.001Z</time>
      </trkpt>
      <trkpt lat="47.22405" lon="-0.05874">
        <ele>39</ele>
        <time>2013-02-04T10:57:51.001Z</time>
      </trkpt>
      <trkpt lat="47.22408" lon="-0.05877">
        <ele>38</ele>
        <time>2013-02-04T10:57:54.001Z</time>
      </trkpt>
      <trkpt lat="47.2241" lon="-0.05878">
        <ele>38</ele>
        <time>2013-02-04T10:57:55.001Z</time>
      </trkpt>
      <trkpt lat="47.22413" lon="-0.0588">
        <ele>38</ele>
        <time>2013-02-04T10:57:58.001Z</time>
      </trkpt>
      <trkpt lat="47.22414" lon="-0.05881">
        <ele>38</ele>
        <time>2013-02-04T10:57:59.001Z</time>
      </trkpt>
      <trkpt lat="47.22416" lon="-0.05886">
        <ele>38</ele>
        <time>2013-02-04T10:58:02.001Z</time>
      </trkpt>
      <trkpt lat="47.22416" lon="-0.05887">
        <ele>38</ele>
        <time>2013-02-04T10:58:03.001Z</time>
      </trkpt>
      <trkpt lat="47.22417" lon="-0.05891">
        <ele>38</ele>
        <time>2013-02-04T10:58:05.001Z</time>
      </trkpt>
      <trkpt lat="47.22417" lon="-0.05893">
        <ele>38</ele>
        <time>2013-02-04T10:58:06.001Z</time>
      </trkpt>
      <trkpt lat="47.22418" lon="-0.05899">
        <ele>38</ele>
        <time>2013-02-04T10:58:08.001Z</time>
      </trkpt>
      <trkpt lat="47.22418" lon="-0.05901">
        <ele>38</ele>
        <time>2013-02-04T10:58:09.001Z</time>
      </trkpt>
      <trkpt lat="47.22416" lon="-0.05906">
        <ele>38</ele>
        <time>2013-02-04T10:58:12.001Z</time>
      </trkpt>
      <trkpt lat="47.22415" lon="-0.05907">
        <ele>38</ele>
        <time>2013-02-04T10:58:13.001Z</time>
      </trkpt>
      <trkpt lat="47.22413" lon="-0.05912">
        <ele>38</ele>
        <time>2013-02-04T10:58:16.001Z</time>
      </trkpt>
      <trkpt lat="47.22412" lon="-0.05914">
        <ele>38</ele>
        <time>2013-02-04T10:58:17.001Z</time>
      </trkpt>
      <trkpt lat="47.22411" lon="-0.05918">
        <ele>38</ele>
        <time>2013-02-04T10:58:19.001Z</time>
      </trkpt>
      <trkpt lat="47.2241" lon="-0.0592">
        <ele>38</ele>
        <time>2013-02-04T10:58:20.001Z</time>
      </trkpt>
      <trkpt lat="47.22408" lon="-0.05927">
        <ele>38</ele>
        <time>2013-02-04T10:58:23.001Z</time>
      </trkpt>
      <trkpt lat="47.22408" lon="-0.05928">
        <ele>38</ele>
        <time>2013-02-04T10:58:24.001Z</time>
      </trkpt>
      <trkpt lat="47.22407" lon="-0.05934">
        <ele>38</ele>
        <time>2013-02-04T10:58:27.001Z</time>
      </trkpt>
      <trkpt lat="47.22406" lon="-0.05935">
        <ele>38</ele>
        <time>2013-02-04T10:58:28.001Z</time>
      </trkpt>
      <trkpt lat="47.22404" lon="-0.05941">
        <ele>38</ele>
        <time>2013-02-04T10:58:31.001Z</time>
      </trkpt>
      <trkpt lat="47.22403" lon="-0.05941">
        <ele>38</ele>
        <time>2013-02-04T10:58:32.001Z</time>
      </trkpt>
      <trkpt lat="47.22401" lon="-0.05947">
        <ele>38</ele>
        <time>2013-02-04T10:58:37.001Z</time>
      </trkpt>
      <trkpt lat="47.224" lon="-0.05948">
        <ele>38</ele>
        <time>2013-02-04T10:58:38.001Z</time>
      </trkpt>
      <trkpt lat="47.22398" lon="-0.05951">
        <ele>38</ele>
        <time>2013-02-04T10:58:40.001Z</time>
      </trkpt>
      <trkpt lat="47.22397" lon="-0.05953">
        <ele>38</ele>
        <time>2013-02-04T10:58:41.001Z</time>
      </trkpt>
      <trkpt lat="47.22395" lon="-0.05957">
        <ele>38</ele>
        <time>2013-02-04T10:58:44.001Z</time>
      </trkpt>
      <trkpt lat="47.22394" lon="-0.05958">
        <ele>38</ele>
        <time>2013-02-04T10:58:45.001Z</time>
      </trkpt>
      <trkpt lat="47.22391" lon="-0.05962">
        <ele>38</ele>
        <time>2013-02-04T10:58:48.001Z</time>
      </trkpt>
      <trkpt lat="47.2239" lon="-0.05964">
        <ele>38</ele>
        <time>2013-02-04T10:58:49.001Z</time>
      </trkpt>
      <trkpt lat="47.22389" lon="-0.0597">
        <ele>38</ele>
        <time>2013-02-04T10:58:53.001Z</time>
      </trkpt>
      <trkpt lat="47.22388" lon="-0.05971">
        <ele>38</ele>
        <time>2013-02-04T10:58:54.001Z</time>
      </trkpt>
      <trkpt lat="47.22386" lon="-0.05975">
        <ele>38</ele>
        <time>2013-02-04T10:58:57.001Z</time>
      </trkpt>
      <trkpt lat="47.22385" lon="-0.05977">
        <ele>38</ele>
        <time>2013-02-04T10:58:58.001Z</time>
      </trkpt>
      <trkpt lat="47.22383" lon="-0.05983">
        <ele>38</ele>
        <time>2013-02-04T10:59:03.001Z</time>
      </trkpt>
      <trkpt lat="47.22382" lon="-0.05985">
        <ele>38</ele>
        <time>2013-02-04T10:59:04.001Z</time>
      </trkpt>
      <trkpt lat="47.2238" lon="-0.05989">
        <ele>38</ele>
        <time>2013-02-04T10:59:07.001Z</time>
      </trkpt>
      <trkpt lat="47.22379" lon="-0.0599">
        <ele>38</ele>
        <time>2013-02-04T10:59:08.001Z</time>
      </trkpt>
      <trkpt lat="47.22376" lon="-0.05992">
        <ele>38</ele>
        <time>2013-02-04T10:59:12.001Z</time>
      </trkpt>
      <trkpt lat="47.22375" lon="-0.05992">
        <ele>38</ele>
        <time>2013-02-04T10:59:13.001Z</time>
      </trkpt>
      <trkpt lat="47.2237" lon="-0.05991">
        <ele>38</ele>
        <time>2013-02-04T10:59:19.001Z</time>
      </trkpt>
      <trkpt lat="47.22369" lon="-0.05993">
        <ele>38</ele>
        <time>2013-02-04T10:59:20.001Z</time>
      </trkpt>
      <trkpt lat="47.22367" lon="-0.05996">
        <ele>38</ele>
        <time>2013-02-04T10:59:21.001Z</time>
      </trkpt>
      <trkpt lat="47.22365" lon="-0.05998">
        <ele>38</ele>
        <time>2013-02-04T10:59:22.001Z</time>
      </trkpt>
      <trkpt lat="47.22363" lon="-0.06003">
        <ele>38</ele>
        <time>2013-02-04T10:59:25.001Z</time>
      </trkpt>
      <trkpt lat="47.22362" lon="-0.06004">
        <ele>38</ele>
        <time>2013-02-04T10:59:26.001Z</time>
      </trkpt>
      <trkpt lat="47.22361" lon="-0.0601">
        <ele>38</ele>
        <time>2013-02-04T10:59:30.001Z</time>
      </trkpt>
      <trkpt lat="47.2236" lon="-0.06011">
        <ele>38</ele>
        <time>2013-02-04T10:59:31.001Z</time>
      </trkpt>
      <trkpt lat="47.22359" lon="-0.06015">
        <ele>38</ele>
        <time>2013-02-04T10:59:34.001Z</time>
      </trkpt>
      <trkpt lat="47.22358" lon="-0.06017">
        <ele>38</ele>
        <time>2013-02-04T10:59:35.001Z</time>
      </trkpt>
      <trkpt lat="47.22357" lon="-0.06022">
        <ele>38</ele>
        <time>2013-02-04T10:59:38.001Z</time>
      </trkpt>
      <trkpt lat="47.22357" lon="-0.06024">
        <ele>38</ele>
        <time>2013-02-04T10:59:39.001Z</time>
      </trkpt>
      <trkpt lat="47.22354" lon="-0.06029">
        <ele>38</ele>
        <time>2013-02-04T10:59:43.001Z</time>
      </trkpt>
      <trkpt lat="47.22354" lon="-0.06031">
        <ele>38</ele>
        <time>2013-02-04T10:59:44.001Z</time>
      </trkpt>
      <trkpt lat="47.22352" lon="-0.06036">
        <ele>38</ele>
        <time>2013-02-04T10:59:48.001Z</time>
      </trkpt>
      <trkpt lat="47.22351" lon="-0.06037">
        <ele>38</ele>
        <time>2013-02-04T10:59:49.001Z</time>
      </trkpt>
      <trkpt lat="47.2235" lon="-0.06042">
        <ele>38</ele>
        <time>2013-02-04T10:59:53.001Z</time>
      </trkpt>
      <trkpt lat="47.2235" lon="-0.06044">
        <ele>38</ele>
        <time>2013-02-04T10:59:54.001Z</time>
      </trkpt>
      <trkpt lat="47.22348" lon="-0.06048">
        <ele>38</ele>
        <time>2013-02-04T10:59:56.001Z</time>
      </trkpt>
      <trkpt lat="47.22347" lon="-0.06049">
        <ele>38</ele>
        <time>2013-02-04T10:59:57.001Z</time>
      </trkpt>
      <trkpt lat="47.22346" lon="-0.06054">
        <ele>38</ele>
        <time>2013-02-04T10:59:59.001Z</time>
      </trkpt>
      <trkpt lat="47.22346" lon="-0.06056">
        <ele>38</ele>
        <time>2013-02-04T11:00:00.001Z</time>
      </trkpt>
      <trkpt lat="47.22343" lon="-0.0606">
        <ele>38</ele>
        <time>2013-02-04T11:00:07.001Z</time>
      </trkpt>
      <trkpt lat="47.22342" lon="-0.0606">
        <ele>37</ele>
        <time>2013-02-04T11:00:08.001Z</time>
      </trkpt>
      <trkpt lat="47.2234" lon="-0.06065">
        <ele>37</ele>
        <time>2013-02-04T11:00:13.001Z</time>
      </trkpt>
      <trkpt lat="47.2234" lon="-0.06067">
        <ele>37</ele>
        <time>2013-02-04T11:00:14.001Z</time>
      </trkpt>
      <trkpt lat="47.22338" lon="-0.06072">
        <ele>37</ele>
        <time>2013-02-04T11:00:16.001Z</time>
      </trkpt>
      <trkpt lat="47.22337" lon="-0.06074">
        <ele>37</ele>
        <time>2013-02-04T11:00:17.001Z</time>
      </trkpt>
      <trkpt lat="47.22335" lon="-0.0608">
        <ele>37</ele>
        <time>2013-02-04T11:00:20.001Z</time>
      </trkpt>
      <trkpt lat="47.22334" lon="-0.06081">
        <ele>37</ele>
        <time>2013-02-04T11:00:21.001Z</time>
      </trkpt>
      <trkpt lat="47.22333" lon="-0.06086">
        <ele>37</ele>
        <time>2013-02-04T11:00:24.001Z</time>
      </trkpt>
      <trkpt lat="47.22332" lon="-0.06088">
        <ele>37</ele>
        <time>2013-02-04T11:00:25.001Z</time>
      </trkpt>
      <trkpt lat="47.2233" lon="-0.06092">
        <ele>37</ele>
        <time>2013-02-04T11:00:26.001Z</time>
      </trkpt>
      <trkpt lat="47.22329" lon="-0.06094">
        <ele>37</ele>
        <time>2013-02-04T11:00:27.001Z</time>
      </trkpt>
      <trkpt lat="47.22328" lon="-0.06098">
        <ele>37</ele>
        <time>2013-02-04T11:00:31.001Z</time>
      </trkpt>
      <trkpt lat="47.22327" lon="-0.061">
        <ele>37</ele>
        <time>2013-02-04T11:00:32.001Z</time>
      </trkpt>
      <trkpt lat="47.22325" lon="-0.06105">
        <ele>37</ele>
        <time>2013-02-04T11:00:37.001Z</time>
      </trkpt>
      <trkpt lat="47.22325" lon="-0.06107">
        <ele>37</ele>
        <time>2013-02-04T11:00:38.001Z</time>
      </trkpt>
      <trkpt lat="47.22321" lon="-0.06111">
        <ele>37</ele>
        <time>2013-02-04T11:00:41.001Z</time>
      </trkpt>
      <trkpt lat="47.22321" lon="-0.06112">
        <ele>37</ele>
        <time>2013-02-04T11:00:42.001Z</time>
      </trkpt>
      <trkpt lat="47.22321" lon="-0.06117">
        <ele>37</ele>
        <time>2013-02-04T11:00:45.001Z</time>
      </trkpt>
      <trkpt lat="47.2232" lon="-0.06121">
        <ele>37</ele>
        <time>2013-02-04T11:00:46.001Z</time>
      </trkpt>
      <trkpt lat="47.2232" lon="-0.06127">
        <ele>37</ele>
        <time>2013-02-04T11:00:48.001Z</time>
      </trkpt>
      <trkpt lat="47.2232" lon="-0.0613">
        <ele>37</ele>
        <time>2013-02-04T11:00:49.001Z</time>
      </trkpt>
      <trkpt lat="47.2232" lon="-0.06136">
        <ele>37</ele>
        <time>2013-02-04T11:00:53.001Z</time>
      </trkpt>
      <trkpt lat="47.2232" lon="-0.06139">
        <ele>37</ele>
        <time>2013-02-04T11:00:54.001Z</time>
      </trkpt>
      <trkpt lat="47.2232" lon="-0.06145">
        <ele>37</ele>
        <time>2013-02-04T11:00:57.001Z</time>
      </trkpt>
      <trkpt lat="47.22321" lon="-0.06146">
        <ele>37</ele>
        <time>2013-02-04T11:00:58.001Z</time>
      </trkpt>
      <trkpt lat="47.22321" lon="-0.0615">
        <ele>37</ele>
        <time>2013-02-04T11:01:01.001Z</time>
      </trkpt>
      <trkpt lat="47.2232" lon="-0.06153">
        <ele>37</ele>
        <time>2013-02-04T11:01:02.001Z</time>
      </trkpt>
      <trkpt lat="47.22318" lon="-0.06158">
        <ele>37</ele>
        <time>2013-02-04T11:01:04.001Z</time>
      </trkpt>
      <trkpt lat="47.22316" lon="-0.06161">
        <ele>37</ele>
        <time>2013-02-04T11:01:05.001Z</time>
      </trkpt>
      <trkpt lat="47.22313" lon="-0.06165">
        <ele>37</ele>
        <time>2013-02-04T11:01:07.001Z</time>
      </trkpt>
      <trkpt lat="47.22313" lon="-0.06166">
        <ele>37</ele>
        <time>2013-02-04T11:01:08.001Z</time>
      </trkpt>
      <trkpt lat="47.22311" lon="-0.06172">
        <ele>36</ele>
        <time>2013-02-04T11:01:11.001Z</time>
      </trkpt>
      <trkpt lat="47.22311" lon="-0.06174">
        <ele>36</ele>
        <time>2013-02-04T11:01:12.001Z</time>
      </trkpt>
      <trkpt lat="47.22309" lon="-0.06178">
        <ele>36</ele>
        <time>2013-02-04T11:01:15.001Z</time>
      </trkpt>
      <trkpt lat="47.22309" lon="-0.0618">
        <ele>36</ele>
        <time>2013-02-04T11:01:16.001Z</time>
      </trkpt>
      <trkpt lat="47.2231" lon="-0.06185">
        <ele>36</ele>
        <time>2013-02-04T11:01:23.001Z</time>
      </trkpt>
      <trkpt lat="47.2231" lon="-0.06186">
        <ele>36</ele>
        <time>2013-02-04T11:01:24.001Z</time>
      </trkpt>
      <trkpt lat="47.22309" lon="-0.06192">
        <ele>36</ele>
        <time>2013-02-04T11:02:43.001Z</time>
      </trkpt>
      <trkpt lat="47.22307" lon="-0.06195">
        <ele>36</ele>
        <time>2013-02-04T11:02:44.001Z</time>
      </trkpt>
      <trkpt lat="47.22304" lon="-0.06198">
        <ele>36</ele>
        <time>2013-02-04T11:02:46.001Z</time>
      </trkpt>
      <trkpt lat="47.22303" lon="-0.062">
        <ele>36</ele>
        <time>2013-02-04T11:02:47.001Z</time>
      </trkpt>
      <trkpt lat="47.22301" lon="-0.06204">
        <ele>36</ele>
        <time>2013-02-04T11:02:50.001Z</time>
      </trkpt>
      <trkpt lat="47.223" lon="-0.06205">
        <ele>36</ele>
        <time>2013-02-04T11:02:51.001Z</time>
      </trkpt>
      <trkpt lat="47.22296" lon="-0.06209">
        <ele>36</ele>
        <time>2013-02-04T11:02:56.001Z</time>
      </trkpt>
      <trkpt lat="47.22296" lon="-0.0621">
        <ele>36</ele>
        <time>2013-02-04T11:02:57.001Z</time>
      </trkpt>
      <trkpt lat="47.22295" lon="-0.06204">
        <ele>36</ele>
        <time>2013-02-04T11:03:17.001Z</time>
      </trkpt>
      <trkpt lat="47.22294" lon="-0.06202">
        <ele>36</ele>
        <time>2013-02-04T11:03:18.001Z</time>
      </trkpt>
      <trkpt lat="47.22298" lon="-0.06201">
        <ele>36</ele>
        <time>2013-02-04T11:03:31.001Z</time>
      </trkpt>
      <trkpt lat="47.22299" lon="-0.06201">
        <ele>36</ele>
        <time>2013-02-04T11:03:32.001Z</time>
      </trkpt>
      <trkpt lat="47.22303" lon="-0.06203">
        <ele>36</ele>
        <time>2013-02-04T11:03:39.001Z</time>
      </trkpt>
      <trkpt lat="47.22304" lon="-0.06204">
        <ele>36</ele>
        <time>2013-02-04T11:03:40.001Z</time>
      </trkpt>
      <trkpt lat="47.223" lon="-0.062">
        <ele>36</ele>
        <time>2013-02-04T11:04:04.001Z</time>
      </trkpt>
      <trkpt lat="47.223" lon="-0.062">
        <ele>36</ele>
        <time>2013-02-04T11:04:05.001Z</time>
      </trkpt>
      <trkpt lat="47.22295" lon="-0.06199">
        <ele>36</ele>
        <time>2013-02-04T11:04:10.001Z</time>
      </trkpt>
      <trkpt lat="47.22293" lon="-0.06199">
        <ele>36</ele>
        <time>2013-02-04T11:04:11.001Z</time>
      </trkpt>
      <trkpt lat="47.22289" lon="-0.06199">
        <ele>36</ele>
        <time>2013-02-04T11:04:14.001Z</time>
      </trkpt>
      <trkpt lat="47.22288" lon="-0.062">
        <ele>36</ele>
        <time>2013-02-04T11:04:15.001Z</time>
      </trkpt>
      <trkpt lat="47.22285" lon="-0.06202">
        <ele>36</ele>
        <time>2013-02-04T11:04:20.001Z</time>
      </trkpt>
      <trkpt lat="47.22283" lon="-0.06203">
        <ele>36</ele>
        <time>2013-02-04T11:04:21.001Z</time>
      </trkpt>
      <trkpt lat="47.22281" lon="-0.06206">
        <ele>36</ele>
        <time>2013-02-04T11:04:23.001Z</time>
      </trkpt>
      <trkpt lat="47.2228" lon="-0.06208">
        <ele>36</ele>
        <time>2013-02-04T11:04:24.001Z</time>
      </trkpt>
      <trkpt lat="47.22277" lon="-0.06211">
        <ele>36</ele>
        <time>2013-02-04T11:04:29.001Z</time>
      </trkpt>
      <trkpt lat="47.22276" lon="-0.06212">
        <ele>36</ele>
        <time>2013-02-04T11:04:30.001Z</time>
      </trkpt>
      <trkpt lat="47.22272" lon="-0.06214">
        <ele>36</ele>
        <time>2013-02-04T11:04:34.001Z</time>
      </trkpt>
      <trkpt lat="47.22272" lon="-0.06215">
        <ele>36</ele>
        <time>2013-02-04T11:04:35.001Z</time>
      </trkpt>
      <trkpt lat="47.22269" lon="-0.06218">
        <ele>36</ele>
        <time>2013-02-04T11:04:37.001Z</time>
      </trkpt>
      <trkpt lat="47.22267" lon="-0.06219">
        <ele>36</ele>
        <time>2013-02-04T11:04:38.001Z</time>
      </trkpt>
      <trkpt lat="47.22265" lon="-0.06224">
        <ele>36</ele>
        <time>2013-02-04T11:04:42.001Z</time>
      </trkpt>
      <trkpt lat="47.22264" lon="-0.06226">
        <ele>37</ele>
        <time>2013-02-04T11:04:43.001Z</time>
      </trkpt>
      <trkpt lat="47.22261" lon="-0.06231">
        <ele>37</ele>
        <time>2013-02-04T11:04:47.001Z</time>
      </trkpt>
      <trkpt lat="47.2226" lon="-0.06232">
        <ele>37</ele>
        <time>2013-02-04T11:04:48.001Z</time>
      </trkpt>
      <trkpt lat="47.22257" lon="-0.06236">
        <ele>37</ele>
        <time>2013-02-04T11:04:50.001Z</time>
      </trkpt>
      <trkpt lat="47.22256" lon="-0.06238">
        <ele>37</ele>
        <time>2013-02-04T11:04:51.001Z</time>
      </trkpt>
      <trkpt lat="47.22253" lon="-0.06242">
        <ele>37</ele>
        <time>2013-02-04T11:04:55.001Z</time>
      </trkpt>
      <trkpt lat="47.22252" lon="-0.06244">
        <ele>37</ele>
        <time>2013-02-04T11:04:56.001Z</time>
      </trkpt>
      <trkpt lat="47.22249" lon="-0.06247">
        <ele>37</ele>
        <time>2013-02-04T11:05:00.001Z</time>
      </trkpt>
      <trkpt lat="47.22247" lon="-0.06249">
        <ele>37</ele>
        <time>2013-02-04T11:05:01.001Z</time>
      </trkpt>
      <trkpt lat="47.22245" lon="-0.06252">
        <ele>37</ele>
        <time>2013-02-04T11:05:03.001Z</time>
      </trkpt>
      <trkpt lat="47.22244" lon="-0.06255">
        <ele>37</ele>
        <time>2013-02-04T11:05:04.001Z</time>
      </trkpt>
      <trkpt lat="47.22242" lon="-0.06261">
        <ele>37</ele>
        <time>2013-02-04T11:05:07.001Z</time>
      </trkpt>
      <trkpt lat="47.22242" lon="-0.06262">
        <ele>37</ele>
        <time>2013-02-04T11:05:08.001Z</time>
      </trkpt>
      <trkpt lat="47.2224" lon="-0.06266">
        <ele>37</ele>
        <time>2013-02-04T11:05:11.001Z</time>
      </trkpt>
      <trkpt lat="47.22239" lon="-0.06267">
        <ele>37</ele>
        <time>2013-02-04T11:05:12.001Z</time>
      </trkpt>
      <trkpt lat="47.22237" lon="-0.06272">
        <ele>37</ele>
        <time>2013-02-04T11:05:15.001Z</time>
      </trkpt>
      <trkpt lat="47.22237" lon="-0.06273">
        <ele>37</ele>
        <time>2013-02-04T11:05:16.001Z</time>
      </trkpt>
      <trkpt lat="47.22233" lon="-0.06275">
        <ele>37</ele>
        <time>2013-02-04T11:05:21.001Z</time>
      </trkpt>
      <trkpt lat="47.22232" lon="-0.06276">
        <ele>37</ele>
        <time>2013-02-04T11:05:22.001Z</time>
      </trkpt>
      <trkpt lat="47.22229" lon="-0.0628">
        <ele>37</ele>
        <time>2013-02-04T11:05:27.001Z</time>
      </trkpt>
      <trkpt lat="47.22228" lon="-0.06281">
        <ele>37</ele>
        <time>2013-02-04T11:05:28.001Z</time>
      </trkpt>
      <trkpt lat="47.22226" lon="-0.06286">
        <ele>37</ele>
        <time>2013-02-04T11:05:33.001Z</time>
      </trkpt>
      <trkpt lat="47.22224" lon="-0.06288">
        <ele>37</ele>
        <time>2013-02-04T11:05:34.001Z</time>
      </trkpt>
      <trkpt lat="47.22222" lon="-0.06292">
        <ele>37</ele>
        <time>2013-02-04T11:05:37.001Z</time>
      </trkpt>
      <trkpt lat="47.22222" lon="-0.06294">
        <ele>37</ele>
        <time>2013-02-04T11:05:38.001Z</time>
      </trkpt>
      <trkpt lat="47.2222" lon="-0.06299">
        <ele>37</ele>
        <time>2013-02-04T11:05:44.001Z</time>
      </trkpt>
      <trkpt lat="47.2222" lon="-0.063">
        <ele>37</ele>
        <time>2013-02-04T11:05:45.001Z</time>
      </trkpt>
      <trkpt lat="47.22216" lon="-0.06303">
        <ele>37</ele>
        <time>2013-02-04T11:05:48.001Z</time>
      </trkpt>
      <trkpt lat="47.22216" lon="-0.06304">
        <ele>37</ele>
        <time>2013-02-04T11:05:49.001Z</time>
      </trkpt>
      <trkpt lat="47.22213" lon="-0.06308">
        <ele>37</ele>
        <time>2013-02-04T11:05:53.001Z</time>
      </trkpt>
      <trkpt lat="47.22212" lon="-0.0631">
        <ele>37</ele>
        <time>2013-02-04T11:05:54.001Z</time>
      </trkpt>
      <trkpt lat="47.2221" lon="-0.06315">
        <ele>37</ele>
        <time>2013-02-04T11:05:57.001Z</time>
      </trkpt>
      <trkpt lat="47.22209" lon="-0.06317">
        <ele>37</ele>
        <time>2013-02-04T11:05:58.001Z</time>
      </trkpt>
      <trkpt lat="47.22205" lon="-0.0632">
        <ele>37</ele>
        <time>2013-02-04T11:06:02.001Z</time>
      </trkpt>
      <trkpt lat="47.22204" lon="-0.0632">
        <ele>37</ele>
        <time>2013-02-04T11:06:03.001Z</time>
      </trkpt>
      <trkpt lat="47.22202" lon="-0.06324">
        <ele>37</ele>
        <time>2013-02-04T11:06:05.001Z</time>
      </trkpt>
      <trkpt lat="47.22201" lon="-0.06326">
        <ele>37</ele>
        <time>2013-02-04T11:06:06.001Z</time>
      </trkpt>
      <trkpt lat="47.22199" lon="-0.0633">
        <ele>37</ele>
        <time>2013-02-04T11:06:09.001Z</time>
      </trkpt>
      <trkpt lat="47.22197" lon="-0.06331">
        <ele>37</ele>
        <time>2013-02-04T11:06:10.001Z</time>
      </trkpt>
      <trkpt lat="47.22195" lon="-0.06336">
        <ele>36</ele>
        <time>2013-02-04T11:06:14.001Z</time>
      </trkpt>
      <trkpt lat="47.22194" lon="-0.06339">
        <ele>36</ele>
        <time>2013-02-04T11:06:15.001Z</time>
      </trkpt>
      <trkpt lat="47.22192" lon="-0.06344">
        <ele>36</ele>
        <time>2013-02-04T11:06:23.001Z</time>
      </trkpt>
      <trkpt lat="47.22192" lon="-0.06345">
        <ele>36</ele>
        <time>2013-02-04T11:06:24.001Z</time>
      </trkpt>
      <trkpt lat="47.22189" lon="-0.0635">
        <ele>36</ele>
        <time>2013-02-04T11:06:26.001Z</time>
      </trkpt>
      <trkpt lat="47.22188" lon="-0.06351">
        <ele>36</ele>
        <time>2013-02-04T11:06:27.001Z</time>
      </trkpt>
      <trkpt lat="47.22186" lon="-0.06355">
        <ele>36</ele>
        <time>2013-02-04T11:06:31.001Z</time>
      </trkpt>
      <trkpt lat="47.22185" lon="-0.06356">
        <ele>36</ele>
        <time>2013-02-04T11:06:32.001Z</time>
      </trkpt>
      <trkpt lat="47.22182" lon="-0.0636">
        <ele>36</ele>
        <time>2013-02-04T11:06:35.001Z</time>
      </trkpt>
      <trkpt lat="47.22181" lon="-0.06361">
        <ele>36</ele>
        <time>2013-02-04T11:06:36.001Z</time>
      </trkpt>
      <trkpt lat="47.22177" lon="-0.06365">
        <ele>36</ele>
        <time>2013-02-04T11:06:39.001Z</time>
      </trkpt>
      <trkpt lat="47.22177" lon="-0.06365">
        <ele>36</ele>
        <time>2013-02-04T11:06:40.001Z</time>
      </trkpt>
      <trkpt lat="47.22175" lon="-0.0637">
        <ele>36</ele>
        <time>2013-02-04T11:06:43.001Z</time>
      </trkpt>
      <trkpt lat="47.22174" lon="-0.06371">
        <ele>36</ele>
        <time>2013-02-04T11:06:44.001Z</time>
      </trkpt>
      <trkpt lat="47.22174" lon="-0.06377">
        <ele>36</ele>
        <time>2013-02-04T11:06:47.001Z</time>
      </trkpt>
      <trkpt lat="47.22174" lon="-0.0638">
        <ele>36</ele>
        <time>2013-02-04T11:06:48.001Z</time>
      </trkpt>
      <trkpt lat="47.22173" lon="-0.06386">
        <ele>35</ele>
        <time>2013-02-04T11:06:51.001Z</time>
      </trkpt>
      <trkpt lat="47.22174" lon="-0.06388">
        <ele>35</ele>
        <time>2013-02-04T11:06:52.001Z</time>
      </trkpt>
      <trkpt lat="47.22177" lon="-0.06392">
        <ele>35</ele>
        <time>2013-02-04T11:06:56.001Z</time>
      </trkpt>
      <trkpt lat="47.22178" lon="-0.06392">
        <ele>35</ele>
        <time>2013-02-04T11:06:57.001Z</time>
      </trkpt>
      <trkpt lat="47.22182" lon="-0.06393">
        <ele>35</ele>
        <time>2013-02-04T11:07:01.001Z</time>
      </trkpt>
      <trkpt lat="47.22182" lon="-0.06394">
        <ele>35</ele>
        <time>2013-02-04T11:07:02.001Z</time>
      </trkpt>
      <trkpt lat="47.22185" lon="-0.06397">
        <ele>35</ele>
        <time>2013-02-04T11:07:06.001Z</time>
      </trkpt>
      <trkpt lat="47.22186" lon="-0.06398">
        <ele>35</ele>
        <time>2013-02-04T11:07:07.001Z</time>
      </trkpt>
      <trkpt lat="47.22188" lon="-0.06403">
        <ele>35</ele>
        <time>2013-02-04T11:07:13.001Z</time>
      </trkpt>
      <trkpt lat="47.22189" lon="-0.06403">
        <ele>35</ele>
        <time>2013-02-04T11:07:14.001Z</time>
      </trkpt>
      <trkpt lat="47.22193" lon="-0.06405">
        <ele>35</ele>
        <time>2013-02-04T11:07:17.001Z</time>
      </trkpt>
      <trkpt lat="47.22195" lon="-0.06406">
        <ele>35</ele>
        <time>2013-02-04T11:07:18.001Z</time>
      </trkpt>
      <trkpt lat="47.22199" lon="-0.06408">
        <ele>35</ele>
        <time>2013-02-04T11:07:21.001Z</time>
      </trkpt>
      <trkpt lat="47.22199" lon="-0.06409">
        <ele>35</ele>
        <time>2013-02-04T11:07:22.001Z</time>
      </trkpt>
      <trkpt lat="47.22202" lon="-0.06414">
        <ele>35</ele>
        <time>2013-02-04T11:07:27.001Z</time>
      </trkpt>
      <trkpt lat="47.22202" lon="-0.06414">
        <ele>35</ele>
        <time>2013-02-04T11:07:28.001Z</time>
      </trkpt>
      <trkpt lat="47.22206" lon="-0.06417">
        <ele>34</ele>
        <time>2013-02-04T11:07:30.001Z</time>
      </trkpt>
      <trkpt lat="47.22207" lon="-0.06419">
        <ele>34</ele>
        <time>2013-02-04T11:07:31.001Z</time>
      </trkpt>
      <trkpt lat="47.22209" lon="-0.06422">
        <ele>34</ele>
        <time>2013-02-04T11:07:34.001Z</time>
      </trkpt>
      <trkpt lat="47.2221" lon="-0.06422">
        <ele>34</ele>
        <time>2013-02-04T11:07:35.001Z</time>
      </trkpt>
      <trkpt lat="47.22214" lon="-0.06426">
        <ele>34</ele>
        <time>2013-02-04T11:07:38.001Z</time>
      </trkpt>
      <trkpt lat="47.22215" lon="-0.06426">
        <ele>34</ele>
        <time>2013-02-04T11:07:39.001Z</time>
      </trkpt>
      <trkpt lat="47.22218" lon="-0.06428">
        <ele>34</ele>
        <time>2013-02-04T11:07:42.001Z</time>
      </trkpt>
      <trkpt lat="47.22219" lon="-0.06429">
        <ele>34</ele>
        <time>2013-02-04T11:07:43.001Z</time>
      </trkpt>
      <trkpt lat="47.22222" lon="-0.06433">
        <ele>34</ele>
        <time>2013-02-04T11:07:48.001Z</time>
      </trkpt>
      <trkpt lat="47.22225" lon="-0.06433">
        <ele>34</ele>
        <time>2013-02-04T11:07:49.001Z</time>
      </trkpt>
      <trkpt lat="47.22228" lon="-0.06435">
        <ele>34</ele>
        <time>2013-02-04T11:07:52.001Z</time>
      </trkpt>
      <trkpt lat="47.2223" lon="-0.06436">
        <ele>34</ele>
        <time>2013-02-04T11:07:53.001Z</time>
      </trkpt>
      <trkpt lat="47.22233" lon="-0.0644">
        <ele>34</ele>
        <time>2013-02-04T11:07:56.001Z</time>
      </trkpt>
      <trkpt lat="47.22233" lon="-0.06441">
        <ele>34</ele>
        <time>2013-02-04T11:07:57.001Z</time>
      </trkpt>
      <trkpt lat="47.22235" lon="-0.06446">
        <ele>34</ele>
        <time>2013-02-04T11:08:01.001Z</time>
      </trkpt>
      <trkpt lat="47.22237" lon="-0.06448">
        <ele>34</ele>
        <time>2013-02-04T11:08:02.001Z</time>
      </trkpt>
      <trkpt lat="47.22239" lon="-0.06451">
        <ele>34</ele>
        <time>2013-02-04T11:08:04.001Z</time>
      </trkpt>
      <trkpt lat="47.22241" lon="-0.06452">
        <ele>34</ele>
        <time>2013-02-04T11:08:05.001Z</time>
      </trkpt>
      <trkpt lat="47.22241" lon="-0.06454">
        <ele>34</ele>
        <time>2013-02-04T11:08:06.001Z</time>
      </trkpt>
      <trkpt lat="47.22241" lon="-0.0646">
        <ele>34</ele>
        <time>2013-02-04T11:08:07.001Z</time>
      </trkpt>
      <trkpt lat="47.22242" lon="-0.06465">
        <ele>34</ele>
        <time>2013-02-04T11:08:10.001Z</time>
      </trkpt>
      <trkpt lat="47.22243" lon="-0.06466">
        <ele>34</ele>
        <time>2013-02-04T11:08:11.001Z</time>
      </trkpt>
      <trkpt lat="47.22245" lon="-0.0647">
        <ele>34</ele>
        <time>2013-02-04T11:08:14.001Z</time>
      </trkpt>
      <trkpt lat="47.22246" lon="-0.06472">
        <ele>34</ele>
        <time>2013-02-04T11:08:15.001Z</time>
      </trkpt>
      <trkpt lat="47.22249" lon="-0.06476">
        <ele>34</ele>
        <time>2013-02-04T11:08:17.001Z</time>
      </trkpt>
      <trkpt lat="47.22249" lon="-0.06477">
        <ele>34</ele>
        <time>2013-02-04T11:08:18.001Z</time>
      </trkpt>
      <trkpt lat="47.2225" lon="-0.06481">
        <ele>34</ele>
        <time>2013-02-04T11:08:22.001Z</time>
      </trkpt>
      <trkpt lat="47.22249" lon="-0.06485">
        <ele>34</ele>
        <time>2013-02-04T11:08:23.001Z</time>
      </trkpt>
      <trkpt lat="47.22248" lon="-0.0649">
        <ele>34</ele>
        <time>2013-02-04T11:08:26.001Z</time>
      </trkpt>
      <trkpt lat="47.22248" lon="-0.06493">
        <ele>34</ele>
        <time>2013-02-04T11:08:27.001Z</time>
      </trkpt>
      <trkpt lat="47.22249" lon="-0.06496">
        <ele>34</ele>
        <time>2013-02-04T11:08:31.001Z</time>
      </trkpt>
      <trkpt lat="47.22251" lon="-0.06499">
        <ele>34</ele>
        <time>2013-02-04T11:08:32.001Z</time>
      </trkpt>
      <trkpt lat="47.22252" lon="-0.06504">
        <ele>34</ele>
        <time>2013-02-04T11:08:34.001Z</time>
      </trkpt>
      <trkpt lat="47.22252" lon="-0.06506">
        <ele>34</ele>
        <time>2013-02-04T11:08:35.001Z</time>
      </trkpt>
      <trkpt lat="47.22253" lon="-0.06512">
        <ele>35</ele>
        <time>2013-02-04T11:08:38.001Z</time>
      </trkpt>
      <trkpt lat="47.22254" lon="-0.06514">
        <ele>35</ele>
        <time>2013-02-04T11:08:39.001Z</time>
      </trkpt>
      <trkpt lat="47.22257" lon="-0.06517">
        <ele>35</ele>
        <time>2013-02-04T11:08:44.001Z</time>
      </trkpt>
      <trkpt lat="47.22258" lon="-0.0652">
        <ele>35</ele>
        <time>2013-02-04T11:08:45.001Z</time>
      </trkpt>
      <trkpt lat="47.22259" lon="-0.06526">
        <ele>35</ele>
        <time>2013-02-04T11:08:49.001Z</time>
      </trkpt>
      <trkpt lat="47.2226" lon="-0.06528">
        <ele>35</ele>
        <time>2013-02-04T11:08:50.001Z</time>
      </trkpt>
      <trkpt lat="47.22261" lon="-0.06533">
        <ele>35</ele>
        <time>2013-02-04T11:08:53.001Z</time>
      </trkpt>
      <trkpt lat="47.22261" lon="-0.06535">
        <ele>35</ele>
        <time>2013-02-04T11:08:54.001Z</time>
      </trkpt>
      <trkpt lat="47.22262" lon="-0.06539">
        <ele>35</ele>
        <time>2013-02-04T11:08:56.001Z</time>
      </trkpt>
      <trkpt lat="47.22263" lon="-0.06542">
        <ele>36</ele>
        <time>2013-02-04T11:08:57.001Z</time>
      </trkpt>
      <trkpt lat="47.22266" lon="-0.06546">
        <ele>36</ele>
        <time>2013-02-04T11:09:01.001Z</time>
      </trkpt>
      <trkpt lat="47.22266" lon="-0.06546">
        <ele>36</ele>
        <time>2013-02-04T11:09:02.001Z</time>
      </trkpt>
      <trkpt lat="47.22268" lon="-0.06551">
        <ele>36</ele>
        <time>2013-02-04T11:09:05.001Z</time>
      </trkpt>
      <trkpt lat="47.22269" lon="-0.06553">
        <ele>36</ele>
        <time>2013-02-04T11:09:06.001Z</time>
      </trkpt>
      <trkpt lat="47.22271" lon="-0.06558">
        <ele>36</ele>
        <time>2013-02-04T11:09:11.001Z</time>
      </trkpt>
      <trkpt lat="47.22272" lon="-0.0656">
        <ele>36</ele>
        <time>2013-02-04T11:09:12.001Z</time>
      </trkpt>
      <trkpt lat="47.22275" lon="-0.06565">
        <ele>36</ele>
        <time>2013-02-04T11:09:15.001Z</time>
      </trkpt>
      <trkpt lat="47.22275" lon="-0.06566">
        <ele>36</ele>
        <time>2013-02-04T11:09:16.001Z</time>
      </trkpt>
      <trkpt lat="47.22277" lon="-0.0657">
        <ele>36</ele>
        <time>2013-02-04T11:09:18.001Z</time>
      </trkpt>
      <trkpt lat="47.22278" lon="-0.06572">
        <ele>36</ele>
        <time>2013-02-04T11:09:19.001Z</time>
      </trkpt>
      <trkpt lat="47.22279" lon="-0.06577">
        <ele>36</ele>
        <time>2013-02-04T11:09:22.001Z</time>
      </trkpt>
      <trkpt lat="47.22279" lon="-0.06578">
        <ele>36</ele>
        <time>2013-02-04T11:09:23.001Z</time>
      </trkpt>
      <trkpt lat="47.22281" lon="-0.06583">
        <ele>37</ele>
        <time>2013-02-04T11:09:26.001Z</time>
      </trkpt>
      <trkpt lat="47.22281" lon="-0.06585">
        <ele>37</ele>
        <time>2013-02-04T11:09:27.001Z</time>
      </trkpt>
      <trkpt lat="47.22284" lon="-0.0659">
        <ele>37</ele>
        <time>2013-02-04T11:09:45.001Z</time>
      </trkpt>
      <trkpt lat="47.22284" lon="-0.0659">
        <ele>37</ele>
        <time>2013-02-04T11:09:46.001Z</time>
      </trkpt>
      <trkpt lat="47.22286" lon="-0.06595">
        <ele>37</ele>
        <time>2013-02-04T11:09:49.001Z</time>
      </trkpt>
      <trkpt lat="47.22287" lon="-0.06596">
        <ele>37</ele>
        <time>2013-02-04T11:09:50.001Z</time>
      </trkpt>
      <trkpt lat="47.22289" lon="-0.066">
        <ele>37</ele>
        <time>2013-02-04T11:09:53.001Z</time>
      </trkpt>
      <trkpt lat="47.2229" lon="-0.06601">
        <ele>37</ele>
        <time>2013-02-04T11:09:54.001Z</time>
      </trkpt>
      <trkpt lat="47.22292" lon="-0.06607">
        <ele>37</ele>
        <time>2013-02-04T11:09:58.001Z</time>
      </trkpt>
      <trkpt lat="47.22292" lon="-0.06608">
        <ele>37</ele>
        <time>2013-02-04T11:09:59.001Z</time>
      </trkpt>
      <trkpt lat="47.22294" lon="-0.06611">
        <ele>37</ele>
        <time>2013-02-04T11:10:02.001Z</time>
      </trkpt>
      <trkpt lat="47.22295" lon="-0.06614">
        <ele>37</ele>
        <time>2013-02-04T11:10:03.001Z</time>
      </trkpt>
      <trkpt lat="47.22296" lon="-0.06619">
        <ele>37</ele>
        <time>2013-02-04T11:10:07.001Z</time>
      </trkpt>
      <trkpt lat="47.22297" lon="-0.06622">
        <ele>37</ele>
        <time>2013-02-04T11:10:08.001Z</time>
      </trkpt>
      <trkpt lat="47.22299" lon="-0.06628">
        <ele>37</ele>
        <time>2013-02-04T11:10:12.001Z</time>
      </trkpt>
      <trkpt lat="47.22299" lon="-0.0663">
        <ele>37</ele>
        <time>2013-02-04T11:10:13.001Z</time>
      </trkpt>
      <trkpt lat="47.22299" lon="-0.06636">
        <ele>37</ele>
        <time>2013-02-04T11:10:17.001Z</time>
      </trkpt>
      <trkpt lat="47.223" lon="-0.06637">
        <ele>37</ele>
        <time>2013-02-04T11:10:18.001Z</time>
      </trkpt>
      <trkpt lat="47.22302" lon="-0.06641">
        <ele>37</ele>
        <time>2013-02-04T11:10:23.001Z</time>
      </trkpt>
      <trkpt lat="47.22303" lon="-0.06643">
        <ele>37</ele>
        <time>2013-02-04T11:10:24.001Z</time>
      </trkpt>
      <trkpt lat="47.22303" lon="-0.06649">
        <ele>37</ele>
        <time>2013-02-04T11:10:30.001Z</time>
      </trkpt>
    </trkseg>
  </trk>
</gpx>